<?xml version="1.0" encoding="UTF-8" standalone="no" ?>
<gpx xmlns="http://www.topografix.com/GPX/1/1" xmlns:xsi="http://www.w3.org/2001/XMLSchema-instance" xsi:schemaLocation="http://www.topografix.com/GPX/1/1 http://www.topografix.com/GPX/1/1/gpx.xsd" version="1.1" creator="VisuGPX - https://www.visugpx.com">
  <metadata>
    <name>dorgues,saint marien</name>
    <desc><![CDATA[depart de dorgues direction les boutiers,la ramade,fontaine st marien,chapelle ste radegonde,chapelle st marien,entraigues]]></desc>
  </metadata>
  <trk>
    <name><![CDATA[dorgues,saint marien_1]]></name>
    <trkseg>
      <trkpt lat="46.21016" lon="2.5075">
        <ele>373</ele>
        <time>2017-04-12T12:18:50Z</time>
      </trkpt>
      <trkpt lat="46.21031" lon="2.50784">
        <ele>369</ele>
        <time>2017-04-12T12:19:19Z</time>
      </trkpt>
      <trkpt lat="46.21032" lon="2.50788">
        <ele>369</ele>
        <time>2017-04-12T12:19:22Z</time>
      </trkpt>
      <trkpt lat="46.21032" lon="2.50793">
        <ele>368</ele>
        <time>2017-04-12T12:19:25Z</time>
      </trkpt>
      <trkpt lat="46.21033" lon="2.50798">
        <ele>368</ele>
        <time>2017-04-12T12:19:28Z</time>
      </trkpt>
      <trkpt lat="46.21034" lon="2.50803">
        <ele>367</ele>
        <time>2017-04-12T12:19:31Z</time>
      </trkpt>
      <trkpt lat="46.21034" lon="2.50809">
        <ele>367</ele>
        <time>2017-04-12T12:19:34Z</time>
      </trkpt>
      <trkpt lat="46.21035" lon="2.50815">
        <ele>367</ele>
        <time>2017-04-12T12:19:37Z</time>
      </trkpt>
      <trkpt lat="46.21035" lon="2.5082">
        <ele>367</ele>
        <time>2017-04-12T12:19:40Z</time>
      </trkpt>
      <trkpt lat="46.21037" lon="2.50826">
        <ele>367</ele>
        <time>2017-04-12T12:19:43Z</time>
      </trkpt>
      <trkpt lat="46.21037" lon="2.50832">
        <ele>367</ele>
        <time>2017-04-12T12:19:46Z</time>
      </trkpt>
      <trkpt lat="46.21038" lon="2.50837">
        <ele>366</ele>
        <time>2017-04-12T12:19:49Z</time>
      </trkpt>
      <trkpt lat="46.21039" lon="2.50842">
        <ele>366</ele>
        <time>2017-04-12T12:19:52Z</time>
      </trkpt>
      <trkpt lat="46.21039" lon="2.50848">
        <ele>365</ele>
        <time>2017-04-12T12:19:55Z</time>
      </trkpt>
      <trkpt lat="46.2104" lon="2.50854">
        <ele>365</ele>
        <time>2017-04-12T12:19:58Z</time>
      </trkpt>
      <trkpt lat="46.2104" lon="2.50859">
        <ele>365</ele>
        <time>2017-04-12T12:20:01Z</time>
      </trkpt>
      <trkpt lat="46.2104" lon="2.50866">
        <ele>365</ele>
        <time>2017-04-12T12:20:04Z</time>
      </trkpt>
      <trkpt lat="46.21039" lon="2.50871">
        <ele>365</ele>
        <time>2017-04-12T12:20:07Z</time>
      </trkpt>
      <trkpt lat="46.21038" lon="2.50877">
        <ele>365</ele>
        <time>2017-04-12T12:20:10Z</time>
      </trkpt>
      <trkpt lat="46.21037" lon="2.50883">
        <ele>365</ele>
        <time>2017-04-12T12:20:13Z</time>
      </trkpt>
      <trkpt lat="46.21035" lon="2.50887">
        <ele>365</ele>
        <time>2017-04-12T12:20:16Z</time>
      </trkpt>
      <trkpt lat="46.21033" lon="2.50892">
        <ele>365</ele>
        <time>2017-04-12T12:20:19Z</time>
      </trkpt>
      <trkpt lat="46.21032" lon="2.50896">
        <ele>363</ele>
        <time>2017-04-12T12:20:22Z</time>
      </trkpt>
      <trkpt lat="46.21029" lon="2.50901">
        <ele>361</ele>
        <time>2017-04-12T12:20:25Z</time>
      </trkpt>
      <trkpt lat="46.21027" lon="2.50905">
        <ele>360</ele>
        <time>2017-04-12T12:20:28Z</time>
      </trkpt>
      <trkpt lat="46.21025" lon="2.50909">
        <ele>359</ele>
        <time>2017-04-12T12:20:31Z</time>
      </trkpt>
      <trkpt lat="46.21021" lon="2.50913">
        <ele>358</ele>
        <time>2017-04-12T12:20:35Z</time>
      </trkpt>
      <trkpt lat="46.21018" lon="2.50917">
        <ele>356</ele>
        <time>2017-04-12T12:20:39Z</time>
      </trkpt>
      <trkpt lat="46.21014" lon="2.50922">
        <ele>355</ele>
        <time>2017-04-12T12:20:43Z</time>
      </trkpt>
      <trkpt lat="46.21011" lon="2.50926">
        <ele>353</ele>
        <time>2017-04-12T12:20:47Z</time>
      </trkpt>
      <trkpt lat="46.21008" lon="2.5093">
        <ele>352</ele>
        <time>2017-04-12T12:20:51Z</time>
      </trkpt>
      <trkpt lat="46.21004" lon="2.50934">
        <ele>351</ele>
        <time>2017-04-12T12:20:55Z</time>
      </trkpt>
      <trkpt lat="46.21001" lon="2.50938">
        <ele>350</ele>
        <time>2017-04-12T12:20:58Z</time>
      </trkpt>
      <trkpt lat="46.20999" lon="2.50943">
        <ele>350</ele>
        <time>2017-04-12T12:21:01Z</time>
      </trkpt>
      <trkpt lat="46.20996" lon="2.50949">
        <ele>350</ele>
        <time>2017-04-12T12:21:04Z</time>
      </trkpt>
      <trkpt lat="46.20994" lon="2.50955">
        <ele>350</ele>
        <time>2017-04-12T12:21:07Z</time>
      </trkpt>
      <trkpt lat="46.20993" lon="2.50962">
        <ele>353</ele>
        <time>2017-04-12T12:21:10Z</time>
      </trkpt>
      <trkpt lat="46.20994" lon="2.50969">
        <ele>355</ele>
        <time>2017-04-12T12:21:13Z</time>
      </trkpt>
      <trkpt lat="46.20995" lon="2.50975">
        <ele>358</ele>
        <time>2017-04-12T12:21:16Z</time>
      </trkpt>
      <trkpt lat="46.20998" lon="2.5098">
        <ele>360</ele>
        <time>2017-04-12T12:21:19Z</time>
      </trkpt>
      <trkpt lat="46.21" lon="2.50984">
        <ele>362</ele>
        <time>2017-04-12T12:21:22Z</time>
      </trkpt>
      <trkpt lat="46.21004" lon="2.50988">
        <ele>364</ele>
        <time>2017-04-12T12:21:26Z</time>
      </trkpt>
      <trkpt lat="46.21008" lon="2.50992">
        <ele>365</ele>
        <time>2017-04-12T12:21:30Z</time>
      </trkpt>
      <trkpt lat="46.21012" lon="2.50996">
        <ele>366</ele>
        <time>2017-04-12T12:21:34Z</time>
      </trkpt>
      <trkpt lat="46.21016" lon="2.51">
        <ele>367</ele>
        <time>2017-04-12T12:21:38Z</time>
      </trkpt>
      <trkpt lat="46.21019" lon="2.51004">
        <ele>368</ele>
        <time>2017-04-12T12:21:42Z</time>
      </trkpt>
      <trkpt lat="46.21023" lon="2.51009">
        <ele>369</ele>
        <time>2017-04-12T12:21:46Z</time>
      </trkpt>
      <trkpt lat="46.21025" lon="2.51014">
        <ele>369</ele>
        <time>2017-04-12T12:21:49Z</time>
      </trkpt>
      <trkpt lat="46.21026" lon="2.51019">
        <ele>370</ele>
        <time>2017-04-12T12:21:52Z</time>
      </trkpt>
      <trkpt lat="46.21028" lon="2.51023">
        <ele>370</ele>
        <time>2017-04-12T12:21:55Z</time>
      </trkpt>
      <trkpt lat="46.2103" lon="2.51027">
        <ele>370</ele>
        <time>2017-04-12T12:21:58Z</time>
      </trkpt>
      <trkpt lat="46.21031" lon="2.51032">
        <ele>370</ele>
        <time>2017-04-12T12:22:01Z</time>
      </trkpt>
      <trkpt lat="46.21033" lon="2.51037">
        <ele>370</ele>
        <time>2017-04-12T12:22:04Z</time>
      </trkpt>
      <trkpt lat="46.21035" lon="2.51042">
        <ele>370</ele>
        <time>2017-04-12T12:22:07Z</time>
      </trkpt>
      <trkpt lat="46.21036" lon="2.51046">
        <ele>370</ele>
        <time>2017-04-12T12:22:10Z</time>
      </trkpt>
      <trkpt lat="46.21038" lon="2.51051">
        <ele>370</ele>
        <time>2017-04-12T12:22:13Z</time>
      </trkpt>
      <trkpt lat="46.2104" lon="2.51056">
        <ele>371</ele>
        <time>2017-04-12T12:22:16Z</time>
      </trkpt>
      <trkpt lat="46.21042" lon="2.51062">
        <ele>371</ele>
        <time>2017-04-12T12:22:19Z</time>
      </trkpt>
      <trkpt lat="46.21043" lon="2.51067">
        <ele>371</ele>
        <time>2017-04-12T12:22:22Z</time>
      </trkpt>
      <trkpt lat="46.21045" lon="2.51072">
        <ele>371</ele>
        <time>2017-04-12T12:22:25Z</time>
      </trkpt>
      <trkpt lat="46.21047" lon="2.51077">
        <ele>371</ele>
        <time>2017-04-12T12:22:28Z</time>
      </trkpt>
      <trkpt lat="46.21048" lon="2.51083">
        <ele>371</ele>
        <time>2017-04-12T12:22:31Z</time>
      </trkpt>
      <trkpt lat="46.21049" lon="2.51088">
        <ele>371</ele>
        <time>2017-04-12T12:22:34Z</time>
      </trkpt>
      <trkpt lat="46.2105" lon="2.51094">
        <ele>371</ele>
        <time>2017-04-12T12:22:37Z</time>
      </trkpt>
      <trkpt lat="46.21051" lon="2.51099">
        <ele>371</ele>
        <time>2017-04-12T12:22:40Z</time>
      </trkpt>
      <trkpt lat="46.21053" lon="2.51104">
        <ele>371</ele>
        <time>2017-04-12T12:22:43Z</time>
      </trkpt>
      <trkpt lat="46.21054" lon="2.5111">
        <ele>371</ele>
        <time>2017-04-12T12:22:46Z</time>
      </trkpt>
      <trkpt lat="46.21055" lon="2.51115">
        <ele>371</ele>
        <time>2017-04-12T12:22:49Z</time>
      </trkpt>
      <trkpt lat="46.21056" lon="2.51121">
        <ele>371</ele>
        <time>2017-04-12T12:22:52Z</time>
      </trkpt>
      <trkpt lat="46.21057" lon="2.51128">
        <ele>371</ele>
        <time>2017-04-12T12:22:55Z</time>
      </trkpt>
      <trkpt lat="46.21058" lon="2.51133">
        <ele>371</ele>
        <time>2017-04-12T12:22:58Z</time>
      </trkpt>
      <trkpt lat="46.21059" lon="2.51139">
        <ele>371</ele>
        <time>2017-04-12T12:23:01Z</time>
      </trkpt>
      <trkpt lat="46.2106" lon="2.51145">
        <ele>371</ele>
        <time>2017-04-12T12:23:04Z</time>
      </trkpt>
      <trkpt lat="46.21061" lon="2.51151">
        <ele>371</ele>
        <time>2017-04-12T12:23:07Z</time>
      </trkpt>
      <trkpt lat="46.21062" lon="2.51157">
        <ele>371</ele>
        <time>2017-04-12T12:23:10Z</time>
      </trkpt>
      <trkpt lat="46.21063" lon="2.51163">
        <ele>371</ele>
        <time>2017-04-12T12:23:13Z</time>
      </trkpt>
      <trkpt lat="46.21064" lon="2.51169">
        <ele>371</ele>
        <time>2017-04-12T12:23:16Z</time>
      </trkpt>
      <trkpt lat="46.21065" lon="2.51175">
        <ele>371</ele>
        <time>2017-04-12T12:23:19Z</time>
      </trkpt>
      <trkpt lat="46.21066" lon="2.51181">
        <ele>371</ele>
        <time>2017-04-12T12:23:22Z</time>
      </trkpt>
      <trkpt lat="46.21067" lon="2.51186">
        <ele>371</ele>
        <time>2017-04-12T12:23:25Z</time>
      </trkpt>
      <trkpt lat="46.21068" lon="2.51192">
        <ele>371</ele>
        <time>2017-04-12T12:23:28Z</time>
      </trkpt>
      <trkpt lat="46.21069" lon="2.51198">
        <ele>371</ele>
        <time>2017-04-12T12:23:31Z</time>
      </trkpt>
      <trkpt lat="46.2107" lon="2.51203">
        <ele>371</ele>
        <time>2017-04-12T12:23:34Z</time>
      </trkpt>
      <trkpt lat="46.2107" lon="2.51209">
        <ele>371</ele>
        <time>2017-04-12T12:23:37Z</time>
      </trkpt>
      <trkpt lat="46.21072" lon="2.51214">
        <ele>372</ele>
        <time>2017-04-12T12:23:40Z</time>
      </trkpt>
      <trkpt lat="46.21072" lon="2.5122">
        <ele>372</ele>
        <time>2017-04-12T12:23:43Z</time>
      </trkpt>
      <trkpt lat="46.21074" lon="2.51225">
        <ele>372</ele>
        <time>2017-04-12T12:23:46Z</time>
      </trkpt>
      <trkpt lat="46.21075" lon="2.51231">
        <ele>372</ele>
        <time>2017-04-12T12:23:49Z</time>
      </trkpt>
      <trkpt lat="46.21075" lon="2.51237">
        <ele>373</ele>
        <time>2017-04-12T12:23:52Z</time>
      </trkpt>
      <trkpt lat="46.21077" lon="2.51242">
        <ele>373</ele>
        <time>2017-04-12T12:23:55Z</time>
      </trkpt>
      <trkpt lat="46.21077" lon="2.51248">
        <ele>373</ele>
        <time>2017-04-12T12:23:58Z</time>
      </trkpt>
      <trkpt lat="46.21078" lon="2.51253">
        <ele>373</ele>
        <time>2017-04-12T12:24:01Z</time>
      </trkpt>
      <trkpt lat="46.21079" lon="2.51259">
        <ele>373</ele>
        <time>2017-04-12T12:24:04Z</time>
      </trkpt>
      <trkpt lat="46.2108" lon="2.51265">
        <ele>373</ele>
        <time>2017-04-12T12:24:07Z</time>
      </trkpt>
      <trkpt lat="46.21081" lon="2.51271">
        <ele>373</ele>
        <time>2017-04-12T12:24:10Z</time>
      </trkpt>
      <trkpt lat="46.21082" lon="2.51276">
        <ele>373</ele>
        <time>2017-04-12T12:24:13Z</time>
      </trkpt>
      <trkpt lat="46.21083" lon="2.51282">
        <ele>374</ele>
        <time>2017-04-12T12:24:16Z</time>
      </trkpt>
      <trkpt lat="46.21084" lon="2.51288">
        <ele>374</ele>
        <time>2017-04-12T12:24:19Z</time>
      </trkpt>
      <trkpt lat="46.21085" lon="2.51293">
        <ele>374</ele>
        <time>2017-04-12T12:24:22Z</time>
      </trkpt>
      <trkpt lat="46.21086" lon="2.51299">
        <ele>374</ele>
        <time>2017-04-12T12:24:25Z</time>
      </trkpt>
      <trkpt lat="46.21087" lon="2.51305">
        <ele>374</ele>
        <time>2017-04-12T12:24:28Z</time>
      </trkpt>
      <trkpt lat="46.21088" lon="2.51311">
        <ele>374</ele>
        <time>2017-04-12T12:24:31Z</time>
      </trkpt>
      <trkpt lat="46.21089" lon="2.51317">
        <ele>374</ele>
        <time>2017-04-12T12:24:34Z</time>
      </trkpt>
      <trkpt lat="46.2109" lon="2.51323">
        <ele>374</ele>
        <time>2017-04-12T12:24:37Z</time>
      </trkpt>
      <trkpt lat="46.21091" lon="2.51328">
        <ele>374</ele>
        <time>2017-04-12T12:24:40Z</time>
      </trkpt>
      <trkpt lat="46.21092" lon="2.51334">
        <ele>374</ele>
        <time>2017-04-12T12:24:43Z</time>
      </trkpt>
      <trkpt lat="46.21093" lon="2.5134">
        <ele>374</ele>
        <time>2017-04-12T12:24:46Z</time>
      </trkpt>
      <trkpt lat="46.21094" lon="2.51346">
        <ele>374</ele>
        <time>2017-04-12T12:24:49Z</time>
      </trkpt>
      <trkpt lat="46.21095" lon="2.51352">
        <ele>375</ele>
        <time>2017-04-12T12:24:52Z</time>
      </trkpt>
      <trkpt lat="46.21096" lon="2.51358">
        <ele>375</ele>
        <time>2017-04-12T12:24:55Z</time>
      </trkpt>
      <trkpt lat="46.21097" lon="2.51363">
        <ele>375</ele>
        <time>2017-04-12T12:24:58Z</time>
      </trkpt>
      <trkpt lat="46.21097" lon="2.51367">
        <ele>375</ele>
        <time>2017-04-12T12:25:04Z</time>
      </trkpt>
      <trkpt lat="46.21098" lon="2.51368">
        <ele>375</ele>
        <time>2017-04-12T12:25:15Z</time>
      </trkpt>
      <trkpt lat="46.21099" lon="2.51374">
        <ele>375</ele>
        <time>2017-04-12T12:25:18Z</time>
      </trkpt>
      <trkpt lat="46.211" lon="2.51379">
        <ele>375</ele>
        <time>2017-04-12T12:25:21Z</time>
      </trkpt>
      <trkpt lat="46.21101" lon="2.51385">
        <ele>376</ele>
        <time>2017-04-12T12:25:24Z</time>
      </trkpt>
      <trkpt lat="46.21102" lon="2.5139">
        <ele>376</ele>
        <time>2017-04-12T12:25:27Z</time>
      </trkpt>
      <trkpt lat="46.21103" lon="2.51395">
        <ele>377</ele>
        <time>2017-04-12T12:25:30Z</time>
      </trkpt>
      <trkpt lat="46.21106" lon="2.51401">
        <ele>378</ele>
        <time>2017-04-12T12:25:34Z</time>
      </trkpt>
      <trkpt lat="46.2111" lon="2.51405">
        <ele>378</ele>
        <time>2017-04-12T12:25:38Z</time>
      </trkpt>
      <trkpt lat="46.21113" lon="2.51404">
        <ele>378</ele>
        <time>2017-04-12T12:25:41Z</time>
      </trkpt>
      <trkpt lat="46.21117" lon="2.51404">
        <ele>378</ele>
        <time>2017-04-12T12:25:44Z</time>
      </trkpt>
      <trkpt lat="46.21121" lon="2.51403">
        <ele>378</ele>
        <time>2017-04-12T12:25:47Z</time>
      </trkpt>
      <trkpt lat="46.21125" lon="2.51403">
        <ele>378</ele>
        <time>2017-04-12T12:25:50Z</time>
      </trkpt>
      <trkpt lat="46.21128" lon="2.51403">
        <ele>378</ele>
        <time>2017-04-12T12:25:53Z</time>
      </trkpt>
      <trkpt lat="46.21132" lon="2.51403">
        <ele>378</ele>
        <time>2017-04-12T12:25:56Z</time>
      </trkpt>
      <trkpt lat="46.21136" lon="2.51403">
        <ele>378</ele>
        <time>2017-04-12T12:25:59Z</time>
      </trkpt>
      <trkpt lat="46.2114" lon="2.51402">
        <ele>378</ele>
        <time>2017-04-12T12:26:02Z</time>
      </trkpt>
      <trkpt lat="46.21144" lon="2.51402">
        <ele>378</ele>
        <time>2017-04-12T12:26:05Z</time>
      </trkpt>
      <trkpt lat="46.21148" lon="2.51402">
        <ele>378</ele>
        <time>2017-04-12T12:26:08Z</time>
      </trkpt>
      <trkpt lat="46.21152" lon="2.51401">
        <ele>378</ele>
        <time>2017-04-12T12:26:11Z</time>
      </trkpt>
      <trkpt lat="46.21156" lon="2.51401">
        <ele>378</ele>
        <time>2017-04-12T12:26:14Z</time>
      </trkpt>
      <trkpt lat="46.2116" lon="2.51401">
        <ele>378</ele>
        <time>2017-04-12T12:26:17Z</time>
      </trkpt>
      <trkpt lat="46.21163" lon="2.51401">
        <ele>378</ele>
        <time>2017-04-12T12:26:29Z</time>
      </trkpt>
      <trkpt lat="46.21167" lon="2.51401">
        <ele>378</ele>
        <time>2017-04-12T12:26:32Z</time>
      </trkpt>
      <trkpt lat="46.2117" lon="2.514">
        <ele>378</ele>
        <time>2017-04-12T12:26:35Z</time>
      </trkpt>
      <trkpt lat="46.21175" lon="2.514">
        <ele>378</ele>
        <time>2017-04-12T12:26:38Z</time>
      </trkpt>
      <trkpt lat="46.21178" lon="2.514">
        <ele>378</ele>
        <time>2017-04-12T12:26:41Z</time>
      </trkpt>
      <trkpt lat="46.21182" lon="2.514">
        <ele>378</ele>
        <time>2017-04-12T12:26:44Z</time>
      </trkpt>
      <trkpt lat="46.21186" lon="2.514">
        <ele>378</ele>
        <time>2017-04-12T12:26:47Z</time>
      </trkpt>
      <trkpt lat="46.2119" lon="2.51399">
        <ele>378</ele>
        <time>2017-04-12T12:26:50Z</time>
      </trkpt>
      <trkpt lat="46.21194" lon="2.51399">
        <ele>378</ele>
        <time>2017-04-12T12:26:53Z</time>
      </trkpt>
      <trkpt lat="46.21199" lon="2.51399">
        <ele>378</ele>
        <time>2017-04-12T12:26:56Z</time>
      </trkpt>
      <trkpt lat="46.21203" lon="2.51399">
        <ele>378</ele>
        <time>2017-04-12T12:26:59Z</time>
      </trkpt>
      <trkpt lat="46.21207" lon="2.51399">
        <ele>378</ele>
        <time>2017-04-12T12:27:02Z</time>
      </trkpt>
      <trkpt lat="46.21211" lon="2.51398">
        <ele>378</ele>
        <time>2017-04-12T12:27:05Z</time>
      </trkpt>
      <trkpt lat="46.21215" lon="2.51398">
        <ele>378</ele>
        <time>2017-04-12T12:27:08Z</time>
      </trkpt>
      <trkpt lat="46.21219" lon="2.51398">
        <ele>378</ele>
        <time>2017-04-12T12:27:11Z</time>
      </trkpt>
      <trkpt lat="46.21224" lon="2.51398">
        <ele>378</ele>
        <time>2017-04-12T12:27:14Z</time>
      </trkpt>
      <trkpt lat="46.21228" lon="2.51397">
        <ele>378</ele>
        <time>2017-04-12T12:27:17Z</time>
      </trkpt>
      <trkpt lat="46.21232" lon="2.51397">
        <ele>378</ele>
        <time>2017-04-12T12:27:20Z</time>
      </trkpt>
      <trkpt lat="46.21237" lon="2.51397">
        <ele>378</ele>
        <time>2017-04-12T12:27:23Z</time>
      </trkpt>
      <trkpt lat="46.21241" lon="2.51396">
        <ele>378</ele>
        <time>2017-04-12T12:27:26Z</time>
      </trkpt>
      <trkpt lat="46.21245" lon="2.51396">
        <ele>378</ele>
        <time>2017-04-12T12:27:29Z</time>
      </trkpt>
      <trkpt lat="46.21249" lon="2.51396">
        <ele>378</ele>
        <time>2017-04-12T12:27:32Z</time>
      </trkpt>
      <trkpt lat="46.21254" lon="2.51396">
        <ele>378</ele>
        <time>2017-04-12T12:27:35Z</time>
      </trkpt>
      <trkpt lat="46.21258" lon="2.51396">
        <ele>378</ele>
        <time>2017-04-12T12:27:38Z</time>
      </trkpt>
      <trkpt lat="46.21262" lon="2.51395">
        <ele>378</ele>
        <time>2017-04-12T12:27:41Z</time>
      </trkpt>
      <trkpt lat="46.21267" lon="2.51395">
        <ele>378</ele>
        <time>2017-04-12T12:27:44Z</time>
      </trkpt>
      <trkpt lat="46.21271" lon="2.51395">
        <ele>378</ele>
        <time>2017-04-12T12:27:47Z</time>
      </trkpt>
      <trkpt lat="46.21275" lon="2.51395">
        <ele>378</ele>
        <time>2017-04-12T12:27:50Z</time>
      </trkpt>
      <trkpt lat="46.21279" lon="2.51395">
        <ele>378</ele>
        <time>2017-04-12T12:27:53Z</time>
      </trkpt>
      <trkpt lat="46.21283" lon="2.51395">
        <ele>378</ele>
        <time>2017-04-12T12:27:56Z</time>
      </trkpt>
      <trkpt lat="46.21288" lon="2.51395">
        <ele>378</ele>
        <time>2017-04-12T12:27:59Z</time>
      </trkpt>
      <trkpt lat="46.21292" lon="2.51394">
        <ele>378</ele>
        <time>2017-04-12T12:28:02Z</time>
      </trkpt>
      <trkpt lat="46.21296" lon="2.51394">
        <ele>378</ele>
        <time>2017-04-12T12:28:05Z</time>
      </trkpt>
      <trkpt lat="46.21301" lon="2.51394">
        <ele>378</ele>
        <time>2017-04-12T12:28:08Z</time>
      </trkpt>
      <trkpt lat="46.21305" lon="2.51394">
        <ele>378</ele>
        <time>2017-04-12T12:28:11Z</time>
      </trkpt>
      <trkpt lat="46.21309" lon="2.51394">
        <ele>378</ele>
        <time>2017-04-12T12:28:14Z</time>
      </trkpt>
      <trkpt lat="46.21313" lon="2.51393">
        <ele>378</ele>
        <time>2017-04-12T12:28:17Z</time>
      </trkpt>
      <trkpt lat="46.21318" lon="2.51393">
        <ele>378</ele>
        <time>2017-04-12T12:28:20Z</time>
      </trkpt>
      <trkpt lat="46.21322" lon="2.51393">
        <ele>378</ele>
        <time>2017-04-12T12:28:23Z</time>
      </trkpt>
      <trkpt lat="46.21326" lon="2.51392">
        <ele>378</ele>
        <time>2017-04-12T12:28:26Z</time>
      </trkpt>
      <trkpt lat="46.21331" lon="2.51392">
        <ele>378</ele>
        <time>2017-04-12T12:28:29Z</time>
      </trkpt>
      <trkpt lat="46.21335" lon="2.51392">
        <ele>378</ele>
        <time>2017-04-12T12:28:32Z</time>
      </trkpt>
      <trkpt lat="46.21339" lon="2.51391">
        <ele>378</ele>
        <time>2017-04-12T12:28:35Z</time>
      </trkpt>
      <trkpt lat="46.21343" lon="2.5139">
        <ele>378</ele>
        <time>2017-04-12T12:28:38Z</time>
      </trkpt>
      <trkpt lat="46.21347" lon="2.5139">
        <ele>378</ele>
        <time>2017-04-12T12:28:41Z</time>
      </trkpt>
      <trkpt lat="46.21351" lon="2.51389">
        <ele>378</ele>
        <time>2017-04-12T12:28:44Z</time>
      </trkpt>
      <trkpt lat="46.21356" lon="2.51388">
        <ele>378</ele>
        <time>2017-04-12T12:28:47Z</time>
      </trkpt>
      <trkpt lat="46.2136" lon="2.51387">
        <ele>378</ele>
        <time>2017-04-12T12:28:50Z</time>
      </trkpt>
      <trkpt lat="46.21364" lon="2.51387">
        <ele>378</ele>
        <time>2017-04-12T12:28:53Z</time>
      </trkpt>
      <trkpt lat="46.21368" lon="2.51386">
        <ele>378</ele>
        <time>2017-04-12T12:28:56Z</time>
      </trkpt>
      <trkpt lat="46.21372" lon="2.51385">
        <ele>378</ele>
        <time>2017-04-12T12:28:59Z</time>
      </trkpt>
      <trkpt lat="46.21376" lon="2.51384">
        <ele>378</ele>
        <time>2017-04-12T12:29:02Z</time>
      </trkpt>
      <trkpt lat="46.2138" lon="2.51383">
        <ele>378</ele>
        <time>2017-04-12T12:29:05Z</time>
      </trkpt>
      <trkpt lat="46.21384" lon="2.51382">
        <ele>378</ele>
        <time>2017-04-12T12:29:08Z</time>
      </trkpt>
      <trkpt lat="46.21389" lon="2.51381">
        <ele>378</ele>
        <time>2017-04-12T12:29:11Z</time>
      </trkpt>
      <trkpt lat="46.21393" lon="2.51379">
        <ele>378</ele>
        <time>2017-04-12T12:29:14Z</time>
      </trkpt>
      <trkpt lat="46.21397" lon="2.51378">
        <ele>378</ele>
        <time>2017-04-12T12:29:17Z</time>
      </trkpt>
      <trkpt lat="46.21401" lon="2.51377">
        <ele>378</ele>
        <time>2017-04-12T12:29:20Z</time>
      </trkpt>
      <trkpt lat="46.21405" lon="2.51376">
        <ele>378</ele>
        <time>2017-04-12T12:29:23Z</time>
      </trkpt>
      <trkpt lat="46.2141" lon="2.51375">
        <ele>378</ele>
        <time>2017-04-12T12:29:26Z</time>
      </trkpt>
      <trkpt lat="46.21414" lon="2.51374">
        <ele>378</ele>
        <time>2017-04-12T12:29:29Z</time>
      </trkpt>
      <trkpt lat="46.21418" lon="2.51373">
        <ele>378</ele>
        <time>2017-04-12T12:29:32Z</time>
      </trkpt>
      <trkpt lat="46.21422" lon="2.51372">
        <ele>378</ele>
        <time>2017-04-12T12:29:35Z</time>
      </trkpt>
      <trkpt lat="46.21426" lon="2.51371">
        <ele>378</ele>
        <time>2017-04-12T12:29:38Z</time>
      </trkpt>
      <trkpt lat="46.2143" lon="2.5137">
        <ele>378</ele>
        <time>2017-04-12T12:29:41Z</time>
      </trkpt>
      <trkpt lat="46.21434" lon="2.51368">
        <ele>378</ele>
        <time>2017-04-12T12:29:44Z</time>
      </trkpt>
      <trkpt lat="46.21438" lon="2.51367">
        <ele>378</ele>
        <time>2017-04-12T12:29:47Z</time>
      </trkpt>
      <trkpt lat="46.21442" lon="2.51366">
        <ele>378</ele>
        <time>2017-04-12T12:29:50Z</time>
      </trkpt>
      <trkpt lat="46.21446" lon="2.51364">
        <ele>378</ele>
        <time>2017-04-12T12:29:53Z</time>
      </trkpt>
      <trkpt lat="46.2145" lon="2.51363">
        <ele>378</ele>
        <time>2017-04-12T12:29:56Z</time>
      </trkpt>
      <trkpt lat="46.21454" lon="2.51362">
        <ele>378</ele>
        <time>2017-04-12T12:29:59Z</time>
      </trkpt>
      <trkpt lat="46.21458" lon="2.5136">
        <ele>378</ele>
        <time>2017-04-12T12:30:02Z</time>
      </trkpt>
      <trkpt lat="46.21463" lon="2.51359">
        <ele>378</ele>
        <time>2017-04-12T12:30:05Z</time>
      </trkpt>
      <trkpt lat="46.21467" lon="2.51358">
        <ele>378</ele>
        <time>2017-04-12T12:30:08Z</time>
      </trkpt>
      <trkpt lat="46.21471" lon="2.51357">
        <ele>378</ele>
        <time>2017-04-12T12:30:11Z</time>
      </trkpt>
      <trkpt lat="46.21474" lon="2.51355">
        <ele>378</ele>
        <time>2017-04-12T12:30:14Z</time>
      </trkpt>
      <trkpt lat="46.21479" lon="2.51354">
        <ele>378</ele>
        <time>2017-04-12T12:30:17Z</time>
      </trkpt>
      <trkpt lat="46.21483" lon="2.51353">
        <ele>378</ele>
        <time>2017-04-12T12:30:20Z</time>
      </trkpt>
      <trkpt lat="46.21487" lon="2.51351">
        <ele>378</ele>
        <time>2017-04-12T12:30:23Z</time>
      </trkpt>
      <trkpt lat="46.21491" lon="2.5135">
        <ele>378</ele>
        <time>2017-04-12T12:30:26Z</time>
      </trkpt>
      <trkpt lat="46.21495" lon="2.51349">
        <ele>378</ele>
        <time>2017-04-12T12:30:29Z</time>
      </trkpt>
      <trkpt lat="46.21498" lon="2.51348">
        <ele>378</ele>
        <time>2017-04-12T12:30:32Z</time>
      </trkpt>
      <trkpt lat="46.21503" lon="2.51346">
        <ele>378</ele>
        <time>2017-04-12T12:30:35Z</time>
      </trkpt>
      <trkpt lat="46.21507" lon="2.51345">
        <ele>378</ele>
        <time>2017-04-12T12:30:38Z</time>
      </trkpt>
      <trkpt lat="46.2151" lon="2.51344">
        <ele>378</ele>
        <time>2017-04-12T12:30:41Z</time>
      </trkpt>
      <trkpt lat="46.21514" lon="2.51343">
        <ele>378</ele>
        <time>2017-04-12T12:30:44Z</time>
      </trkpt>
      <trkpt lat="46.21518" lon="2.51342">
        <ele>378</ele>
        <time>2017-04-12T12:30:47Z</time>
      </trkpt>
      <trkpt lat="46.21522" lon="2.5134">
        <ele>378</ele>
        <time>2017-04-12T12:30:50Z</time>
      </trkpt>
      <trkpt lat="46.21526" lon="2.51339">
        <ele>378</ele>
        <time>2017-04-12T12:30:53Z</time>
      </trkpt>
      <trkpt lat="46.2153" lon="2.51337">
        <ele>378</ele>
        <time>2017-04-12T12:30:56Z</time>
      </trkpt>
      <trkpt lat="46.21534" lon="2.51336">
        <ele>378</ele>
        <time>2017-04-12T12:30:59Z</time>
      </trkpt>
      <trkpt lat="46.21538" lon="2.51334">
        <ele>378</ele>
        <time>2017-04-12T12:31:02Z</time>
      </trkpt>
      <trkpt lat="46.21542" lon="2.51332">
        <ele>378</ele>
        <time>2017-04-12T12:31:05Z</time>
      </trkpt>
      <trkpt lat="46.21546" lon="2.51331">
        <ele>378</ele>
        <time>2017-04-12T12:31:08Z</time>
      </trkpt>
      <trkpt lat="46.2155" lon="2.51329">
        <ele>378</ele>
        <time>2017-04-12T12:31:11Z</time>
      </trkpt>
      <trkpt lat="46.21553" lon="2.51328">
        <ele>378</ele>
        <time>2017-04-12T12:31:14Z</time>
      </trkpt>
      <trkpt lat="46.21557" lon="2.51326">
        <ele>378</ele>
        <time>2017-04-12T12:31:17Z</time>
      </trkpt>
      <trkpt lat="46.21561" lon="2.51324">
        <ele>378</ele>
        <time>2017-04-12T12:31:20Z</time>
      </trkpt>
      <trkpt lat="46.21565" lon="2.51323">
        <ele>378</ele>
        <time>2017-04-12T12:31:23Z</time>
      </trkpt>
      <trkpt lat="46.21569" lon="2.51321">
        <ele>378</ele>
        <time>2017-04-12T12:31:26Z</time>
      </trkpt>
      <trkpt lat="46.21573" lon="2.51319">
        <ele>378</ele>
        <time>2017-04-12T12:31:29Z</time>
      </trkpt>
      <trkpt lat="46.21577" lon="2.51318">
        <ele>378</ele>
        <time>2017-04-12T12:31:32Z</time>
      </trkpt>
      <trkpt lat="46.21581" lon="2.51316">
        <ele>378</ele>
        <time>2017-04-12T12:31:35Z</time>
      </trkpt>
      <trkpt lat="46.21586" lon="2.51313">
        <ele>378</ele>
        <time>2017-04-12T12:31:39Z</time>
      </trkpt>
      <trkpt lat="46.21591" lon="2.51311">
        <ele>378</ele>
        <time>2017-04-12T12:31:43Z</time>
      </trkpt>
      <trkpt lat="46.21595" lon="2.51309">
        <ele>378</ele>
        <time>2017-04-12T12:31:46Z</time>
      </trkpt>
      <trkpt lat="46.216" lon="2.51307">
        <ele>378</ele>
        <time>2017-04-12T12:31:50Z</time>
      </trkpt>
      <trkpt lat="46.21603" lon="2.51306">
        <ele>378</ele>
        <time>2017-04-12T12:31:53Z</time>
      </trkpt>
      <trkpt lat="46.21609" lon="2.51303">
        <ele>378</ele>
        <time>2017-04-12T12:31:56Z</time>
      </trkpt>
      <trkpt lat="46.21613" lon="2.51301">
        <ele>378</ele>
        <time>2017-04-12T12:32:00Z</time>
      </trkpt>
      <trkpt lat="46.21618" lon="2.51298">
        <ele>378</ele>
        <time>2017-04-12T12:32:03Z</time>
      </trkpt>
      <trkpt lat="46.21622" lon="2.51296">
        <ele>378</ele>
        <time>2017-04-12T12:32:06Z</time>
      </trkpt>
      <trkpt lat="46.21626" lon="2.51294">
        <ele>378</ele>
        <time>2017-04-12T12:32:09Z</time>
      </trkpt>
      <trkpt lat="46.21629" lon="2.51291">
        <ele>378</ele>
        <time>2017-04-12T12:32:13Z</time>
      </trkpt>
      <trkpt lat="46.21633" lon="2.5129">
        <ele>378</ele>
        <time>2017-04-12T12:32:16Z</time>
      </trkpt>
      <trkpt lat="46.21637" lon="2.51288">
        <ele>378</ele>
        <time>2017-04-12T12:32:19Z</time>
      </trkpt>
      <trkpt lat="46.2164" lon="2.51286">
        <ele>378</ele>
        <time>2017-04-12T12:32:22Z</time>
      </trkpt>
      <trkpt lat="46.21644" lon="2.51283">
        <ele>378</ele>
        <time>2017-04-12T12:32:25Z</time>
      </trkpt>
      <trkpt lat="46.21647" lon="2.51281">
        <ele>378</ele>
        <time>2017-04-12T12:32:28Z</time>
      </trkpt>
      <trkpt lat="46.21651" lon="2.51278">
        <ele>378</ele>
        <time>2017-04-12T12:32:31Z</time>
      </trkpt>
      <trkpt lat="46.21655" lon="2.51276">
        <ele>378</ele>
        <time>2017-04-12T12:32:34Z</time>
      </trkpt>
      <trkpt lat="46.21658" lon="2.51273">
        <ele>379</ele>
        <time>2017-04-12T12:32:37Z</time>
      </trkpt>
      <trkpt lat="46.21662" lon="2.51271">
        <ele>379</ele>
        <time>2017-04-12T12:32:40Z</time>
      </trkpt>
      <trkpt lat="46.21665" lon="2.51269">
        <ele>380</ele>
        <time>2017-04-12T12:32:43Z</time>
      </trkpt>
      <trkpt lat="46.21669" lon="2.51266">
        <ele>380</ele>
        <time>2017-04-12T12:32:46Z</time>
      </trkpt>
      <trkpt lat="46.21674" lon="2.51263">
        <ele>380</ele>
        <time>2017-04-12T12:32:50Z</time>
      </trkpt>
      <trkpt lat="46.21677" lon="2.51261">
        <ele>380</ele>
        <time>2017-04-12T12:32:53Z</time>
      </trkpt>
      <trkpt lat="46.2168" lon="2.51259">
        <ele>380</ele>
        <time>2017-04-12T12:32:56Z</time>
      </trkpt>
      <trkpt lat="46.21685" lon="2.51257">
        <ele>380</ele>
        <time>2017-04-12T12:32:59Z</time>
      </trkpt>
      <trkpt lat="46.21688" lon="2.51256">
        <ele>380</ele>
        <time>2017-04-12T12:33:02Z</time>
      </trkpt>
      <trkpt lat="46.21692" lon="2.51256">
        <ele>380</ele>
        <time>2017-04-12T12:33:05Z</time>
      </trkpt>
      <trkpt lat="46.21696" lon="2.51256">
        <ele>380</ele>
        <time>2017-04-12T12:33:08Z</time>
      </trkpt>
      <trkpt lat="46.217" lon="2.51257">
        <ele>380</ele>
        <time>2017-04-12T12:33:11Z</time>
      </trkpt>
      <trkpt lat="46.21703" lon="2.51259">
        <ele>380</ele>
        <time>2017-04-12T12:33:14Z</time>
      </trkpt>
      <trkpt lat="46.21705" lon="2.51264">
        <ele>380</ele>
        <time>2017-04-12T12:33:17Z</time>
      </trkpt>
      <trkpt lat="46.21707" lon="2.51269">
        <ele>380</ele>
        <time>2017-04-12T12:33:20Z</time>
      </trkpt>
      <trkpt lat="46.21709" lon="2.51273">
        <ele>380</ele>
        <time>2017-04-12T12:33:23Z</time>
      </trkpt>
      <trkpt lat="46.21711" lon="2.51279">
        <ele>380</ele>
        <time>2017-04-12T12:33:26Z</time>
      </trkpt>
      <trkpt lat="46.21713" lon="2.51284">
        <ele>380</ele>
        <time>2017-04-12T12:33:29Z</time>
      </trkpt>
      <trkpt lat="46.21715" lon="2.51289">
        <ele>380</ele>
        <time>2017-04-12T12:33:32Z</time>
      </trkpt>
      <trkpt lat="46.21717" lon="2.51294">
        <ele>380</ele>
        <time>2017-04-12T12:33:35Z</time>
      </trkpt>
      <trkpt lat="46.21719" lon="2.51299">
        <ele>380</ele>
        <time>2017-04-12T12:33:38Z</time>
      </trkpt>
      <trkpt lat="46.21721" lon="2.51304">
        <ele>380</ele>
        <time>2017-04-12T12:33:41Z</time>
      </trkpt>
      <trkpt lat="46.21723" lon="2.51309">
        <ele>380</ele>
        <time>2017-04-12T12:33:44Z</time>
      </trkpt>
      <trkpt lat="46.21724" lon="2.51314">
        <ele>380</ele>
        <time>2017-04-12T12:33:47Z</time>
      </trkpt>
      <trkpt lat="46.21726" lon="2.5132">
        <ele>380</ele>
        <time>2017-04-12T12:33:50Z</time>
      </trkpt>
      <trkpt lat="46.21729" lon="2.51325">
        <ele>380</ele>
        <time>2017-04-12T12:33:53Z</time>
      </trkpt>
      <trkpt lat="46.21731" lon="2.5133">
        <ele>380</ele>
        <time>2017-04-12T12:33:56Z</time>
      </trkpt>
      <trkpt lat="46.21733" lon="2.51335">
        <ele>380</ele>
        <time>2017-04-12T12:33:59Z</time>
      </trkpt>
      <trkpt lat="46.21735" lon="2.5134">
        <ele>380</ele>
        <time>2017-04-12T12:34:02Z</time>
      </trkpt>
      <trkpt lat="46.21737" lon="2.51345">
        <ele>380</ele>
        <time>2017-04-12T12:34:05Z</time>
      </trkpt>
      <trkpt lat="46.21739" lon="2.5135">
        <ele>380</ele>
        <time>2017-04-12T12:34:08Z</time>
      </trkpt>
      <trkpt lat="46.21741" lon="2.51355">
        <ele>380</ele>
        <time>2017-04-12T12:34:11Z</time>
      </trkpt>
      <trkpt lat="46.21743" lon="2.51361">
        <ele>380</ele>
        <time>2017-04-12T12:34:14Z</time>
      </trkpt>
      <trkpt lat="46.21745" lon="2.51365">
        <ele>380</ele>
        <time>2017-04-12T12:34:17Z</time>
      </trkpt>
      <trkpt lat="46.21747" lon="2.5137">
        <ele>380</ele>
        <time>2017-04-12T12:34:20Z</time>
      </trkpt>
      <trkpt lat="46.21749" lon="2.51375">
        <ele>380</ele>
        <time>2017-04-12T12:34:23Z</time>
      </trkpt>
      <trkpt lat="46.21752" lon="2.5138">
        <ele>380</ele>
        <time>2017-04-12T12:34:26Z</time>
      </trkpt>
      <trkpt lat="46.21755" lon="2.51383">
        <ele>380</ele>
        <time>2017-04-12T12:34:30Z</time>
      </trkpt>
      <trkpt lat="46.2176" lon="2.51381">
        <ele>380</ele>
        <time>2017-04-12T12:34:33Z</time>
      </trkpt>
      <trkpt lat="46.21765" lon="2.51377">
        <ele>380</ele>
        <time>2017-04-12T12:34:36Z</time>
      </trkpt>
      <trkpt lat="46.21769" lon="2.51371">
        <ele>380</ele>
        <time>2017-04-12T12:34:41Z</time>
      </trkpt>
      <trkpt lat="46.21772" lon="2.51366">
        <ele>380</ele>
        <time>2017-04-12T12:34:44Z</time>
      </trkpt>
      <trkpt lat="46.21776" lon="2.51362">
        <ele>380</ele>
        <time>2017-04-12T12:34:47Z</time>
      </trkpt>
      <trkpt lat="46.21778" lon="2.51357">
        <ele>380</ele>
        <time>2017-04-12T12:34:50Z</time>
      </trkpt>
      <trkpt lat="46.21781" lon="2.51353">
        <ele>380</ele>
        <time>2017-04-12T12:34:53Z</time>
      </trkpt>
      <trkpt lat="46.21785" lon="2.51346">
        <ele>380</ele>
        <time>2017-04-12T12:34:57Z</time>
      </trkpt>
      <trkpt lat="46.21788" lon="2.51342">
        <ele>380</ele>
        <time>2017-04-12T12:35:00Z</time>
      </trkpt>
      <trkpt lat="46.21791" lon="2.51337">
        <ele>380</ele>
        <time>2017-04-12T12:35:03Z</time>
      </trkpt>
      <trkpt lat="46.21794" lon="2.51332">
        <ele>380</ele>
        <time>2017-04-12T12:35:06Z</time>
      </trkpt>
      <trkpt lat="46.21798" lon="2.51326">
        <ele>380</ele>
        <time>2017-04-12T12:35:09Z</time>
      </trkpt>
      <trkpt lat="46.21801" lon="2.51322">
        <ele>380</ele>
        <time>2017-04-12T12:35:13Z</time>
      </trkpt>
      <trkpt lat="46.21803" lon="2.51317">
        <ele>380</ele>
        <time>2017-04-12T12:35:16Z</time>
      </trkpt>
      <trkpt lat="46.21806" lon="2.51312">
        <ele>380</ele>
        <time>2017-04-12T12:35:19Z</time>
      </trkpt>
      <trkpt lat="46.21809" lon="2.51308">
        <ele>380</ele>
        <time>2017-04-12T12:35:22Z</time>
      </trkpt>
      <trkpt lat="46.21812" lon="2.51303">
        <ele>380</ele>
        <time>2017-04-12T12:35:25Z</time>
      </trkpt>
      <trkpt lat="46.21817" lon="2.51296">
        <ele>380</ele>
        <time>2017-04-12T12:35:30Z</time>
      </trkpt>
      <trkpt lat="46.2182" lon="2.51291">
        <ele>380</ele>
        <time>2017-04-12T12:35:33Z</time>
      </trkpt>
      <trkpt lat="46.21822" lon="2.51286">
        <ele>380</ele>
        <time>2017-04-12T12:35:36Z</time>
      </trkpt>
      <trkpt lat="46.21825" lon="2.51281">
        <ele>380</ele>
        <time>2017-04-12T12:35:39Z</time>
      </trkpt>
      <trkpt lat="46.21828" lon="2.51277">
        <ele>380</ele>
        <time>2017-04-12T12:35:42Z</time>
      </trkpt>
      <trkpt lat="46.21831" lon="2.51271">
        <ele>380</ele>
        <time>2017-04-12T12:35:46Z</time>
      </trkpt>
      <trkpt lat="46.21835" lon="2.51265">
        <ele>380</ele>
        <time>2017-04-12T12:35:49Z</time>
      </trkpt>
      <trkpt lat="46.21838" lon="2.5126">
        <ele>380</ele>
        <time>2017-04-12T12:35:53Z</time>
      </trkpt>
      <trkpt lat="46.21842" lon="2.51255">
        <ele>380</ele>
        <time>2017-04-12T12:35:57Z</time>
      </trkpt>
      <trkpt lat="46.21846" lon="2.51248">
        <ele>380</ele>
        <time>2017-04-12T12:36:00Z</time>
      </trkpt>
      <trkpt lat="46.21848" lon="2.51243">
        <ele>380</ele>
        <time>2017-04-12T12:36:04Z</time>
      </trkpt>
      <trkpt lat="46.21851" lon="2.51238">
        <ele>380</ele>
        <time>2017-04-12T12:36:07Z</time>
      </trkpt>
      <trkpt lat="46.21854" lon="2.51233">
        <ele>380</ele>
        <time>2017-04-12T12:36:10Z</time>
      </trkpt>
      <trkpt lat="46.21858" lon="2.51227">
        <ele>380</ele>
        <time>2017-04-12T12:36:14Z</time>
      </trkpt>
      <trkpt lat="46.21861" lon="2.51223">
        <ele>380</ele>
        <time>2017-04-12T12:36:17Z</time>
      </trkpt>
      <trkpt lat="46.21866" lon="2.51216">
        <ele>380</ele>
        <time>2017-04-12T12:36:22Z</time>
      </trkpt>
      <trkpt lat="46.2187" lon="2.5121">
        <ele>380</ele>
        <time>2017-04-12T12:36:25Z</time>
      </trkpt>
      <trkpt lat="46.21873" lon="2.51206">
        <ele>380</ele>
        <time>2017-04-12T12:36:29Z</time>
      </trkpt>
      <trkpt lat="46.21878" lon="2.51199">
        <ele>380</ele>
        <time>2017-04-12T12:36:34Z</time>
      </trkpt>
      <trkpt lat="46.21883" lon="2.51193">
        <ele>380</ele>
        <time>2017-04-12T12:36:38Z</time>
      </trkpt>
      <trkpt lat="46.21886" lon="2.51187">
        <ele>380</ele>
        <time>2017-04-12T12:36:41Z</time>
      </trkpt>
      <trkpt lat="46.2189" lon="2.51183">
        <ele>380</ele>
        <time>2017-04-12T12:36:45Z</time>
      </trkpt>
      <trkpt lat="46.21894" lon="2.51178">
        <ele>380</ele>
        <time>2017-04-12T12:36:48Z</time>
      </trkpt>
      <trkpt lat="46.21898" lon="2.51172">
        <ele>380</ele>
        <time>2017-04-12T12:36:52Z</time>
      </trkpt>
      <trkpt lat="46.21901" lon="2.51168">
        <ele>380</ele>
        <time>2017-04-12T12:36:56Z</time>
      </trkpt>
      <trkpt lat="46.21906" lon="2.51163">
        <ele>380</ele>
        <time>2017-04-12T12:36:59Z</time>
      </trkpt>
      <trkpt lat="46.2191" lon="2.51159">
        <ele>380</ele>
        <time>2017-04-12T12:37:03Z</time>
      </trkpt>
      <trkpt lat="46.21914" lon="2.51155">
        <ele>380</ele>
        <time>2017-04-12T12:37:06Z</time>
      </trkpt>
      <trkpt lat="46.21917" lon="2.51152">
        <ele>380</ele>
        <time>2017-04-12T12:37:09Z</time>
      </trkpt>
      <trkpt lat="46.21921" lon="2.51149">
        <ele>380</ele>
        <time>2017-04-12T12:37:12Z</time>
      </trkpt>
      <trkpt lat="46.21924" lon="2.51146">
        <ele>380</ele>
        <time>2017-04-12T12:37:15Z</time>
      </trkpt>
      <trkpt lat="46.21928" lon="2.51143">
        <ele>380</ele>
        <time>2017-04-12T12:37:18Z</time>
      </trkpt>
      <trkpt lat="46.21932" lon="2.5114">
        <ele>380</ele>
        <time>2017-04-12T12:37:22Z</time>
      </trkpt>
      <trkpt lat="46.21937" lon="2.51136">
        <ele>380</ele>
        <time>2017-04-12T12:37:25Z</time>
      </trkpt>
      <trkpt lat="46.21941" lon="2.51133">
        <ele>380</ele>
        <time>2017-04-12T12:37:28Z</time>
      </trkpt>
      <trkpt lat="46.21944" lon="2.51131">
        <ele>380</ele>
        <time>2017-04-12T12:37:32Z</time>
      </trkpt>
      <trkpt lat="46.21949" lon="2.51127">
        <ele>380</ele>
        <time>2017-04-12T12:37:35Z</time>
      </trkpt>
      <trkpt lat="46.21954" lon="2.51125">
        <ele>380</ele>
        <time>2017-04-12T12:37:38Z</time>
      </trkpt>
      <trkpt lat="46.21957" lon="2.51122">
        <ele>380</ele>
        <time>2017-04-12T12:37:42Z</time>
      </trkpt>
      <trkpt lat="46.21962" lon="2.51118">
        <ele>380</ele>
        <time>2017-04-12T12:37:45Z</time>
      </trkpt>
      <trkpt lat="46.21966" lon="2.51116">
        <ele>380</ele>
        <time>2017-04-12T12:37:48Z</time>
      </trkpt>
      <trkpt lat="46.21969" lon="2.51114">
        <ele>380</ele>
        <time>2017-04-12T12:37:52Z</time>
      </trkpt>
      <trkpt lat="46.21974" lon="2.5111">
        <ele>380</ele>
        <time>2017-04-12T12:37:55Z</time>
      </trkpt>
      <trkpt lat="46.21978" lon="2.51108">
        <ele>380</ele>
        <time>2017-04-12T12:37:58Z</time>
      </trkpt>
      <trkpt lat="46.21982" lon="2.51105">
        <ele>380</ele>
        <time>2017-04-12T12:38:02Z</time>
      </trkpt>
      <trkpt lat="46.21987" lon="2.51101">
        <ele>380</ele>
        <time>2017-04-12T12:38:05Z</time>
      </trkpt>
      <trkpt lat="46.2199" lon="2.51098">
        <ele>380</ele>
        <time>2017-04-12T12:38:08Z</time>
      </trkpt>
      <trkpt lat="46.21994" lon="2.51096">
        <ele>380</ele>
        <time>2017-04-12T12:38:12Z</time>
      </trkpt>
      <trkpt lat="46.21999" lon="2.51092">
        <ele>380</ele>
        <time>2017-04-12T12:38:15Z</time>
      </trkpt>
      <trkpt lat="46.22003" lon="2.5109">
        <ele>380</ele>
        <time>2017-04-12T12:38:18Z</time>
      </trkpt>
      <trkpt lat="46.22007" lon="2.51087">
        <ele>380</ele>
        <time>2017-04-12T12:38:23Z</time>
      </trkpt>
      <trkpt lat="46.22008" lon="2.51086">
        <ele>380</ele>
        <time>2017-04-12T12:38:43Z</time>
      </trkpt>
      <trkpt lat="46.22011" lon="2.51083">
        <ele>379</ele>
        <time>2017-04-12T12:39:39Z</time>
      </trkpt>
      <trkpt lat="46.22016" lon="2.5108">
        <ele>379</ele>
        <time>2017-04-12T12:39:42Z</time>
      </trkpt>
      <trkpt lat="46.2202" lon="2.51077">
        <ele>379</ele>
        <time>2017-04-12T12:39:45Z</time>
      </trkpt>
      <trkpt lat="46.22023" lon="2.51073">
        <ele>379</ele>
        <time>2017-04-12T12:39:48Z</time>
      </trkpt>
      <trkpt lat="46.22027" lon="2.5107">
        <ele>379</ele>
        <time>2017-04-12T12:39:51Z</time>
      </trkpt>
      <trkpt lat="46.22031" lon="2.51067">
        <ele>379</ele>
        <time>2017-04-12T12:39:54Z</time>
      </trkpt>
      <trkpt lat="46.22035" lon="2.51065">
        <ele>379</ele>
        <time>2017-04-12T12:39:57Z</time>
      </trkpt>
      <trkpt lat="46.22039" lon="2.51062">
        <ele>379</ele>
        <time>2017-04-12T12:40:00Z</time>
      </trkpt>
      <trkpt lat="46.22043" lon="2.51059">
        <ele>379</ele>
        <time>2017-04-12T12:40:04Z</time>
      </trkpt>
      <trkpt lat="46.22048" lon="2.51055">
        <ele>379</ele>
        <time>2017-04-12T12:40:07Z</time>
      </trkpt>
      <trkpt lat="46.22052" lon="2.51052">
        <ele>379</ele>
        <time>2017-04-12T12:40:10Z</time>
      </trkpt>
      <trkpt lat="46.22056" lon="2.51049">
        <ele>379</ele>
        <time>2017-04-12T12:40:13Z</time>
      </trkpt>
      <trkpt lat="46.2206" lon="2.51046">
        <ele>379</ele>
        <time>2017-04-12T12:40:16Z</time>
      </trkpt>
      <trkpt lat="46.22064" lon="2.51044">
        <ele>379</ele>
        <time>2017-04-12T12:40:19Z</time>
      </trkpt>
      <trkpt lat="46.22068" lon="2.51041">
        <ele>379</ele>
        <time>2017-04-12T12:40:22Z</time>
      </trkpt>
      <trkpt lat="46.22072" lon="2.51038">
        <ele>379</ele>
        <time>2017-04-12T12:40:25Z</time>
      </trkpt>
      <trkpt lat="46.22076" lon="2.51035">
        <ele>379</ele>
        <time>2017-04-12T12:40:29Z</time>
      </trkpt>
      <trkpt lat="46.22081" lon="2.51031">
        <ele>379</ele>
        <time>2017-04-12T12:40:32Z</time>
      </trkpt>
      <trkpt lat="46.22085" lon="2.51029">
        <ele>379</ele>
        <time>2017-04-12T12:40:35Z</time>
      </trkpt>
      <trkpt lat="46.22089" lon="2.51026">
        <ele>379</ele>
        <time>2017-04-12T12:40:38Z</time>
      </trkpt>
      <trkpt lat="46.22093" lon="2.51023">
        <ele>379</ele>
        <time>2017-04-12T12:40:41Z</time>
      </trkpt>
      <trkpt lat="46.22097" lon="2.51021">
        <ele>379</ele>
        <time>2017-04-12T12:40:44Z</time>
      </trkpt>
      <trkpt lat="46.22101" lon="2.51019">
        <ele>379</ele>
        <time>2017-04-12T12:40:47Z</time>
      </trkpt>
      <trkpt lat="46.22105" lon="2.51017">
        <ele>378</ele>
        <time>2017-04-12T12:40:50Z</time>
      </trkpt>
      <trkpt lat="46.2211" lon="2.51015">
        <ele>378</ele>
        <time>2017-04-12T12:40:54Z</time>
      </trkpt>
      <trkpt lat="46.22115" lon="2.51014">
        <ele>378</ele>
        <time>2017-04-12T12:40:57Z</time>
      </trkpt>
      <trkpt lat="46.22119" lon="2.51013">
        <ele>378</ele>
        <time>2017-04-12T12:41:00Z</time>
      </trkpt>
      <trkpt lat="46.22124" lon="2.51012">
        <ele>378</ele>
        <time>2017-04-12T12:41:04Z</time>
      </trkpt>
      <trkpt lat="46.22129" lon="2.51012">
        <ele>378</ele>
        <time>2017-04-12T12:41:07Z</time>
      </trkpt>
      <trkpt lat="46.22134" lon="2.51011">
        <ele>378</ele>
        <time>2017-04-12T12:41:10Z</time>
      </trkpt>
      <trkpt lat="46.22138" lon="2.51011">
        <ele>378</ele>
        <time>2017-04-12T12:41:14Z</time>
      </trkpt>
      <trkpt lat="46.22144" lon="2.51012">
        <ele>378</ele>
        <time>2017-04-12T12:41:17Z</time>
      </trkpt>
      <trkpt lat="46.22148" lon="2.51012">
        <ele>378</ele>
        <time>2017-04-12T12:41:20Z</time>
      </trkpt>
      <trkpt lat="46.22152" lon="2.51012">
        <ele>378</ele>
        <time>2017-04-12T12:41:23Z</time>
      </trkpt>
      <trkpt lat="46.22157" lon="2.51013">
        <ele>378</ele>
        <time>2017-04-12T12:41:26Z</time>
      </trkpt>
      <trkpt lat="46.22161" lon="2.51013">
        <ele>378</ele>
        <time>2017-04-12T12:41:29Z</time>
      </trkpt>
      <trkpt lat="46.22165" lon="2.51013">
        <ele>378</ele>
        <time>2017-04-12T12:41:32Z</time>
      </trkpt>
      <trkpt lat="46.22169" lon="2.51014">
        <ele>378</ele>
        <time>2017-04-12T12:41:35Z</time>
      </trkpt>
      <trkpt lat="46.22174" lon="2.51015">
        <ele>378</ele>
        <time>2017-04-12T12:41:38Z</time>
      </trkpt>
      <trkpt lat="46.22178" lon="2.51015">
        <ele>378</ele>
        <time>2017-04-12T12:41:41Z</time>
      </trkpt>
      <trkpt lat="46.22182" lon="2.51015">
        <ele>378</ele>
        <time>2017-04-12T12:41:44Z</time>
      </trkpt>
      <trkpt lat="46.22187" lon="2.51016">
        <ele>378</ele>
        <time>2017-04-12T12:41:47Z</time>
      </trkpt>
      <trkpt lat="46.22191" lon="2.51017">
        <ele>378</ele>
        <time>2017-04-12T12:41:50Z</time>
      </trkpt>
      <trkpt lat="46.22195" lon="2.51017">
        <ele>378</ele>
        <time>2017-04-12T12:41:53Z</time>
      </trkpt>
      <trkpt lat="46.222" lon="2.51018">
        <ele>378</ele>
        <time>2017-04-12T12:41:56Z</time>
      </trkpt>
      <trkpt lat="46.22204" lon="2.51018">
        <ele>378</ele>
        <time>2017-04-12T12:41:59Z</time>
      </trkpt>
      <trkpt lat="46.22208" lon="2.51019">
        <ele>378</ele>
        <time>2017-04-12T12:42:02Z</time>
      </trkpt>
      <trkpt lat="46.22213" lon="2.51019">
        <ele>378</ele>
        <time>2017-04-12T12:42:05Z</time>
      </trkpt>
      <trkpt lat="46.22217" lon="2.5102">
        <ele>378</ele>
        <time>2017-04-12T12:42:08Z</time>
      </trkpt>
      <trkpt lat="46.22221" lon="2.5102">
        <ele>378</ele>
        <time>2017-04-12T12:42:11Z</time>
      </trkpt>
      <trkpt lat="46.22226" lon="2.51021">
        <ele>378</ele>
        <time>2017-04-12T12:42:14Z</time>
      </trkpt>
      <trkpt lat="46.2223" lon="2.51021">
        <ele>378</ele>
        <time>2017-04-12T12:42:17Z</time>
      </trkpt>
      <trkpt lat="46.22234" lon="2.51022">
        <ele>378</ele>
        <time>2017-04-12T12:42:20Z</time>
      </trkpt>
      <trkpt lat="46.22238" lon="2.51022">
        <ele>378</ele>
        <time>2017-04-12T12:42:24Z</time>
      </trkpt>
      <trkpt lat="46.22243" lon="2.51023">
        <ele>378</ele>
        <time>2017-04-12T12:42:27Z</time>
      </trkpt>
      <trkpt lat="46.22248" lon="2.51024">
        <ele>377</ele>
        <time>2017-04-12T12:42:30Z</time>
      </trkpt>
      <trkpt lat="46.22252" lon="2.51024">
        <ele>377</ele>
        <time>2017-04-12T12:42:33Z</time>
      </trkpt>
      <trkpt lat="46.22256" lon="2.51024">
        <ele>377</ele>
        <time>2017-04-12T12:42:36Z</time>
      </trkpt>
      <trkpt lat="46.2226" lon="2.51024">
        <ele>377</ele>
        <time>2017-04-12T12:42:39Z</time>
      </trkpt>
      <trkpt lat="46.22264" lon="2.51025">
        <ele>377</ele>
        <time>2017-04-12T12:42:42Z</time>
      </trkpt>
      <trkpt lat="46.22269" lon="2.51024">
        <ele>377</ele>
        <time>2017-04-12T12:42:45Z</time>
      </trkpt>
      <trkpt lat="46.22273" lon="2.51024">
        <ele>377</ele>
        <time>2017-04-12T12:42:48Z</time>
      </trkpt>
      <trkpt lat="46.22277" lon="2.51023">
        <ele>377</ele>
        <time>2017-04-12T12:42:51Z</time>
      </trkpt>
      <trkpt lat="46.22282" lon="2.51022">
        <ele>377</ele>
        <time>2017-04-12T12:42:54Z</time>
      </trkpt>
      <trkpt lat="46.22286" lon="2.51021">
        <ele>377</ele>
        <time>2017-04-12T12:42:57Z</time>
      </trkpt>
      <trkpt lat="46.2229" lon="2.51021">
        <ele>377</ele>
        <time>2017-04-12T12:43:00Z</time>
      </trkpt>
      <trkpt lat="46.22294" lon="2.5102">
        <ele>377</ele>
        <time>2017-04-12T12:43:03Z</time>
      </trkpt>
      <trkpt lat="46.22299" lon="2.51019">
        <ele>376</ele>
        <time>2017-04-12T12:43:06Z</time>
      </trkpt>
      <trkpt lat="46.22303" lon="2.51018">
        <ele>376</ele>
        <time>2017-04-12T12:43:09Z</time>
      </trkpt>
      <trkpt lat="46.22307" lon="2.51017">
        <ele>376</ele>
        <time>2017-04-12T12:43:12Z</time>
      </trkpt>
      <trkpt lat="46.22311" lon="2.51016">
        <ele>376</ele>
        <time>2017-04-12T12:43:15Z</time>
      </trkpt>
      <trkpt lat="46.22315" lon="2.51014">
        <ele>376</ele>
        <time>2017-04-12T12:43:18Z</time>
      </trkpt>
      <trkpt lat="46.22319" lon="2.51012">
        <ele>376</ele>
        <time>2017-04-12T12:43:21Z</time>
      </trkpt>
      <trkpt lat="46.22322" lon="2.51009">
        <ele>376</ele>
        <time>2017-04-12T12:43:24Z</time>
      </trkpt>
      <trkpt lat="46.22326" lon="2.51007">
        <ele>375</ele>
        <time>2017-04-12T12:43:27Z</time>
      </trkpt>
      <trkpt lat="46.22329" lon="2.51005">
        <ele>375</ele>
        <time>2017-04-12T12:43:30Z</time>
      </trkpt>
      <trkpt lat="46.22334" lon="2.51001">
        <ele>374</ele>
        <time>2017-04-12T12:43:34Z</time>
      </trkpt>
      <trkpt lat="46.22337" lon="2.50999">
        <ele>373</ele>
        <time>2017-04-12T12:43:37Z</time>
      </trkpt>
      <trkpt lat="46.22341" lon="2.50994">
        <ele>373</ele>
        <time>2017-04-12T12:43:41Z</time>
      </trkpt>
      <trkpt lat="46.22345" lon="2.50989">
        <ele>373</ele>
        <time>2017-04-12T12:43:45Z</time>
      </trkpt>
      <trkpt lat="46.22348" lon="2.50985">
        <ele>373</ele>
        <time>2017-04-12T12:43:49Z</time>
      </trkpt>
      <trkpt lat="46.22351" lon="2.5098">
        <ele>372</ele>
        <time>2017-04-12T12:43:52Z</time>
      </trkpt>
      <trkpt lat="46.22354" lon="2.50976">
        <ele>372</ele>
        <time>2017-04-12T12:43:55Z</time>
      </trkpt>
      <trkpt lat="46.22357" lon="2.50972">
        <ele>371</ele>
        <time>2017-04-12T12:43:59Z</time>
      </trkpt>
      <trkpt lat="46.22361" lon="2.50967">
        <ele>371</ele>
        <time>2017-04-12T12:44:03Z</time>
      </trkpt>
      <trkpt lat="46.22364" lon="2.50963">
        <ele>371</ele>
        <time>2017-04-12T12:44:06Z</time>
      </trkpt>
      <trkpt lat="46.22369" lon="2.50959">
        <ele>371</ele>
        <time>2017-04-12T12:44:10Z</time>
      </trkpt>
      <trkpt lat="46.22372" lon="2.50953">
        <ele>371</ele>
        <time>2017-04-12T12:44:13Z</time>
      </trkpt>
      <trkpt lat="46.22375" lon="2.50949">
        <ele>371</ele>
        <time>2017-04-12T12:44:16Z</time>
      </trkpt>
      <trkpt lat="46.2238" lon="2.50947">
        <ele>371</ele>
        <time>2017-04-12T12:44:20Z</time>
      </trkpt>
      <trkpt lat="46.22382" lon="2.50944">
        <ele>372</ele>
        <time>2017-04-12T12:44:24Z</time>
      </trkpt>
      <trkpt lat="46.22385" lon="2.50939">
        <ele>372</ele>
        <time>2017-04-12T12:44:27Z</time>
      </trkpt>
      <trkpt lat="46.22387" lon="2.50935">
        <ele>372</ele>
        <time>2017-04-12T12:44:30Z</time>
      </trkpt>
      <trkpt lat="46.22388" lon="2.5093">
        <ele>372</ele>
        <time>2017-04-12T12:44:33Z</time>
      </trkpt>
      <trkpt lat="46.22388" lon="2.50925">
        <ele>372</ele>
        <time>2017-04-12T12:44:36Z</time>
      </trkpt>
      <trkpt lat="46.22387" lon="2.5092">
        <ele>372</ele>
        <time>2017-04-12T12:44:39Z</time>
      </trkpt>
      <trkpt lat="46.22386" lon="2.50915">
        <ele>372</ele>
        <time>2017-04-12T12:44:42Z</time>
      </trkpt>
      <trkpt lat="46.22386" lon="2.5091">
        <ele>371</ele>
        <time>2017-04-12T12:44:45Z</time>
      </trkpt>
      <trkpt lat="46.22388" lon="2.50904">
        <ele>371</ele>
        <time>2017-04-12T12:44:49Z</time>
      </trkpt>
      <trkpt lat="46.22389" lon="2.509">
        <ele>370</ele>
        <time>2017-04-12T12:44:52Z</time>
      </trkpt>
      <trkpt lat="46.22389" lon="2.50897">
        <ele>370</ele>
        <time>2017-04-12T12:44:55Z</time>
      </trkpt>
      <trkpt lat="46.22392" lon="2.50897">
        <ele>370</ele>
        <time>2017-04-12T12:44:59Z</time>
      </trkpt>
      <trkpt lat="46.22394" lon="2.50898">
        <ele>370</ele>
        <time>2017-04-12T12:45:03Z</time>
      </trkpt>
      <trkpt lat="46.22395" lon="2.50896">
        <ele>370</ele>
        <time>2017-04-12T12:45:19Z</time>
      </trkpt>
      <trkpt lat="46.22392" lon="2.50894">
        <ele>370</ele>
        <time>2017-04-12T12:45:23Z</time>
      </trkpt>
      <trkpt lat="46.2239" lon="2.50893">
        <ele>370</ele>
        <time>2017-04-12T12:45:26Z</time>
      </trkpt>
      <trkpt lat="46.2239" lon="2.50893">
        <ele>370</ele>
        <time>2017-04-12T12:45:41Z</time>
      </trkpt>
      <trkpt lat="46.22391" lon="2.50894">
        <ele>370</ele>
        <time>2017-04-12T12:45:44Z</time>
      </trkpt>
      <trkpt lat="46.22392" lon="2.50898">
        <ele>370</ele>
        <time>2017-04-12T12:45:48Z</time>
      </trkpt>
      <trkpt lat="46.22393" lon="2.50903">
        <ele>370</ele>
        <time>2017-04-12T12:45:51Z</time>
      </trkpt>
      <trkpt lat="46.22393" lon="2.50908">
        <ele>370</ele>
        <time>2017-04-12T12:45:55Z</time>
      </trkpt>
      <trkpt lat="46.22393" lon="2.50912">
        <ele>370</ele>
        <time>2017-04-12T12:45:59Z</time>
      </trkpt>
      <trkpt lat="46.22392" lon="2.50916">
        <ele>370</ele>
        <time>2017-04-12T12:46:03Z</time>
      </trkpt>
      <trkpt lat="46.2239" lon="2.5092">
        <ele>370</ele>
        <time>2017-04-12T12:46:07Z</time>
      </trkpt>
      <trkpt lat="46.22389" lon="2.50925">
        <ele>370</ele>
        <time>2017-04-12T12:46:11Z</time>
      </trkpt>
      <trkpt lat="46.22388" lon="2.50929">
        <ele>370</ele>
        <time>2017-04-12T12:46:15Z</time>
      </trkpt>
      <trkpt lat="46.22388" lon="2.50934">
        <ele>370</ele>
        <time>2017-04-12T12:46:18Z</time>
      </trkpt>
      <trkpt lat="46.22389" lon="2.50938">
        <ele>370</ele>
        <time>2017-04-12T12:46:21Z</time>
      </trkpt>
      <trkpt lat="46.22393" lon="2.5094">
        <ele>370</ele>
        <time>2017-04-12T12:46:25Z</time>
      </trkpt>
      <trkpt lat="46.22396" lon="2.50941">
        <ele>370</ele>
        <time>2017-04-12T12:46:28Z</time>
      </trkpt>
      <trkpt lat="46.224" lon="2.50941">
        <ele>370</ele>
        <time>2017-04-12T12:46:32Z</time>
      </trkpt>
      <trkpt lat="46.22404" lon="2.50941">
        <ele>370</ele>
        <time>2017-04-12T12:46:35Z</time>
      </trkpt>
      <trkpt lat="46.22408" lon="2.50942">
        <ele>370</ele>
        <time>2017-04-12T12:46:38Z</time>
      </trkpt>
      <trkpt lat="46.22412" lon="2.50942">
        <ele>370</ele>
        <time>2017-04-12T12:46:41Z</time>
      </trkpt>
      <trkpt lat="46.22416" lon="2.50942">
        <ele>370</ele>
        <time>2017-04-12T12:46:44Z</time>
      </trkpt>
      <trkpt lat="46.2242" lon="2.50943">
        <ele>370</ele>
        <time>2017-04-12T12:46:47Z</time>
      </trkpt>
      <trkpt lat="46.22424" lon="2.50943">
        <ele>370</ele>
        <time>2017-04-12T12:46:50Z</time>
      </trkpt>
      <trkpt lat="46.22429" lon="2.50944">
        <ele>370</ele>
        <time>2017-04-12T12:46:53Z</time>
      </trkpt>
      <trkpt lat="46.22433" lon="2.50945">
        <ele>370</ele>
        <time>2017-04-12T12:46:56Z</time>
      </trkpt>
      <trkpt lat="46.22438" lon="2.50945">
        <ele>370</ele>
        <time>2017-04-12T12:47:00Z</time>
      </trkpt>
      <trkpt lat="46.22441" lon="2.50945">
        <ele>370</ele>
        <time>2017-04-12T12:47:03Z</time>
      </trkpt>
      <trkpt lat="46.22447" lon="2.50944">
        <ele>370</ele>
        <time>2017-04-12T12:47:06Z</time>
      </trkpt>
      <trkpt lat="46.22451" lon="2.50943">
        <ele>370</ele>
        <time>2017-04-12T12:47:09Z</time>
      </trkpt>
      <trkpt lat="46.22454" lon="2.50942">
        <ele>370</ele>
        <time>2017-04-12T12:47:12Z</time>
      </trkpt>
      <trkpt lat="46.22458" lon="2.50942">
        <ele>370</ele>
        <time>2017-04-12T12:47:16Z</time>
      </trkpt>
      <trkpt lat="46.22463" lon="2.50941">
        <ele>370</ele>
        <time>2017-04-12T12:47:20Z</time>
      </trkpt>
      <trkpt lat="46.22469" lon="2.50941">
        <ele>369</ele>
        <time>2017-04-12T12:47:24Z</time>
      </trkpt>
      <trkpt lat="46.22472" lon="2.50943">
        <ele>367</ele>
        <time>2017-04-12T12:47:28Z</time>
      </trkpt>
      <trkpt lat="46.22476" lon="2.50945">
        <ele>366</ele>
        <time>2017-04-12T12:47:31Z</time>
      </trkpt>
      <trkpt lat="46.2248" lon="2.50947">
        <ele>365</ele>
        <time>2017-04-12T12:47:34Z</time>
      </trkpt>
      <trkpt lat="46.22484" lon="2.5095">
        <ele>365</ele>
        <time>2017-04-12T12:47:37Z</time>
      </trkpt>
      <trkpt lat="46.22488" lon="2.50955">
        <ele>365</ele>
        <time>2017-04-12T12:47:41Z</time>
      </trkpt>
      <trkpt lat="46.22489" lon="2.5096">
        <ele>363</ele>
        <time>2017-04-12T12:47:44Z</time>
      </trkpt>
      <trkpt lat="46.22492" lon="2.50965">
        <ele>362</ele>
        <time>2017-04-12T12:47:47Z</time>
      </trkpt>
      <trkpt lat="46.22493" lon="2.5097">
        <ele>361</ele>
        <time>2017-04-12T12:47:50Z</time>
      </trkpt>
      <trkpt lat="46.22496" lon="2.50975">
        <ele>361</ele>
        <time>2017-04-12T12:47:53Z</time>
      </trkpt>
      <trkpt lat="46.225" lon="2.5098">
        <ele>361</ele>
        <time>2017-04-12T12:47:56Z</time>
      </trkpt>
      <trkpt lat="46.22504" lon="2.50985">
        <ele>361</ele>
        <time>2017-04-12T12:47:59Z</time>
      </trkpt>
      <trkpt lat="46.22508" lon="2.50989">
        <ele>361</ele>
        <time>2017-04-12T12:48:02Z</time>
      </trkpt>
      <trkpt lat="46.22512" lon="2.50993">
        <ele>361</ele>
        <time>2017-04-12T12:48:05Z</time>
      </trkpt>
      <trkpt lat="46.22515" lon="2.50996">
        <ele>361</ele>
        <time>2017-04-12T12:48:08Z</time>
      </trkpt>
      <trkpt lat="46.2252" lon="2.50999">
        <ele>361</ele>
        <time>2017-04-12T12:48:12Z</time>
      </trkpt>
      <trkpt lat="46.22525" lon="2.51002">
        <ele>361</ele>
        <time>2017-04-12T12:48:16Z</time>
      </trkpt>
      <trkpt lat="46.22528" lon="2.51005">
        <ele>361</ele>
        <time>2017-04-12T12:48:19Z</time>
      </trkpt>
      <trkpt lat="46.22532" lon="2.51007">
        <ele>361</ele>
        <time>2017-04-12T12:48:22Z</time>
      </trkpt>
      <trkpt lat="46.22536" lon="2.51009">
        <ele>361</ele>
        <time>2017-04-12T12:48:26Z</time>
      </trkpt>
      <trkpt lat="46.22541" lon="2.51012">
        <ele>361</ele>
        <time>2017-04-12T12:48:30Z</time>
      </trkpt>
      <trkpt lat="46.22545" lon="2.51014">
        <ele>361</ele>
        <time>2017-04-12T12:48:33Z</time>
      </trkpt>
      <trkpt lat="46.22549" lon="2.51016">
        <ele>361</ele>
        <time>2017-04-12T12:48:36Z</time>
      </trkpt>
      <trkpt lat="46.22553" lon="2.51018">
        <ele>361</ele>
        <time>2017-04-12T12:48:39Z</time>
      </trkpt>
      <trkpt lat="46.22558" lon="2.51021">
        <ele>361</ele>
        <time>2017-04-12T12:48:43Z</time>
      </trkpt>
      <trkpt lat="46.22563" lon="2.51024">
        <ele>361</ele>
        <time>2017-04-12T12:48:47Z</time>
      </trkpt>
      <trkpt lat="46.22567" lon="2.51026">
        <ele>361</ele>
        <time>2017-04-12T12:48:50Z</time>
      </trkpt>
      <trkpt lat="46.2257" lon="2.51029">
        <ele>361</ele>
        <time>2017-04-12T12:48:53Z</time>
      </trkpt>
      <trkpt lat="46.22574" lon="2.51032">
        <ele>361</ele>
        <time>2017-04-12T12:48:56Z</time>
      </trkpt>
      <trkpt lat="46.22578" lon="2.51035">
        <ele>358</ele>
        <time>2017-04-12T12:49:00Z</time>
      </trkpt>
      <trkpt lat="46.22581" lon="2.51039">
        <ele>357</ele>
        <time>2017-04-12T12:49:04Z</time>
      </trkpt>
      <trkpt lat="46.22586" lon="2.51042">
        <ele>355</ele>
        <time>2017-04-12T12:49:08Z</time>
      </trkpt>
      <trkpt lat="46.22591" lon="2.51045">
        <ele>355</ele>
        <time>2017-04-12T12:49:11Z</time>
      </trkpt>
      <trkpt lat="46.22594" lon="2.51047">
        <ele>355</ele>
        <time>2017-04-12T12:49:14Z</time>
      </trkpt>
      <trkpt lat="46.22598" lon="2.51049">
        <ele>355</ele>
        <time>2017-04-12T12:49:17Z</time>
      </trkpt>
      <trkpt lat="46.22602" lon="2.51052">
        <ele>355</ele>
        <time>2017-04-12T12:49:20Z</time>
      </trkpt>
      <trkpt lat="46.22605" lon="2.51054">
        <ele>355</ele>
        <time>2017-04-12T12:49:23Z</time>
      </trkpt>
      <trkpt lat="46.2261" lon="2.51057">
        <ele>355</ele>
        <time>2017-04-12T12:49:26Z</time>
      </trkpt>
      <trkpt lat="46.22615" lon="2.51059">
        <ele>355</ele>
        <time>2017-04-12T12:49:29Z</time>
      </trkpt>
      <trkpt lat="46.22619" lon="2.51061">
        <ele>355</ele>
        <time>2017-04-12T12:49:32Z</time>
      </trkpt>
      <trkpt lat="46.22622" lon="2.51063">
        <ele>355</ele>
        <time>2017-04-12T12:49:35Z</time>
      </trkpt>
      <trkpt lat="46.22626" lon="2.51066">
        <ele>355</ele>
        <time>2017-04-12T12:49:38Z</time>
      </trkpt>
      <trkpt lat="46.2263" lon="2.5107">
        <ele>355</ele>
        <time>2017-04-12T12:49:42Z</time>
      </trkpt>
      <trkpt lat="46.22633" lon="2.51073">
        <ele>355</ele>
        <time>2017-04-12T12:49:45Z</time>
      </trkpt>
      <trkpt lat="46.22638" lon="2.51076">
        <ele>355</ele>
        <time>2017-04-12T12:49:48Z</time>
      </trkpt>
      <trkpt lat="46.22641" lon="2.51079">
        <ele>355</ele>
        <time>2017-04-12T12:49:51Z</time>
      </trkpt>
      <trkpt lat="46.22645" lon="2.51081">
        <ele>355</ele>
        <time>2017-04-12T12:49:54Z</time>
      </trkpt>
      <trkpt lat="46.22649" lon="2.51083">
        <ele>355</ele>
        <time>2017-04-12T12:49:57Z</time>
      </trkpt>
      <trkpt lat="46.22654" lon="2.51085">
        <ele>355</ele>
        <time>2017-04-12T12:50:00Z</time>
      </trkpt>
      <trkpt lat="46.22659" lon="2.51087">
        <ele>355</ele>
        <time>2017-04-12T12:50:03Z</time>
      </trkpt>
      <trkpt lat="46.22665" lon="2.51089">
        <ele>355</ele>
        <time>2017-04-12T12:50:06Z</time>
      </trkpt>
      <trkpt lat="46.22669" lon="2.51091">
        <ele>357</ele>
        <time>2017-04-12T12:50:09Z</time>
      </trkpt>
      <trkpt lat="46.22673" lon="2.51093">
        <ele>358</ele>
        <time>2017-04-12T12:50:12Z</time>
      </trkpt>
      <trkpt lat="46.22677" lon="2.51094">
        <ele>358</ele>
        <time>2017-04-12T12:50:15Z</time>
      </trkpt>
      <trkpt lat="46.22681" lon="2.51096">
        <ele>358</ele>
        <time>2017-04-12T12:50:18Z</time>
      </trkpt>
      <trkpt lat="46.22685" lon="2.51098">
        <ele>358</ele>
        <time>2017-04-12T12:50:21Z</time>
      </trkpt>
      <trkpt lat="46.22689" lon="2.511">
        <ele>358</ele>
        <time>2017-04-12T12:50:24Z</time>
      </trkpt>
      <trkpt lat="46.22694" lon="2.51102">
        <ele>358</ele>
        <time>2017-04-12T12:50:27Z</time>
      </trkpt>
      <trkpt lat="46.22698" lon="2.51105">
        <ele>359</ele>
        <time>2017-04-12T12:50:30Z</time>
      </trkpt>
      <trkpt lat="46.22702" lon="2.51109">
        <ele>359</ele>
        <time>2017-04-12T12:50:34Z</time>
      </trkpt>
      <trkpt lat="46.22707" lon="2.51114">
        <ele>359</ele>
        <time>2017-04-12T12:50:38Z</time>
      </trkpt>
      <trkpt lat="46.22711" lon="2.51118">
        <ele>359</ele>
        <time>2017-04-12T12:50:41Z</time>
      </trkpt>
      <trkpt lat="46.22715" lon="2.51121">
        <ele>359</ele>
        <time>2017-04-12T12:50:44Z</time>
      </trkpt>
      <trkpt lat="46.22718" lon="2.51124">
        <ele>359</ele>
        <time>2017-04-12T12:50:47Z</time>
      </trkpt>
      <trkpt lat="46.22722" lon="2.51126">
        <ele>359</ele>
        <time>2017-04-12T12:50:50Z</time>
      </trkpt>
      <trkpt lat="46.22726" lon="2.51129">
        <ele>359</ele>
        <time>2017-04-12T12:50:53Z</time>
      </trkpt>
      <trkpt lat="46.2273" lon="2.51131">
        <ele>359</ele>
        <time>2017-04-12T12:50:56Z</time>
      </trkpt>
      <trkpt lat="46.22734" lon="2.51133">
        <ele>359</ele>
        <time>2017-04-12T12:50:59Z</time>
      </trkpt>
      <trkpt lat="46.22739" lon="2.51136">
        <ele>359</ele>
        <time>2017-04-12T12:51:02Z</time>
      </trkpt>
      <trkpt lat="46.22743" lon="2.51138">
        <ele>359</ele>
        <time>2017-04-12T12:51:06Z</time>
      </trkpt>
      <trkpt lat="46.22748" lon="2.5114">
        <ele>360</ele>
        <time>2017-04-12T12:51:09Z</time>
      </trkpt>
      <trkpt lat="46.22752" lon="2.51142">
        <ele>360</ele>
        <time>2017-04-12T12:51:12Z</time>
      </trkpt>
      <trkpt lat="46.22755" lon="2.51143">
        <ele>360</ele>
        <time>2017-04-12T12:51:15Z</time>
      </trkpt>
      <trkpt lat="46.22758" lon="2.51145">
        <ele>360</ele>
        <time>2017-04-12T12:51:18Z</time>
      </trkpt>
      <trkpt lat="46.22762" lon="2.51146">
        <ele>360</ele>
        <time>2017-04-12T12:51:23Z</time>
      </trkpt>
      <trkpt lat="46.22765" lon="2.51147">
        <ele>360</ele>
        <time>2017-04-12T12:51:26Z</time>
      </trkpt>
      <trkpt lat="46.22768" lon="2.5115">
        <ele>359</ele>
        <time>2017-04-12T12:51:30Z</time>
      </trkpt>
      <trkpt lat="46.22771" lon="2.51151">
        <ele>358</ele>
        <time>2017-04-12T12:51:33Z</time>
      </trkpt>
      <trkpt lat="46.22775" lon="2.51152">
        <ele>356</ele>
        <time>2017-04-12T12:51:36Z</time>
      </trkpt>
      <trkpt lat="46.22778" lon="2.51155">
        <ele>355</ele>
        <time>2017-04-12T12:51:39Z</time>
      </trkpt>
      <trkpt lat="46.22783" lon="2.51157">
        <ele>355</ele>
        <time>2017-04-12T12:51:42Z</time>
      </trkpt>
      <trkpt lat="46.22788" lon="2.51158">
        <ele>355</ele>
        <time>2017-04-12T12:51:45Z</time>
      </trkpt>
      <trkpt lat="46.22793" lon="2.51158">
        <ele>355</ele>
        <time>2017-04-12T12:51:48Z</time>
      </trkpt>
      <trkpt lat="46.22799" lon="2.51157">
        <ele>355</ele>
        <time>2017-04-12T12:51:51Z</time>
      </trkpt>
      <trkpt lat="46.22803" lon="2.51156">
        <ele>355</ele>
        <time>2017-04-12T12:51:54Z</time>
      </trkpt>
      <trkpt lat="46.22809" lon="2.51156">
        <ele>355</ele>
        <time>2017-04-12T12:51:57Z</time>
      </trkpt>
      <trkpt lat="46.22813" lon="2.51156">
        <ele>355</ele>
        <time>2017-04-12T12:52:00Z</time>
      </trkpt>
      <trkpt lat="46.22817" lon="2.51157">
        <ele>355</ele>
        <time>2017-04-12T12:52:03Z</time>
      </trkpt>
      <trkpt lat="46.22821" lon="2.51158">
        <ele>355</ele>
        <time>2017-04-12T12:52:06Z</time>
      </trkpt>
      <trkpt lat="46.22824" lon="2.51158">
        <ele>355</ele>
        <time>2017-04-12T12:52:09Z</time>
      </trkpt>
      <trkpt lat="46.22829" lon="2.51158">
        <ele>355</ele>
        <time>2017-04-12T12:52:12Z</time>
      </trkpt>
      <trkpt lat="46.22832" lon="2.51159">
        <ele>355</ele>
        <time>2017-04-12T12:52:15Z</time>
      </trkpt>
      <trkpt lat="46.22836" lon="2.51159">
        <ele>355</ele>
        <time>2017-04-12T12:52:18Z</time>
      </trkpt>
      <trkpt lat="46.2284" lon="2.5116">
        <ele>355</ele>
        <time>2017-04-12T12:52:21Z</time>
      </trkpt>
      <trkpt lat="46.22844" lon="2.51161">
        <ele>354</ele>
        <time>2017-04-12T12:52:24Z</time>
      </trkpt>
      <trkpt lat="46.22847" lon="2.51163">
        <ele>353</ele>
        <time>2017-04-12T12:52:27Z</time>
      </trkpt>
      <trkpt lat="46.22853" lon="2.51166">
        <ele>353</ele>
        <time>2017-04-12T12:52:30Z</time>
      </trkpt>
      <trkpt lat="46.22858" lon="2.51167">
        <ele>353</ele>
        <time>2017-04-12T12:52:33Z</time>
      </trkpt>
      <trkpt lat="46.22862" lon="2.51169">
        <ele>353</ele>
        <time>2017-04-12T12:52:36Z</time>
      </trkpt>
      <trkpt lat="46.22866" lon="2.51171">
        <ele>353</ele>
        <time>2017-04-12T12:52:39Z</time>
      </trkpt>
      <trkpt lat="46.2287" lon="2.51173">
        <ele>353</ele>
        <time>2017-04-12T12:52:42Z</time>
      </trkpt>
      <trkpt lat="46.22874" lon="2.51175">
        <ele>353</ele>
        <time>2017-04-12T12:52:45Z</time>
      </trkpt>
      <trkpt lat="46.22878" lon="2.51177">
        <ele>353</ele>
        <time>2017-04-12T12:52:48Z</time>
      </trkpt>
      <trkpt lat="46.22883" lon="2.51179">
        <ele>353</ele>
        <time>2017-04-12T12:52:51Z</time>
      </trkpt>
      <trkpt lat="46.22888" lon="2.5118">
        <ele>353</ele>
        <time>2017-04-12T12:52:54Z</time>
      </trkpt>
      <trkpt lat="46.22893" lon="2.51181">
        <ele>353</ele>
        <time>2017-04-12T12:52:57Z</time>
      </trkpt>
      <trkpt lat="46.22899" lon="2.51182">
        <ele>353</ele>
        <time>2017-04-12T12:53:00Z</time>
      </trkpt>
      <trkpt lat="46.22904" lon="2.51184">
        <ele>353</ele>
        <time>2017-04-12T12:53:03Z</time>
      </trkpt>
      <trkpt lat="46.22908" lon="2.51184">
        <ele>353</ele>
        <time>2017-04-12T12:53:06Z</time>
      </trkpt>
      <trkpt lat="46.22913" lon="2.51185">
        <ele>353</ele>
        <time>2017-04-12T12:53:09Z</time>
      </trkpt>
      <trkpt lat="46.22918" lon="2.51186">
        <ele>353</ele>
        <time>2017-04-12T12:53:12Z</time>
      </trkpt>
      <trkpt lat="46.22922" lon="2.51186">
        <ele>353</ele>
        <time>2017-04-12T12:53:15Z</time>
      </trkpt>
      <trkpt lat="46.22927" lon="2.51186">
        <ele>353</ele>
        <time>2017-04-12T12:53:18Z</time>
      </trkpt>
      <trkpt lat="46.22931" lon="2.51186">
        <ele>353</ele>
        <time>2017-04-12T12:53:21Z</time>
      </trkpt>
      <trkpt lat="46.22936" lon="2.51187">
        <ele>353</ele>
        <time>2017-04-12T12:53:24Z</time>
      </trkpt>
      <trkpt lat="46.2294" lon="2.51187">
        <ele>353</ele>
        <time>2017-04-12T12:53:27Z</time>
      </trkpt>
      <trkpt lat="46.22945" lon="2.51188">
        <ele>353</ele>
        <time>2017-04-12T12:53:30Z</time>
      </trkpt>
      <trkpt lat="46.22949" lon="2.51188">
        <ele>353</ele>
        <time>2017-04-12T12:53:33Z</time>
      </trkpt>
      <trkpt lat="46.22953" lon="2.51188">
        <ele>353</ele>
        <time>2017-04-12T12:53:36Z</time>
      </trkpt>
      <trkpt lat="46.22958" lon="2.51188">
        <ele>353</ele>
        <time>2017-04-12T12:53:39Z</time>
      </trkpt>
      <trkpt lat="46.22963" lon="2.51189">
        <ele>353</ele>
        <time>2017-04-12T12:53:42Z</time>
      </trkpt>
      <trkpt lat="46.22967" lon="2.5119">
        <ele>353</ele>
        <time>2017-04-12T12:53:45Z</time>
      </trkpt>
      <trkpt lat="46.22971" lon="2.5119">
        <ele>353</ele>
        <time>2017-04-12T12:53:48Z</time>
      </trkpt>
      <trkpt lat="46.22976" lon="2.51188">
        <ele>353</ele>
        <time>2017-04-12T12:53:51Z</time>
      </trkpt>
      <trkpt lat="46.22979" lon="2.51189">
        <ele>353</ele>
        <time>2017-04-12T12:53:54Z</time>
      </trkpt>
      <trkpt lat="46.22984" lon="2.51191">
        <ele>353</ele>
        <time>2017-04-12T12:53:58Z</time>
      </trkpt>
      <trkpt lat="46.22987" lon="2.51194">
        <ele>353</ele>
        <time>2017-04-12T12:54:01Z</time>
      </trkpt>
      <trkpt lat="46.22991" lon="2.51196">
        <ele>353</ele>
        <time>2017-04-12T12:54:04Z</time>
      </trkpt>
      <trkpt lat="46.22994" lon="2.51198">
        <ele>351</ele>
        <time>2017-04-12T12:54:07Z</time>
      </trkpt>
      <trkpt lat="46.22996" lon="2.512">
        <ele>349</ele>
        <time>2017-04-12T12:54:10Z</time>
      </trkpt>
      <trkpt lat="46.23001" lon="2.51202">
        <ele>347</ele>
        <time>2017-04-12T12:54:14Z</time>
      </trkpt>
      <trkpt lat="46.23005" lon="2.51204">
        <ele>347</ele>
        <time>2017-04-12T12:54:17Z</time>
      </trkpt>
      <trkpt lat="46.23009" lon="2.51206">
        <ele>347</ele>
        <time>2017-04-12T12:54:20Z</time>
      </trkpt>
      <trkpt lat="46.23013" lon="2.51208">
        <ele>346</ele>
        <time>2017-04-12T12:54:23Z</time>
      </trkpt>
      <trkpt lat="46.23016" lon="2.51209">
        <ele>346</ele>
        <time>2017-04-12T12:54:26Z</time>
      </trkpt>
      <trkpt lat="46.23021" lon="2.51212">
        <ele>345</ele>
        <time>2017-04-12T12:54:30Z</time>
      </trkpt>
      <trkpt lat="46.23024" lon="2.51214">
        <ele>344</ele>
        <time>2017-04-12T12:54:33Z</time>
      </trkpt>
      <trkpt lat="46.23029" lon="2.51216">
        <ele>344</ele>
        <time>2017-04-12T12:54:36Z</time>
      </trkpt>
      <trkpt lat="46.23033" lon="2.5122">
        <ele>344</ele>
        <time>2017-04-12T12:54:40Z</time>
      </trkpt>
      <trkpt lat="46.23037" lon="2.51223">
        <ele>344</ele>
        <time>2017-04-12T12:54:43Z</time>
      </trkpt>
      <trkpt lat="46.2304" lon="2.51226">
        <ele>344</ele>
        <time>2017-04-12T12:54:46Z</time>
      </trkpt>
      <trkpt lat="46.23044" lon="2.5123">
        <ele>343</ele>
        <time>2017-04-12T12:54:49Z</time>
      </trkpt>
      <trkpt lat="46.23048" lon="2.51234">
        <ele>343</ele>
        <time>2017-04-12T12:54:52Z</time>
      </trkpt>
      <trkpt lat="46.23052" lon="2.51238">
        <ele>343</ele>
        <time>2017-04-12T12:54:55Z</time>
      </trkpt>
      <trkpt lat="46.23057" lon="2.5124">
        <ele>343</ele>
        <time>2017-04-12T12:54:58Z</time>
      </trkpt>
      <trkpt lat="46.23061" lon="2.51243">
        <ele>343</ele>
        <time>2017-04-12T12:55:01Z</time>
      </trkpt>
      <trkpt lat="46.23066" lon="2.51249">
        <ele>343</ele>
        <time>2017-04-12T12:55:05Z</time>
      </trkpt>
      <trkpt lat="46.23068" lon="2.51253">
        <ele>343</ele>
        <time>2017-04-12T12:55:08Z</time>
      </trkpt>
      <trkpt lat="46.23073" lon="2.51258">
        <ele>343</ele>
        <time>2017-04-12T12:55:11Z</time>
      </trkpt>
      <trkpt lat="46.23078" lon="2.51263">
        <ele>343</ele>
        <time>2017-04-12T12:55:15Z</time>
      </trkpt>
      <trkpt lat="46.23081" lon="2.51268">
        <ele>343</ele>
        <time>2017-04-12T12:55:18Z</time>
      </trkpt>
      <trkpt lat="46.23083" lon="2.51272">
        <ele>343</ele>
        <time>2017-04-12T12:55:21Z</time>
      </trkpt>
      <trkpt lat="46.23086" lon="2.51276">
        <ele>343</ele>
        <time>2017-04-12T12:55:24Z</time>
      </trkpt>
      <trkpt lat="46.2309" lon="2.51281">
        <ele>343</ele>
        <time>2017-04-12T12:55:27Z</time>
      </trkpt>
      <trkpt lat="46.23095" lon="2.51285">
        <ele>343</ele>
        <time>2017-04-12T12:55:30Z</time>
      </trkpt>
      <trkpt lat="46.23098" lon="2.5129">
        <ele>343</ele>
        <time>2017-04-12T12:55:33Z</time>
      </trkpt>
      <trkpt lat="46.23101" lon="2.51294">
        <ele>343</ele>
        <time>2017-04-12T12:55:36Z</time>
      </trkpt>
      <trkpt lat="46.23105" lon="2.51299">
        <ele>343</ele>
        <time>2017-04-12T12:55:39Z</time>
      </trkpt>
      <trkpt lat="46.23108" lon="2.51303">
        <ele>343</ele>
        <time>2017-04-12T12:55:42Z</time>
      </trkpt>
      <trkpt lat="46.23112" lon="2.51309">
        <ele>344</ele>
        <time>2017-04-12T12:55:46Z</time>
      </trkpt>
      <trkpt lat="46.23115" lon="2.51313">
        <ele>344</ele>
        <time>2017-04-12T12:55:49Z</time>
      </trkpt>
      <trkpt lat="46.23118" lon="2.51317">
        <ele>344</ele>
        <time>2017-04-12T12:55:52Z</time>
      </trkpt>
      <trkpt lat="46.2312" lon="2.51322">
        <ele>344</ele>
        <time>2017-04-12T12:55:55Z</time>
      </trkpt>
      <trkpt lat="46.23123" lon="2.51326">
        <ele>344</ele>
        <time>2017-04-12T12:55:58Z</time>
      </trkpt>
      <trkpt lat="46.23127" lon="2.51331">
        <ele>344</ele>
        <time>2017-04-12T12:56:02Z</time>
      </trkpt>
      <trkpt lat="46.2313" lon="2.51338">
        <ele>344</ele>
        <time>2017-04-12T12:56:06Z</time>
      </trkpt>
      <trkpt lat="46.23132" lon="2.51342">
        <ele>344</ele>
        <time>2017-04-12T12:56:09Z</time>
      </trkpt>
      <trkpt lat="46.23136" lon="2.51348">
        <ele>344</ele>
        <time>2017-04-12T12:56:13Z</time>
      </trkpt>
      <trkpt lat="46.2314" lon="2.51353">
        <ele>344</ele>
        <time>2017-04-12T12:56:17Z</time>
      </trkpt>
      <trkpt lat="46.23144" lon="2.51357">
        <ele>344</ele>
        <time>2017-04-12T12:56:20Z</time>
      </trkpt>
      <trkpt lat="46.23147" lon="2.51361">
        <ele>344</ele>
        <time>2017-04-12T12:56:23Z</time>
      </trkpt>
      <trkpt lat="46.23148" lon="2.51365">
        <ele>343</ele>
        <time>2017-04-12T12:56:26Z</time>
      </trkpt>
      <trkpt lat="46.23149" lon="2.5137">
        <ele>342</ele>
        <time>2017-04-12T12:56:29Z</time>
      </trkpt>
      <trkpt lat="46.23151" lon="2.51374">
        <ele>339</ele>
        <time>2017-04-12T12:56:32Z</time>
      </trkpt>
      <trkpt lat="46.23153" lon="2.51379">
        <ele>337</ele>
        <time>2017-04-12T12:56:36Z</time>
      </trkpt>
      <trkpt lat="46.23154" lon="2.51383">
        <ele>336</ele>
        <time>2017-04-12T12:56:39Z</time>
      </trkpt>
      <trkpt lat="46.23156" lon="2.51388">
        <ele>335</ele>
        <time>2017-04-12T12:56:42Z</time>
      </trkpt>
      <trkpt lat="46.23159" lon="2.51392">
        <ele>333</ele>
        <time>2017-04-12T12:56:45Z</time>
      </trkpt>
      <trkpt lat="46.23162" lon="2.51397">
        <ele>332</ele>
        <time>2017-04-12T12:56:49Z</time>
      </trkpt>
      <trkpt lat="46.23165" lon="2.51401">
        <ele>331</ele>
        <time>2017-04-12T12:56:52Z</time>
      </trkpt>
      <trkpt lat="46.23169" lon="2.51405">
        <ele>330</ele>
        <time>2017-04-12T12:56:56Z</time>
      </trkpt>
      <trkpt lat="46.23174" lon="2.51408">
        <ele>330</ele>
        <time>2017-04-12T12:56:59Z</time>
      </trkpt>
      <trkpt lat="46.23177" lon="2.51411">
        <ele>330</ele>
        <time>2017-04-12T12:57:02Z</time>
      </trkpt>
      <trkpt lat="46.2318" lon="2.51412">
        <ele>330</ele>
        <time>2017-04-12T12:57:06Z</time>
      </trkpt>
      <trkpt lat="46.23183" lon="2.51413">
        <ele>330</ele>
        <time>2017-04-12T12:57:09Z</time>
      </trkpt>
      <trkpt lat="46.23188" lon="2.51412">
        <ele>330</ele>
        <time>2017-04-12T12:57:12Z</time>
      </trkpt>
      <trkpt lat="46.23193" lon="2.5141">
        <ele>330</ele>
        <time>2017-04-12T12:57:15Z</time>
      </trkpt>
      <trkpt lat="46.23199" lon="2.51406">
        <ele>330</ele>
        <time>2017-04-12T12:57:18Z</time>
      </trkpt>
      <trkpt lat="46.23204" lon="2.51402">
        <ele>331</ele>
        <time>2017-04-12T12:57:21Z</time>
      </trkpt>
      <trkpt lat="46.23208" lon="2.514">
        <ele>332</ele>
        <time>2017-04-12T12:57:24Z</time>
      </trkpt>
      <trkpt lat="46.23213" lon="2.51396">
        <ele>333</ele>
        <time>2017-04-12T12:57:27Z</time>
      </trkpt>
      <trkpt lat="46.23218" lon="2.51393">
        <ele>334</ele>
        <time>2017-04-12T12:57:30Z</time>
      </trkpt>
      <trkpt lat="46.23222" lon="2.51391">
        <ele>335</ele>
        <time>2017-04-12T12:57:33Z</time>
      </trkpt>
      <trkpt lat="46.23227" lon="2.51389">
        <ele>336</ele>
        <time>2017-04-12T12:57:36Z</time>
      </trkpt>
      <trkpt lat="46.23231" lon="2.51389">
        <ele>336</ele>
        <time>2017-04-12T12:57:40Z</time>
      </trkpt>
      <trkpt lat="46.23234" lon="2.5139">
        <ele>336</ele>
        <time>2017-04-12T12:57:44Z</time>
      </trkpt>
      <trkpt lat="46.23237" lon="2.51388">
        <ele>336</ele>
        <time>2017-04-12T12:57:47Z</time>
      </trkpt>
      <trkpt lat="46.23239" lon="2.51385">
        <ele>336</ele>
        <time>2017-04-12T12:57:51Z</time>
      </trkpt>
      <trkpt lat="46.23243" lon="2.51381">
        <ele>336</ele>
        <time>2017-04-12T12:57:55Z</time>
      </trkpt>
      <trkpt lat="46.23247" lon="2.51379">
        <ele>336</ele>
        <time>2017-04-12T12:57:58Z</time>
      </trkpt>
      <trkpt lat="46.23251" lon="2.51377">
        <ele>337</ele>
        <time>2017-04-12T12:58:01Z</time>
      </trkpt>
      <trkpt lat="46.23256" lon="2.51378">
        <ele>338</ele>
        <time>2017-04-12T12:58:05Z</time>
      </trkpt>
      <trkpt lat="46.23258" lon="2.51381">
        <ele>338</ele>
        <time>2017-04-12T12:58:09Z</time>
      </trkpt>
      <trkpt lat="46.23261" lon="2.51382">
        <ele>338</ele>
        <time>2017-04-12T12:58:13Z</time>
      </trkpt>
      <trkpt lat="46.23265" lon="2.51378">
        <ele>338</ele>
        <time>2017-04-12T12:58:16Z</time>
      </trkpt>
      <trkpt lat="46.23268" lon="2.51372">
        <ele>338</ele>
        <time>2017-04-12T12:58:20Z</time>
      </trkpt>
      <trkpt lat="46.2327" lon="2.51368">
        <ele>338</ele>
        <time>2017-04-12T12:58:23Z</time>
      </trkpt>
      <trkpt lat="46.23274" lon="2.51363">
        <ele>338</ele>
        <time>2017-04-12T12:58:26Z</time>
      </trkpt>
      <trkpt lat="46.23276" lon="2.5136">
        <ele>338</ele>
        <time>2017-04-12T12:58:29Z</time>
      </trkpt>
      <trkpt lat="46.2328" lon="2.51355">
        <ele>338</ele>
        <time>2017-04-12T12:58:32Z</time>
      </trkpt>
      <trkpt lat="46.23281" lon="2.5135">
        <ele>338</ele>
        <time>2017-04-12T12:58:35Z</time>
      </trkpt>
      <trkpt lat="46.23284" lon="2.51344">
        <ele>338</ele>
        <time>2017-04-12T12:58:38Z</time>
      </trkpt>
      <trkpt lat="46.23287" lon="2.5134">
        <ele>338</ele>
        <time>2017-04-12T12:58:41Z</time>
      </trkpt>
      <trkpt lat="46.23288" lon="2.51334">
        <ele>338</ele>
        <time>2017-04-12T12:58:45Z</time>
      </trkpt>
      <trkpt lat="46.2329" lon="2.51329">
        <ele>338</ele>
        <time>2017-04-12T12:58:48Z</time>
      </trkpt>
      <trkpt lat="46.23293" lon="2.51324">
        <ele>338</ele>
        <time>2017-04-12T12:58:52Z</time>
      </trkpt>
      <trkpt lat="46.23295" lon="2.51319">
        <ele>338</ele>
        <time>2017-04-12T12:58:55Z</time>
      </trkpt>
      <trkpt lat="46.23297" lon="2.51315">
        <ele>338</ele>
        <time>2017-04-12T12:58:58Z</time>
      </trkpt>
      <trkpt lat="46.23299" lon="2.5131">
        <ele>338</ele>
        <time>2017-04-12T12:59:02Z</time>
      </trkpt>
      <trkpt lat="46.23301" lon="2.51305">
        <ele>338</ele>
        <time>2017-04-12T12:59:06Z</time>
      </trkpt>
      <trkpt lat="46.23301" lon="2.513">
        <ele>338</ele>
        <time>2017-04-12T12:59:10Z</time>
      </trkpt>
      <trkpt lat="46.23299" lon="2.51295">
        <ele>338</ele>
        <time>2017-04-12T12:59:13Z</time>
      </trkpt>
      <trkpt lat="46.23298" lon="2.5129">
        <ele>338</ele>
        <time>2017-04-12T12:59:16Z</time>
      </trkpt>
      <trkpt lat="46.23295" lon="2.51286">
        <ele>338</ele>
        <time>2017-04-12T12:59:20Z</time>
      </trkpt>
      <trkpt lat="46.23296" lon="2.51281">
        <ele>336</ele>
        <time>2017-04-12T12:59:24Z</time>
      </trkpt>
      <trkpt lat="46.23297" lon="2.51277">
        <ele>335</ele>
        <time>2017-04-12T12:59:27Z</time>
      </trkpt>
      <trkpt lat="46.23297" lon="2.51271">
        <ele>334</ele>
        <time>2017-04-12T12:59:31Z</time>
      </trkpt>
      <trkpt lat="46.23296" lon="2.51267">
        <ele>333</ele>
        <time>2017-04-12T12:59:35Z</time>
      </trkpt>
      <trkpt lat="46.23294" lon="2.51263">
        <ele>332</ele>
        <time>2017-04-12T12:59:38Z</time>
      </trkpt>
      <trkpt lat="46.23291" lon="2.51258">
        <ele>332</ele>
        <time>2017-04-12T12:59:41Z</time>
      </trkpt>
      <trkpt lat="46.23288" lon="2.51255">
        <ele>332</ele>
        <time>2017-04-12T12:59:44Z</time>
      </trkpt>
      <trkpt lat="46.23285" lon="2.5125">
        <ele>332</ele>
        <time>2017-04-12T12:59:48Z</time>
      </trkpt>
      <trkpt lat="46.23283" lon="2.51244">
        <ele>332</ele>
        <time>2017-04-12T12:59:51Z</time>
      </trkpt>
      <trkpt lat="46.23282" lon="2.5124">
        <ele>331</ele>
        <time>2017-04-12T12:59:55Z</time>
      </trkpt>
      <trkpt lat="46.2328" lon="2.51236">
        <ele>331</ele>
        <time>2017-04-12T12:59:58Z</time>
      </trkpt>
      <trkpt lat="46.23278" lon="2.51234">
        <ele>331</ele>
        <time>2017-04-12T13:00:01Z</time>
      </trkpt>
      <trkpt lat="46.23275" lon="2.5123">
        <ele>331</ele>
        <time>2017-04-12T13:00:04Z</time>
      </trkpt>
      <trkpt lat="46.23273" lon="2.51226">
        <ele>331</ele>
        <time>2017-04-12T13:00:07Z</time>
      </trkpt>
      <trkpt lat="46.23273" lon="2.51221">
        <ele>331</ele>
        <time>2017-04-12T13:00:11Z</time>
      </trkpt>
      <trkpt lat="46.23274" lon="2.51218">
        <ele>331</ele>
        <time>2017-04-12T13:00:15Z</time>
      </trkpt>
      <trkpt lat="46.23275" lon="2.51217">
        <ele>331</ele>
        <time>2017-04-12T13:00:18Z</time>
      </trkpt>
      <trkpt lat="46.23277" lon="2.51214">
        <ele>331</ele>
        <time>2017-04-12T13:00:21Z</time>
      </trkpt>
      <trkpt lat="46.23278" lon="2.51213">
        <ele>331</ele>
        <time>2017-04-12T13:00:26Z</time>
      </trkpt>
      <trkpt lat="46.23278" lon="2.51215">
        <ele>331</ele>
        <time>2017-04-12T13:00:30Z</time>
      </trkpt>
      <trkpt lat="46.23278" lon="2.51217">
        <ele>331</ele>
        <time>2017-04-12T13:00:34Z</time>
      </trkpt>
      <trkpt lat="46.23279" lon="2.51218">
        <ele>331</ele>
        <time>2017-04-12T13:00:38Z</time>
      </trkpt>
      <trkpt lat="46.23279" lon="2.5122">
        <ele>330</ele>
        <time>2017-04-12T13:00:41Z</time>
      </trkpt>
      <trkpt lat="46.23282" lon="2.51222">
        <ele>329</ele>
        <time>2017-04-12T13:00:46Z</time>
      </trkpt>
      <trkpt lat="46.23283" lon="2.51222">
        <ele>329</ele>
        <time>2017-04-12T13:00:49Z</time>
      </trkpt>
      <trkpt lat="46.23283" lon="2.51225">
        <ele>329</ele>
        <time>2017-04-12T13:00:52Z</time>
      </trkpt>
      <trkpt lat="46.23284" lon="2.51226">
        <ele>329</ele>
        <time>2017-04-12T13:00:55Z</time>
      </trkpt>
      <trkpt lat="46.23285" lon="2.51228">
        <ele>329</ele>
        <time>2017-04-12T13:00:59Z</time>
      </trkpt>
      <trkpt lat="46.23286" lon="2.51229">
        <ele>329</ele>
        <time>2017-04-12T13:01:03Z</time>
      </trkpt>
      <trkpt lat="46.23286" lon="2.51231">
        <ele>329</ele>
        <time>2017-04-12T13:01:07Z</time>
      </trkpt>
      <trkpt lat="46.23285" lon="2.51231">
        <ele>329</ele>
        <time>2017-04-12T13:01:12Z</time>
      </trkpt>
      <trkpt lat="46.23285" lon="2.51228">
        <ele>329</ele>
        <time>2017-04-12T13:01:16Z</time>
      </trkpt>
      <trkpt lat="46.23285" lon="2.51226">
        <ele>329</ele>
        <time>2017-04-12T13:01:19Z</time>
      </trkpt>
      <trkpt lat="46.23285" lon="2.51224">
        <ele>329</ele>
        <time>2017-04-12T13:01:22Z</time>
      </trkpt>
      <trkpt lat="46.23286" lon="2.51226">
        <ele>329</ele>
        <time>2017-04-12T13:01:26Z</time>
      </trkpt>
      <trkpt lat="46.23286" lon="2.5123">
        <ele>331</ele>
        <time>2017-04-12T13:01:30Z</time>
      </trkpt>
      <trkpt lat="46.23286" lon="2.51231">
        <ele>332</ele>
        <time>2017-04-12T13:01:33Z</time>
      </trkpt>
      <trkpt lat="46.23286" lon="2.51233">
        <ele>332</ele>
        <time>2017-04-12T13:01:38Z</time>
      </trkpt>
      <trkpt lat="46.23286" lon="2.51234">
        <ele>332</ele>
        <time>2017-04-12T13:01:45Z</time>
      </trkpt>
      <trkpt lat="46.23288" lon="2.51235">
        <ele>332</ele>
        <time>2017-04-12T13:01:51Z</time>
      </trkpt>
      <trkpt lat="46.23293" lon="2.51231">
        <ele>332</ele>
        <time>2017-04-12T13:01:54Z</time>
      </trkpt>
      <trkpt lat="46.23294" lon="2.51228">
        <ele>332</ele>
        <time>2017-04-12T13:01:59Z</time>
      </trkpt>
      <trkpt lat="46.23294" lon="2.51226">
        <ele>332</ele>
        <time>2017-04-12T13:02:02Z</time>
      </trkpt>
      <trkpt lat="46.23292" lon="2.51224">
        <ele>332</ele>
        <time>2017-04-12T13:02:05Z</time>
      </trkpt>
      <trkpt lat="46.23289" lon="2.51224">
        <ele>332</ele>
        <time>2017-04-12T13:02:08Z</time>
      </trkpt>
      <trkpt lat="46.23286" lon="2.51219">
        <ele>332</ele>
        <time>2017-04-12T13:02:12Z</time>
      </trkpt>
      <trkpt lat="46.23283" lon="2.51215">
        <ele>332</ele>
        <time>2017-04-12T13:02:18Z</time>
      </trkpt>
      <trkpt lat="46.23282" lon="2.51213">
        <ele>332</ele>
        <time>2017-04-12T13:02:21Z</time>
      </trkpt>
      <trkpt lat="46.23279" lon="2.51211">
        <ele>332</ele>
        <time>2017-04-12T13:02:25Z</time>
      </trkpt>
      <trkpt lat="46.23275" lon="2.51206">
        <ele>332</ele>
        <time>2017-04-12T13:02:29Z</time>
      </trkpt>
      <trkpt lat="46.23272" lon="2.51206">
        <ele>334</ele>
        <time>2017-04-12T13:02:33Z</time>
      </trkpt>
      <trkpt lat="46.23269" lon="2.51207">
        <ele>335</ele>
        <time>2017-04-12T13:02:36Z</time>
      </trkpt>
      <trkpt lat="46.23265" lon="2.51206">
        <ele>336</ele>
        <time>2017-04-12T13:02:40Z</time>
      </trkpt>
      <trkpt lat="46.23262" lon="2.51201">
        <ele>338</ele>
        <time>2017-04-12T13:02:45Z</time>
      </trkpt>
      <trkpt lat="46.2326" lon="2.51198">
        <ele>338</ele>
        <time>2017-04-12T13:02:50Z</time>
      </trkpt>
      <trkpt lat="46.23257" lon="2.51196">
        <ele>338</ele>
        <time>2017-04-12T13:02:54Z</time>
      </trkpt>
      <trkpt lat="46.23254" lon="2.51191">
        <ele>338</ele>
        <time>2017-04-12T13:02:58Z</time>
      </trkpt>
      <trkpt lat="46.23251" lon="2.51187">
        <ele>338</ele>
        <time>2017-04-12T13:03:01Z</time>
      </trkpt>
      <trkpt lat="46.23248" lon="2.5118">
        <ele>338</ele>
        <time>2017-04-12T13:03:05Z</time>
      </trkpt>
      <trkpt lat="46.23243" lon="2.51175">
        <ele>338</ele>
        <time>2017-04-12T13:03:09Z</time>
      </trkpt>
      <trkpt lat="46.2324" lon="2.51171">
        <ele>338</ele>
        <time>2017-04-12T13:03:13Z</time>
      </trkpt>
      <trkpt lat="46.23239" lon="2.51166">
        <ele>336</ele>
        <time>2017-04-12T13:03:16Z</time>
      </trkpt>
      <trkpt lat="46.23237" lon="2.51162">
        <ele>336</ele>
        <time>2017-04-12T13:03:19Z</time>
      </trkpt>
      <trkpt lat="46.23234" lon="2.51157">
        <ele>336</ele>
        <time>2017-04-12T13:03:22Z</time>
      </trkpt>
      <trkpt lat="46.23232" lon="2.51153">
        <ele>336</ele>
        <time>2017-04-12T13:03:25Z</time>
      </trkpt>
      <trkpt lat="46.23228" lon="2.5115">
        <ele>335</ele>
        <time>2017-04-12T13:03:28Z</time>
      </trkpt>
      <trkpt lat="46.23226" lon="2.51146">
        <ele>335</ele>
        <time>2017-04-12T13:03:31Z</time>
      </trkpt>
      <trkpt lat="46.23224" lon="2.51143">
        <ele>335</ele>
        <time>2017-04-12T13:03:35Z</time>
      </trkpt>
      <trkpt lat="46.23221" lon="2.5114">
        <ele>335</ele>
        <time>2017-04-12T13:03:40Z</time>
      </trkpt>
      <trkpt lat="46.23221" lon="2.51136">
        <ele>335</ele>
        <time>2017-04-12T13:03:45Z</time>
      </trkpt>
      <trkpt lat="46.23218" lon="2.51132">
        <ele>335</ele>
        <time>2017-04-12T13:03:49Z</time>
      </trkpt>
      <trkpt lat="46.23216" lon="2.51128">
        <ele>335</ele>
        <time>2017-04-12T13:03:52Z</time>
      </trkpt>
      <trkpt lat="46.23212" lon="2.51125">
        <ele>336</ele>
        <time>2017-04-12T13:03:55Z</time>
      </trkpt>
      <trkpt lat="46.2321" lon="2.51123">
        <ele>337</ele>
        <time>2017-04-12T13:04:01Z</time>
      </trkpt>
      <trkpt lat="46.23207" lon="2.51122">
        <ele>337</ele>
        <time>2017-04-12T13:04:04Z</time>
      </trkpt>
      <trkpt lat="46.23204" lon="2.51123">
        <ele>337</ele>
        <time>2017-04-12T13:04:11Z</time>
      </trkpt>
      <trkpt lat="46.23201" lon="2.51121">
        <ele>338</ele>
        <time>2017-04-12T13:04:15Z</time>
      </trkpt>
      <trkpt lat="46.232" lon="2.5112">
        <ele>338</ele>
        <time>2017-04-12T13:04:18Z</time>
      </trkpt>
      <trkpt lat="46.23198" lon="2.51116">
        <ele>338</ele>
        <time>2017-04-12T13:04:21Z</time>
      </trkpt>
      <trkpt lat="46.23197" lon="2.51115">
        <ele>338</ele>
        <time>2017-04-12T13:04:24Z</time>
      </trkpt>
      <trkpt lat="46.23196" lon="2.51114">
        <ele>338</ele>
        <time>2017-04-12T13:04:27Z</time>
      </trkpt>
      <trkpt lat="46.23194" lon="2.5111">
        <ele>338</ele>
        <time>2017-04-12T13:04:31Z</time>
      </trkpt>
      <trkpt lat="46.23192" lon="2.51105">
        <ele>335</ele>
        <time>2017-04-12T13:04:35Z</time>
      </trkpt>
      <trkpt lat="46.23192" lon="2.51099">
        <ele>333</ele>
        <time>2017-04-12T13:04:39Z</time>
      </trkpt>
      <trkpt lat="46.23193" lon="2.51095">
        <ele>331</ele>
        <time>2017-04-12T13:04:42Z</time>
      </trkpt>
      <trkpt lat="46.23195" lon="2.5109">
        <ele>330</ele>
        <time>2017-04-12T13:04:45Z</time>
      </trkpt>
      <trkpt lat="46.23197" lon="2.51084">
        <ele>329</ele>
        <time>2017-04-12T13:04:49Z</time>
      </trkpt>
      <trkpt lat="46.23198" lon="2.51079">
        <ele>328</ele>
        <time>2017-04-12T13:04:53Z</time>
      </trkpt>
      <trkpt lat="46.232" lon="2.51075">
        <ele>326</ele>
        <time>2017-04-12T13:04:56Z</time>
      </trkpt>
      <trkpt lat="46.23201" lon="2.51069">
        <ele>325</ele>
        <time>2017-04-12T13:04:59Z</time>
      </trkpt>
      <trkpt lat="46.23202" lon="2.51064">
        <ele>325</ele>
        <time>2017-04-12T13:05:02Z</time>
      </trkpt>
      <trkpt lat="46.23203" lon="2.51058">
        <ele>324</ele>
        <time>2017-04-12T13:05:05Z</time>
      </trkpt>
      <trkpt lat="46.23204" lon="2.51054">
        <ele>323</ele>
        <time>2017-04-12T13:05:08Z</time>
      </trkpt>
      <trkpt lat="46.23207" lon="2.51048">
        <ele>322</ele>
        <time>2017-04-12T13:05:12Z</time>
      </trkpt>
      <trkpt lat="46.23208" lon="2.51042">
        <ele>322</ele>
        <time>2017-04-12T13:05:15Z</time>
      </trkpt>
      <trkpt lat="46.2321" lon="2.51037">
        <ele>322</ele>
        <time>2017-04-12T13:05:18Z</time>
      </trkpt>
      <trkpt lat="46.23212" lon="2.51032">
        <ele>322</ele>
        <time>2017-04-12T13:05:21Z</time>
      </trkpt>
      <trkpt lat="46.23214" lon="2.51027">
        <ele>322</ele>
        <time>2017-04-12T13:05:24Z</time>
      </trkpt>
      <trkpt lat="46.23216" lon="2.51022">
        <ele>322</ele>
        <time>2017-04-12T13:05:27Z</time>
      </trkpt>
      <trkpt lat="46.23218" lon="2.51017">
        <ele>322</ele>
        <time>2017-04-12T13:05:30Z</time>
      </trkpt>
      <trkpt lat="46.23219" lon="2.51012">
        <ele>322</ele>
        <time>2017-04-12T13:05:33Z</time>
      </trkpt>
      <trkpt lat="46.23221" lon="2.51007">
        <ele>322</ele>
        <time>2017-04-12T13:05:36Z</time>
      </trkpt>
      <trkpt lat="46.23223" lon="2.51003">
        <ele>322</ele>
        <time>2017-04-12T13:05:39Z</time>
      </trkpt>
      <trkpt lat="46.23224" lon="2.50998">
        <ele>322</ele>
        <time>2017-04-12T13:05:42Z</time>
      </trkpt>
      <trkpt lat="46.23226" lon="2.50993">
        <ele>320</ele>
        <time>2017-04-12T13:05:46Z</time>
      </trkpt>
      <trkpt lat="46.23229" lon="2.50996">
        <ele>319</ele>
        <time>2017-04-12T13:05:50Z</time>
      </trkpt>
      <trkpt lat="46.2323" lon="2.51">
        <ele>318</ele>
        <time>2017-04-12T13:05:54Z</time>
      </trkpt>
      <trkpt lat="46.2323" lon="2.51005">
        <ele>317</ele>
        <time>2017-04-12T13:05:58Z</time>
      </trkpt>
      <trkpt lat="46.2323" lon="2.5101">
        <ele>316</ele>
        <time>2017-04-12T13:06:01Z</time>
      </trkpt>
      <trkpt lat="46.23229" lon="2.51014">
        <ele>316</ele>
        <time>2017-04-12T13:06:04Z</time>
      </trkpt>
      <trkpt lat="46.23228" lon="2.51018">
        <ele>314</ele>
        <time>2017-04-12T13:06:07Z</time>
      </trkpt>
      <trkpt lat="46.23226" lon="2.51023">
        <ele>313</ele>
        <time>2017-04-12T13:06:10Z</time>
      </trkpt>
      <trkpt lat="46.23225" lon="2.51029">
        <ele>312</ele>
        <time>2017-04-12T13:06:13Z</time>
      </trkpt>
      <trkpt lat="46.23225" lon="2.51032">
        <ele>311</ele>
        <time>2017-04-12T13:06:16Z</time>
      </trkpt>
      <trkpt lat="46.23223" lon="2.51037">
        <ele>310</ele>
        <time>2017-04-12T13:06:20Z</time>
      </trkpt>
      <trkpt lat="46.23222" lon="2.51041">
        <ele>308</ele>
        <time>2017-04-12T13:06:23Z</time>
      </trkpt>
      <trkpt lat="46.23222" lon="2.51046">
        <ele>306</ele>
        <time>2017-04-12T13:06:27Z</time>
      </trkpt>
      <trkpt lat="46.23225" lon="2.51049">
        <ele>304</ele>
        <time>2017-04-12T13:06:31Z</time>
      </trkpt>
      <trkpt lat="46.23227" lon="2.5105">
        <ele>303</ele>
        <time>2017-04-12T13:06:39Z</time>
      </trkpt>
      <trkpt lat="46.23231" lon="2.51045">
        <ele>303</ele>
        <time>2017-04-12T13:06:42Z</time>
      </trkpt>
      <trkpt lat="46.23235" lon="2.51041">
        <ele>303</ele>
        <time>2017-04-12T13:06:45Z</time>
      </trkpt>
      <trkpt lat="46.23236" lon="2.51036">
        <ele>303</ele>
        <time>2017-04-12T13:06:49Z</time>
      </trkpt>
      <trkpt lat="46.23238" lon="2.5103">
        <ele>303</ele>
        <time>2017-04-12T13:06:52Z</time>
      </trkpt>
      <trkpt lat="46.2324" lon="2.51023">
        <ele>305</ele>
        <time>2017-04-12T13:06:55Z</time>
      </trkpt>
      <trkpt lat="46.23243" lon="2.5102">
        <ele>306</ele>
        <time>2017-04-12T13:06:59Z</time>
      </trkpt>
      <trkpt lat="46.23245" lon="2.51015">
        <ele>306</ele>
        <time>2017-04-12T13:07:02Z</time>
      </trkpt>
      <trkpt lat="46.23247" lon="2.5101">
        <ele>306</ele>
        <time>2017-04-12T13:07:05Z</time>
      </trkpt>
      <trkpt lat="46.23249" lon="2.51006">
        <ele>306</ele>
        <time>2017-04-12T13:07:08Z</time>
      </trkpt>
      <trkpt lat="46.23251" lon="2.51001">
        <ele>306</ele>
        <time>2017-04-12T13:07:11Z</time>
      </trkpt>
      <trkpt lat="46.23252" lon="2.50995">
        <ele>306</ele>
        <time>2017-04-12T13:07:14Z</time>
      </trkpt>
      <trkpt lat="46.23253" lon="2.5099">
        <ele>306</ele>
        <time>2017-04-12T13:07:17Z</time>
      </trkpt>
      <trkpt lat="46.23254" lon="2.50984">
        <ele>306</ele>
        <time>2017-04-12T13:07:21Z</time>
      </trkpt>
      <trkpt lat="46.23254" lon="2.50979">
        <ele>306</ele>
        <time>2017-04-12T13:07:25Z</time>
      </trkpt>
      <trkpt lat="46.23254" lon="2.50975">
        <ele>303</ele>
        <time>2017-04-12T13:07:28Z</time>
      </trkpt>
      <trkpt lat="46.23255" lon="2.50971">
        <ele>299</ele>
        <time>2017-04-12T13:07:32Z</time>
      </trkpt>
      <trkpt lat="46.23256" lon="2.50966">
        <ele>295</ele>
        <time>2017-04-12T13:07:36Z</time>
      </trkpt>
      <trkpt lat="46.23257" lon="2.50961">
        <ele>291</ele>
        <time>2017-04-12T13:07:40Z</time>
      </trkpt>
      <trkpt lat="46.23258" lon="2.50957">
        <ele>290</ele>
        <time>2017-04-12T13:07:43Z</time>
      </trkpt>
      <trkpt lat="46.23258" lon="2.50951">
        <ele>289</ele>
        <time>2017-04-12T13:07:46Z</time>
      </trkpt>
      <trkpt lat="46.23259" lon="2.50946">
        <ele>287</ele>
        <time>2017-04-12T13:07:49Z</time>
      </trkpt>
      <trkpt lat="46.23261" lon="2.50941">
        <ele>286</ele>
        <time>2017-04-12T13:07:52Z</time>
      </trkpt>
      <trkpt lat="46.23262" lon="2.50936">
        <ele>286</ele>
        <time>2017-04-12T13:07:55Z</time>
      </trkpt>
      <trkpt lat="46.23262" lon="2.5093">
        <ele>285</ele>
        <time>2017-04-12T13:07:58Z</time>
      </trkpt>
      <trkpt lat="46.23262" lon="2.50925">
        <ele>283</ele>
        <time>2017-04-12T13:08:01Z</time>
      </trkpt>
      <trkpt lat="46.23263" lon="2.5092">
        <ele>282</ele>
        <time>2017-04-12T13:08:04Z</time>
      </trkpt>
      <trkpt lat="46.23263" lon="2.50914">
        <ele>281</ele>
        <time>2017-04-12T13:08:07Z</time>
      </trkpt>
      <trkpt lat="46.23264" lon="2.50909">
        <ele>280</ele>
        <time>2017-04-12T13:08:10Z</time>
      </trkpt>
      <trkpt lat="46.23265" lon="2.50903">
        <ele>280</ele>
        <time>2017-04-12T13:08:13Z</time>
      </trkpt>
      <trkpt lat="46.23266" lon="2.50897">
        <ele>280</ele>
        <time>2017-04-12T13:08:16Z</time>
      </trkpt>
      <trkpt lat="46.23266" lon="2.50892">
        <ele>280</ele>
        <time>2017-04-12T13:08:19Z</time>
      </trkpt>
      <trkpt lat="46.23267" lon="2.50887">
        <ele>279</ele>
        <time>2017-04-12T13:08:22Z</time>
      </trkpt>
      <trkpt lat="46.23268" lon="2.50882">
        <ele>278</ele>
        <time>2017-04-12T13:08:25Z</time>
      </trkpt>
      <trkpt lat="46.23271" lon="2.50874">
        <ele>277</ele>
        <time>2017-04-12T13:08:28Z</time>
      </trkpt>
      <trkpt lat="46.23274" lon="2.50866">
        <ele>277</ele>
        <time>2017-04-12T13:08:31Z</time>
      </trkpt>
      <trkpt lat="46.23276" lon="2.50861">
        <ele>277</ele>
        <time>2017-04-12T13:08:34Z</time>
      </trkpt>
      <trkpt lat="46.2328" lon="2.50854">
        <ele>279</ele>
        <time>2017-04-12T13:08:37Z</time>
      </trkpt>
      <trkpt lat="46.23284" lon="2.50848">
        <ele>282</ele>
        <time>2017-04-12T13:08:40Z</time>
      </trkpt>
      <trkpt lat="46.23287" lon="2.50843">
        <ele>285</ele>
        <time>2017-04-12T13:08:43Z</time>
      </trkpt>
      <trkpt lat="46.23291" lon="2.50838">
        <ele>289</ele>
        <time>2017-04-12T13:08:47Z</time>
      </trkpt>
      <trkpt lat="46.23295" lon="2.50836">
        <ele>292</ele>
        <time>2017-04-12T13:08:50Z</time>
      </trkpt>
      <trkpt lat="46.23299" lon="2.50834">
        <ele>293</ele>
        <time>2017-04-12T13:08:54Z</time>
      </trkpt>
      <trkpt lat="46.233" lon="2.50833">
        <ele>296</ele>
        <time>2017-04-12T13:09:04Z</time>
      </trkpt>
      <trkpt lat="46.23301" lon="2.50831">
        <ele>300</ele>
        <time>2017-04-12T13:09:19Z</time>
      </trkpt>
      <trkpt lat="46.23304" lon="2.50828">
        <ele>301</ele>
        <time>2017-04-12T13:09:23Z</time>
      </trkpt>
      <trkpt lat="46.23307" lon="2.50826">
        <ele>301</ele>
        <time>2017-04-12T13:09:26Z</time>
      </trkpt>
      <trkpt lat="46.23311" lon="2.50825">
        <ele>301</ele>
        <time>2017-04-12T13:09:29Z</time>
      </trkpt>
      <trkpt lat="46.23315" lon="2.50823">
        <ele>301</ele>
        <time>2017-04-12T13:09:32Z</time>
      </trkpt>
      <trkpt lat="46.23318" lon="2.50821">
        <ele>301</ele>
        <time>2017-04-12T13:09:36Z</time>
      </trkpt>
      <trkpt lat="46.23322" lon="2.5082">
        <ele>301</ele>
        <time>2017-04-12T13:09:39Z</time>
      </trkpt>
      <trkpt lat="46.23326" lon="2.50819">
        <ele>301</ele>
        <time>2017-04-12T13:09:42Z</time>
      </trkpt>
      <trkpt lat="46.2333" lon="2.50817">
        <ele>301</ele>
        <time>2017-04-12T13:09:45Z</time>
      </trkpt>
      <trkpt lat="46.23334" lon="2.50815">
        <ele>301</ele>
        <time>2017-04-12T13:09:48Z</time>
      </trkpt>
      <trkpt lat="46.23338" lon="2.50814">
        <ele>301</ele>
        <time>2017-04-12T13:09:51Z</time>
      </trkpt>
      <trkpt lat="46.23341" lon="2.50812">
        <ele>301</ele>
        <time>2017-04-12T13:09:54Z</time>
      </trkpt>
      <trkpt lat="46.23345" lon="2.50811">
        <ele>301</ele>
        <time>2017-04-12T13:09:57Z</time>
      </trkpt>
      <trkpt lat="46.23349" lon="2.50809">
        <ele>301</ele>
        <time>2017-04-12T13:10:00Z</time>
      </trkpt>
      <trkpt lat="46.23353" lon="2.50808">
        <ele>301</ele>
        <time>2017-04-12T13:10:03Z</time>
      </trkpt>
      <trkpt lat="46.23357" lon="2.50806">
        <ele>301</ele>
        <time>2017-04-12T13:10:06Z</time>
      </trkpt>
      <trkpt lat="46.23361" lon="2.50804">
        <ele>301</ele>
        <time>2017-04-12T13:10:09Z</time>
      </trkpt>
      <trkpt lat="46.23365" lon="2.50803">
        <ele>301</ele>
        <time>2017-04-12T13:10:12Z</time>
      </trkpt>
      <trkpt lat="46.23368" lon="2.50802">
        <ele>301</ele>
        <time>2017-04-12T13:10:15Z</time>
      </trkpt>
      <trkpt lat="46.2337" lon="2.50801">
        <ele>301</ele>
        <time>2017-04-12T13:10:18Z</time>
      </trkpt>
      <trkpt lat="46.23371" lon="2.50801">
        <ele>301</ele>
        <time>2017-04-12T13:10:22Z</time>
      </trkpt>
      <trkpt lat="46.23375" lon="2.508">
        <ele>301</ele>
        <time>2017-04-12T13:10:25Z</time>
      </trkpt>
      <trkpt lat="46.23378" lon="2.50798">
        <ele>301</ele>
        <time>2017-04-12T13:10:28Z</time>
      </trkpt>
      <trkpt lat="46.23382" lon="2.50796">
        <ele>301</ele>
        <time>2017-04-12T13:10:31Z</time>
      </trkpt>
      <trkpt lat="46.23386" lon="2.50794">
        <ele>301</ele>
        <time>2017-04-12T13:10:34Z</time>
      </trkpt>
      <trkpt lat="46.23389" lon="2.50791">
        <ele>301</ele>
        <time>2017-04-12T13:10:37Z</time>
      </trkpt>
      <trkpt lat="46.23394" lon="2.50786">
        <ele>301</ele>
        <time>2017-04-12T13:10:40Z</time>
      </trkpt>
      <trkpt lat="46.23397" lon="2.50782">
        <ele>301</ele>
        <time>2017-04-12T13:10:43Z</time>
      </trkpt>
      <trkpt lat="46.23399" lon="2.50776">
        <ele>301</ele>
        <time>2017-04-12T13:10:46Z</time>
      </trkpt>
      <trkpt lat="46.23399" lon="2.5077">
        <ele>301</ele>
        <time>2017-04-12T13:10:49Z</time>
      </trkpt>
      <trkpt lat="46.23399" lon="2.50765">
        <ele>301</ele>
        <time>2017-04-12T13:10:52Z</time>
      </trkpt>
      <trkpt lat="46.234" lon="2.50759">
        <ele>301</ele>
        <time>2017-04-12T13:10:55Z</time>
      </trkpt>
      <trkpt lat="46.23401" lon="2.50753">
        <ele>301</ele>
        <time>2017-04-12T13:10:58Z</time>
      </trkpt>
      <trkpt lat="46.23401" lon="2.50747">
        <ele>301</ele>
        <time>2017-04-12T13:11:01Z</time>
      </trkpt>
      <trkpt lat="46.23402" lon="2.50741">
        <ele>301</ele>
        <time>2017-04-12T13:11:04Z</time>
      </trkpt>
      <trkpt lat="46.23405" lon="2.50735">
        <ele>301</ele>
        <time>2017-04-12T13:11:08Z</time>
      </trkpt>
      <trkpt lat="46.23407" lon="2.5073">
        <ele>301</ele>
        <time>2017-04-12T13:11:11Z</time>
      </trkpt>
      <trkpt lat="46.2341" lon="2.50726">
        <ele>301</ele>
        <time>2017-04-12T13:11:14Z</time>
      </trkpt>
      <trkpt lat="46.23413" lon="2.50721">
        <ele>301</ele>
        <time>2017-04-12T13:11:17Z</time>
      </trkpt>
      <trkpt lat="46.23415" lon="2.50716">
        <ele>301</ele>
        <time>2017-04-12T13:11:20Z</time>
      </trkpt>
      <trkpt lat="46.23418" lon="2.50711">
        <ele>301</ele>
        <time>2017-04-12T13:11:23Z</time>
      </trkpt>
      <trkpt lat="46.2342" lon="2.50706">
        <ele>301</ele>
        <time>2017-04-12T13:11:26Z</time>
      </trkpt>
      <trkpt lat="46.23424" lon="2.507">
        <ele>301</ele>
        <time>2017-04-12T13:11:30Z</time>
      </trkpt>
      <trkpt lat="46.23426" lon="2.50695">
        <ele>301</ele>
        <time>2017-04-12T13:11:33Z</time>
      </trkpt>
      <trkpt lat="46.23428" lon="2.50689">
        <ele>301</ele>
        <time>2017-04-12T13:11:36Z</time>
      </trkpt>
      <trkpt lat="46.23431" lon="2.50683">
        <ele>301</ele>
        <time>2017-04-12T13:11:40Z</time>
      </trkpt>
      <trkpt lat="46.23434" lon="2.50678">
        <ele>301</ele>
        <time>2017-04-12T13:11:43Z</time>
      </trkpt>
      <trkpt lat="46.23436" lon="2.50673">
        <ele>301</ele>
        <time>2017-04-12T13:11:46Z</time>
      </trkpt>
      <trkpt lat="46.23438" lon="2.50668">
        <ele>301</ele>
        <time>2017-04-12T13:11:49Z</time>
      </trkpt>
      <trkpt lat="46.23441" lon="2.50662">
        <ele>301</ele>
        <time>2017-04-12T13:11:53Z</time>
      </trkpt>
      <trkpt lat="46.23444" lon="2.50658">
        <ele>301</ele>
        <time>2017-04-12T13:11:56Z</time>
      </trkpt>
      <trkpt lat="46.23446" lon="2.50653">
        <ele>301</ele>
        <time>2017-04-12T13:11:59Z</time>
      </trkpt>
      <trkpt lat="46.23447" lon="2.50648">
        <ele>301</ele>
        <time>2017-04-12T13:12:02Z</time>
      </trkpt>
      <trkpt lat="46.2345" lon="2.50643">
        <ele>301</ele>
        <time>2017-04-12T13:12:05Z</time>
      </trkpt>
      <trkpt lat="46.23452" lon="2.50639">
        <ele>301</ele>
        <time>2017-04-12T13:12:08Z</time>
      </trkpt>
      <trkpt lat="46.23454" lon="2.50634">
        <ele>301</ele>
        <time>2017-04-12T13:12:11Z</time>
      </trkpt>
      <trkpt lat="46.23456" lon="2.50629">
        <ele>301</ele>
        <time>2017-04-12T13:12:14Z</time>
      </trkpt>
      <trkpt lat="46.23458" lon="2.50625">
        <ele>301</ele>
        <time>2017-04-12T13:12:17Z</time>
      </trkpt>
      <trkpt lat="46.2346" lon="2.50622">
        <ele>301</ele>
        <time>2017-04-12T13:12:20Z</time>
      </trkpt>
      <trkpt lat="46.23463" lon="2.50617">
        <ele>301</ele>
        <time>2017-04-12T13:12:23Z</time>
      </trkpt>
      <trkpt lat="46.23466" lon="2.50611">
        <ele>301</ele>
        <time>2017-04-12T13:12:27Z</time>
      </trkpt>
      <trkpt lat="46.23469" lon="2.50606">
        <ele>301</ele>
        <time>2017-04-12T13:12:30Z</time>
      </trkpt>
      <trkpt lat="46.23471" lon="2.50602">
        <ele>301</ele>
        <time>2017-04-12T13:12:33Z</time>
      </trkpt>
      <trkpt lat="46.23475" lon="2.50597">
        <ele>301</ele>
        <time>2017-04-12T13:12:36Z</time>
      </trkpt>
      <trkpt lat="46.23477" lon="2.50592">
        <ele>302</ele>
        <time>2017-04-12T13:12:39Z</time>
      </trkpt>
      <trkpt lat="46.2348" lon="2.50588">
        <ele>302</ele>
        <time>2017-04-12T13:12:42Z</time>
      </trkpt>
      <trkpt lat="46.23483" lon="2.50583">
        <ele>302</ele>
        <time>2017-04-12T13:12:45Z</time>
      </trkpt>
      <trkpt lat="46.23485" lon="2.50576">
        <ele>303</ele>
        <time>2017-04-12T13:12:48Z</time>
      </trkpt>
      <trkpt lat="46.23487" lon="2.50572">
        <ele>303</ele>
        <time>2017-04-12T13:12:51Z</time>
      </trkpt>
      <trkpt lat="46.2349" lon="2.50568">
        <ele>303</ele>
        <time>2017-04-12T13:12:54Z</time>
      </trkpt>
      <trkpt lat="46.23494" lon="2.50564">
        <ele>303</ele>
        <time>2017-04-12T13:12:58Z</time>
      </trkpt>
      <trkpt lat="46.23497" lon="2.50559">
        <ele>303</ele>
        <time>2017-04-12T13:13:01Z</time>
      </trkpt>
      <trkpt lat="46.235" lon="2.50555">
        <ele>303</ele>
        <time>2017-04-12T13:13:04Z</time>
      </trkpt>
      <trkpt lat="46.23502" lon="2.5055">
        <ele>303</ele>
        <time>2017-04-12T13:13:07Z</time>
      </trkpt>
      <trkpt lat="46.23505" lon="2.50546">
        <ele>303</ele>
        <time>2017-04-12T13:13:10Z</time>
      </trkpt>
      <trkpt lat="46.23508" lon="2.5054">
        <ele>303</ele>
        <time>2017-04-12T13:13:14Z</time>
      </trkpt>
      <trkpt lat="46.23511" lon="2.50535">
        <ele>303</ele>
        <time>2017-04-12T13:13:18Z</time>
      </trkpt>
      <trkpt lat="46.23515" lon="2.5053">
        <ele>303</ele>
        <time>2017-04-12T13:13:22Z</time>
      </trkpt>
      <trkpt lat="46.23518" lon="2.50526">
        <ele>303</ele>
        <time>2017-04-12T13:13:26Z</time>
      </trkpt>
      <trkpt lat="46.2352" lon="2.50522">
        <ele>303</ele>
        <time>2017-04-12T13:13:29Z</time>
      </trkpt>
      <trkpt lat="46.23522" lon="2.50517">
        <ele>303</ele>
        <time>2017-04-12T13:13:32Z</time>
      </trkpt>
      <trkpt lat="46.23524" lon="2.50512">
        <ele>303</ele>
        <time>2017-04-12T13:13:35Z</time>
      </trkpt>
      <trkpt lat="46.23526" lon="2.50507">
        <ele>303</ele>
        <time>2017-04-12T13:13:38Z</time>
      </trkpt>
      <trkpt lat="46.23528" lon="2.50502">
        <ele>303</ele>
        <time>2017-04-12T13:13:41Z</time>
      </trkpt>
      <trkpt lat="46.23531" lon="2.50497">
        <ele>303</ele>
        <time>2017-04-12T13:13:44Z</time>
      </trkpt>
      <trkpt lat="46.23531" lon="2.50494">
        <ele>304</ele>
        <time>2017-04-12T13:13:50Z</time>
      </trkpt>
      <trkpt lat="46.23531" lon="2.50493">
        <ele>304</ele>
        <time>2017-04-12T13:13:54Z</time>
      </trkpt>
      <trkpt lat="46.2353" lon="2.50491">
        <ele>304</ele>
        <time>2017-04-12T13:13:59Z</time>
      </trkpt>
      <trkpt lat="46.2353" lon="2.50489">
        <ele>305</ele>
        <time>2017-04-12T13:14:05Z</time>
      </trkpt>
      <trkpt lat="46.23529" lon="2.50491">
        <ele>307</ele>
        <time>2017-04-12T13:14:30Z</time>
      </trkpt>
      <trkpt lat="46.23528" lon="2.50491">
        <ele>307</ele>
        <time>2017-04-12T13:14:40Z</time>
      </trkpt>
      <trkpt lat="46.23527" lon="2.50491">
        <ele>307</ele>
        <time>2017-04-12T13:14:46Z</time>
      </trkpt>
      <trkpt lat="46.23529" lon="2.50489">
        <ele>307</ele>
        <time>2017-04-12T13:14:50Z</time>
      </trkpt>
      <trkpt lat="46.23529" lon="2.50488">
        <ele>311</ele>
        <time>2017-04-12T13:15:00Z</time>
      </trkpt>
      <trkpt lat="46.23529" lon="2.50486">
        <ele>311</ele>
        <time>2017-04-12T13:15:10Z</time>
      </trkpt>
      <trkpt lat="46.23529" lon="2.50488">
        <ele>311</ele>
        <time>2017-04-12T13:15:24Z</time>
      </trkpt>
      <trkpt lat="46.23529" lon="2.50492">
        <ele>311</ele>
        <time>2017-04-12T13:15:27Z</time>
      </trkpt>
      <trkpt lat="46.23532" lon="2.50496">
        <ele>311</ele>
        <time>2017-04-12T13:15:30Z</time>
      </trkpt>
      <trkpt lat="46.23535" lon="2.50502">
        <ele>311</ele>
        <time>2017-04-12T13:15:33Z</time>
      </trkpt>
      <trkpt lat="46.23538" lon="2.50506">
        <ele>311</ele>
        <time>2017-04-12T13:15:36Z</time>
      </trkpt>
      <trkpt lat="46.2354" lon="2.50511">
        <ele>311</ele>
        <time>2017-04-12T13:15:39Z</time>
      </trkpt>
      <trkpt lat="46.23541" lon="2.50516">
        <ele>309</ele>
        <time>2017-04-12T13:15:42Z</time>
      </trkpt>
      <trkpt lat="46.23542" lon="2.50522">
        <ele>309</ele>
        <time>2017-04-12T13:15:46Z</time>
      </trkpt>
      <trkpt lat="46.23543" lon="2.50527">
        <ele>308</ele>
        <time>2017-04-12T13:15:49Z</time>
      </trkpt>
      <trkpt lat="46.23545" lon="2.50533">
        <ele>308</ele>
        <time>2017-04-12T13:15:53Z</time>
      </trkpt>
      <trkpt lat="46.23544" lon="2.50538">
        <ele>308</ele>
        <time>2017-04-12T13:15:56Z</time>
      </trkpt>
      <trkpt lat="46.23544" lon="2.50542">
        <ele>308</ele>
        <time>2017-04-12T13:15:59Z</time>
      </trkpt>
      <trkpt lat="46.23546" lon="2.50549">
        <ele>308</ele>
        <time>2017-04-12T13:16:03Z</time>
      </trkpt>
      <trkpt lat="46.23549" lon="2.50554">
        <ele>308</ele>
        <time>2017-04-12T13:16:06Z</time>
      </trkpt>
      <trkpt lat="46.23551" lon="2.50559">
        <ele>308</ele>
        <time>2017-04-12T13:16:09Z</time>
      </trkpt>
      <trkpt lat="46.23551" lon="2.50565">
        <ele>309</ele>
        <time>2017-04-12T13:16:12Z</time>
      </trkpt>
      <trkpt lat="46.23553" lon="2.50571">
        <ele>310</ele>
        <time>2017-04-12T13:16:15Z</time>
      </trkpt>
      <trkpt lat="46.23556" lon="2.50577">
        <ele>313</ele>
        <time>2017-04-12T13:16:18Z</time>
      </trkpt>
      <trkpt lat="46.23555" lon="2.50579">
        <ele>314</ele>
        <time>2017-04-12T13:16:25Z</time>
      </trkpt>
      <trkpt lat="46.23554" lon="2.50577">
        <ele>308</ele>
        <time>2017-04-12T13:16:43Z</time>
      </trkpt>
      <trkpt lat="46.23554" lon="2.50579">
        <ele>302</ele>
        <time>2017-04-12T13:17:16Z</time>
      </trkpt>
      <trkpt lat="46.23553" lon="2.50581">
        <ele>301</ele>
        <time>2017-04-12T13:17:19Z</time>
      </trkpt>
      <trkpt lat="46.23555" lon="2.50585">
        <ele>300</ele>
        <time>2017-04-12T13:17:23Z</time>
      </trkpt>
      <trkpt lat="46.23557" lon="2.5059">
        <ele>300</ele>
        <time>2017-04-12T13:17:26Z</time>
      </trkpt>
      <trkpt lat="46.23556" lon="2.50596">
        <ele>301</ele>
        <time>2017-04-12T13:17:30Z</time>
      </trkpt>
      <trkpt lat="46.23555" lon="2.50601">
        <ele>302</ele>
        <time>2017-04-12T13:17:33Z</time>
      </trkpt>
      <trkpt lat="46.23555" lon="2.50607">
        <ele>303</ele>
        <time>2017-04-12T13:17:36Z</time>
      </trkpt>
      <trkpt lat="46.23555" lon="2.50612">
        <ele>305</ele>
        <time>2017-04-12T13:17:39Z</time>
      </trkpt>
      <trkpt lat="46.23554" lon="2.50617">
        <ele>307</ele>
        <time>2017-04-12T13:17:42Z</time>
      </trkpt>
      <trkpt lat="46.23553" lon="2.50623">
        <ele>308</ele>
        <time>2017-04-12T13:17:45Z</time>
      </trkpt>
      <trkpt lat="46.23554" lon="2.50627">
        <ele>310</ele>
        <time>2017-04-12T13:17:48Z</time>
      </trkpt>
      <trkpt lat="46.23554" lon="2.50634">
        <ele>313</ele>
        <time>2017-04-12T13:17:52Z</time>
      </trkpt>
      <trkpt lat="46.23555" lon="2.50638">
        <ele>315</ele>
        <time>2017-04-12T13:17:55Z</time>
      </trkpt>
      <trkpt lat="46.23555" lon="2.50643">
        <ele>317</ele>
        <time>2017-04-12T13:17:58Z</time>
      </trkpt>
      <trkpt lat="46.23555" lon="2.50648">
        <ele>319</ele>
        <time>2017-04-12T13:18:01Z</time>
      </trkpt>
      <trkpt lat="46.23554" lon="2.50653">
        <ele>321</ele>
        <time>2017-04-12T13:18:04Z</time>
      </trkpt>
      <trkpt lat="46.23554" lon="2.50658">
        <ele>323</ele>
        <time>2017-04-12T13:18:08Z</time>
      </trkpt>
      <trkpt lat="46.23553" lon="2.50663">
        <ele>324</ele>
        <time>2017-04-12T13:18:11Z</time>
      </trkpt>
      <trkpt lat="46.23551" lon="2.50667">
        <ele>324</ele>
        <time>2017-04-12T13:18:14Z</time>
      </trkpt>
      <trkpt lat="46.23548" lon="2.50671">
        <ele>324</ele>
        <time>2017-04-12T13:18:18Z</time>
      </trkpt>
      <trkpt lat="46.23547" lon="2.50677">
        <ele>324</ele>
        <time>2017-04-12T13:18:22Z</time>
      </trkpt>
      <trkpt lat="46.23545" lon="2.50681">
        <ele>324</ele>
        <time>2017-04-12T13:18:26Z</time>
      </trkpt>
      <trkpt lat="46.23542" lon="2.50685">
        <ele>324</ele>
        <time>2017-04-12T13:18:30Z</time>
      </trkpt>
      <trkpt lat="46.23539" lon="2.5069">
        <ele>324</ele>
        <time>2017-04-12T13:18:34Z</time>
      </trkpt>
      <trkpt lat="46.23538" lon="2.50694">
        <ele>324</ele>
        <time>2017-04-12T13:18:37Z</time>
      </trkpt>
      <trkpt lat="46.23537" lon="2.507">
        <ele>325</ele>
        <time>2017-04-12T13:18:40Z</time>
      </trkpt>
      <trkpt lat="46.23537" lon="2.50706">
        <ele>325</ele>
        <time>2017-04-12T13:18:44Z</time>
      </trkpt>
      <trkpt lat="46.23538" lon="2.50712">
        <ele>325</ele>
        <time>2017-04-12T13:18:48Z</time>
      </trkpt>
      <trkpt lat="46.23539" lon="2.50716">
        <ele>325</ele>
        <time>2017-04-12T13:18:51Z</time>
      </trkpt>
      <trkpt lat="46.23541" lon="2.50722">
        <ele>325</ele>
        <time>2017-04-12T13:18:54Z</time>
      </trkpt>
      <trkpt lat="46.23542" lon="2.50728">
        <ele>325</ele>
        <time>2017-04-12T13:18:57Z</time>
      </trkpt>
      <trkpt lat="46.23543" lon="2.50733">
        <ele>325</ele>
        <time>2017-04-12T13:19:00Z</time>
      </trkpt>
      <trkpt lat="46.23542" lon="2.50739">
        <ele>326</ele>
        <time>2017-04-12T13:19:03Z</time>
      </trkpt>
      <trkpt lat="46.23542" lon="2.50744">
        <ele>326</ele>
        <time>2017-04-12T13:19:06Z</time>
      </trkpt>
      <trkpt lat="46.23542" lon="2.50749">
        <ele>326</ele>
        <time>2017-04-12T13:19:09Z</time>
      </trkpt>
      <trkpt lat="46.2354" lon="2.50754">
        <ele>326</ele>
        <time>2017-04-12T13:19:12Z</time>
      </trkpt>
      <trkpt lat="46.23539" lon="2.50758">
        <ele>326</ele>
        <time>2017-04-12T13:19:15Z</time>
      </trkpt>
      <trkpt lat="46.23536" lon="2.50762">
        <ele>326</ele>
        <time>2017-04-12T13:19:19Z</time>
      </trkpt>
      <trkpt lat="46.23534" lon="2.50766">
        <ele>326</ele>
        <time>2017-04-12T13:19:22Z</time>
      </trkpt>
      <trkpt lat="46.23532" lon="2.50769">
        <ele>326</ele>
        <time>2017-04-12T13:19:25Z</time>
      </trkpt>
      <trkpt lat="46.23529" lon="2.50771">
        <ele>326</ele>
        <time>2017-04-12T13:19:28Z</time>
      </trkpt>
      <trkpt lat="46.23526" lon="2.50771">
        <ele>326</ele>
        <time>2017-04-12T13:19:32Z</time>
      </trkpt>
      <trkpt lat="46.23523" lon="2.50772">
        <ele>326</ele>
        <time>2017-04-12T13:19:36Z</time>
      </trkpt>
      <trkpt lat="46.23519" lon="2.50772">
        <ele>326</ele>
        <time>2017-04-12T13:19:40Z</time>
      </trkpt>
      <trkpt lat="46.23516" lon="2.50773">
        <ele>326</ele>
        <time>2017-04-12T13:19:44Z</time>
      </trkpt>
      <trkpt lat="46.23513" lon="2.50773">
        <ele>326</ele>
        <time>2017-04-12T13:19:47Z</time>
      </trkpt>
      <trkpt lat="46.2351" lon="2.50775">
        <ele>326</ele>
        <time>2017-04-12T13:19:50Z</time>
      </trkpt>
      <trkpt lat="46.23506" lon="2.50775">
        <ele>326</ele>
        <time>2017-04-12T13:19:54Z</time>
      </trkpt>
      <trkpt lat="46.23503" lon="2.50775">
        <ele>327</ele>
        <time>2017-04-12T13:19:57Z</time>
      </trkpt>
      <trkpt lat="46.23499" lon="2.50774">
        <ele>328</ele>
        <time>2017-04-12T13:20:01Z</time>
      </trkpt>
      <trkpt lat="46.23495" lon="2.50773">
        <ele>329</ele>
        <time>2017-04-12T13:20:05Z</time>
      </trkpt>
      <trkpt lat="46.23495" lon="2.50771">
        <ele>329</ele>
        <time>2017-04-12T13:20:08Z</time>
      </trkpt>
      <trkpt lat="46.23494" lon="2.50767">
        <ele>329</ele>
        <time>2017-04-12T13:20:12Z</time>
      </trkpt>
      <trkpt lat="46.23494" lon="2.50763">
        <ele>329</ele>
        <time>2017-04-12T13:20:15Z</time>
      </trkpt>
      <trkpt lat="46.23494" lon="2.50758">
        <ele>329</ele>
        <time>2017-04-12T13:20:19Z</time>
      </trkpt>
      <trkpt lat="46.23494" lon="2.50754">
        <ele>330</ele>
        <time>2017-04-12T13:20:23Z</time>
      </trkpt>
      <trkpt lat="46.23493" lon="2.5075">
        <ele>331</ele>
        <time>2017-04-12T13:20:27Z</time>
      </trkpt>
      <trkpt lat="46.23491" lon="2.50747">
        <ele>331</ele>
        <time>2017-04-12T13:20:31Z</time>
      </trkpt>
      <trkpt lat="46.23487" lon="2.50743">
        <ele>331</ele>
        <time>2017-04-12T13:20:35Z</time>
      </trkpt>
      <trkpt lat="46.23486" lon="2.50741">
        <ele>331</ele>
        <time>2017-04-12T13:20:38Z</time>
      </trkpt>
      <trkpt lat="46.23485" lon="2.5074">
        <ele>331</ele>
        <time>2017-04-12T13:20:41Z</time>
      </trkpt>
      <trkpt lat="46.23484" lon="2.50739">
        <ele>331</ele>
        <time>2017-04-12T13:20:44Z</time>
      </trkpt>
      <trkpt lat="46.23482" lon="2.50736">
        <ele>332</ele>
        <time>2017-04-12T13:20:49Z</time>
      </trkpt>
      <trkpt lat="46.23481" lon="2.50734">
        <ele>333</ele>
        <time>2017-04-12T13:20:55Z</time>
      </trkpt>
      <trkpt lat="46.23482" lon="2.50732">
        <ele>334</ele>
        <time>2017-04-12T13:20:58Z</time>
      </trkpt>
      <trkpt lat="46.23483" lon="2.50731">
        <ele>334</ele>
        <time>2017-04-12T13:21:01Z</time>
      </trkpt>
      <trkpt lat="46.23486" lon="2.50729">
        <ele>336</ele>
        <time>2017-04-12T13:21:08Z</time>
      </trkpt>
      <trkpt lat="46.23487" lon="2.50731">
        <ele>336</ele>
        <time>2017-04-12T13:21:13Z</time>
      </trkpt>
      <trkpt lat="46.23487" lon="2.50734">
        <ele>336</ele>
        <time>2017-04-12T13:21:17Z</time>
      </trkpt>
      <trkpt lat="46.23486" lon="2.50736">
        <ele>337</ele>
        <time>2017-04-12T13:21:21Z</time>
      </trkpt>
      <trkpt lat="46.23485" lon="2.50738">
        <ele>338</ele>
        <time>2017-04-12T13:21:27Z</time>
      </trkpt>
      <trkpt lat="46.23484" lon="2.50738">
        <ele>338</ele>
        <time>2017-04-12T13:21:36Z</time>
      </trkpt>
      <trkpt lat="46.2348" lon="2.50737">
        <ele>338</ele>
        <time>2017-04-12T13:21:40Z</time>
      </trkpt>
      <trkpt lat="46.23479" lon="2.50733">
        <ele>338</ele>
        <time>2017-04-12T13:21:45Z</time>
      </trkpt>
      <trkpt lat="46.23481" lon="2.50732">
        <ele>340</ele>
        <time>2017-04-12T13:21:53Z</time>
      </trkpt>
      <trkpt lat="46.23483" lon="2.5073">
        <ele>340</ele>
        <time>2017-04-12T13:21:57Z</time>
      </trkpt>
      <trkpt lat="46.23485" lon="2.50727">
        <ele>340</ele>
        <time>2017-04-12T13:22:03Z</time>
      </trkpt>
      <trkpt lat="46.23486" lon="2.50727">
        <ele>336</ele>
        <time>2017-04-12T13:22:19Z</time>
      </trkpt>
      <trkpt lat="46.23488" lon="2.50727">
        <ele>336</ele>
        <time>2017-04-12T13:22:25Z</time>
      </trkpt>
      <trkpt lat="46.23488" lon="2.50725">
        <ele>336</ele>
        <time>2017-04-12T13:22:34Z</time>
      </trkpt>
      <trkpt lat="46.23489" lon="2.50725">
        <ele>336</ele>
        <time>2017-04-12T13:22:44Z</time>
      </trkpt>
      <trkpt lat="46.23489" lon="2.50723">
        <ele>336</ele>
        <time>2017-04-12T13:22:52Z</time>
      </trkpt>
      <trkpt lat="46.23488" lon="2.50722">
        <ele>336</ele>
        <time>2017-04-12T13:23:06Z</time>
      </trkpt>
      <trkpt lat="46.23489" lon="2.50722">
        <ele>336</ele>
        <time>2017-04-12T13:23:23Z</time>
      </trkpt>
      <trkpt lat="46.2349" lon="2.50722">
        <ele>336</ele>
        <time>2017-04-12T13:23:28Z</time>
      </trkpt>
      <trkpt lat="46.23489" lon="2.50719">
        <ele>336</ele>
        <time>2017-04-12T13:23:32Z</time>
      </trkpt>
      <trkpt lat="46.23487" lon="2.50716">
        <ele>337</ele>
        <time>2017-04-12T13:23:36Z</time>
      </trkpt>
      <trkpt lat="46.23486" lon="2.50712">
        <ele>337</ele>
        <time>2017-04-12T13:23:40Z</time>
      </trkpt>
      <trkpt lat="46.23486" lon="2.50709">
        <ele>337</ele>
        <time>2017-04-12T13:23:44Z</time>
      </trkpt>
      <trkpt lat="46.23487" lon="2.50704">
        <ele>337</ele>
        <time>2017-04-12T13:23:48Z</time>
      </trkpt>
      <trkpt lat="46.23489" lon="2.507">
        <ele>335</ele>
        <time>2017-04-12T13:23:52Z</time>
      </trkpt>
      <trkpt lat="46.2349" lon="2.50695">
        <ele>333</ele>
        <time>2017-04-12T13:23:56Z</time>
      </trkpt>
      <trkpt lat="46.23491" lon="2.50691">
        <ele>331</ele>
        <time>2017-04-12T13:23:59Z</time>
      </trkpt>
      <trkpt lat="46.23492" lon="2.50686">
        <ele>329</ele>
        <time>2017-04-12T13:24:03Z</time>
      </trkpt>
      <trkpt lat="46.23494" lon="2.5068">
        <ele>328</ele>
        <time>2017-04-12T13:24:08Z</time>
      </trkpt>
      <trkpt lat="46.23495" lon="2.50676">
        <ele>327</ele>
        <time>2017-04-12T13:24:12Z</time>
      </trkpt>
      <trkpt lat="46.23496" lon="2.50671">
        <ele>326</ele>
        <time>2017-04-12T13:24:16Z</time>
      </trkpt>
      <trkpt lat="46.23497" lon="2.50667">
        <ele>325</ele>
        <time>2017-04-12T13:24:20Z</time>
      </trkpt>
      <trkpt lat="46.23497" lon="2.50662">
        <ele>325</ele>
        <time>2017-04-12T13:24:24Z</time>
      </trkpt>
      <trkpt lat="46.23498" lon="2.50661">
        <ele>325</ele>
        <time>2017-04-12T13:24:27Z</time>
      </trkpt>
      <trkpt lat="46.235" lon="2.5066">
        <ele>325</ele>
        <time>2017-04-12T13:24:31Z</time>
      </trkpt>
      <trkpt lat="46.235" lon="2.50658">
        <ele>325</ele>
        <time>2017-04-12T13:24:36Z</time>
      </trkpt>
      <trkpt lat="46.23501" lon="2.50657">
        <ele>325</ele>
        <time>2017-04-12T13:24:45Z</time>
      </trkpt>
      <trkpt lat="46.23502" lon="2.50655">
        <ele>325</ele>
        <time>2017-04-12T13:24:54Z</time>
      </trkpt>
      <trkpt lat="46.23502" lon="2.50657">
        <ele>325</ele>
        <time>2017-04-12T13:25:03Z</time>
      </trkpt>
      <trkpt lat="46.23502" lon="2.5066">
        <ele>325</ele>
        <time>2017-04-12T13:25:07Z</time>
      </trkpt>
      <trkpt lat="46.23502" lon="2.50663">
        <ele>325</ele>
        <time>2017-04-12T13:25:11Z</time>
      </trkpt>
      <trkpt lat="46.23503" lon="2.50667">
        <ele>325</ele>
        <time>2017-04-12T13:25:15Z</time>
      </trkpt>
      <trkpt lat="46.23503" lon="2.50671">
        <ele>325</ele>
        <time>2017-04-12T13:25:22Z</time>
      </trkpt>
      <trkpt lat="46.23506" lon="2.5067">
        <ele>326</ele>
        <time>2017-04-12T13:25:27Z</time>
      </trkpt>
      <trkpt lat="46.23507" lon="2.50672">
        <ele>328</ele>
        <time>2017-04-12T13:25:32Z</time>
      </trkpt>
      <trkpt lat="46.23508" lon="2.50673">
        <ele>330</ele>
        <time>2017-04-12T13:25:37Z</time>
      </trkpt>
      <trkpt lat="46.23509" lon="2.50675">
        <ele>332</ele>
        <time>2017-04-12T13:25:41Z</time>
      </trkpt>
      <trkpt lat="46.2351" lon="2.50676">
        <ele>334</ele>
        <time>2017-04-12T13:25:48Z</time>
      </trkpt>
      <trkpt lat="46.23512" lon="2.50676">
        <ele>335</ele>
        <time>2017-04-12T13:25:52Z</time>
      </trkpt>
      <trkpt lat="46.23514" lon="2.50674">
        <ele>336</ele>
        <time>2017-04-12T13:25:57Z</time>
      </trkpt>
      <trkpt lat="46.23515" lon="2.50674">
        <ele>337</ele>
        <time>2017-04-12T13:26:01Z</time>
      </trkpt>
      <trkpt lat="46.23517" lon="2.50674">
        <ele>338</ele>
        <time>2017-04-12T13:26:06Z</time>
      </trkpt>
      <trkpt lat="46.23517" lon="2.50675">
        <ele>341</ele>
        <time>2017-04-12T13:26:15Z</time>
      </trkpt>
      <trkpt lat="46.23517" lon="2.50677">
        <ele>343</ele>
        <time>2017-04-12T13:26:21Z</time>
      </trkpt>
      <trkpt lat="46.23516" lon="2.50678">
        <ele>343</ele>
        <time>2017-04-12T13:26:25Z</time>
      </trkpt>
      <trkpt lat="46.23512" lon="2.50679">
        <ele>343</ele>
        <time>2017-04-12T13:26:29Z</time>
      </trkpt>
      <trkpt lat="46.23509" lon="2.5068">
        <ele>343</ele>
        <time>2017-04-12T13:26:32Z</time>
      </trkpt>
      <trkpt lat="46.23506" lon="2.50684">
        <ele>342</ele>
        <time>2017-04-12T13:26:36Z</time>
      </trkpt>
      <trkpt lat="46.23503" lon="2.50686">
        <ele>341</ele>
        <time>2017-04-12T13:26:39Z</time>
      </trkpt>
      <trkpt lat="46.235" lon="2.50687">
        <ele>341</ele>
        <time>2017-04-12T13:26:43Z</time>
      </trkpt>
      <trkpt lat="46.23495" lon="2.5069">
        <ele>341</ele>
        <time>2017-04-12T13:26:48Z</time>
      </trkpt>
      <trkpt lat="46.23492" lon="2.50691">
        <ele>341</ele>
        <time>2017-04-12T13:26:52Z</time>
      </trkpt>
      <trkpt lat="46.23491" lon="2.50693">
        <ele>341</ele>
        <time>2017-04-12T13:26:55Z</time>
      </trkpt>
      <trkpt lat="46.23489" lon="2.50698">
        <ele>341</ele>
        <time>2017-04-12T13:26:59Z</time>
      </trkpt>
      <trkpt lat="46.23487" lon="2.50702">
        <ele>341</ele>
        <time>2017-04-12T13:27:03Z</time>
      </trkpt>
      <trkpt lat="46.23486" lon="2.50706">
        <ele>341</ele>
        <time>2017-04-12T13:27:07Z</time>
      </trkpt>
      <trkpt lat="46.23484" lon="2.5071">
        <ele>341</ele>
        <time>2017-04-12T13:27:12Z</time>
      </trkpt>
      <trkpt lat="46.23484" lon="2.50713">
        <ele>341</ele>
        <time>2017-04-12T13:27:17Z</time>
      </trkpt>
      <trkpt lat="46.23482" lon="2.50715">
        <ele>341</ele>
        <time>2017-04-12T13:27:32Z</time>
      </trkpt>
      <trkpt lat="46.23483" lon="2.50717">
        <ele>341</ele>
        <time>2017-04-12T13:27:50Z</time>
      </trkpt>
      <trkpt lat="46.23484" lon="2.5072">
        <ele>341</ele>
        <time>2017-04-12T13:27:54Z</time>
      </trkpt>
      <trkpt lat="46.23484" lon="2.50724">
        <ele>341</ele>
        <time>2017-04-12T13:27:58Z</time>
      </trkpt>
      <trkpt lat="46.23486" lon="2.50728">
        <ele>341</ele>
        <time>2017-04-12T13:28:05Z</time>
      </trkpt>
      <trkpt lat="46.23487" lon="2.50727">
        <ele>341</ele>
        <time>2017-04-12T13:28:09Z</time>
      </trkpt>
      <trkpt lat="46.23488" lon="2.50727">
        <ele>341</ele>
        <time>2017-04-12T13:28:14Z</time>
      </trkpt>
      <trkpt lat="46.23489" lon="2.50727">
        <ele>342</ele>
        <time>2017-04-12T13:28:19Z</time>
      </trkpt>
      <trkpt lat="46.23488" lon="2.50729">
        <ele>343</ele>
        <time>2017-04-12T13:28:28Z</time>
      </trkpt>
      <trkpt lat="46.23486" lon="2.50731">
        <ele>343</ele>
        <time>2017-04-12T13:28:32Z</time>
      </trkpt>
      <trkpt lat="46.23483" lon="2.50735">
        <ele>343</ele>
        <time>2017-04-12T13:28:35Z</time>
      </trkpt>
      <trkpt lat="46.23481" lon="2.50739">
        <ele>343</ele>
        <time>2017-04-12T13:28:38Z</time>
      </trkpt>
      <trkpt lat="46.23481" lon="2.50745">
        <ele>342</ele>
        <time>2017-04-12T13:28:42Z</time>
      </trkpt>
      <trkpt lat="46.23481" lon="2.50748">
        <ele>341</ele>
        <time>2017-04-12T13:28:45Z</time>
      </trkpt>
      <trkpt lat="46.23479" lon="2.50752">
        <ele>341</ele>
        <time>2017-04-12T13:28:48Z</time>
      </trkpt>
      <trkpt lat="46.23477" lon="2.50756">
        <ele>339</ele>
        <time>2017-04-12T13:28:52Z</time>
      </trkpt>
      <trkpt lat="46.23475" lon="2.50761">
        <ele>338</ele>
        <time>2017-04-12T13:28:56Z</time>
      </trkpt>
      <trkpt lat="46.23474" lon="2.50765">
        <ele>338</ele>
        <time>2017-04-12T13:28:59Z</time>
      </trkpt>
      <trkpt lat="46.23473" lon="2.50769">
        <ele>338</ele>
        <time>2017-04-12T13:29:02Z</time>
      </trkpt>
      <trkpt lat="46.23472" lon="2.50773">
        <ele>337</ele>
        <time>2017-04-12T13:29:06Z</time>
      </trkpt>
      <trkpt lat="46.23472" lon="2.50777">
        <ele>337</ele>
        <time>2017-04-12T13:29:10Z</time>
      </trkpt>
      <trkpt lat="46.23471" lon="2.5078">
        <ele>337</ele>
        <time>2017-04-12T13:29:14Z</time>
      </trkpt>
      <trkpt lat="46.23469" lon="2.50782">
        <ele>337</ele>
        <time>2017-04-12T13:29:17Z</time>
      </trkpt>
      <trkpt lat="46.23465" lon="2.50785">
        <ele>336</ele>
        <time>2017-04-12T13:29:21Z</time>
      </trkpt>
      <trkpt lat="46.23462" lon="2.50787">
        <ele>335</ele>
        <time>2017-04-12T13:29:25Z</time>
      </trkpt>
      <trkpt lat="46.23458" lon="2.50788">
        <ele>334</ele>
        <time>2017-04-12T13:29:29Z</time>
      </trkpt>
      <trkpt lat="46.23455" lon="2.50791">
        <ele>334</ele>
        <time>2017-04-12T13:29:33Z</time>
      </trkpt>
      <trkpt lat="46.23453" lon="2.50791">
        <ele>333</ele>
        <time>2017-04-12T13:29:36Z</time>
      </trkpt>
      <trkpt lat="46.23453" lon="2.50793">
        <ele>333</ele>
        <time>2017-04-12T13:29:39Z</time>
      </trkpt>
      <trkpt lat="46.23454" lon="2.50798">
        <ele>333</ele>
        <time>2017-04-12T13:29:42Z</time>
      </trkpt>
      <trkpt lat="46.23455" lon="2.50801">
        <ele>333</ele>
        <time>2017-04-12T13:29:45Z</time>
      </trkpt>
      <trkpt lat="46.23457" lon="2.50806">
        <ele>333</ele>
        <time>2017-04-12T13:29:49Z</time>
      </trkpt>
      <trkpt lat="46.23459" lon="2.50812">
        <ele>333</ele>
        <time>2017-04-12T13:29:53Z</time>
      </trkpt>
      <trkpt lat="46.23458" lon="2.50818">
        <ele>333</ele>
        <time>2017-04-12T13:29:57Z</time>
      </trkpt>
      <trkpt lat="46.23457" lon="2.50823">
        <ele>332</ele>
        <time>2017-04-12T13:30:01Z</time>
      </trkpt>
      <trkpt lat="46.23455" lon="2.50829">
        <ele>331</ele>
        <time>2017-04-12T13:30:04Z</time>
      </trkpt>
      <trkpt lat="46.23454" lon="2.50833">
        <ele>331</ele>
        <time>2017-04-12T13:30:07Z</time>
      </trkpt>
      <trkpt lat="46.23453" lon="2.50837">
        <ele>330</ele>
        <time>2017-04-12T13:30:10Z</time>
      </trkpt>
      <trkpt lat="46.23451" lon="2.50841">
        <ele>330</ele>
        <time>2017-04-12T13:30:13Z</time>
      </trkpt>
      <trkpt lat="46.23449" lon="2.50847">
        <ele>329</ele>
        <time>2017-04-12T13:30:17Z</time>
      </trkpt>
      <trkpt lat="46.23448" lon="2.50851">
        <ele>328</ele>
        <time>2017-04-12T13:30:20Z</time>
      </trkpt>
      <trkpt lat="46.23447" lon="2.50856">
        <ele>327</ele>
        <time>2017-04-12T13:30:23Z</time>
      </trkpt>
      <trkpt lat="46.23445" lon="2.5086">
        <ele>326</ele>
        <time>2017-04-12T13:30:26Z</time>
      </trkpt>
      <trkpt lat="46.23444" lon="2.50864">
        <ele>325</ele>
        <time>2017-04-12T13:30:29Z</time>
      </trkpt>
      <trkpt lat="46.23443" lon="2.50871">
        <ele>325</ele>
        <time>2017-04-12T13:30:33Z</time>
      </trkpt>
      <trkpt lat="46.23442" lon="2.50877">
        <ele>324</ele>
        <time>2017-04-12T13:30:36Z</time>
      </trkpt>
      <trkpt lat="46.2344" lon="2.50881">
        <ele>324</ele>
        <time>2017-04-12T13:30:39Z</time>
      </trkpt>
      <trkpt lat="46.23438" lon="2.50886">
        <ele>323</ele>
        <time>2017-04-12T13:30:43Z</time>
      </trkpt>
      <trkpt lat="46.23436" lon="2.50892">
        <ele>323</ele>
        <time>2017-04-12T13:30:46Z</time>
      </trkpt>
      <trkpt lat="46.23435" lon="2.50898">
        <ele>323</ele>
        <time>2017-04-12T13:30:50Z</time>
      </trkpt>
      <trkpt lat="46.23433" lon="2.50903">
        <ele>323</ele>
        <time>2017-04-12T13:30:53Z</time>
      </trkpt>
      <trkpt lat="46.23431" lon="2.50907">
        <ele>323</ele>
        <time>2017-04-12T13:30:57Z</time>
      </trkpt>
      <trkpt lat="46.23429" lon="2.50913">
        <ele>322</ele>
        <time>2017-04-12T13:31:01Z</time>
      </trkpt>
      <trkpt lat="46.23428" lon="2.50917">
        <ele>322</ele>
        <time>2017-04-12T13:31:04Z</time>
      </trkpt>
      <trkpt lat="46.23426" lon="2.50921">
        <ele>322</ele>
        <time>2017-04-12T13:31:07Z</time>
      </trkpt>
      <trkpt lat="46.23425" lon="2.50925">
        <ele>322</ele>
        <time>2017-04-12T13:31:11Z</time>
      </trkpt>
      <trkpt lat="46.23424" lon="2.50926">
        <ele>322</ele>
        <time>2017-04-12T13:31:19Z</time>
      </trkpt>
      <trkpt lat="46.23423" lon="2.50927">
        <ele>322</ele>
        <time>2017-04-12T13:31:25Z</time>
      </trkpt>
      <trkpt lat="46.23421" lon="2.50928">
        <ele>322</ele>
        <time>2017-04-12T13:31:28Z</time>
      </trkpt>
      <trkpt lat="46.23422" lon="2.50929">
        <ele>322</ele>
        <time>2017-04-12T13:31:45Z</time>
      </trkpt>
      <trkpt lat="46.23423" lon="2.5093">
        <ele>322</ele>
        <time>2017-04-12T13:31:54Z</time>
      </trkpt>
      <trkpt lat="46.23424" lon="2.5093">
        <ele>322</ele>
        <time>2017-04-12T13:32:10Z</time>
      </trkpt>
      <trkpt lat="46.23425" lon="2.50928">
        <ele>322</ele>
        <time>2017-04-12T13:32:13Z</time>
      </trkpt>
      <trkpt lat="46.23426" lon="2.50928">
        <ele>322</ele>
        <time>2017-04-12T13:32:16Z</time>
      </trkpt>
      <trkpt lat="46.23426" lon="2.50926">
        <ele>322</ele>
        <time>2017-04-12T13:32:24Z</time>
      </trkpt>
      <trkpt lat="46.23427" lon="2.50922">
        <ele>322</ele>
        <time>2017-04-12T13:32:28Z</time>
      </trkpt>
      <trkpt lat="46.23429" lon="2.50918">
        <ele>322</ele>
        <time>2017-04-12T13:32:31Z</time>
      </trkpt>
      <trkpt lat="46.23432" lon="2.50914">
        <ele>322</ele>
        <time>2017-04-12T13:32:35Z</time>
      </trkpt>
      <trkpt lat="46.23434" lon="2.5091">
        <ele>321</ele>
        <time>2017-04-12T13:32:39Z</time>
      </trkpt>
      <trkpt lat="46.23436" lon="2.50904">
        <ele>321</ele>
        <time>2017-04-12T13:32:43Z</time>
      </trkpt>
      <trkpt lat="46.23437" lon="2.509">
        <ele>321</ele>
        <time>2017-04-12T13:32:47Z</time>
      </trkpt>
      <trkpt lat="46.23439" lon="2.50902">
        <ele>321</ele>
        <time>2017-04-12T13:32:50Z</time>
      </trkpt>
      <trkpt lat="46.2344" lon="2.50907">
        <ele>321</ele>
        <time>2017-04-12T13:32:53Z</time>
      </trkpt>
      <trkpt lat="46.2344" lon="2.50911">
        <ele>321</ele>
        <time>2017-04-12T13:32:56Z</time>
      </trkpt>
      <trkpt lat="46.23441" lon="2.50916">
        <ele>321</ele>
        <time>2017-04-12T13:32:59Z</time>
      </trkpt>
      <trkpt lat="46.23441" lon="2.5092">
        <ele>321</ele>
        <time>2017-04-12T13:33:02Z</time>
      </trkpt>
      <trkpt lat="46.23441" lon="2.50924">
        <ele>321</ele>
        <time>2017-04-12T13:33:05Z</time>
      </trkpt>
      <trkpt lat="46.23441" lon="2.5093">
        <ele>321</ele>
        <time>2017-04-12T13:33:09Z</time>
      </trkpt>
      <trkpt lat="46.23441" lon="2.50935">
        <ele>321</ele>
        <time>2017-04-12T13:33:12Z</time>
      </trkpt>
      <trkpt lat="46.2344" lon="2.5094">
        <ele>321</ele>
        <time>2017-04-12T13:33:15Z</time>
      </trkpt>
      <trkpt lat="46.23439" lon="2.50944">
        <ele>321</ele>
        <time>2017-04-12T13:33:18Z</time>
      </trkpt>
      <trkpt lat="46.23438" lon="2.50949">
        <ele>321</ele>
        <time>2017-04-12T13:33:21Z</time>
      </trkpt>
      <trkpt lat="46.23436" lon="2.50954">
        <ele>321</ele>
        <time>2017-04-12T13:33:24Z</time>
      </trkpt>
      <trkpt lat="46.23435" lon="2.5096">
        <ele>321</ele>
        <time>2017-04-12T13:33:28Z</time>
      </trkpt>
      <trkpt lat="46.23434" lon="2.50966">
        <ele>321</ele>
        <time>2017-04-12T13:33:31Z</time>
      </trkpt>
      <trkpt lat="46.23435" lon="2.50972">
        <ele>321</ele>
        <time>2017-04-12T13:33:34Z</time>
      </trkpt>
      <trkpt lat="46.23434" lon="2.50977">
        <ele>321</ele>
        <time>2017-04-12T13:33:37Z</time>
      </trkpt>
      <trkpt lat="46.23434" lon="2.50982">
        <ele>321</ele>
        <time>2017-04-12T13:33:40Z</time>
      </trkpt>
      <trkpt lat="46.23433" lon="2.50989">
        <ele>321</ele>
        <time>2017-04-12T13:33:43Z</time>
      </trkpt>
      <trkpt lat="46.23433" lon="2.50994">
        <ele>321</ele>
        <time>2017-04-12T13:33:46Z</time>
      </trkpt>
      <trkpt lat="46.23433" lon="2.51">
        <ele>321</ele>
        <time>2017-04-12T13:33:49Z</time>
      </trkpt>
      <trkpt lat="46.23433" lon="2.51004">
        <ele>321</ele>
        <time>2017-04-12T13:33:52Z</time>
      </trkpt>
      <trkpt lat="46.23435" lon="2.5101">
        <ele>321</ele>
        <time>2017-04-12T13:33:56Z</time>
      </trkpt>
      <trkpt lat="46.23436" lon="2.51014">
        <ele>321</ele>
        <time>2017-04-12T13:33:59Z</time>
      </trkpt>
      <trkpt lat="46.23438" lon="2.51019">
        <ele>321</ele>
        <time>2017-04-12T13:34:03Z</time>
      </trkpt>
      <trkpt lat="46.23439" lon="2.51023">
        <ele>321</ele>
        <time>2017-04-12T13:34:07Z</time>
      </trkpt>
      <trkpt lat="46.23441" lon="2.51027">
        <ele>320</ele>
        <time>2017-04-12T13:34:11Z</time>
      </trkpt>
      <trkpt lat="46.23444" lon="2.51032">
        <ele>319</ele>
        <time>2017-04-12T13:34:15Z</time>
      </trkpt>
      <trkpt lat="46.23447" lon="2.51036">
        <ele>317</ele>
        <time>2017-04-12T13:34:19Z</time>
      </trkpt>
      <trkpt lat="46.2345" lon="2.5104">
        <ele>316</ele>
        <time>2017-04-12T13:34:23Z</time>
      </trkpt>
      <trkpt lat="46.23454" lon="2.51043">
        <ele>315</ele>
        <time>2017-04-12T13:34:26Z</time>
      </trkpt>
      <trkpt lat="46.23457" lon="2.51048">
        <ele>313</ele>
        <time>2017-04-12T13:34:30Z</time>
      </trkpt>
      <trkpt lat="46.23461" lon="2.51051">
        <ele>312</ele>
        <time>2017-04-12T13:34:33Z</time>
      </trkpt>
      <trkpt lat="46.23465" lon="2.51054">
        <ele>311</ele>
        <time>2017-04-12T13:34:37Z</time>
      </trkpt>
      <trkpt lat="46.23468" lon="2.51057">
        <ele>310</ele>
        <time>2017-04-12T13:34:40Z</time>
      </trkpt>
      <trkpt lat="46.2347" lon="2.51061">
        <ele>309</ele>
        <time>2017-04-12T13:34:43Z</time>
      </trkpt>
      <trkpt lat="46.23473" lon="2.51065">
        <ele>309</ele>
        <time>2017-04-12T13:34:46Z</time>
      </trkpt>
      <trkpt lat="46.23477" lon="2.5107">
        <ele>309</ele>
        <time>2017-04-12T13:34:50Z</time>
      </trkpt>
      <trkpt lat="46.23481" lon="2.51075">
        <ele>309</ele>
        <time>2017-04-12T13:34:54Z</time>
      </trkpt>
      <trkpt lat="46.23485" lon="2.5108">
        <ele>309</ele>
        <time>2017-04-12T13:34:58Z</time>
      </trkpt>
      <trkpt lat="46.23489" lon="2.51084">
        <ele>309</ele>
        <time>2017-04-12T13:35:02Z</time>
      </trkpt>
      <trkpt lat="46.23492" lon="2.51087">
        <ele>309</ele>
        <time>2017-04-12T13:35:05Z</time>
      </trkpt>
      <trkpt lat="46.23495" lon="2.51089">
        <ele>309</ele>
        <time>2017-04-12T13:35:08Z</time>
      </trkpt>
      <trkpt lat="46.23499" lon="2.51092">
        <ele>309</ele>
        <time>2017-04-12T13:35:11Z</time>
      </trkpt>
      <trkpt lat="46.23502" lon="2.51093">
        <ele>309</ele>
        <time>2017-04-12T13:35:14Z</time>
      </trkpt>
      <trkpt lat="46.23506" lon="2.51094">
        <ele>309</ele>
        <time>2017-04-12T13:35:17Z</time>
      </trkpt>
      <trkpt lat="46.2351" lon="2.51097">
        <ele>308</ele>
        <time>2017-04-12T13:35:21Z</time>
      </trkpt>
      <trkpt lat="46.23515" lon="2.51099">
        <ele>307</ele>
        <time>2017-04-12T13:35:25Z</time>
      </trkpt>
      <trkpt lat="46.2352" lon="2.51101">
        <ele>307</ele>
        <time>2017-04-12T13:35:28Z</time>
      </trkpt>
      <trkpt lat="46.23523" lon="2.51102">
        <ele>306</ele>
        <time>2017-04-12T13:35:31Z</time>
      </trkpt>
      <trkpt lat="46.23528" lon="2.51104">
        <ele>305</ele>
        <time>2017-04-12T13:35:34Z</time>
      </trkpt>
      <trkpt lat="46.23532" lon="2.51106">
        <ele>304</ele>
        <time>2017-04-12T13:35:37Z</time>
      </trkpt>
      <trkpt lat="46.23536" lon="2.51107">
        <ele>303</ele>
        <time>2017-04-12T13:35:40Z</time>
      </trkpt>
      <trkpt lat="46.23539" lon="2.51108">
        <ele>302</ele>
        <time>2017-04-12T13:35:43Z</time>
      </trkpt>
      <trkpt lat="46.23544" lon="2.51108">
        <ele>301</ele>
        <time>2017-04-12T13:35:46Z</time>
      </trkpt>
      <trkpt lat="46.23547" lon="2.51109">
        <ele>300</ele>
        <time>2017-04-12T13:35:49Z</time>
      </trkpt>
      <trkpt lat="46.23551" lon="2.5111">
        <ele>299</ele>
        <time>2017-04-12T13:35:52Z</time>
      </trkpt>
      <trkpt lat="46.23555" lon="2.5111">
        <ele>298</ele>
        <time>2017-04-12T13:35:55Z</time>
      </trkpt>
      <trkpt lat="46.23558" lon="2.51111">
        <ele>297</ele>
        <time>2017-04-12T13:35:58Z</time>
      </trkpt>
      <trkpt lat="46.23562" lon="2.51111">
        <ele>297</ele>
        <time>2017-04-12T13:36:02Z</time>
      </trkpt>
      <trkpt lat="46.23565" lon="2.51109">
        <ele>297</ele>
        <time>2017-04-12T13:36:05Z</time>
      </trkpt>
      <trkpt lat="46.23568" lon="2.51107">
        <ele>296</ele>
        <time>2017-04-12T13:36:08Z</time>
      </trkpt>
      <trkpt lat="46.23571" lon="2.51104">
        <ele>295</ele>
        <time>2017-04-12T13:36:11Z</time>
      </trkpt>
      <trkpt lat="46.23575" lon="2.511">
        <ele>294</ele>
        <time>2017-04-12T13:36:15Z</time>
      </trkpt>
      <trkpt lat="46.23579" lon="2.51097">
        <ele>293</ele>
        <time>2017-04-12T13:36:19Z</time>
      </trkpt>
      <trkpt lat="46.23582" lon="2.51093">
        <ele>293</ele>
        <time>2017-04-12T13:36:23Z</time>
      </trkpt>
      <trkpt lat="46.23586" lon="2.51091">
        <ele>292</ele>
        <time>2017-04-12T13:36:26Z</time>
      </trkpt>
      <trkpt lat="46.23588" lon="2.51087">
        <ele>290</ele>
        <time>2017-04-12T13:36:30Z</time>
      </trkpt>
      <trkpt lat="46.23591" lon="2.51083">
        <ele>288</ele>
        <time>2017-04-12T13:36:34Z</time>
      </trkpt>
      <trkpt lat="46.23594" lon="2.51081">
        <ele>287</ele>
        <time>2017-04-12T13:36:37Z</time>
      </trkpt>
      <trkpt lat="46.23597" lon="2.51077">
        <ele>286</ele>
        <time>2017-04-12T13:36:40Z</time>
      </trkpt>
      <trkpt lat="46.236" lon="2.51072">
        <ele>286</ele>
        <time>2017-04-12T13:36:44Z</time>
      </trkpt>
      <trkpt lat="46.23603" lon="2.51068">
        <ele>286</ele>
        <time>2017-04-12T13:36:47Z</time>
      </trkpt>
      <trkpt lat="46.23607" lon="2.51063">
        <ele>286</ele>
        <time>2017-04-12T13:36:50Z</time>
      </trkpt>
      <trkpt lat="46.23609" lon="2.51059">
        <ele>286</ele>
        <time>2017-04-12T13:36:53Z</time>
      </trkpt>
      <trkpt lat="46.23613" lon="2.51055">
        <ele>286</ele>
        <time>2017-04-12T13:36:57Z</time>
      </trkpt>
      <trkpt lat="46.23617" lon="2.51051">
        <ele>286</ele>
        <time>2017-04-12T13:37:00Z</time>
      </trkpt>
      <trkpt lat="46.23621" lon="2.51045">
        <ele>286</ele>
        <time>2017-04-12T13:37:04Z</time>
      </trkpt>
      <trkpt lat="46.23625" lon="2.51042">
        <ele>286</ele>
        <time>2017-04-12T13:37:07Z</time>
      </trkpt>
      <trkpt lat="46.23629" lon="2.51039">
        <ele>286</ele>
        <time>2017-04-12T13:37:11Z</time>
      </trkpt>
      <trkpt lat="46.23633" lon="2.51034">
        <ele>286</ele>
        <time>2017-04-12T13:37:15Z</time>
      </trkpt>
      <trkpt lat="46.23637" lon="2.51029">
        <ele>286</ele>
        <time>2017-04-12T13:37:18Z</time>
      </trkpt>
      <trkpt lat="46.2364" lon="2.51025">
        <ele>286</ele>
        <time>2017-04-12T13:37:22Z</time>
      </trkpt>
      <trkpt lat="46.23643" lon="2.51021">
        <ele>286</ele>
        <time>2017-04-12T13:37:25Z</time>
      </trkpt>
      <trkpt lat="46.23647" lon="2.51015">
        <ele>286</ele>
        <time>2017-04-12T13:37:29Z</time>
      </trkpt>
      <trkpt lat="46.23648" lon="2.51011">
        <ele>286</ele>
        <time>2017-04-12T13:37:32Z</time>
      </trkpt>
      <trkpt lat="46.2365" lon="2.51007">
        <ele>286</ele>
        <time>2017-04-12T13:37:35Z</time>
      </trkpt>
      <trkpt lat="46.23651" lon="2.51003">
        <ele>286</ele>
        <time>2017-04-12T13:37:38Z</time>
      </trkpt>
      <trkpt lat="46.23652" lon="2.50997">
        <ele>285</ele>
        <time>2017-04-12T13:37:42Z</time>
      </trkpt>
      <trkpt lat="46.23653" lon="2.50992">
        <ele>284</ele>
        <time>2017-04-12T13:37:45Z</time>
      </trkpt>
      <trkpt lat="46.23653" lon="2.50985">
        <ele>284</ele>
        <time>2017-04-12T13:37:48Z</time>
      </trkpt>
      <trkpt lat="46.23653" lon="2.50978">
        <ele>284</ele>
        <time>2017-04-12T13:37:52Z</time>
      </trkpt>
      <trkpt lat="46.23649" lon="2.50973">
        <ele>284</ele>
        <time>2017-04-12T13:37:55Z</time>
      </trkpt>
      <trkpt lat="46.23647" lon="2.50964">
        <ele>287</ele>
        <time>2017-04-12T13:37:58Z</time>
      </trkpt>
      <trkpt lat="46.23643" lon="2.50957">
        <ele>290</ele>
        <time>2017-04-12T13:38:01Z</time>
      </trkpt>
      <trkpt lat="46.23641" lon="2.50952">
        <ele>294</ele>
        <time>2017-04-12T13:38:05Z</time>
      </trkpt>
      <trkpt lat="46.23639" lon="2.50947">
        <ele>297</ele>
        <time>2017-04-12T13:38:08Z</time>
      </trkpt>
      <trkpt lat="46.23639" lon="2.50941">
        <ele>300</ele>
        <time>2017-04-12T13:38:11Z</time>
      </trkpt>
      <trkpt lat="46.23637" lon="2.50935">
        <ele>303</ele>
        <time>2017-04-12T13:38:14Z</time>
      </trkpt>
      <trkpt lat="46.23635" lon="2.50928">
        <ele>306</ele>
        <time>2017-04-12T13:38:17Z</time>
      </trkpt>
      <trkpt lat="46.23633" lon="2.50922">
        <ele>306</ele>
        <time>2017-04-12T13:38:20Z</time>
      </trkpt>
      <trkpt lat="46.23631" lon="2.50916">
        <ele>306</ele>
        <time>2017-04-12T13:38:23Z</time>
      </trkpt>
      <trkpt lat="46.2363" lon="2.5091">
        <ele>307</ele>
        <time>2017-04-12T13:38:26Z</time>
      </trkpt>
      <trkpt lat="46.23629" lon="2.50904">
        <ele>307</ele>
        <time>2017-04-12T13:38:29Z</time>
      </trkpt>
      <trkpt lat="46.23626" lon="2.50898">
        <ele>307</ele>
        <time>2017-04-12T13:38:32Z</time>
      </trkpt>
      <trkpt lat="46.23625" lon="2.50892">
        <ele>307</ele>
        <time>2017-04-12T13:38:35Z</time>
      </trkpt>
      <trkpt lat="46.23624" lon="2.50887">
        <ele>307</ele>
        <time>2017-04-12T13:38:38Z</time>
      </trkpt>
      <trkpt lat="46.23622" lon="2.50882">
        <ele>307</ele>
        <time>2017-04-12T13:38:41Z</time>
      </trkpt>
      <trkpt lat="46.2362" lon="2.50877">
        <ele>307</ele>
        <time>2017-04-12T13:38:44Z</time>
      </trkpt>
      <trkpt lat="46.23618" lon="2.50872">
        <ele>307</ele>
        <time>2017-04-12T13:38:47Z</time>
      </trkpt>
      <trkpt lat="46.23617" lon="2.50866">
        <ele>307</ele>
        <time>2017-04-12T13:38:50Z</time>
      </trkpt>
      <trkpt lat="46.23616" lon="2.50859">
        <ele>306</ele>
        <time>2017-04-12T13:38:53Z</time>
      </trkpt>
      <trkpt lat="46.23615" lon="2.50854">
        <ele>306</ele>
        <time>2017-04-12T13:38:56Z</time>
      </trkpt>
      <trkpt lat="46.23613" lon="2.50849">
        <ele>306</ele>
        <time>2017-04-12T13:38:59Z</time>
      </trkpt>
      <trkpt lat="46.23612" lon="2.50843">
        <ele>305</ele>
        <time>2017-04-12T13:39:02Z</time>
      </trkpt>
      <trkpt lat="46.23611" lon="2.50837">
        <ele>303</ele>
        <time>2017-04-12T13:39:05Z</time>
      </trkpt>
      <trkpt lat="46.2361" lon="2.50832">
        <ele>303</ele>
        <time>2017-04-12T13:39:08Z</time>
      </trkpt>
      <trkpt lat="46.23606" lon="2.50826">
        <ele>303</ele>
        <time>2017-04-12T13:39:11Z</time>
      </trkpt>
      <trkpt lat="46.23604" lon="2.50819">
        <ele>303</ele>
        <time>2017-04-12T13:39:14Z</time>
      </trkpt>
      <trkpt lat="46.23603" lon="2.50813">
        <ele>303</ele>
        <time>2017-04-12T13:39:17Z</time>
      </trkpt>
      <trkpt lat="46.236" lon="2.50807">
        <ele>303</ele>
        <time>2017-04-12T13:39:20Z</time>
      </trkpt>
      <trkpt lat="46.23597" lon="2.50801">
        <ele>303</ele>
        <time>2017-04-12T13:39:24Z</time>
      </trkpt>
      <trkpt lat="46.23594" lon="2.50797">
        <ele>303</ele>
        <time>2017-04-12T13:39:28Z</time>
      </trkpt>
      <trkpt lat="46.23591" lon="2.50792">
        <ele>303</ele>
        <time>2017-04-12T13:39:32Z</time>
      </trkpt>
      <trkpt lat="46.23589" lon="2.50787">
        <ele>303</ele>
        <time>2017-04-12T13:39:35Z</time>
      </trkpt>
      <trkpt lat="46.23586" lon="2.50781">
        <ele>303</ele>
        <time>2017-04-12T13:39:38Z</time>
      </trkpt>
      <trkpt lat="46.23584" lon="2.50774">
        <ele>303</ele>
        <time>2017-04-12T13:39:41Z</time>
      </trkpt>
      <trkpt lat="46.23583" lon="2.50768">
        <ele>303</ele>
        <time>2017-04-12T13:39:44Z</time>
      </trkpt>
      <trkpt lat="46.23583" lon="2.50762">
        <ele>303</ele>
        <time>2017-04-12T13:39:47Z</time>
      </trkpt>
      <trkpt lat="46.23583" lon="2.50756">
        <ele>302</ele>
        <time>2017-04-12T13:39:50Z</time>
      </trkpt>
      <trkpt lat="46.23583" lon="2.50749">
        <ele>302</ele>
        <time>2017-04-12T13:39:53Z</time>
      </trkpt>
      <trkpt lat="46.23582" lon="2.50743">
        <ele>302</ele>
        <time>2017-04-12T13:39:56Z</time>
      </trkpt>
      <trkpt lat="46.23582" lon="2.50737">
        <ele>301</ele>
        <time>2017-04-12T13:39:59Z</time>
      </trkpt>
      <trkpt lat="46.23581" lon="2.50731">
        <ele>301</ele>
        <time>2017-04-12T13:40:02Z</time>
      </trkpt>
      <trkpt lat="46.2358" lon="2.50724">
        <ele>301</ele>
        <time>2017-04-12T13:40:05Z</time>
      </trkpt>
      <trkpt lat="46.23576" lon="2.50719">
        <ele>301</ele>
        <time>2017-04-12T13:40:08Z</time>
      </trkpt>
      <trkpt lat="46.23574" lon="2.50714">
        <ele>301</ele>
        <time>2017-04-12T13:40:11Z</time>
      </trkpt>
      <trkpt lat="46.23571" lon="2.50709">
        <ele>301</ele>
        <time>2017-04-12T13:40:14Z</time>
      </trkpt>
      <trkpt lat="46.2357" lon="2.50704">
        <ele>301</ele>
        <time>2017-04-12T13:40:17Z</time>
      </trkpt>
      <trkpt lat="46.23568" lon="2.50698">
        <ele>301</ele>
        <time>2017-04-12T13:40:20Z</time>
      </trkpt>
      <trkpt lat="46.23565" lon="2.50693">
        <ele>301</ele>
        <time>2017-04-12T13:40:23Z</time>
      </trkpt>
      <trkpt lat="46.23566" lon="2.50689">
        <ele>301</ele>
        <time>2017-04-12T13:40:26Z</time>
      </trkpt>
      <trkpt lat="46.23566" lon="2.50683">
        <ele>301</ele>
        <time>2017-04-12T13:40:29Z</time>
      </trkpt>
      <trkpt lat="46.23566" lon="2.50677">
        <ele>301</ele>
        <time>2017-04-12T13:40:32Z</time>
      </trkpt>
      <trkpt lat="46.23569" lon="2.50671">
        <ele>301</ele>
        <time>2017-04-12T13:40:35Z</time>
      </trkpt>
      <trkpt lat="46.23569" lon="2.5067">
        <ele>301</ele>
        <time>2017-04-12T13:40:38Z</time>
      </trkpt>
      <trkpt lat="46.2357" lon="2.50668">
        <ele>301</ele>
        <time>2017-04-12T13:40:42Z</time>
      </trkpt>
      <trkpt lat="46.23573" lon="2.50665">
        <ele>301</ele>
        <time>2017-04-12T13:40:46Z</time>
      </trkpt>
      <trkpt lat="46.23574" lon="2.50664">
        <ele>303</ele>
        <time>2017-04-12T13:40:49Z</time>
      </trkpt>
      <trkpt lat="46.23578" lon="2.50663">
        <ele>307</ele>
        <time>2017-04-12T13:40:53Z</time>
      </trkpt>
      <trkpt lat="46.23581" lon="2.50662">
        <ele>312</ele>
        <time>2017-04-12T13:40:58Z</time>
      </trkpt>
      <trkpt lat="46.23582" lon="2.50662">
        <ele>315</ele>
        <time>2017-04-12T13:41:01Z</time>
      </trkpt>
      <trkpt lat="46.23583" lon="2.50662">
        <ele>320</ele>
        <time>2017-04-12T13:41:06Z</time>
      </trkpt>
      <trkpt lat="46.23584" lon="2.5066">
        <ele>321</ele>
        <time>2017-04-12T13:41:09Z</time>
      </trkpt>
      <trkpt lat="46.23585" lon="2.50659">
        <ele>322</ele>
        <time>2017-04-12T13:41:13Z</time>
      </trkpt>
      <trkpt lat="46.23582" lon="2.50654">
        <ele>323</ele>
        <time>2017-04-12T13:41:17Z</time>
      </trkpt>
      <trkpt lat="46.23581" lon="2.50649">
        <ele>323</ele>
        <time>2017-04-12T13:41:20Z</time>
      </trkpt>
      <trkpt lat="46.23578" lon="2.50645">
        <ele>323</ele>
        <time>2017-04-12T13:41:23Z</time>
      </trkpt>
      <trkpt lat="46.23576" lon="2.50642">
        <ele>322</ele>
        <time>2017-04-12T13:41:26Z</time>
      </trkpt>
      <trkpt lat="46.23574" lon="2.50637">
        <ele>320</ele>
        <time>2017-04-12T13:41:30Z</time>
      </trkpt>
      <trkpt lat="46.23572" lon="2.50633">
        <ele>320</ele>
        <time>2017-04-12T13:41:33Z</time>
      </trkpt>
      <trkpt lat="46.23569" lon="2.50629">
        <ele>320</ele>
        <time>2017-04-12T13:41:36Z</time>
      </trkpt>
      <trkpt lat="46.23566" lon="2.50624">
        <ele>320</ele>
        <time>2017-04-12T13:41:39Z</time>
      </trkpt>
      <trkpt lat="46.23564" lon="2.5062">
        <ele>320</ele>
        <time>2017-04-12T13:41:42Z</time>
      </trkpt>
      <trkpt lat="46.23562" lon="2.50615">
        <ele>320</ele>
        <time>2017-04-12T13:41:45Z</time>
      </trkpt>
      <trkpt lat="46.2356" lon="2.50611">
        <ele>320</ele>
        <time>2017-04-12T13:41:48Z</time>
      </trkpt>
      <trkpt lat="46.23558" lon="2.50606">
        <ele>320</ele>
        <time>2017-04-12T13:41:51Z</time>
      </trkpt>
      <trkpt lat="46.23557" lon="2.50602">
        <ele>320</ele>
        <time>2017-04-12T13:41:54Z</time>
      </trkpt>
      <trkpt lat="46.23556" lon="2.50596">
        <ele>320</ele>
        <time>2017-04-12T13:41:57Z</time>
      </trkpt>
      <trkpt lat="46.23554" lon="2.50591">
        <ele>320</ele>
        <time>2017-04-12T13:42:00Z</time>
      </trkpt>
      <trkpt lat="46.23553" lon="2.50586">
        <ele>320</ele>
        <time>2017-04-12T13:42:03Z</time>
      </trkpt>
      <trkpt lat="46.23552" lon="2.5058">
        <ele>320</ele>
        <time>2017-04-12T13:42:06Z</time>
      </trkpt>
      <trkpt lat="46.2355" lon="2.50574">
        <ele>320</ele>
        <time>2017-04-12T13:42:09Z</time>
      </trkpt>
      <trkpt lat="46.23549" lon="2.50569">
        <ele>319</ele>
        <time>2017-04-12T13:42:12Z</time>
      </trkpt>
      <trkpt lat="46.23547" lon="2.50562">
        <ele>319</ele>
        <time>2017-04-12T13:42:15Z</time>
      </trkpt>
      <trkpt lat="46.23545" lon="2.50556">
        <ele>319</ele>
        <time>2017-04-12T13:42:18Z</time>
      </trkpt>
      <trkpt lat="46.23544" lon="2.5055">
        <ele>319</ele>
        <time>2017-04-12T13:42:21Z</time>
      </trkpt>
      <trkpt lat="46.23542" lon="2.50544">
        <ele>319</ele>
        <time>2017-04-12T13:42:24Z</time>
      </trkpt>
      <trkpt lat="46.23541" lon="2.50539">
        <ele>317</ele>
        <time>2017-04-12T13:42:27Z</time>
      </trkpt>
      <trkpt lat="46.23539" lon="2.50533">
        <ele>315</ele>
        <time>2017-04-12T13:42:31Z</time>
      </trkpt>
      <trkpt lat="46.23537" lon="2.50529">
        <ele>314</ele>
        <time>2017-04-12T13:42:34Z</time>
      </trkpt>
      <trkpt lat="46.23534" lon="2.50523">
        <ele>314</ele>
        <time>2017-04-12T13:42:38Z</time>
      </trkpt>
      <trkpt lat="46.23532" lon="2.50518">
        <ele>314</ele>
        <time>2017-04-12T13:42:41Z</time>
      </trkpt>
      <trkpt lat="46.23531" lon="2.50512">
        <ele>314</ele>
        <time>2017-04-12T13:42:45Z</time>
      </trkpt>
      <trkpt lat="46.23529" lon="2.50509">
        <ele>314</ele>
        <time>2017-04-12T13:42:49Z</time>
      </trkpt>
      <trkpt lat="46.23525" lon="2.50509">
        <ele>313</ele>
        <time>2017-04-12T13:42:53Z</time>
      </trkpt>
      <trkpt lat="46.23522" lon="2.50513">
        <ele>312</ele>
        <time>2017-04-12T13:42:58Z</time>
      </trkpt>
      <trkpt lat="46.23521" lon="2.50519">
        <ele>312</ele>
        <time>2017-04-12T13:43:02Z</time>
      </trkpt>
      <trkpt lat="46.23518" lon="2.50524">
        <ele>312</ele>
        <time>2017-04-12T13:43:06Z</time>
      </trkpt>
      <trkpt lat="46.23515" lon="2.50529">
        <ele>312</ele>
        <time>2017-04-12T13:43:10Z</time>
      </trkpt>
      <trkpt lat="46.23513" lon="2.50533">
        <ele>312</ele>
        <time>2017-04-12T13:43:13Z</time>
      </trkpt>
      <trkpt lat="46.23511" lon="2.50538">
        <ele>313</ele>
        <time>2017-04-12T13:43:17Z</time>
      </trkpt>
      <trkpt lat="46.23509" lon="2.50544">
        <ele>313</ele>
        <time>2017-04-12T13:43:21Z</time>
      </trkpt>
      <trkpt lat="46.23506" lon="2.50548">
        <ele>313</ele>
        <time>2017-04-12T13:43:24Z</time>
      </trkpt>
      <trkpt lat="46.23502" lon="2.50551">
        <ele>313</ele>
        <time>2017-04-12T13:43:27Z</time>
      </trkpt>
      <trkpt lat="46.23502" lon="2.50557">
        <ele>313</ele>
        <time>2017-04-12T13:43:30Z</time>
      </trkpt>
      <trkpt lat="46.235" lon="2.50561">
        <ele>313</ele>
        <time>2017-04-12T13:43:33Z</time>
      </trkpt>
      <trkpt lat="46.23495" lon="2.50566">
        <ele>313</ele>
        <time>2017-04-12T13:43:37Z</time>
      </trkpt>
      <trkpt lat="46.23492" lon="2.5057">
        <ele>313</ele>
        <time>2017-04-12T13:43:40Z</time>
      </trkpt>
      <trkpt lat="46.23489" lon="2.50574">
        <ele>313</ele>
        <time>2017-04-12T13:43:43Z</time>
      </trkpt>
      <trkpt lat="46.23485" lon="2.50577">
        <ele>313</ele>
        <time>2017-04-12T13:43:46Z</time>
      </trkpt>
      <trkpt lat="46.23484" lon="2.50583">
        <ele>313</ele>
        <time>2017-04-12T13:43:49Z</time>
      </trkpt>
      <trkpt lat="46.23481" lon="2.50588">
        <ele>313</ele>
        <time>2017-04-12T13:43:52Z</time>
      </trkpt>
      <trkpt lat="46.23479" lon="2.50592">
        <ele>313</ele>
        <time>2017-04-12T13:43:55Z</time>
      </trkpt>
      <trkpt lat="46.23475" lon="2.50597">
        <ele>313</ele>
        <time>2017-04-12T13:43:58Z</time>
      </trkpt>
      <trkpt lat="46.23472" lon="2.50602">
        <ele>313</ele>
        <time>2017-04-12T13:44:01Z</time>
      </trkpt>
      <trkpt lat="46.23468" lon="2.50608">
        <ele>313</ele>
        <time>2017-04-12T13:44:05Z</time>
      </trkpt>
      <trkpt lat="46.23466" lon="2.50613">
        <ele>313</ele>
        <time>2017-04-12T13:44:08Z</time>
      </trkpt>
      <trkpt lat="46.23463" lon="2.50618">
        <ele>313</ele>
        <time>2017-04-12T13:44:11Z</time>
      </trkpt>
      <trkpt lat="46.23462" lon="2.50623">
        <ele>313</ele>
        <time>2017-04-12T13:44:14Z</time>
      </trkpt>
      <trkpt lat="46.23459" lon="2.50628">
        <ele>313</ele>
        <time>2017-04-12T13:44:17Z</time>
      </trkpt>
      <trkpt lat="46.23457" lon="2.50634">
        <ele>313</ele>
        <time>2017-04-12T13:44:20Z</time>
      </trkpt>
      <trkpt lat="46.23454" lon="2.5064">
        <ele>313</ele>
        <time>2017-04-12T13:44:23Z</time>
      </trkpt>
      <trkpt lat="46.23452" lon="2.50644">
        <ele>313</ele>
        <time>2017-04-12T13:44:26Z</time>
      </trkpt>
      <trkpt lat="46.2345" lon="2.5065">
        <ele>313</ele>
        <time>2017-04-12T13:44:29Z</time>
      </trkpt>
      <trkpt lat="46.23449" lon="2.50656">
        <ele>313</ele>
        <time>2017-04-12T13:44:32Z</time>
      </trkpt>
      <trkpt lat="46.23447" lon="2.50661">
        <ele>313</ele>
        <time>2017-04-12T13:44:35Z</time>
      </trkpt>
      <trkpt lat="46.23444" lon="2.50667">
        <ele>313</ele>
        <time>2017-04-12T13:44:39Z</time>
      </trkpt>
      <trkpt lat="46.23442" lon="2.50672">
        <ele>312</ele>
        <time>2017-04-12T13:44:42Z</time>
      </trkpt>
      <trkpt lat="46.23441" lon="2.50678">
        <ele>311</ele>
        <time>2017-04-12T13:44:45Z</time>
      </trkpt>
      <trkpt lat="46.23439" lon="2.50683">
        <ele>311</ele>
        <time>2017-04-12T13:44:48Z</time>
      </trkpt>
      <trkpt lat="46.23436" lon="2.50689">
        <ele>310</ele>
        <time>2017-04-12T13:44:51Z</time>
      </trkpt>
      <trkpt lat="46.23433" lon="2.50693">
        <ele>310</ele>
        <time>2017-04-12T13:44:54Z</time>
      </trkpt>
      <trkpt lat="46.2343" lon="2.50699">
        <ele>309</ele>
        <time>2017-04-12T13:44:58Z</time>
      </trkpt>
      <trkpt lat="46.23428" lon="2.50705">
        <ele>309</ele>
        <time>2017-04-12T13:45:01Z</time>
      </trkpt>
      <trkpt lat="46.23425" lon="2.5071">
        <ele>308</ele>
        <time>2017-04-12T13:45:04Z</time>
      </trkpt>
      <trkpt lat="46.23422" lon="2.50712">
        <ele>308</ele>
        <time>2017-04-12T13:45:07Z</time>
      </trkpt>
      <trkpt lat="46.2342" lon="2.50716">
        <ele>308</ele>
        <time>2017-04-12T13:45:10Z</time>
      </trkpt>
      <trkpt lat="46.23419" lon="2.50721">
        <ele>308</ele>
        <time>2017-04-12T13:45:13Z</time>
      </trkpt>
      <trkpt lat="46.23417" lon="2.50728">
        <ele>307</ele>
        <time>2017-04-12T13:45:17Z</time>
      </trkpt>
      <trkpt lat="46.23415" lon="2.50734">
        <ele>307</ele>
        <time>2017-04-12T13:45:20Z</time>
      </trkpt>
      <trkpt lat="46.23412" lon="2.50739">
        <ele>307</ele>
        <time>2017-04-12T13:45:23Z</time>
      </trkpt>
      <trkpt lat="46.23411" lon="2.50744">
        <ele>307</ele>
        <time>2017-04-12T13:45:26Z</time>
      </trkpt>
      <trkpt lat="46.2341" lon="2.50749">
        <ele>307</ele>
        <time>2017-04-12T13:45:29Z</time>
      </trkpt>
      <trkpt lat="46.23409" lon="2.50755">
        <ele>307</ele>
        <time>2017-04-12T13:45:32Z</time>
      </trkpt>
      <trkpt lat="46.23408" lon="2.50759">
        <ele>307</ele>
        <time>2017-04-12T13:45:35Z</time>
      </trkpt>
      <trkpt lat="46.23407" lon="2.50765">
        <ele>307</ele>
        <time>2017-04-12T13:45:38Z</time>
      </trkpt>
      <trkpt lat="46.23405" lon="2.5077">
        <ele>307</ele>
        <time>2017-04-12T13:45:41Z</time>
      </trkpt>
      <trkpt lat="46.23404" lon="2.50775">
        <ele>307</ele>
        <time>2017-04-12T13:45:44Z</time>
      </trkpt>
      <trkpt lat="46.23402" lon="2.5078">
        <ele>307</ele>
        <time>2017-04-12T13:45:47Z</time>
      </trkpt>
      <trkpt lat="46.23401" lon="2.50785">
        <ele>307</ele>
        <time>2017-04-12T13:45:50Z</time>
      </trkpt>
      <trkpt lat="46.23398" lon="2.50789">
        <ele>307</ele>
        <time>2017-04-12T13:45:53Z</time>
      </trkpt>
      <trkpt lat="46.23396" lon="2.50792">
        <ele>306</ele>
        <time>2017-04-12T13:45:56Z</time>
      </trkpt>
      <trkpt lat="46.23391" lon="2.50795">
        <ele>305</ele>
        <time>2017-04-12T13:45:59Z</time>
      </trkpt>
      <trkpt lat="46.23387" lon="2.50796">
        <ele>305</ele>
        <time>2017-04-12T13:46:02Z</time>
      </trkpt>
      <trkpt lat="46.23382" lon="2.50797">
        <ele>305</ele>
        <time>2017-04-12T13:46:06Z</time>
      </trkpt>
      <trkpt lat="46.23378" lon="2.50798">
        <ele>305</ele>
        <time>2017-04-12T13:46:09Z</time>
      </trkpt>
      <trkpt lat="46.23374" lon="2.50799">
        <ele>305</ele>
        <time>2017-04-12T13:46:12Z</time>
      </trkpt>
      <trkpt lat="46.2337" lon="2.50801">
        <ele>305</ele>
        <time>2017-04-12T13:46:15Z</time>
      </trkpt>
      <trkpt lat="46.23367" lon="2.50803">
        <ele>305</ele>
        <time>2017-04-12T13:46:18Z</time>
      </trkpt>
      <trkpt lat="46.23363" lon="2.50805">
        <ele>305</ele>
        <time>2017-04-12T13:46:21Z</time>
      </trkpt>
      <trkpt lat="46.23359" lon="2.50807">
        <ele>305</ele>
        <time>2017-04-12T13:46:24Z</time>
      </trkpt>
      <trkpt lat="46.23355" lon="2.50809">
        <ele>305</ele>
        <time>2017-04-12T13:46:27Z</time>
      </trkpt>
      <trkpt lat="46.23352" lon="2.50811">
        <ele>305</ele>
        <time>2017-04-12T13:46:30Z</time>
      </trkpt>
      <trkpt lat="46.23348" lon="2.50813">
        <ele>305</ele>
        <time>2017-04-12T13:46:33Z</time>
      </trkpt>
      <trkpt lat="46.23344" lon="2.50815">
        <ele>305</ele>
        <time>2017-04-12T13:46:36Z</time>
      </trkpt>
      <trkpt lat="46.23341" lon="2.50817">
        <ele>305</ele>
        <time>2017-04-12T13:46:39Z</time>
      </trkpt>
      <trkpt lat="46.23337" lon="2.50818">
        <ele>305</ele>
        <time>2017-04-12T13:46:42Z</time>
      </trkpt>
      <trkpt lat="46.23333" lon="2.50818">
        <ele>305</ele>
        <time>2017-04-12T13:46:45Z</time>
      </trkpt>
      <trkpt lat="46.23332" lon="2.5082">
        <ele>305</ele>
        <time>2017-04-12T13:46:49Z</time>
      </trkpt>
      <trkpt lat="46.23329" lon="2.50822">
        <ele>305</ele>
        <time>2017-04-12T13:46:52Z</time>
      </trkpt>
      <trkpt lat="46.23325" lon="2.50824">
        <ele>305</ele>
        <time>2017-04-12T13:46:55Z</time>
      </trkpt>
      <trkpt lat="46.23322" lon="2.50826">
        <ele>305</ele>
        <time>2017-04-12T13:46:58Z</time>
      </trkpt>
      <trkpt lat="46.23318" lon="2.50827">
        <ele>305</ele>
        <time>2017-04-12T13:47:01Z</time>
      </trkpt>
      <trkpt lat="46.23314" lon="2.50828">
        <ele>305</ele>
        <time>2017-04-12T13:47:04Z</time>
      </trkpt>
      <trkpt lat="46.2331" lon="2.5083">
        <ele>305</ele>
        <time>2017-04-12T13:47:08Z</time>
      </trkpt>
      <trkpt lat="46.23306" lon="2.50831">
        <ele>305</ele>
        <time>2017-04-12T13:47:11Z</time>
      </trkpt>
      <trkpt lat="46.23302" lon="2.50833">
        <ele>305</ele>
        <time>2017-04-12T13:47:14Z</time>
      </trkpt>
      <trkpt lat="46.23299" lon="2.50834">
        <ele>305</ele>
        <time>2017-04-12T13:47:17Z</time>
      </trkpt>
      <trkpt lat="46.23296" lon="2.50836">
        <ele>305</ele>
        <time>2017-04-12T13:47:20Z</time>
      </trkpt>
      <trkpt lat="46.23292" lon="2.50837">
        <ele>305</ele>
        <time>2017-04-12T13:47:23Z</time>
      </trkpt>
      <trkpt lat="46.23288" lon="2.50839">
        <ele>305</ele>
        <time>2017-04-12T13:47:26Z</time>
      </trkpt>
      <trkpt lat="46.23284" lon="2.50841">
        <ele>305</ele>
        <time>2017-04-12T13:47:29Z</time>
      </trkpt>
      <trkpt lat="46.23281" lon="2.50843">
        <ele>305</ele>
        <time>2017-04-12T13:47:32Z</time>
      </trkpt>
      <trkpt lat="46.2328" lon="2.50847">
        <ele>305</ele>
        <time>2017-04-12T13:47:35Z</time>
      </trkpt>
      <trkpt lat="46.2328" lon="2.50853">
        <ele>305</ele>
        <time>2017-04-12T13:47:38Z</time>
      </trkpt>
      <trkpt lat="46.2328" lon="2.50859">
        <ele>305</ele>
        <time>2017-04-12T13:47:41Z</time>
      </trkpt>
      <trkpt lat="46.23281" lon="2.50865">
        <ele>306</ele>
        <time>2017-04-12T13:47:44Z</time>
      </trkpt>
      <trkpt lat="46.2328" lon="2.5087">
        <ele>307</ele>
        <time>2017-04-12T13:47:47Z</time>
      </trkpt>
      <trkpt lat="46.2328" lon="2.50875">
        <ele>308</ele>
        <time>2017-04-12T13:47:50Z</time>
      </trkpt>
      <trkpt lat="46.23279" lon="2.5088">
        <ele>309</ele>
        <time>2017-04-12T13:47:53Z</time>
      </trkpt>
      <trkpt lat="46.23278" lon="2.50885">
        <ele>309</ele>
        <time>2017-04-12T13:47:56Z</time>
      </trkpt>
      <trkpt lat="46.23277" lon="2.50891">
        <ele>309</ele>
        <time>2017-04-12T13:47:59Z</time>
      </trkpt>
      <trkpt lat="46.23276" lon="2.50897">
        <ele>309</ele>
        <time>2017-04-12T13:48:02Z</time>
      </trkpt>
      <trkpt lat="46.23276" lon="2.50902">
        <ele>309</ele>
        <time>2017-04-12T13:48:05Z</time>
      </trkpt>
      <trkpt lat="46.23275" lon="2.50907">
        <ele>310</ele>
        <time>2017-04-12T13:48:08Z</time>
      </trkpt>
      <trkpt lat="46.23275" lon="2.50912">
        <ele>310</ele>
        <time>2017-04-12T13:48:11Z</time>
      </trkpt>
      <trkpt lat="46.23273" lon="2.50919">
        <ele>310</ele>
        <time>2017-04-12T13:48:14Z</time>
      </trkpt>
      <trkpt lat="46.23272" lon="2.50924">
        <ele>310</ele>
        <time>2017-04-12T13:48:17Z</time>
      </trkpt>
      <trkpt lat="46.2327" lon="2.5093">
        <ele>310</ele>
        <time>2017-04-12T13:48:20Z</time>
      </trkpt>
      <trkpt lat="46.23269" lon="2.50935">
        <ele>310</ele>
        <time>2017-04-12T13:48:23Z</time>
      </trkpt>
      <trkpt lat="46.23268" lon="2.5094">
        <ele>310</ele>
        <time>2017-04-12T13:48:26Z</time>
      </trkpt>
      <trkpt lat="46.23267" lon="2.50945">
        <ele>310</ele>
        <time>2017-04-12T13:48:29Z</time>
      </trkpt>
      <trkpt lat="46.23267" lon="2.50949">
        <ele>310</ele>
        <time>2017-04-12T13:48:32Z</time>
      </trkpt>
      <trkpt lat="46.23266" lon="2.50955">
        <ele>310</ele>
        <time>2017-04-12T13:48:35Z</time>
      </trkpt>
      <trkpt lat="46.23265" lon="2.5096">
        <ele>310</ele>
        <time>2017-04-12T13:48:38Z</time>
      </trkpt>
      <trkpt lat="46.23264" lon="2.50967">
        <ele>310</ele>
        <time>2017-04-12T13:48:41Z</time>
      </trkpt>
      <trkpt lat="46.23264" lon="2.50973">
        <ele>312</ele>
        <time>2017-04-12T13:48:44Z</time>
      </trkpt>
      <trkpt lat="46.23264" lon="2.50979">
        <ele>313</ele>
        <time>2017-04-12T13:48:47Z</time>
      </trkpt>
      <trkpt lat="46.23264" lon="2.50984">
        <ele>313</ele>
        <time>2017-04-12T13:48:50Z</time>
      </trkpt>
      <trkpt lat="46.23262" lon="2.50989">
        <ele>313</ele>
        <time>2017-04-12T13:48:53Z</time>
      </trkpt>
      <trkpt lat="46.23262" lon="2.50993">
        <ele>313</ele>
        <time>2017-04-12T13:48:56Z</time>
      </trkpt>
      <trkpt lat="46.2326" lon="2.50999">
        <ele>313</ele>
        <time>2017-04-12T13:48:59Z</time>
      </trkpt>
      <trkpt lat="46.23259" lon="2.51005">
        <ele>313</ele>
        <time>2017-04-12T13:49:02Z</time>
      </trkpt>
      <trkpt lat="46.23258" lon="2.5101">
        <ele>315</ele>
        <time>2017-04-12T13:49:05Z</time>
      </trkpt>
      <trkpt lat="46.23256" lon="2.51014">
        <ele>315</ele>
        <time>2017-04-12T13:49:08Z</time>
      </trkpt>
      <trkpt lat="46.23254" lon="2.51019">
        <ele>315</ele>
        <time>2017-04-12T13:49:11Z</time>
      </trkpt>
      <trkpt lat="46.23252" lon="2.51025">
        <ele>315</ele>
        <time>2017-04-12T13:49:15Z</time>
      </trkpt>
      <trkpt lat="46.2325" lon="2.5103">
        <ele>316</ele>
        <time>2017-04-12T13:49:18Z</time>
      </trkpt>
      <trkpt lat="46.23248" lon="2.51036">
        <ele>318</ele>
        <time>2017-04-12T13:49:21Z</time>
      </trkpt>
      <trkpt lat="46.23247" lon="2.51041">
        <ele>319</ele>
        <time>2017-04-12T13:49:24Z</time>
      </trkpt>
      <trkpt lat="46.23246" lon="2.51045">
        <ele>321</ele>
        <time>2017-04-12T13:49:27Z</time>
      </trkpt>
      <trkpt lat="46.23246" lon="2.51049">
        <ele>322</ele>
        <time>2017-04-12T13:49:30Z</time>
      </trkpt>
      <trkpt lat="46.23248" lon="2.51054">
        <ele>322</ele>
        <time>2017-04-12T13:49:33Z</time>
      </trkpt>
      <trkpt lat="46.2325" lon="2.51059">
        <ele>323</ele>
        <time>2017-04-12T13:49:37Z</time>
      </trkpt>
      <trkpt lat="46.2325" lon="2.51063">
        <ele>323</ele>
        <time>2017-04-12T13:49:41Z</time>
      </trkpt>
      <trkpt lat="46.23254" lon="2.51066">
        <ele>323</ele>
        <time>2017-04-12T13:49:44Z</time>
      </trkpt>
      <trkpt lat="46.23259" lon="2.51069">
        <ele>324</ele>
        <time>2017-04-12T13:49:47Z</time>
      </trkpt>
      <trkpt lat="46.23263" lon="2.51072">
        <ele>325</ele>
        <time>2017-04-12T13:49:50Z</time>
      </trkpt>
      <trkpt lat="46.23268" lon="2.51075">
        <ele>328</ele>
        <time>2017-04-12T13:49:53Z</time>
      </trkpt>
      <trkpt lat="46.23271" lon="2.51078">
        <ele>330</ele>
        <time>2017-04-12T13:49:56Z</time>
      </trkpt>
      <trkpt lat="46.23276" lon="2.51082">
        <ele>332</ele>
        <time>2017-04-12T13:50:00Z</time>
      </trkpt>
      <trkpt lat="46.23279" lon="2.51085">
        <ele>333</ele>
        <time>2017-04-12T13:50:03Z</time>
      </trkpt>
      <trkpt lat="46.23282" lon="2.5109">
        <ele>333</ele>
        <time>2017-04-12T13:50:07Z</time>
      </trkpt>
      <trkpt lat="46.23283" lon="2.51095">
        <ele>333</ele>
        <time>2017-04-12T13:50:10Z</time>
      </trkpt>
      <trkpt lat="46.23284" lon="2.51099">
        <ele>333</ele>
        <time>2017-04-12T13:50:13Z</time>
      </trkpt>
      <trkpt lat="46.23287" lon="2.51103">
        <ele>333</ele>
        <time>2017-04-12T13:50:16Z</time>
      </trkpt>
      <trkpt lat="46.23287" lon="2.51108">
        <ele>333</ele>
        <time>2017-04-12T13:50:19Z</time>
      </trkpt>
      <trkpt lat="46.23287" lon="2.51112">
        <ele>332</ele>
        <time>2017-04-12T13:50:22Z</time>
      </trkpt>
      <trkpt lat="46.23288" lon="2.51117">
        <ele>331</ele>
        <time>2017-04-12T13:50:25Z</time>
      </trkpt>
      <trkpt lat="46.23289" lon="2.51123">
        <ele>329</ele>
        <time>2017-04-12T13:50:28Z</time>
      </trkpt>
      <trkpt lat="46.23289" lon="2.51128">
        <ele>328</ele>
        <time>2017-04-12T13:50:31Z</time>
      </trkpt>
      <trkpt lat="46.23289" lon="2.51134">
        <ele>326</ele>
        <time>2017-04-12T13:50:35Z</time>
      </trkpt>
      <trkpt lat="46.23291" lon="2.51137">
        <ele>326</ele>
        <time>2017-04-12T13:50:38Z</time>
      </trkpt>
      <trkpt lat="46.23293" lon="2.51143">
        <ele>324</ele>
        <time>2017-04-12T13:50:41Z</time>
      </trkpt>
      <trkpt lat="46.23297" lon="2.51148">
        <ele>324</ele>
        <time>2017-04-12T13:50:44Z</time>
      </trkpt>
      <trkpt lat="46.23299" lon="2.51153">
        <ele>324</ele>
        <time>2017-04-12T13:50:47Z</time>
      </trkpt>
      <trkpt lat="46.23302" lon="2.5116">
        <ele>324</ele>
        <time>2017-04-12T13:50:51Z</time>
      </trkpt>
      <trkpt lat="46.23304" lon="2.51164">
        <ele>324</ele>
        <time>2017-04-12T13:50:54Z</time>
      </trkpt>
      <trkpt lat="46.23307" lon="2.51169">
        <ele>324</ele>
        <time>2017-04-12T13:50:57Z</time>
      </trkpt>
      <trkpt lat="46.23308" lon="2.51175">
        <ele>325</ele>
        <time>2017-04-12T13:51:01Z</time>
      </trkpt>
      <trkpt lat="46.23309" lon="2.5118">
        <ele>325</ele>
        <time>2017-04-12T13:51:04Z</time>
      </trkpt>
      <trkpt lat="46.23309" lon="2.51186">
        <ele>326</ele>
        <time>2017-04-12T13:51:07Z</time>
      </trkpt>
      <trkpt lat="46.23309" lon="2.51192">
        <ele>326</ele>
        <time>2017-04-12T13:51:10Z</time>
      </trkpt>
      <trkpt lat="46.23309" lon="2.51197">
        <ele>326</ele>
        <time>2017-04-12T13:51:13Z</time>
      </trkpt>
      <trkpt lat="46.2331" lon="2.51202">
        <ele>326</ele>
        <time>2017-04-12T13:51:16Z</time>
      </trkpt>
      <trkpt lat="46.23309" lon="2.51207">
        <ele>327</ele>
        <time>2017-04-12T13:51:19Z</time>
      </trkpt>
      <trkpt lat="46.23311" lon="2.51211">
        <ele>327</ele>
        <time>2017-04-12T13:51:22Z</time>
      </trkpt>
      <trkpt lat="46.23313" lon="2.51217">
        <ele>328</ele>
        <time>2017-04-12T13:51:26Z</time>
      </trkpt>
      <trkpt lat="46.23314" lon="2.51221">
        <ele>329</ele>
        <time>2017-04-12T13:51:29Z</time>
      </trkpt>
      <trkpt lat="46.23316" lon="2.51225">
        <ele>329</ele>
        <time>2017-04-12T13:51:32Z</time>
      </trkpt>
      <trkpt lat="46.23319" lon="2.51229">
        <ele>330</ele>
        <time>2017-04-12T13:51:36Z</time>
      </trkpt>
      <trkpt lat="46.23323" lon="2.51231">
        <ele>331</ele>
        <time>2017-04-12T13:51:39Z</time>
      </trkpt>
      <trkpt lat="46.23327" lon="2.51235">
        <ele>333</ele>
        <time>2017-04-12T13:51:43Z</time>
      </trkpt>
      <trkpt lat="46.23331" lon="2.51239">
        <ele>334</ele>
        <time>2017-04-12T13:51:47Z</time>
      </trkpt>
      <trkpt lat="46.23333" lon="2.51243">
        <ele>335</ele>
        <time>2017-04-12T13:51:51Z</time>
      </trkpt>
      <trkpt lat="46.23336" lon="2.51247">
        <ele>335</ele>
        <time>2017-04-12T13:51:55Z</time>
      </trkpt>
      <trkpt lat="46.23339" lon="2.51251">
        <ele>335</ele>
        <time>2017-04-12T13:51:59Z</time>
      </trkpt>
      <trkpt lat="46.23342" lon="2.51255">
        <ele>335</ele>
        <time>2017-04-12T13:52:03Z</time>
      </trkpt>
      <trkpt lat="46.23344" lon="2.51259">
        <ele>335</ele>
        <time>2017-04-12T13:52:07Z</time>
      </trkpt>
      <trkpt lat="46.23347" lon="2.51264">
        <ele>335</ele>
        <time>2017-04-12T13:52:11Z</time>
      </trkpt>
      <trkpt lat="46.2335" lon="2.51267">
        <ele>335</ele>
        <time>2017-04-12T13:52:15Z</time>
      </trkpt>
      <trkpt lat="46.23352" lon="2.51271">
        <ele>335</ele>
        <time>2017-04-12T13:52:18Z</time>
      </trkpt>
      <trkpt lat="46.23352" lon="2.51275">
        <ele>335</ele>
        <time>2017-04-12T13:52:21Z</time>
      </trkpt>
      <trkpt lat="46.23352" lon="2.5128">
        <ele>335</ele>
        <time>2017-04-12T13:52:24Z</time>
      </trkpt>
      <trkpt lat="46.23351" lon="2.51286">
        <ele>335</ele>
        <time>2017-04-12T13:52:27Z</time>
      </trkpt>
      <trkpt lat="46.2335" lon="2.51292">
        <ele>334</ele>
        <time>2017-04-12T13:52:30Z</time>
      </trkpt>
      <trkpt lat="46.23349" lon="2.51297">
        <ele>334</ele>
        <time>2017-04-12T13:52:33Z</time>
      </trkpt>
      <trkpt lat="46.23347" lon="2.51303">
        <ele>333</ele>
        <time>2017-04-12T13:52:36Z</time>
      </trkpt>
      <trkpt lat="46.23345" lon="2.51308">
        <ele>333</ele>
        <time>2017-04-12T13:52:39Z</time>
      </trkpt>
      <trkpt lat="46.23343" lon="2.51311">
        <ele>332</ele>
        <time>2017-04-12T13:52:42Z</time>
      </trkpt>
      <trkpt lat="46.23339" lon="2.51316">
        <ele>331</ele>
        <time>2017-04-12T13:52:46Z</time>
      </trkpt>
      <trkpt lat="46.23338" lon="2.51319">
        <ele>331</ele>
        <time>2017-04-12T13:52:49Z</time>
      </trkpt>
      <trkpt lat="46.23334" lon="2.51321">
        <ele>330</ele>
        <time>2017-04-12T13:52:52Z</time>
      </trkpt>
      <trkpt lat="46.2333" lon="2.51326">
        <ele>330</ele>
        <time>2017-04-12T13:52:56Z</time>
      </trkpt>
      <trkpt lat="46.23327" lon="2.51329">
        <ele>330</ele>
        <time>2017-04-12T13:52:59Z</time>
      </trkpt>
      <trkpt lat="46.23324" lon="2.51331">
        <ele>330</ele>
        <time>2017-04-12T13:53:02Z</time>
      </trkpt>
      <trkpt lat="46.23321" lon="2.51335">
        <ele>330</ele>
        <time>2017-04-12T13:53:05Z</time>
      </trkpt>
      <trkpt lat="46.23317" lon="2.51338">
        <ele>330</ele>
        <time>2017-04-12T13:53:09Z</time>
      </trkpt>
      <trkpt lat="46.23314" lon="2.51344">
        <ele>330</ele>
        <time>2017-04-12T13:53:13Z</time>
      </trkpt>
      <trkpt lat="46.2331" lon="2.51348">
        <ele>333</ele>
        <time>2017-04-12T13:53:17Z</time>
      </trkpt>
      <trkpt lat="46.23306" lon="2.51353">
        <ele>334</ele>
        <time>2017-04-12T13:53:20Z</time>
      </trkpt>
      <trkpt lat="46.23302" lon="2.51356">
        <ele>336</ele>
        <time>2017-04-12T13:53:24Z</time>
      </trkpt>
      <trkpt lat="46.23298" lon="2.5136">
        <ele>337</ele>
        <time>2017-04-12T13:53:28Z</time>
      </trkpt>
      <trkpt lat="46.23296" lon="2.51364">
        <ele>338</ele>
        <time>2017-04-12T13:53:32Z</time>
      </trkpt>
      <trkpt lat="46.23293" lon="2.51369">
        <ele>339</ele>
        <time>2017-04-12T13:53:35Z</time>
      </trkpt>
      <trkpt lat="46.23291" lon="2.51373">
        <ele>340</ele>
        <time>2017-04-12T13:53:38Z</time>
      </trkpt>
      <trkpt lat="46.23288" lon="2.51379">
        <ele>341</ele>
        <time>2017-04-12T13:53:41Z</time>
      </trkpt>
      <trkpt lat="46.23286" lon="2.51385">
        <ele>342</ele>
        <time>2017-04-12T13:53:45Z</time>
      </trkpt>
      <trkpt lat="46.23285" lon="2.51389">
        <ele>343</ele>
        <time>2017-04-12T13:53:48Z</time>
      </trkpt>
      <trkpt lat="46.23282" lon="2.51393">
        <ele>344</ele>
        <time>2017-04-12T13:53:52Z</time>
      </trkpt>
      <trkpt lat="46.23279" lon="2.51397">
        <ele>344</ele>
        <time>2017-04-12T13:53:55Z</time>
      </trkpt>
      <trkpt lat="46.23276" lon="2.51402">
        <ele>344</ele>
        <time>2017-04-12T13:53:58Z</time>
      </trkpt>
      <trkpt lat="46.23274" lon="2.51406">
        <ele>345</ele>
        <time>2017-04-12T13:54:01Z</time>
      </trkpt>
      <trkpt lat="46.23271" lon="2.5141">
        <ele>345</ele>
        <time>2017-04-12T13:54:04Z</time>
      </trkpt>
      <trkpt lat="46.23266" lon="2.51416">
        <ele>346</ele>
        <time>2017-04-12T13:54:08Z</time>
      </trkpt>
      <trkpt lat="46.23263" lon="2.51422">
        <ele>348</ele>
        <time>2017-04-12T13:54:11Z</time>
      </trkpt>
      <trkpt lat="46.2326" lon="2.51426">
        <ele>349</ele>
        <time>2017-04-12T13:54:14Z</time>
      </trkpt>
      <trkpt lat="46.23256" lon="2.51429">
        <ele>350</ele>
        <time>2017-04-12T13:54:17Z</time>
      </trkpt>
      <trkpt lat="46.23252" lon="2.51432">
        <ele>351</ele>
        <time>2017-04-12T13:54:21Z</time>
      </trkpt>
      <trkpt lat="46.23247" lon="2.51434">
        <ele>351</ele>
        <time>2017-04-12T13:54:25Z</time>
      </trkpt>
      <trkpt lat="46.23243" lon="2.51437">
        <ele>353</ele>
        <time>2017-04-12T13:54:29Z</time>
      </trkpt>
      <trkpt lat="46.23239" lon="2.51439">
        <ele>354</ele>
        <time>2017-04-12T13:54:33Z</time>
      </trkpt>
      <trkpt lat="46.23235" lon="2.51441">
        <ele>355</ele>
        <time>2017-04-12T13:54:36Z</time>
      </trkpt>
      <trkpt lat="46.23231" lon="2.5144">
        <ele>355</ele>
        <time>2017-04-12T13:54:39Z</time>
      </trkpt>
      <trkpt lat="46.23225" lon="2.51439">
        <ele>355</ele>
        <time>2017-04-12T13:54:42Z</time>
      </trkpt>
      <trkpt lat="46.2322" lon="2.51438">
        <ele>355</ele>
        <time>2017-04-12T13:54:46Z</time>
      </trkpt>
      <trkpt lat="46.23216" lon="2.51437">
        <ele>355</ele>
        <time>2017-04-12T13:54:49Z</time>
      </trkpt>
      <trkpt lat="46.23213" lon="2.51437">
        <ele>355</ele>
        <time>2017-04-12T13:54:52Z</time>
      </trkpt>
      <trkpt lat="46.23211" lon="2.51436">
        <ele>355</ele>
        <time>2017-04-12T13:54:55Z</time>
      </trkpt>
      <trkpt lat="46.23209" lon="2.51434">
        <ele>355</ele>
        <time>2017-04-12T13:54:58Z</time>
      </trkpt>
      <trkpt lat="46.23209" lon="2.5143">
        <ele>353</ele>
        <time>2017-04-12T13:55:01Z</time>
      </trkpt>
      <trkpt lat="46.23211" lon="2.51427">
        <ele>352</ele>
        <time>2017-04-12T13:55:05Z</time>
      </trkpt>
      <trkpt lat="46.23212" lon="2.51429">
        <ele>347</ele>
        <time>2017-04-12T13:55:15Z</time>
      </trkpt>
      <trkpt lat="46.23214" lon="2.51433">
        <ele>346</ele>
        <time>2017-04-12T13:55:19Z</time>
      </trkpt>
      <trkpt lat="46.23216" lon="2.51437">
        <ele>345</ele>
        <time>2017-04-12T13:55:23Z</time>
      </trkpt>
      <trkpt lat="46.23216" lon="2.51436">
        <ele>344</ele>
        <time>2017-04-12T13:55:29Z</time>
      </trkpt>
      <trkpt lat="46.23214" lon="2.51435">
        <ele>342</ele>
        <time>2017-04-12T13:55:32Z</time>
      </trkpt>
      <trkpt lat="46.23213" lon="2.51435">
        <ele>342</ele>
        <time>2017-04-12T13:55:35Z</time>
      </trkpt>
      <trkpt lat="46.23211" lon="2.51436">
        <ele>342</ele>
        <time>2017-04-12T13:55:38Z</time>
      </trkpt>
      <trkpt lat="46.2321" lon="2.51436">
        <ele>342</ele>
        <time>2017-04-12T13:55:43Z</time>
      </trkpt>
      <trkpt lat="46.23211" lon="2.51439">
        <ele>343</ele>
        <time>2017-04-12T13:55:47Z</time>
      </trkpt>
      <trkpt lat="46.23215" lon="2.51441">
        <ele>343</ele>
        <time>2017-04-12T13:55:50Z</time>
      </trkpt>
      <trkpt lat="46.23219" lon="2.51443">
        <ele>343</ele>
        <time>2017-04-12T13:55:54Z</time>
      </trkpt>
      <trkpt lat="46.23222" lon="2.51445">
        <ele>343</ele>
        <time>2017-04-12T13:55:57Z</time>
      </trkpt>
      <trkpt lat="46.23226" lon="2.51447">
        <ele>343</ele>
        <time>2017-04-12T13:56:00Z</time>
      </trkpt>
      <trkpt lat="46.23231" lon="2.51448">
        <ele>343</ele>
        <time>2017-04-12T13:56:03Z</time>
      </trkpt>
      <trkpt lat="46.23236" lon="2.51447">
        <ele>343</ele>
        <time>2017-04-12T13:56:06Z</time>
      </trkpt>
      <trkpt lat="46.23239" lon="2.51447">
        <ele>343</ele>
        <time>2017-04-12T13:56:09Z</time>
      </trkpt>
      <trkpt lat="46.23243" lon="2.51448">
        <ele>343</ele>
        <time>2017-04-12T13:56:12Z</time>
      </trkpt>
      <trkpt lat="46.23247" lon="2.51447">
        <ele>341</ele>
        <time>2017-04-12T13:56:16Z</time>
      </trkpt>
      <trkpt lat="46.23251" lon="2.51446">
        <ele>338</ele>
        <time>2017-04-12T13:56:20Z</time>
      </trkpt>
      <trkpt lat="46.23255" lon="2.51445">
        <ele>336</ele>
        <time>2017-04-12T13:56:23Z</time>
      </trkpt>
      <trkpt lat="46.23258" lon="2.51442">
        <ele>334</ele>
        <time>2017-04-12T13:56:26Z</time>
      </trkpt>
      <trkpt lat="46.23261" lon="2.51438">
        <ele>330</ele>
        <time>2017-04-12T13:56:30Z</time>
      </trkpt>
      <trkpt lat="46.23264" lon="2.51436">
        <ele>327</ele>
        <time>2017-04-12T13:56:33Z</time>
      </trkpt>
      <trkpt lat="46.23267" lon="2.51432">
        <ele>323</ele>
        <time>2017-04-12T13:56:37Z</time>
      </trkpt>
      <trkpt lat="46.23269" lon="2.51429">
        <ele>319</ele>
        <time>2017-04-12T13:56:41Z</time>
      </trkpt>
      <trkpt lat="46.23272" lon="2.51423">
        <ele>315</ele>
        <time>2017-04-12T13:56:45Z</time>
      </trkpt>
      <trkpt lat="46.23274" lon="2.51418">
        <ele>311</ele>
        <time>2017-04-12T13:56:49Z</time>
      </trkpt>
      <trkpt lat="46.23276" lon="2.51416">
        <ele>308</ele>
        <time>2017-04-12T13:56:52Z</time>
      </trkpt>
      <trkpt lat="46.23279" lon="2.51412">
        <ele>306</ele>
        <time>2017-04-12T13:56:55Z</time>
      </trkpt>
      <trkpt lat="46.23281" lon="2.51408">
        <ele>305</ele>
        <time>2017-04-12T13:56:58Z</time>
      </trkpt>
      <trkpt lat="46.23285" lon="2.51402">
        <ele>302</ele>
        <time>2017-04-12T13:57:02Z</time>
      </trkpt>
      <trkpt lat="46.23286" lon="2.51397">
        <ele>299</ele>
        <time>2017-04-12T13:57:05Z</time>
      </trkpt>
      <trkpt lat="46.23288" lon="2.51393">
        <ele>296</ele>
        <time>2017-04-12T13:57:08Z</time>
      </trkpt>
      <trkpt lat="46.23293" lon="2.51388">
        <ele>296</ele>
        <time>2017-04-12T13:57:12Z</time>
      </trkpt>
      <trkpt lat="46.23296" lon="2.51383">
        <ele>295</ele>
        <time>2017-04-12T13:57:16Z</time>
      </trkpt>
      <trkpt lat="46.23297" lon="2.51375">
        <ele>293</ele>
        <time>2017-04-12T13:57:20Z</time>
      </trkpt>
      <trkpt lat="46.23302" lon="2.5137">
        <ele>293</ele>
        <time>2017-04-12T13:57:23Z</time>
      </trkpt>
      <trkpt lat="46.23305" lon="2.51366">
        <ele>293</ele>
        <time>2017-04-12T13:57:26Z</time>
      </trkpt>
      <trkpt lat="46.2331" lon="2.51362">
        <ele>293</ele>
        <time>2017-04-12T13:57:29Z</time>
      </trkpt>
      <trkpt lat="46.23314" lon="2.51361">
        <ele>295</ele>
        <time>2017-04-12T13:57:32Z</time>
      </trkpt>
      <trkpt lat="46.23318" lon="2.51358">
        <ele>296</ele>
        <time>2017-04-12T13:57:35Z</time>
      </trkpt>
      <trkpt lat="46.23321" lon="2.51354">
        <ele>296</ele>
        <time>2017-04-12T13:57:38Z</time>
      </trkpt>
      <trkpt lat="46.23324" lon="2.51351">
        <ele>296</ele>
        <time>2017-04-12T13:57:41Z</time>
      </trkpt>
      <trkpt lat="46.2333" lon="2.51349">
        <ele>296</ele>
        <time>2017-04-12T13:57:44Z</time>
      </trkpt>
      <trkpt lat="46.23335" lon="2.51347">
        <ele>296</ele>
        <time>2017-04-12T13:57:47Z</time>
      </trkpt>
      <trkpt lat="46.23338" lon="2.51346">
        <ele>297</ele>
        <time>2017-04-12T13:57:50Z</time>
      </trkpt>
      <trkpt lat="46.23343" lon="2.51344">
        <ele>299</ele>
        <time>2017-04-12T13:57:53Z</time>
      </trkpt>
      <trkpt lat="46.23348" lon="2.51344">
        <ele>300</ele>
        <time>2017-04-12T13:57:56Z</time>
      </trkpt>
      <trkpt lat="46.23353" lon="2.51344">
        <ele>302</ele>
        <time>2017-04-12T13:57:59Z</time>
      </trkpt>
      <trkpt lat="46.23357" lon="2.51344">
        <ele>303</ele>
        <time>2017-04-12T13:58:02Z</time>
      </trkpt>
      <trkpt lat="46.23362" lon="2.51343">
        <ele>304</ele>
        <time>2017-04-12T13:58:06Z</time>
      </trkpt>
      <trkpt lat="46.23368" lon="2.51342">
        <ele>306</ele>
        <time>2017-04-12T13:58:09Z</time>
      </trkpt>
      <trkpt lat="46.23373" lon="2.51343">
        <ele>307</ele>
        <time>2017-04-12T13:58:12Z</time>
      </trkpt>
      <trkpt lat="46.23376" lon="2.51342">
        <ele>307</ele>
        <time>2017-04-12T13:58:15Z</time>
      </trkpt>
      <trkpt lat="46.2338" lon="2.51342">
        <ele>307</ele>
        <time>2017-04-12T13:58:18Z</time>
      </trkpt>
      <trkpt lat="46.23384" lon="2.51343">
        <ele>307</ele>
        <time>2017-04-12T13:58:21Z</time>
      </trkpt>
      <trkpt lat="46.23389" lon="2.51343">
        <ele>307</ele>
        <time>2017-04-12T13:58:24Z</time>
      </trkpt>
      <trkpt lat="46.23393" lon="2.51344">
        <ele>307</ele>
        <time>2017-04-12T13:58:27Z</time>
      </trkpt>
      <trkpt lat="46.23397" lon="2.51345">
        <ele>307</ele>
        <time>2017-04-12T13:58:30Z</time>
      </trkpt>
      <trkpt lat="46.23401" lon="2.51347">
        <ele>307</ele>
        <time>2017-04-12T13:58:33Z</time>
      </trkpt>
      <trkpt lat="46.23404" lon="2.5135">
        <ele>307</ele>
        <time>2017-04-12T13:58:36Z</time>
      </trkpt>
      <trkpt lat="46.23408" lon="2.51353">
        <ele>307</ele>
        <time>2017-04-12T13:58:39Z</time>
      </trkpt>
      <trkpt lat="46.23411" lon="2.51355">
        <ele>307</ele>
        <time>2017-04-12T13:58:42Z</time>
      </trkpt>
      <trkpt lat="46.23411" lon="2.51355">
        <ele>308</ele>
        <time>2017-04-12T13:58:48Z</time>
      </trkpt>
      <trkpt lat="46.23413" lon="2.51351">
        <ele>308</ele>
        <time>2017-04-12T13:58:53Z</time>
      </trkpt>
      <trkpt lat="46.23414" lon="2.51349">
        <ele>308</ele>
        <time>2017-04-12T13:58:56Z</time>
      </trkpt>
      <trkpt lat="46.23415" lon="2.51347">
        <ele>308</ele>
        <time>2017-04-12T13:58:59Z</time>
      </trkpt>
      <trkpt lat="46.23418" lon="2.51347">
        <ele>308</ele>
        <time>2017-04-12T13:59:02Z</time>
      </trkpt>
      <trkpt lat="46.23421" lon="2.51349">
        <ele>308</ele>
        <time>2017-04-12T13:59:06Z</time>
      </trkpt>
      <trkpt lat="46.23424" lon="2.51352">
        <ele>308</ele>
        <time>2017-04-12T13:59:09Z</time>
      </trkpt>
      <trkpt lat="46.23428" lon="2.51353">
        <ele>308</ele>
        <time>2017-04-12T13:59:12Z</time>
      </trkpt>
      <trkpt lat="46.23431" lon="2.51353">
        <ele>308</ele>
        <time>2017-04-12T13:59:17Z</time>
      </trkpt>
      <trkpt lat="46.23435" lon="2.51353">
        <ele>308</ele>
        <time>2017-04-12T13:59:21Z</time>
      </trkpt>
      <trkpt lat="46.23436" lon="2.51351">
        <ele>313</ele>
        <time>2017-04-12T13:59:31Z</time>
      </trkpt>
      <trkpt lat="46.23439" lon="2.51352">
        <ele>315</ele>
        <time>2017-04-12T13:59:34Z</time>
      </trkpt>
      <trkpt lat="46.23443" lon="2.51351">
        <ele>316</ele>
        <time>2017-04-12T13:59:38Z</time>
      </trkpt>
      <trkpt lat="46.23447" lon="2.51352">
        <ele>317</ele>
        <time>2017-04-12T13:59:42Z</time>
      </trkpt>
      <trkpt lat="46.2345" lon="2.51353">
        <ele>317</ele>
        <time>2017-04-12T13:59:46Z</time>
      </trkpt>
      <trkpt lat="46.23454" lon="2.51353">
        <ele>317</ele>
        <time>2017-04-12T13:59:50Z</time>
      </trkpt>
      <trkpt lat="46.23458" lon="2.51353">
        <ele>317</ele>
        <time>2017-04-12T13:59:54Z</time>
      </trkpt>
      <trkpt lat="46.23462" lon="2.51356">
        <ele>318</ele>
        <time>2017-04-12T13:59:58Z</time>
      </trkpt>
      <trkpt lat="46.23465" lon="2.51358">
        <ele>318</ele>
        <time>2017-04-12T14:00:02Z</time>
      </trkpt>
      <trkpt lat="46.23468" lon="2.51361">
        <ele>318</ele>
        <time>2017-04-12T14:00:05Z</time>
      </trkpt>
      <trkpt lat="46.23472" lon="2.51365">
        <ele>318</ele>
        <time>2017-04-12T14:00:08Z</time>
      </trkpt>
      <trkpt lat="46.23475" lon="2.51366">
        <ele>318</ele>
        <time>2017-04-12T14:00:11Z</time>
      </trkpt>
      <trkpt lat="46.23478" lon="2.51366">
        <ele>318</ele>
        <time>2017-04-12T14:00:14Z</time>
      </trkpt>
      <trkpt lat="46.23482" lon="2.51369">
        <ele>318</ele>
        <time>2017-04-12T14:00:18Z</time>
      </trkpt>
      <trkpt lat="46.23486" lon="2.51372">
        <ele>318</ele>
        <time>2017-04-12T14:00:22Z</time>
      </trkpt>
      <trkpt lat="46.2349" lon="2.51374">
        <ele>318</ele>
        <time>2017-04-12T14:00:25Z</time>
      </trkpt>
      <trkpt lat="46.23494" lon="2.51376">
        <ele>318</ele>
        <time>2017-04-12T14:00:29Z</time>
      </trkpt>
      <trkpt lat="46.23497" lon="2.51377">
        <ele>318</ele>
        <time>2017-04-12T14:00:32Z</time>
      </trkpt>
      <trkpt lat="46.23501" lon="2.51377">
        <ele>318</ele>
        <time>2017-04-12T14:00:36Z</time>
      </trkpt>
      <trkpt lat="46.23505" lon="2.51378">
        <ele>318</ele>
        <time>2017-04-12T14:00:39Z</time>
      </trkpt>
      <trkpt lat="46.2351" lon="2.51378">
        <ele>318</ele>
        <time>2017-04-12T14:00:43Z</time>
      </trkpt>
      <trkpt lat="46.23509" lon="2.51377">
        <ele>318</ele>
        <time>2017-04-12T14:00:46Z</time>
      </trkpt>
      <trkpt lat="46.2351" lon="2.51373">
        <ele>318</ele>
        <time>2017-04-12T14:00:49Z</time>
      </trkpt>
      <trkpt lat="46.23508" lon="2.51373">
        <ele>318</ele>
        <time>2017-04-12T14:00:53Z</time>
      </trkpt>
      <trkpt lat="46.2351" lon="2.51373">
        <ele>318</ele>
        <time>2017-04-12T14:00:59Z</time>
      </trkpt>
      <trkpt lat="46.23512" lon="2.51377">
        <ele>318</ele>
        <time>2017-04-12T14:01:03Z</time>
      </trkpt>
      <trkpt lat="46.23515" lon="2.51379">
        <ele>318</ele>
        <time>2017-04-12T14:01:07Z</time>
      </trkpt>
      <trkpt lat="46.23518" lon="2.5138">
        <ele>317</ele>
        <time>2017-04-12T14:01:10Z</time>
      </trkpt>
      <trkpt lat="46.23523" lon="2.51381">
        <ele>317</ele>
        <time>2017-04-12T14:01:14Z</time>
      </trkpt>
      <trkpt lat="46.23527" lon="2.51382">
        <ele>316</ele>
        <time>2017-04-12T14:01:17Z</time>
      </trkpt>
      <trkpt lat="46.23531" lon="2.51385">
        <ele>316</ele>
        <time>2017-04-12T14:01:21Z</time>
      </trkpt>
      <trkpt lat="46.23536" lon="2.51386">
        <ele>316</ele>
        <time>2017-04-12T14:01:25Z</time>
      </trkpt>
      <trkpt lat="46.2354" lon="2.51388">
        <ele>316</ele>
        <time>2017-04-12T14:01:28Z</time>
      </trkpt>
      <trkpt lat="46.23543" lon="2.5139">
        <ele>316</ele>
        <time>2017-04-12T14:01:31Z</time>
      </trkpt>
      <trkpt lat="46.23547" lon="2.51391">
        <ele>316</ele>
        <time>2017-04-12T14:01:34Z</time>
      </trkpt>
      <trkpt lat="46.23552" lon="2.51392">
        <ele>316</ele>
        <time>2017-04-12T14:01:38Z</time>
      </trkpt>
      <trkpt lat="46.23557" lon="2.51393">
        <ele>316</ele>
        <time>2017-04-12T14:01:42Z</time>
      </trkpt>
      <trkpt lat="46.23561" lon="2.51396">
        <ele>316</ele>
        <time>2017-04-12T14:01:46Z</time>
      </trkpt>
      <trkpt lat="46.23565" lon="2.51397">
        <ele>316</ele>
        <time>2017-04-12T14:01:49Z</time>
      </trkpt>
      <trkpt lat="46.23569" lon="2.51399">
        <ele>316</ele>
        <time>2017-04-12T14:01:52Z</time>
      </trkpt>
      <trkpt lat="46.23575" lon="2.51399">
        <ele>316</ele>
        <time>2017-04-12T14:01:55Z</time>
      </trkpt>
      <trkpt lat="46.2358" lon="2.51399">
        <ele>316</ele>
        <time>2017-04-12T14:02:00Z</time>
      </trkpt>
      <trkpt lat="46.23583" lon="2.51401">
        <ele>316</ele>
        <time>2017-04-12T14:02:04Z</time>
      </trkpt>
      <trkpt lat="46.23587" lon="2.51403">
        <ele>316</ele>
        <time>2017-04-12T14:02:08Z</time>
      </trkpt>
      <trkpt lat="46.2359" lon="2.51406">
        <ele>316</ele>
        <time>2017-04-12T14:02:11Z</time>
      </trkpt>
      <trkpt lat="46.23593" lon="2.51408">
        <ele>316</ele>
        <time>2017-04-12T14:02:14Z</time>
      </trkpt>
      <trkpt lat="46.23597" lon="2.51411">
        <ele>316</ele>
        <time>2017-04-12T14:02:17Z</time>
      </trkpt>
      <trkpt lat="46.236" lon="2.51413">
        <ele>316</ele>
        <time>2017-04-12T14:02:20Z</time>
      </trkpt>
      <trkpt lat="46.23604" lon="2.51416">
        <ele>316</ele>
        <time>2017-04-12T14:02:24Z</time>
      </trkpt>
      <trkpt lat="46.23609" lon="2.51418">
        <ele>316</ele>
        <time>2017-04-12T14:02:27Z</time>
      </trkpt>
      <trkpt lat="46.23613" lon="2.5142">
        <ele>316</ele>
        <time>2017-04-12T14:02:31Z</time>
      </trkpt>
      <trkpt lat="46.23618" lon="2.51423">
        <ele>316</ele>
        <time>2017-04-12T14:02:35Z</time>
      </trkpt>
      <trkpt lat="46.23622" lon="2.51426">
        <ele>316</ele>
        <time>2017-04-12T14:02:38Z</time>
      </trkpt>
      <trkpt lat="46.23626" lon="2.51428">
        <ele>316</ele>
        <time>2017-04-12T14:02:41Z</time>
      </trkpt>
      <trkpt lat="46.23632" lon="2.51432">
        <ele>316</ele>
        <time>2017-04-12T14:02:46Z</time>
      </trkpt>
      <trkpt lat="46.23636" lon="2.51436">
        <ele>316</ele>
        <time>2017-04-12T14:02:50Z</time>
      </trkpt>
      <trkpt lat="46.2364" lon="2.51439">
        <ele>316</ele>
        <time>2017-04-12T14:02:54Z</time>
      </trkpt>
      <trkpt lat="46.23643" lon="2.51442">
        <ele>316</ele>
        <time>2017-04-12T14:02:58Z</time>
      </trkpt>
      <trkpt lat="46.23647" lon="2.51444">
        <ele>315</ele>
        <time>2017-04-12T14:03:01Z</time>
      </trkpt>
      <trkpt lat="46.2365" lon="2.51444">
        <ele>313</ele>
        <time>2017-04-12T14:03:05Z</time>
      </trkpt>
      <trkpt lat="46.23653" lon="2.51444">
        <ele>311</ele>
        <time>2017-04-12T14:03:08Z</time>
      </trkpt>
      <trkpt lat="46.23656" lon="2.51444">
        <ele>310</ele>
        <time>2017-04-12T14:03:11Z</time>
      </trkpt>
      <trkpt lat="46.23659" lon="2.51443">
        <ele>309</ele>
        <time>2017-04-12T14:03:14Z</time>
      </trkpt>
      <trkpt lat="46.23664" lon="2.51444">
        <ele>309</ele>
        <time>2017-04-12T14:03:17Z</time>
      </trkpt>
      <trkpt lat="46.23668" lon="2.51444">
        <ele>308</ele>
        <time>2017-04-12T14:03:20Z</time>
      </trkpt>
      <trkpt lat="46.23671" lon="2.51444">
        <ele>308</ele>
        <time>2017-04-12T14:03:23Z</time>
      </trkpt>
      <trkpt lat="46.23676" lon="2.51445">
        <ele>308</ele>
        <time>2017-04-12T14:03:27Z</time>
      </trkpt>
      <trkpt lat="46.23682" lon="2.51446">
        <ele>308</ele>
        <time>2017-04-12T14:03:30Z</time>
      </trkpt>
      <trkpt lat="46.23686" lon="2.51448">
        <ele>308</ele>
        <time>2017-04-12T14:03:33Z</time>
      </trkpt>
      <trkpt lat="46.23691" lon="2.51452">
        <ele>308</ele>
        <time>2017-04-12T14:03:38Z</time>
      </trkpt>
      <trkpt lat="46.23697" lon="2.51454">
        <ele>308</ele>
        <time>2017-04-12T14:03:42Z</time>
      </trkpt>
      <trkpt lat="46.237" lon="2.51456">
        <ele>308</ele>
        <time>2017-04-12T14:03:45Z</time>
      </trkpt>
      <trkpt lat="46.23703" lon="2.51458">
        <ele>308</ele>
        <time>2017-04-12T14:03:49Z</time>
      </trkpt>
      <trkpt lat="46.23705" lon="2.51459">
        <ele>308</ele>
        <time>2017-04-12T14:03:54Z</time>
      </trkpt>
      <trkpt lat="46.23709" lon="2.5146">
        <ele>308</ele>
        <time>2017-04-12T14:03:59Z</time>
      </trkpt>
      <trkpt lat="46.23712" lon="2.51463">
        <ele>307</ele>
        <time>2017-04-12T14:04:03Z</time>
      </trkpt>
      <trkpt lat="46.23715" lon="2.51463">
        <ele>305</ele>
        <time>2017-04-12T14:04:07Z</time>
      </trkpt>
      <trkpt lat="46.23718" lon="2.51464">
        <ele>304</ele>
        <time>2017-04-12T14:04:11Z</time>
      </trkpt>
      <trkpt lat="46.23721" lon="2.51464">
        <ele>303</ele>
        <time>2017-04-12T14:04:16Z</time>
      </trkpt>
      <trkpt lat="46.23724" lon="2.51464">
        <ele>302</ele>
        <time>2017-04-12T14:04:20Z</time>
      </trkpt>
      <trkpt lat="46.23723" lon="2.51464">
        <ele>299</ele>
        <time>2017-04-12T14:04:28Z</time>
      </trkpt>
      <trkpt lat="46.23724" lon="2.51464">
        <ele>298</ele>
        <time>2017-04-12T14:04:55Z</time>
      </trkpt>
      <trkpt lat="46.2372" lon="2.51463">
        <ele>298</ele>
        <time>2017-04-12T14:04:59Z</time>
      </trkpt>
      <trkpt lat="46.23717" lon="2.51464">
        <ele>298</ele>
        <time>2017-04-12T14:05:02Z</time>
      </trkpt>
      <trkpt lat="46.23713" lon="2.51465">
        <ele>298</ele>
        <time>2017-04-12T14:05:05Z</time>
      </trkpt>
      <trkpt lat="46.23709" lon="2.51464">
        <ele>298</ele>
        <time>2017-04-12T14:05:10Z</time>
      </trkpt>
      <trkpt lat="46.23706" lon="2.51463">
        <ele>298</ele>
        <time>2017-04-12T14:05:14Z</time>
      </trkpt>
      <trkpt lat="46.23702" lon="2.51462">
        <ele>298</ele>
        <time>2017-04-12T14:05:18Z</time>
      </trkpt>
      <trkpt lat="46.23698" lon="2.51463">
        <ele>298</ele>
        <time>2017-04-12T14:05:22Z</time>
      </trkpt>
      <trkpt lat="46.23695" lon="2.51464">
        <ele>298</ele>
        <time>2017-04-12T14:05:26Z</time>
      </trkpt>
      <trkpt lat="46.23691" lon="2.51462">
        <ele>298</ele>
        <time>2017-04-12T14:05:30Z</time>
      </trkpt>
      <trkpt lat="46.23688" lon="2.51462">
        <ele>299</ele>
        <time>2017-04-12T14:05:34Z</time>
      </trkpt>
      <trkpt lat="46.23683" lon="2.51459">
        <ele>299</ele>
        <time>2017-04-12T14:05:39Z</time>
      </trkpt>
      <trkpt lat="46.2368" lon="2.5146">
        <ele>299</ele>
        <time>2017-04-12T14:05:43Z</time>
      </trkpt>
      <trkpt lat="46.23677" lon="2.51461">
        <ele>300</ele>
        <time>2017-04-12T14:05:46Z</time>
      </trkpt>
      <trkpt lat="46.23674" lon="2.51463">
        <ele>301</ele>
        <time>2017-04-12T14:05:50Z</time>
      </trkpt>
      <trkpt lat="46.23669" lon="2.51463">
        <ele>303</ele>
        <time>2017-04-12T14:05:54Z</time>
      </trkpt>
      <trkpt lat="46.23665" lon="2.51464">
        <ele>303</ele>
        <time>2017-04-12T14:05:58Z</time>
      </trkpt>
      <trkpt lat="46.23661" lon="2.51463">
        <ele>304</ele>
        <time>2017-04-12T14:06:02Z</time>
      </trkpt>
      <trkpt lat="46.23658" lon="2.51462">
        <ele>305</ele>
        <time>2017-04-12T14:06:05Z</time>
      </trkpt>
      <trkpt lat="46.23652" lon="2.51461">
        <ele>305</ele>
        <time>2017-04-12T14:06:09Z</time>
      </trkpt>
      <trkpt lat="46.23647" lon="2.51459">
        <ele>305</ele>
        <time>2017-04-12T14:06:13Z</time>
      </trkpt>
      <trkpt lat="46.23644" lon="2.51459">
        <ele>305</ele>
        <time>2017-04-12T14:06:17Z</time>
      </trkpt>
      <trkpt lat="46.2364" lon="2.51458">
        <ele>305</ele>
        <time>2017-04-12T14:06:21Z</time>
      </trkpt>
      <trkpt lat="46.23637" lon="2.51458">
        <ele>307</ele>
        <time>2017-04-12T14:06:25Z</time>
      </trkpt>
      <trkpt lat="46.23633" lon="2.51455">
        <ele>309</ele>
        <time>2017-04-12T14:06:29Z</time>
      </trkpt>
      <trkpt lat="46.23629" lon="2.51454">
        <ele>309</ele>
        <time>2017-04-12T14:06:32Z</time>
      </trkpt>
      <trkpt lat="46.23624" lon="2.5145">
        <ele>309</ele>
        <time>2017-04-12T14:06:37Z</time>
      </trkpt>
      <trkpt lat="46.23619" lon="2.51447">
        <ele>309</ele>
        <time>2017-04-12T14:06:41Z</time>
      </trkpt>
      <trkpt lat="46.23616" lon="2.51444">
        <ele>309</ele>
        <time>2017-04-12T14:06:44Z</time>
      </trkpt>
      <trkpt lat="46.23612" lon="2.51442">
        <ele>309</ele>
        <time>2017-04-12T14:06:47Z</time>
      </trkpt>
      <trkpt lat="46.23608" lon="2.51439">
        <ele>309</ele>
        <time>2017-04-12T14:06:51Z</time>
      </trkpt>
      <trkpt lat="46.23604" lon="2.51437">
        <ele>309</ele>
        <time>2017-04-12T14:06:54Z</time>
      </trkpt>
      <trkpt lat="46.23601" lon="2.51435">
        <ele>309</ele>
        <time>2017-04-12T14:06:57Z</time>
      </trkpt>
      <trkpt lat="46.23597" lon="2.51431">
        <ele>309</ele>
        <time>2017-04-12T14:07:01Z</time>
      </trkpt>
      <trkpt lat="46.23594" lon="2.51428">
        <ele>309</ele>
        <time>2017-04-12T14:07:04Z</time>
      </trkpt>
      <trkpt lat="46.2359" lon="2.51425">
        <ele>309</ele>
        <time>2017-04-12T14:07:08Z</time>
      </trkpt>
      <trkpt lat="46.23586" lon="2.51421">
        <ele>309</ele>
        <time>2017-04-12T14:07:13Z</time>
      </trkpt>
      <trkpt lat="46.23582" lon="2.5142">
        <ele>309</ele>
        <time>2017-04-12T14:07:16Z</time>
      </trkpt>
      <trkpt lat="46.23578" lon="2.51418">
        <ele>309</ele>
        <time>2017-04-12T14:07:19Z</time>
      </trkpt>
      <trkpt lat="46.23574" lon="2.51417">
        <ele>310</ele>
        <time>2017-04-12T14:07:23Z</time>
      </trkpt>
      <trkpt lat="46.23569" lon="2.51416">
        <ele>310</ele>
        <time>2017-04-12T14:07:27Z</time>
      </trkpt>
      <trkpt lat="46.23566" lon="2.51415">
        <ele>310</ele>
        <time>2017-04-12T14:07:30Z</time>
      </trkpt>
      <trkpt lat="46.23562" lon="2.51413">
        <ele>310</ele>
        <time>2017-04-12T14:07:33Z</time>
      </trkpt>
      <trkpt lat="46.23559" lon="2.5141">
        <ele>310</ele>
        <time>2017-04-12T14:07:37Z</time>
      </trkpt>
      <trkpt lat="46.23555" lon="2.51407">
        <ele>310</ele>
        <time>2017-04-12T14:07:40Z</time>
      </trkpt>
      <trkpt lat="46.23551" lon="2.51407">
        <ele>310</ele>
        <time>2017-04-12T14:07:43Z</time>
      </trkpt>
      <trkpt lat="46.23548" lon="2.51405">
        <ele>310</ele>
        <time>2017-04-12T14:07:46Z</time>
      </trkpt>
      <trkpt lat="46.23544" lon="2.51404">
        <ele>310</ele>
        <time>2017-04-12T14:07:49Z</time>
      </trkpt>
      <trkpt lat="46.2354" lon="2.51402">
        <ele>310</ele>
        <time>2017-04-12T14:07:52Z</time>
      </trkpt>
      <trkpt lat="46.23536" lon="2.514">
        <ele>310</ele>
        <time>2017-04-12T14:07:55Z</time>
      </trkpt>
      <trkpt lat="46.23533" lon="2.51398">
        <ele>310</ele>
        <time>2017-04-12T14:07:58Z</time>
      </trkpt>
      <trkpt lat="46.23529" lon="2.51395">
        <ele>311</ele>
        <time>2017-04-12T14:08:02Z</time>
      </trkpt>
      <trkpt lat="46.23525" lon="2.51393">
        <ele>311</ele>
        <time>2017-04-12T14:08:06Z</time>
      </trkpt>
      <trkpt lat="46.23521" lon="2.51392">
        <ele>311</ele>
        <time>2017-04-12T14:08:10Z</time>
      </trkpt>
      <trkpt lat="46.23518" lon="2.5139">
        <ele>311</ele>
        <time>2017-04-12T14:08:14Z</time>
      </trkpt>
      <trkpt lat="46.23515" lon="2.51387">
        <ele>311</ele>
        <time>2017-04-12T14:08:18Z</time>
      </trkpt>
      <trkpt lat="46.23513" lon="2.51381">
        <ele>311</ele>
        <time>2017-04-12T14:08:22Z</time>
      </trkpt>
      <trkpt lat="46.2351" lon="2.51382">
        <ele>311</ele>
        <time>2017-04-12T14:08:27Z</time>
      </trkpt>
      <trkpt lat="46.23508" lon="2.51386">
        <ele>311</ele>
        <time>2017-04-12T14:08:31Z</time>
      </trkpt>
      <trkpt lat="46.23504" lon="2.51386">
        <ele>311</ele>
        <time>2017-04-12T14:08:34Z</time>
      </trkpt>
      <trkpt lat="46.235" lon="2.51385">
        <ele>311</ele>
        <time>2017-04-12T14:08:38Z</time>
      </trkpt>
      <trkpt lat="46.23495" lon="2.51383">
        <ele>311</ele>
        <time>2017-04-12T14:08:42Z</time>
      </trkpt>
      <trkpt lat="46.23492" lon="2.51382">
        <ele>311</ele>
        <time>2017-04-12T14:08:45Z</time>
      </trkpt>
      <trkpt lat="46.23489" lon="2.51381">
        <ele>311</ele>
        <time>2017-04-12T14:08:48Z</time>
      </trkpt>
      <trkpt lat="46.23484" lon="2.51378">
        <ele>311</ele>
        <time>2017-04-12T14:08:52Z</time>
      </trkpt>
      <trkpt lat="46.23481" lon="2.51376">
        <ele>311</ele>
        <time>2017-04-12T14:08:56Z</time>
      </trkpt>
      <trkpt lat="46.23477" lon="2.51374">
        <ele>312</ele>
        <time>2017-04-12T14:09:00Z</time>
      </trkpt>
      <trkpt lat="46.23473" lon="2.51372">
        <ele>312</ele>
        <time>2017-04-12T14:09:03Z</time>
      </trkpt>
      <trkpt lat="46.2347" lon="2.51368">
        <ele>312</ele>
        <time>2017-04-12T14:09:07Z</time>
      </trkpt>
      <trkpt lat="46.23467" lon="2.51365">
        <ele>312</ele>
        <time>2017-04-12T14:09:11Z</time>
      </trkpt>
      <trkpt lat="46.23464" lon="2.51362">
        <ele>313</ele>
        <time>2017-04-12T14:09:16Z</time>
      </trkpt>
      <trkpt lat="46.23462" lon="2.5136">
        <ele>314</ele>
        <time>2017-04-12T14:09:26Z</time>
      </trkpt>
      <trkpt lat="46.23461" lon="2.51361">
        <ele>314</ele>
        <time>2017-04-12T14:09:30Z</time>
      </trkpt>
      <trkpt lat="46.23458" lon="2.51361">
        <ele>314</ele>
        <time>2017-04-12T14:09:34Z</time>
      </trkpt>
      <trkpt lat="46.23458" lon="2.51359">
        <ele>314</ele>
        <time>2017-04-12T14:09:39Z</time>
      </trkpt>
      <trkpt lat="46.23458" lon="2.51361">
        <ele>314</ele>
        <time>2017-04-12T14:09:44Z</time>
      </trkpt>
      <trkpt lat="46.23458" lon="2.51363">
        <ele>315</ele>
        <time>2017-04-12T14:09:47Z</time>
      </trkpt>
      <trkpt lat="46.23457" lon="2.51363">
        <ele>315</ele>
        <time>2017-04-12T14:10:00Z</time>
      </trkpt>
      <trkpt lat="46.23456" lon="2.51358">
        <ele>315</ele>
        <time>2017-04-12T14:10:03Z</time>
      </trkpt>
      <trkpt lat="46.23455" lon="2.51354">
        <ele>315</ele>
        <time>2017-04-12T14:10:06Z</time>
      </trkpt>
      <trkpt lat="46.23454" lon="2.51354">
        <ele>315</ele>
        <time>2017-04-12T14:10:11Z</time>
      </trkpt>
      <trkpt lat="46.23453" lon="2.51355">
        <ele>315</ele>
        <time>2017-04-12T14:10:18Z</time>
      </trkpt>
      <trkpt lat="46.23451" lon="2.51357">
        <ele>315</ele>
        <time>2017-04-12T14:10:22Z</time>
      </trkpt>
      <trkpt lat="46.23449" lon="2.51356">
        <ele>315</ele>
        <time>2017-04-12T14:10:32Z</time>
      </trkpt>
      <trkpt lat="46.2345" lon="2.51354">
        <ele>315</ele>
        <time>2017-04-12T14:10:39Z</time>
      </trkpt>
      <trkpt lat="46.2345" lon="2.51356">
        <ele>315</ele>
        <time>2017-04-12T14:10:47Z</time>
      </trkpt>
      <trkpt lat="46.23446" lon="2.51359">
        <ele>315</ele>
        <time>2017-04-12T14:10:51Z</time>
      </trkpt>
      <trkpt lat="46.23442" lon="2.51358">
        <ele>315</ele>
        <time>2017-04-12T14:10:55Z</time>
      </trkpt>
      <trkpt lat="46.23439" lon="2.51358">
        <ele>314</ele>
        <time>2017-04-12T14:10:58Z</time>
      </trkpt>
      <trkpt lat="46.23435" lon="2.51357">
        <ele>313</ele>
        <time>2017-04-12T14:11:02Z</time>
      </trkpt>
      <trkpt lat="46.23432" lon="2.51357">
        <ele>312</ele>
        <time>2017-04-12T14:11:05Z</time>
      </trkpt>
      <trkpt lat="46.23429" lon="2.51355">
        <ele>312</ele>
        <time>2017-04-12T14:11:08Z</time>
      </trkpt>
      <trkpt lat="46.23426" lon="2.51354">
        <ele>312</ele>
        <time>2017-04-12T14:11:12Z</time>
      </trkpt>
      <trkpt lat="46.23423" lon="2.51355">
        <ele>311</ele>
        <time>2017-04-12T14:11:16Z</time>
      </trkpt>
      <trkpt lat="46.2342" lon="2.51357">
        <ele>310</ele>
        <time>2017-04-12T14:11:20Z</time>
      </trkpt>
      <trkpt lat="46.23416" lon="2.51361">
        <ele>310</ele>
        <time>2017-04-12T14:11:24Z</time>
      </trkpt>
      <trkpt lat="46.23411" lon="2.51359">
        <ele>310</ele>
        <time>2017-04-12T14:11:28Z</time>
      </trkpt>
      <trkpt lat="46.23406" lon="2.51358">
        <ele>309</ele>
        <time>2017-04-12T14:11:31Z</time>
      </trkpt>
      <trkpt lat="46.23403" lon="2.5136">
        <ele>309</ele>
        <time>2017-04-12T14:11:34Z</time>
      </trkpt>
      <trkpt lat="46.234" lon="2.51359">
        <ele>309</ele>
        <time>2017-04-12T14:11:37Z</time>
      </trkpt>
      <trkpt lat="46.23395" lon="2.51356">
        <ele>309</ele>
        <time>2017-04-12T14:11:40Z</time>
      </trkpt>
      <trkpt lat="46.23391" lon="2.51356">
        <ele>309</ele>
        <time>2017-04-12T14:11:43Z</time>
      </trkpt>
      <trkpt lat="46.23386" lon="2.51355">
        <ele>310</ele>
        <time>2017-04-12T14:11:46Z</time>
      </trkpt>
      <trkpt lat="46.23382" lon="2.51355">
        <ele>310</ele>
        <time>2017-04-12T14:11:49Z</time>
      </trkpt>
      <trkpt lat="46.23378" lon="2.51355">
        <ele>311</ele>
        <time>2017-04-12T14:11:53Z</time>
      </trkpt>
      <trkpt lat="46.23374" lon="2.51354">
        <ele>313</ele>
        <time>2017-04-12T14:11:57Z</time>
      </trkpt>
      <trkpt lat="46.2337" lon="2.51354">
        <ele>313</ele>
        <time>2017-04-12T14:12:00Z</time>
      </trkpt>
      <trkpt lat="46.23366" lon="2.51354">
        <ele>313</ele>
        <time>2017-04-12T14:12:03Z</time>
      </trkpt>
      <trkpt lat="46.23363" lon="2.51354">
        <ele>313</ele>
        <time>2017-04-12T14:12:06Z</time>
      </trkpt>
      <trkpt lat="46.2336" lon="2.51354">
        <ele>313</ele>
        <time>2017-04-12T14:12:09Z</time>
      </trkpt>
      <trkpt lat="46.23356" lon="2.51356">
        <ele>313</ele>
        <time>2017-04-12T14:12:12Z</time>
      </trkpt>
      <trkpt lat="46.23353" lon="2.51357">
        <ele>313</ele>
        <time>2017-04-12T14:12:15Z</time>
      </trkpt>
      <trkpt lat="46.23349" lon="2.5136">
        <ele>315</ele>
        <time>2017-04-12T14:12:18Z</time>
      </trkpt>
      <trkpt lat="46.23346" lon="2.51361">
        <ele>317</ele>
        <time>2017-04-12T14:12:21Z</time>
      </trkpt>
      <trkpt lat="46.23341" lon="2.51362">
        <ele>317</ele>
        <time>2017-04-12T14:12:25Z</time>
      </trkpt>
      <trkpt lat="46.23341" lon="2.51365">
        <ele>317</ele>
        <time>2017-04-12T14:12:29Z</time>
      </trkpt>
      <trkpt lat="46.23338" lon="2.51367">
        <ele>317</ele>
        <time>2017-04-12T14:12:33Z</time>
      </trkpt>
      <trkpt lat="46.23334" lon="2.51367">
        <ele>317</ele>
        <time>2017-04-12T14:12:36Z</time>
      </trkpt>
      <trkpt lat="46.2333" lon="2.51372">
        <ele>317</ele>
        <time>2017-04-12T14:12:39Z</time>
      </trkpt>
      <trkpt lat="46.23327" lon="2.51373">
        <ele>318</ele>
        <time>2017-04-12T14:12:42Z</time>
      </trkpt>
      <trkpt lat="46.23323" lon="2.51373">
        <ele>319</ele>
        <time>2017-04-12T14:12:46Z</time>
      </trkpt>
      <trkpt lat="46.2332" lon="2.51374">
        <ele>319</ele>
        <time>2017-04-12T14:12:50Z</time>
      </trkpt>
      <trkpt lat="46.23317" lon="2.51377">
        <ele>320</ele>
        <time>2017-04-12T14:12:54Z</time>
      </trkpt>
      <trkpt lat="46.23315" lon="2.51382">
        <ele>322</ele>
        <time>2017-04-12T14:12:57Z</time>
      </trkpt>
      <trkpt lat="46.23312" lon="2.51386">
        <ele>322</ele>
        <time>2017-04-12T14:13:00Z</time>
      </trkpt>
      <trkpt lat="46.23309" lon="2.5139">
        <ele>322</ele>
        <time>2017-04-12T14:13:03Z</time>
      </trkpt>
      <trkpt lat="46.23307" lon="2.51395">
        <ele>322</ele>
        <time>2017-04-12T14:13:06Z</time>
      </trkpt>
      <trkpt lat="46.23304" lon="2.51395">
        <ele>323</ele>
        <time>2017-04-12T14:13:09Z</time>
      </trkpt>
      <trkpt lat="46.23301" lon="2.51401">
        <ele>323</ele>
        <time>2017-04-12T14:13:13Z</time>
      </trkpt>
      <trkpt lat="46.23298" lon="2.51405">
        <ele>323</ele>
        <time>2017-04-12T14:13:17Z</time>
      </trkpt>
      <trkpt lat="46.23296" lon="2.51411">
        <ele>324</ele>
        <time>2017-04-12T14:13:21Z</time>
      </trkpt>
      <trkpt lat="46.23293" lon="2.51415">
        <ele>326</ele>
        <time>2017-04-12T14:13:25Z</time>
      </trkpt>
      <trkpt lat="46.23289" lon="2.51421">
        <ele>327</ele>
        <time>2017-04-12T14:13:29Z</time>
      </trkpt>
      <trkpt lat="46.23287" lon="2.51426">
        <ele>328</ele>
        <time>2017-04-12T14:13:33Z</time>
      </trkpt>
      <trkpt lat="46.23283" lon="2.51429">
        <ele>328</ele>
        <time>2017-04-12T14:13:36Z</time>
      </trkpt>
      <trkpt lat="46.2328" lon="2.5143">
        <ele>328</ele>
        <time>2017-04-12T14:13:39Z</time>
      </trkpt>
      <trkpt lat="46.23277" lon="2.51431">
        <ele>328</ele>
        <time>2017-04-12T14:13:42Z</time>
      </trkpt>
      <trkpt lat="46.23274" lon="2.51435">
        <ele>328</ele>
        <time>2017-04-12T14:13:46Z</time>
      </trkpt>
      <trkpt lat="46.23272" lon="2.5144">
        <ele>328</ele>
        <time>2017-04-12T14:13:50Z</time>
      </trkpt>
      <trkpt lat="46.23268" lon="2.51444">
        <ele>328</ele>
        <time>2017-04-12T14:13:56Z</time>
      </trkpt>
      <trkpt lat="46.23266" lon="2.51447">
        <ele>328</ele>
        <time>2017-04-12T14:13:59Z</time>
      </trkpt>
      <trkpt lat="46.23265" lon="2.51452">
        <ele>328</ele>
        <time>2017-04-12T14:14:03Z</time>
      </trkpt>
      <trkpt lat="46.23263" lon="2.51455">
        <ele>328</ele>
        <time>2017-04-12T14:14:06Z</time>
      </trkpt>
      <trkpt lat="46.2326" lon="2.5146">
        <ele>331</ele>
        <time>2017-04-12T14:14:10Z</time>
      </trkpt>
      <trkpt lat="46.23255" lon="2.51462">
        <ele>331</ele>
        <time>2017-04-12T14:14:14Z</time>
      </trkpt>
      <trkpt lat="46.23252" lon="2.5146">
        <ele>331</ele>
        <time>2017-04-12T14:14:17Z</time>
      </trkpt>
      <trkpt lat="46.23248" lon="2.51462">
        <ele>331</ele>
        <time>2017-04-12T14:14:20Z</time>
      </trkpt>
      <trkpt lat="46.23245" lon="2.51464">
        <ele>331</ele>
        <time>2017-04-12T14:14:23Z</time>
      </trkpt>
      <trkpt lat="46.23243" lon="2.51465">
        <ele>331</ele>
        <time>2017-04-12T14:14:26Z</time>
      </trkpt>
      <trkpt lat="46.23238" lon="2.51464">
        <ele>331</ele>
        <time>2017-04-12T14:14:30Z</time>
      </trkpt>
      <trkpt lat="46.23235" lon="2.51463">
        <ele>333</ele>
        <time>2017-04-12T14:14:34Z</time>
      </trkpt>
      <trkpt lat="46.23232" lon="2.51465">
        <ele>335</ele>
        <time>2017-04-12T14:14:38Z</time>
      </trkpt>
      <trkpt lat="46.23228" lon="2.51464">
        <ele>337</ele>
        <time>2017-04-12T14:14:42Z</time>
      </trkpt>
      <trkpt lat="46.23223" lon="2.51463">
        <ele>337</ele>
        <time>2017-04-12T14:14:46Z</time>
      </trkpt>
      <trkpt lat="46.23218" lon="2.51459">
        <ele>337</ele>
        <time>2017-04-12T14:14:50Z</time>
      </trkpt>
      <trkpt lat="46.23213" lon="2.51455">
        <ele>337</ele>
        <time>2017-04-12T14:14:54Z</time>
      </trkpt>
      <trkpt lat="46.23209" lon="2.5145">
        <ele>337</ele>
        <time>2017-04-12T14:14:58Z</time>
      </trkpt>
      <trkpt lat="46.23206" lon="2.51446">
        <ele>337</ele>
        <time>2017-04-12T14:15:02Z</time>
      </trkpt>
      <trkpt lat="46.23203" lon="2.51439">
        <ele>337</ele>
        <time>2017-04-12T14:15:05Z</time>
      </trkpt>
      <trkpt lat="46.23201" lon="2.51435">
        <ele>337</ele>
        <time>2017-04-12T14:15:08Z</time>
      </trkpt>
      <trkpt lat="46.23198" lon="2.5143">
        <ele>337</ele>
        <time>2017-04-12T14:15:12Z</time>
      </trkpt>
      <trkpt lat="46.23197" lon="2.51426">
        <ele>339</ele>
        <time>2017-04-12T14:15:15Z</time>
      </trkpt>
      <trkpt lat="46.23198" lon="2.51422">
        <ele>339</ele>
        <time>2017-04-12T14:15:18Z</time>
      </trkpt>
      <trkpt lat="46.23197" lon="2.51418">
        <ele>339</ele>
        <time>2017-04-12T14:15:21Z</time>
      </trkpt>
      <trkpt lat="46.23193" lon="2.51414">
        <ele>339</ele>
        <time>2017-04-12T14:15:25Z</time>
      </trkpt>
      <trkpt lat="46.23191" lon="2.5141">
        <ele>339</ele>
        <time>2017-04-12T14:15:29Z</time>
      </trkpt>
      <trkpt lat="46.23187" lon="2.51408">
        <ele>339</ele>
        <time>2017-04-12T14:15:32Z</time>
      </trkpt>
      <trkpt lat="46.23183" lon="2.51404">
        <ele>339</ele>
        <time>2017-04-12T14:15:36Z</time>
      </trkpt>
      <trkpt lat="46.23179" lon="2.51402">
        <ele>339</ele>
        <time>2017-04-12T14:15:39Z</time>
      </trkpt>
      <trkpt lat="46.23176" lon="2.51397">
        <ele>339</ele>
        <time>2017-04-12T14:15:42Z</time>
      </trkpt>
      <trkpt lat="46.23172" lon="2.51394">
        <ele>339</ele>
        <time>2017-04-12T14:15:45Z</time>
      </trkpt>
      <trkpt lat="46.23167" lon="2.51388">
        <ele>339</ele>
        <time>2017-04-12T14:15:49Z</time>
      </trkpt>
      <trkpt lat="46.23164" lon="2.51384">
        <ele>339</ele>
        <time>2017-04-12T14:15:52Z</time>
      </trkpt>
      <trkpt lat="46.23161" lon="2.51379">
        <ele>340</ele>
        <time>2017-04-12T14:15:56Z</time>
      </trkpt>
      <trkpt lat="46.23158" lon="2.51374">
        <ele>340</ele>
        <time>2017-04-12T14:16:00Z</time>
      </trkpt>
      <trkpt lat="46.23154" lon="2.51371">
        <ele>340</ele>
        <time>2017-04-12T14:16:03Z</time>
      </trkpt>
      <trkpt lat="46.2315" lon="2.51367">
        <ele>340</ele>
        <time>2017-04-12T14:16:06Z</time>
      </trkpt>
      <trkpt lat="46.23145" lon="2.51363">
        <ele>340</ele>
        <time>2017-04-12T14:16:09Z</time>
      </trkpt>
      <trkpt lat="46.23142" lon="2.51361">
        <ele>340</ele>
        <time>2017-04-12T14:16:12Z</time>
      </trkpt>
      <trkpt lat="46.23139" lon="2.51358">
        <ele>340</ele>
        <time>2017-04-12T14:16:15Z</time>
      </trkpt>
      <trkpt lat="46.23137" lon="2.51353">
        <ele>340</ele>
        <time>2017-04-12T14:16:18Z</time>
      </trkpt>
      <trkpt lat="46.23135" lon="2.51348">
        <ele>340</ele>
        <time>2017-04-12T14:16:21Z</time>
      </trkpt>
      <trkpt lat="46.23132" lon="2.51342">
        <ele>340</ele>
        <time>2017-04-12T14:16:24Z</time>
      </trkpt>
      <trkpt lat="46.23127" lon="2.51337">
        <ele>340</ele>
        <time>2017-04-12T14:16:28Z</time>
      </trkpt>
      <trkpt lat="46.23125" lon="2.51332">
        <ele>340</ele>
        <time>2017-04-12T14:16:31Z</time>
      </trkpt>
      <trkpt lat="46.23122" lon="2.51327">
        <ele>340</ele>
        <time>2017-04-12T14:16:34Z</time>
      </trkpt>
      <trkpt lat="46.23119" lon="2.51323">
        <ele>340</ele>
        <time>2017-04-12T14:16:37Z</time>
      </trkpt>
      <trkpt lat="46.23116" lon="2.51318">
        <ele>340</ele>
        <time>2017-04-12T14:16:40Z</time>
      </trkpt>
      <trkpt lat="46.23112" lon="2.51312">
        <ele>341</ele>
        <time>2017-04-12T14:16:44Z</time>
      </trkpt>
      <trkpt lat="46.23109" lon="2.51307">
        <ele>342</ele>
        <time>2017-04-12T14:16:47Z</time>
      </trkpt>
      <trkpt lat="46.23106" lon="2.51303">
        <ele>343</ele>
        <time>2017-04-12T14:16:50Z</time>
      </trkpt>
      <trkpt lat="46.23103" lon="2.51299">
        <ele>344</ele>
        <time>2017-04-12T14:16:53Z</time>
      </trkpt>
      <trkpt lat="46.23101" lon="2.51294">
        <ele>344</ele>
        <time>2017-04-12T14:16:56Z</time>
      </trkpt>
      <trkpt lat="46.23098" lon="2.5129">
        <ele>344</ele>
        <time>2017-04-12T14:16:59Z</time>
      </trkpt>
      <trkpt lat="46.23095" lon="2.51285">
        <ele>344</ele>
        <time>2017-04-12T14:17:02Z</time>
      </trkpt>
      <trkpt lat="46.23092" lon="2.51279">
        <ele>345</ele>
        <time>2017-04-12T14:17:06Z</time>
      </trkpt>
      <trkpt lat="46.23089" lon="2.51274">
        <ele>346</ele>
        <time>2017-04-12T14:17:10Z</time>
      </trkpt>
      <trkpt lat="46.23086" lon="2.51269">
        <ele>346</ele>
        <time>2017-04-12T14:17:13Z</time>
      </trkpt>
      <trkpt lat="46.23083" lon="2.51266">
        <ele>346</ele>
        <time>2017-04-12T14:17:16Z</time>
      </trkpt>
      <trkpt lat="46.23081" lon="2.51262">
        <ele>346</ele>
        <time>2017-04-12T14:17:19Z</time>
      </trkpt>
      <trkpt lat="46.23079" lon="2.51258">
        <ele>346</ele>
        <time>2017-04-12T14:17:22Z</time>
      </trkpt>
      <trkpt lat="46.23075" lon="2.51254">
        <ele>346</ele>
        <time>2017-04-12T14:17:26Z</time>
      </trkpt>
      <trkpt lat="46.23072" lon="2.51252">
        <ele>346</ele>
        <time>2017-04-12T14:17:29Z</time>
      </trkpt>
      <trkpt lat="46.23069" lon="2.51249">
        <ele>346</ele>
        <time>2017-04-12T14:17:32Z</time>
      </trkpt>
      <trkpt lat="46.23065" lon="2.51244">
        <ele>346</ele>
        <time>2017-04-12T14:17:35Z</time>
      </trkpt>
      <trkpt lat="46.23063" lon="2.5124">
        <ele>346</ele>
        <time>2017-04-12T14:17:38Z</time>
      </trkpt>
      <trkpt lat="46.23058" lon="2.51237">
        <ele>346</ele>
        <time>2017-04-12T14:17:42Z</time>
      </trkpt>
      <trkpt lat="46.23055" lon="2.51234">
        <ele>346</ele>
        <time>2017-04-12T14:17:45Z</time>
      </trkpt>
      <trkpt lat="46.23051" lon="2.51231">
        <ele>346</ele>
        <time>2017-04-12T14:17:49Z</time>
      </trkpt>
      <trkpt lat="46.23046" lon="2.51228">
        <ele>346</ele>
        <time>2017-04-12T14:17:52Z</time>
      </trkpt>
      <trkpt lat="46.23042" lon="2.51225">
        <ele>346</ele>
        <time>2017-04-12T14:17:55Z</time>
      </trkpt>
      <trkpt lat="46.23038" lon="2.51223">
        <ele>346</ele>
        <time>2017-04-12T14:17:58Z</time>
      </trkpt>
      <trkpt lat="46.23035" lon="2.51221">
        <ele>346</ele>
        <time>2017-04-12T14:18:01Z</time>
      </trkpt>
      <trkpt lat="46.23031" lon="2.51219">
        <ele>346</ele>
        <time>2017-04-12T14:18:04Z</time>
      </trkpt>
      <trkpt lat="46.23027" lon="2.51217">
        <ele>347</ele>
        <time>2017-04-12T14:18:07Z</time>
      </trkpt>
      <trkpt lat="46.23024" lon="2.51215">
        <ele>347</ele>
        <time>2017-04-12T14:18:10Z</time>
      </trkpt>
      <trkpt lat="46.2302" lon="2.51212">
        <ele>348</ele>
        <time>2017-04-12T14:18:13Z</time>
      </trkpt>
      <trkpt lat="46.23016" lon="2.51208">
        <ele>348</ele>
        <time>2017-04-12T14:18:16Z</time>
      </trkpt>
      <trkpt lat="46.23013" lon="2.51206">
        <ele>348</ele>
        <time>2017-04-12T14:18:19Z</time>
      </trkpt>
      <trkpt lat="46.23009" lon="2.51204">
        <ele>348</ele>
        <time>2017-04-12T14:18:22Z</time>
      </trkpt>
      <trkpt lat="46.23005" lon="2.51204">
        <ele>348</ele>
        <time>2017-04-12T14:18:25Z</time>
      </trkpt>
      <trkpt lat="46.23002" lon="2.51203">
        <ele>348</ele>
        <time>2017-04-12T14:18:28Z</time>
      </trkpt>
      <trkpt lat="46.22998" lon="2.51201">
        <ele>347</ele>
        <time>2017-04-12T14:18:31Z</time>
      </trkpt>
      <trkpt lat="46.22993" lon="2.51201">
        <ele>347</ele>
        <time>2017-04-12T14:18:34Z</time>
      </trkpt>
      <trkpt lat="46.2299" lon="2.512">
        <ele>347</ele>
        <time>2017-04-12T14:18:37Z</time>
      </trkpt>
      <trkpt lat="46.22985" lon="2.51198">
        <ele>347</ele>
        <time>2017-04-12T14:18:41Z</time>
      </trkpt>
      <trkpt lat="46.22981" lon="2.51198">
        <ele>347</ele>
        <time>2017-04-12T14:18:44Z</time>
      </trkpt>
      <trkpt lat="46.22977" lon="2.51197">
        <ele>347</ele>
        <time>2017-04-12T14:18:47Z</time>
      </trkpt>
      <trkpt lat="46.22972" lon="2.51196">
        <ele>347</ele>
        <time>2017-04-12T14:18:50Z</time>
      </trkpt>
      <trkpt lat="46.22968" lon="2.51195">
        <ele>347</ele>
        <time>2017-04-12T14:18:53Z</time>
      </trkpt>
      <trkpt lat="46.22963" lon="2.51195">
        <ele>349</ele>
        <time>2017-04-12T14:18:57Z</time>
      </trkpt>
      <trkpt lat="46.2296" lon="2.51194">
        <ele>349</ele>
        <time>2017-04-12T14:19:01Z</time>
      </trkpt>
      <trkpt lat="46.22955" lon="2.51193">
        <ele>349</ele>
        <time>2017-04-12T14:19:05Z</time>
      </trkpt>
      <trkpt lat="46.2295" lon="2.51192">
        <ele>349</ele>
        <time>2017-04-12T14:19:08Z</time>
      </trkpt>
      <trkpt lat="46.22947" lon="2.51191">
        <ele>349</ele>
        <time>2017-04-12T14:19:11Z</time>
      </trkpt>
      <trkpt lat="46.22942" lon="2.51191">
        <ele>349</ele>
        <time>2017-04-12T14:19:14Z</time>
      </trkpt>
      <trkpt lat="46.22938" lon="2.51191">
        <ele>349</ele>
        <time>2017-04-12T14:19:17Z</time>
      </trkpt>
      <trkpt lat="46.22935" lon="2.51189">
        <ele>349</ele>
        <time>2017-04-12T14:19:20Z</time>
      </trkpt>
      <trkpt lat="46.22932" lon="2.51189">
        <ele>349</ele>
        <time>2017-04-12T14:19:23Z</time>
      </trkpt>
      <trkpt lat="46.22928" lon="2.51187">
        <ele>349</ele>
        <time>2017-04-12T14:19:26Z</time>
      </trkpt>
      <trkpt lat="46.22924" lon="2.51187">
        <ele>349</ele>
        <time>2017-04-12T14:19:29Z</time>
      </trkpt>
      <trkpt lat="46.2292" lon="2.51186">
        <ele>349</ele>
        <time>2017-04-12T14:19:32Z</time>
      </trkpt>
      <trkpt lat="46.22915" lon="2.51184">
        <ele>349</ele>
        <time>2017-04-12T14:19:36Z</time>
      </trkpt>
      <trkpt lat="46.22911" lon="2.51184">
        <ele>349</ele>
        <time>2017-04-12T14:19:39Z</time>
      </trkpt>
      <trkpt lat="46.22906" lon="2.51186">
        <ele>349</ele>
        <time>2017-04-12T14:19:42Z</time>
      </trkpt>
      <trkpt lat="46.22901" lon="2.51185">
        <ele>349</ele>
        <time>2017-04-12T14:19:45Z</time>
      </trkpt>
      <trkpt lat="46.22897" lon="2.51184">
        <ele>349</ele>
        <time>2017-04-12T14:19:48Z</time>
      </trkpt>
      <trkpt lat="46.22892" lon="2.51182">
        <ele>349</ele>
        <time>2017-04-12T14:19:51Z</time>
      </trkpt>
      <trkpt lat="46.22889" lon="2.51179">
        <ele>350</ele>
        <time>2017-04-12T14:19:54Z</time>
      </trkpt>
      <trkpt lat="46.22885" lon="2.51176">
        <ele>352</ele>
        <time>2017-04-12T14:19:57Z</time>
      </trkpt>
      <trkpt lat="46.22881" lon="2.51174">
        <ele>353</ele>
        <time>2017-04-12T14:20:00Z</time>
      </trkpt>
      <trkpt lat="46.22877" lon="2.5117">
        <ele>355</ele>
        <time>2017-04-12T14:20:04Z</time>
      </trkpt>
      <trkpt lat="46.22873" lon="2.51169">
        <ele>356</ele>
        <time>2017-04-12T14:20:07Z</time>
      </trkpt>
      <trkpt lat="46.22869" lon="2.51168">
        <ele>356</ele>
        <time>2017-04-12T14:20:10Z</time>
      </trkpt>
      <trkpt lat="46.22865" lon="2.51167">
        <ele>356</ele>
        <time>2017-04-12T14:20:13Z</time>
      </trkpt>
      <trkpt lat="46.22862" lon="2.51165">
        <ele>356</ele>
        <time>2017-04-12T14:20:16Z</time>
      </trkpt>
      <trkpt lat="46.22858" lon="2.51163">
        <ele>356</ele>
        <time>2017-04-12T14:20:20Z</time>
      </trkpt>
      <trkpt lat="46.22854" lon="2.51161">
        <ele>356</ele>
        <time>2017-04-12T14:20:23Z</time>
      </trkpt>
      <trkpt lat="46.2285" lon="2.5116">
        <ele>356</ele>
        <time>2017-04-12T14:20:26Z</time>
      </trkpt>
      <trkpt lat="46.22846" lon="2.51159">
        <ele>356</ele>
        <time>2017-04-12T14:20:29Z</time>
      </trkpt>
      <trkpt lat="46.22842" lon="2.51158">
        <ele>356</ele>
        <time>2017-04-12T14:20:32Z</time>
      </trkpt>
      <trkpt lat="46.22838" lon="2.51158">
        <ele>356</ele>
        <time>2017-04-12T14:20:35Z</time>
      </trkpt>
      <trkpt lat="46.22834" lon="2.51158">
        <ele>356</ele>
        <time>2017-04-12T14:20:38Z</time>
      </trkpt>
      <trkpt lat="46.22828" lon="2.51158">
        <ele>356</ele>
        <time>2017-04-12T14:20:42Z</time>
      </trkpt>
      <trkpt lat="46.22823" lon="2.51158">
        <ele>356</ele>
        <time>2017-04-12T14:20:45Z</time>
      </trkpt>
      <trkpt lat="46.22821" lon="2.51158">
        <ele>356</ele>
        <time>2017-04-12T14:20:48Z</time>
      </trkpt>
      <trkpt lat="46.22818" lon="2.51158">
        <ele>358</ele>
        <time>2017-04-12T14:20:51Z</time>
      </trkpt>
      <trkpt lat="46.22814" lon="2.51159">
        <ele>360</ele>
        <time>2017-04-12T14:20:54Z</time>
      </trkpt>
      <trkpt lat="46.22809" lon="2.51159">
        <ele>360</ele>
        <time>2017-04-12T14:20:57Z</time>
      </trkpt>
      <trkpt lat="46.22804" lon="2.5116">
        <ele>360</ele>
        <time>2017-04-12T14:21:00Z</time>
      </trkpt>
      <trkpt lat="46.22799" lon="2.51161">
        <ele>360</ele>
        <time>2017-04-12T14:21:03Z</time>
      </trkpt>
      <trkpt lat="46.22795" lon="2.51162">
        <ele>360</ele>
        <time>2017-04-12T14:21:06Z</time>
      </trkpt>
      <trkpt lat="46.22792" lon="2.51163">
        <ele>360</ele>
        <time>2017-04-12T14:21:09Z</time>
      </trkpt>
      <trkpt lat="46.22786" lon="2.51163">
        <ele>360</ele>
        <time>2017-04-12T14:21:12Z</time>
      </trkpt>
      <trkpt lat="46.22782" lon="2.51165">
        <ele>360</ele>
        <time>2017-04-12T14:21:15Z</time>
      </trkpt>
      <trkpt lat="46.22778" lon="2.51165">
        <ele>360</ele>
        <time>2017-04-12T14:21:18Z</time>
      </trkpt>
      <trkpt lat="46.22774" lon="2.51166">
        <ele>360</ele>
        <time>2017-04-12T14:21:21Z</time>
      </trkpt>
      <trkpt lat="46.22769" lon="2.51167">
        <ele>360</ele>
        <time>2017-04-12T14:21:24Z</time>
      </trkpt>
      <trkpt lat="46.22764" lon="2.51166">
        <ele>360</ele>
        <time>2017-04-12T14:21:27Z</time>
      </trkpt>
      <trkpt lat="46.2276" lon="2.51166">
        <ele>360</ele>
        <time>2017-04-12T14:21:30Z</time>
      </trkpt>
      <trkpt lat="46.22757" lon="2.51166">
        <ele>360</ele>
        <time>2017-04-12T14:21:33Z</time>
      </trkpt>
      <trkpt lat="46.22752" lon="2.51165">
        <ele>360</ele>
        <time>2017-04-12T14:21:36Z</time>
      </trkpt>
      <trkpt lat="46.22749" lon="2.51164">
        <ele>360</ele>
        <time>2017-04-12T14:21:39Z</time>
      </trkpt>
      <trkpt lat="46.22744" lon="2.51162">
        <ele>360</ele>
        <time>2017-04-12T14:21:42Z</time>
      </trkpt>
      <trkpt lat="46.22739" lon="2.51161">
        <ele>360</ele>
        <time>2017-04-12T14:21:45Z</time>
      </trkpt>
      <trkpt lat="46.22735" lon="2.51158">
        <ele>360</ele>
        <time>2017-04-12T14:21:48Z</time>
      </trkpt>
      <trkpt lat="46.22731" lon="2.51156">
        <ele>360</ele>
        <time>2017-04-12T14:21:51Z</time>
      </trkpt>
      <trkpt lat="46.22727" lon="2.51155">
        <ele>360</ele>
        <time>2017-04-12T14:21:54Z</time>
      </trkpt>
      <trkpt lat="46.22723" lon="2.51153">
        <ele>360</ele>
        <time>2017-04-12T14:21:57Z</time>
      </trkpt>
      <trkpt lat="46.22719" lon="2.51151">
        <ele>360</ele>
        <time>2017-04-12T14:22:00Z</time>
      </trkpt>
      <trkpt lat="46.22715" lon="2.51149">
        <ele>360</ele>
        <time>2017-04-12T14:22:03Z</time>
      </trkpt>
      <trkpt lat="46.22711" lon="2.51147">
        <ele>360</ele>
        <time>2017-04-12T14:22:06Z</time>
      </trkpt>
      <trkpt lat="46.22707" lon="2.51145">
        <ele>360</ele>
        <time>2017-04-12T14:22:09Z</time>
      </trkpt>
      <trkpt lat="46.22703" lon="2.51144">
        <ele>360</ele>
        <time>2017-04-12T14:22:12Z</time>
      </trkpt>
      <trkpt lat="46.22699" lon="2.51142">
        <ele>360</ele>
        <time>2017-04-12T14:22:15Z</time>
      </trkpt>
      <trkpt lat="46.22695" lon="2.51141">
        <ele>360</ele>
        <time>2017-04-12T14:22:18Z</time>
      </trkpt>
      <trkpt lat="46.22691" lon="2.5114">
        <ele>360</ele>
        <time>2017-04-12T14:22:21Z</time>
      </trkpt>
      <trkpt lat="46.22687" lon="2.51138">
        <ele>360</ele>
        <time>2017-04-12T14:22:24Z</time>
      </trkpt>
      <trkpt lat="46.22682" lon="2.51138">
        <ele>360</ele>
        <time>2017-04-12T14:22:27Z</time>
      </trkpt>
      <trkpt lat="46.22677" lon="2.51137">
        <ele>360</ele>
        <time>2017-04-12T14:22:30Z</time>
      </trkpt>
      <trkpt lat="46.22673" lon="2.51137">
        <ele>360</ele>
        <time>2017-04-12T14:22:33Z</time>
      </trkpt>
      <trkpt lat="46.22668" lon="2.51136">
        <ele>360</ele>
        <time>2017-04-12T14:22:36Z</time>
      </trkpt>
      <trkpt lat="46.22663" lon="2.51135">
        <ele>360</ele>
        <time>2017-04-12T14:22:39Z</time>
      </trkpt>
      <trkpt lat="46.22659" lon="2.51136">
        <ele>360</ele>
        <time>2017-04-12T14:22:42Z</time>
      </trkpt>
      <trkpt lat="46.22655" lon="2.51134">
        <ele>360</ele>
        <time>2017-04-12T14:22:45Z</time>
      </trkpt>
      <trkpt lat="46.22651" lon="2.51133">
        <ele>360</ele>
        <time>2017-04-12T14:22:48Z</time>
      </trkpt>
      <trkpt lat="46.22646" lon="2.51132">
        <ele>360</ele>
        <time>2017-04-12T14:22:51Z</time>
      </trkpt>
      <trkpt lat="46.22642" lon="2.51132">
        <ele>360</ele>
        <time>2017-04-12T14:22:54Z</time>
      </trkpt>
      <trkpt lat="46.22638" lon="2.51131">
        <ele>360</ele>
        <time>2017-04-12T14:22:57Z</time>
      </trkpt>
      <trkpt lat="46.22632" lon="2.51133">
        <ele>360</ele>
        <time>2017-04-12T14:23:00Z</time>
      </trkpt>
      <trkpt lat="46.22628" lon="2.51132">
        <ele>360</ele>
        <time>2017-04-12T14:23:03Z</time>
      </trkpt>
      <trkpt lat="46.22623" lon="2.51132">
        <ele>360</ele>
        <time>2017-04-12T14:23:06Z</time>
      </trkpt>
      <trkpt lat="46.22618" lon="2.51131">
        <ele>360</ele>
        <time>2017-04-12T14:23:09Z</time>
      </trkpt>
      <trkpt lat="46.22614" lon="2.5113">
        <ele>360</ele>
        <time>2017-04-12T14:23:12Z</time>
      </trkpt>
      <trkpt lat="46.22609" lon="2.5113">
        <ele>360</ele>
        <time>2017-04-12T14:23:15Z</time>
      </trkpt>
      <trkpt lat="46.22606" lon="2.51131">
        <ele>360</ele>
        <time>2017-04-12T14:23:18Z</time>
      </trkpt>
      <trkpt lat="46.22602" lon="2.51131">
        <ele>360</ele>
        <time>2017-04-12T14:23:21Z</time>
      </trkpt>
      <trkpt lat="46.22597" lon="2.51132">
        <ele>360</ele>
        <time>2017-04-12T14:23:24Z</time>
      </trkpt>
      <trkpt lat="46.22592" lon="2.51133">
        <ele>360</ele>
        <time>2017-04-12T14:23:27Z</time>
      </trkpt>
      <trkpt lat="46.22588" lon="2.51133">
        <ele>360</ele>
        <time>2017-04-12T14:23:30Z</time>
      </trkpt>
      <trkpt lat="46.22584" lon="2.51133">
        <ele>360</ele>
        <time>2017-04-12T14:23:33Z</time>
      </trkpt>
      <trkpt lat="46.22579" lon="2.51134">
        <ele>360</ele>
        <time>2017-04-12T14:23:36Z</time>
      </trkpt>
      <trkpt lat="46.22575" lon="2.51134">
        <ele>360</ele>
        <time>2017-04-12T14:23:39Z</time>
      </trkpt>
      <trkpt lat="46.22571" lon="2.51135">
        <ele>360</ele>
        <time>2017-04-12T14:23:42Z</time>
      </trkpt>
      <trkpt lat="46.22567" lon="2.51134">
        <ele>360</ele>
        <time>2017-04-12T14:23:45Z</time>
      </trkpt>
      <trkpt lat="46.22562" lon="2.51133">
        <ele>360</ele>
        <time>2017-04-12T14:23:48Z</time>
      </trkpt>
      <trkpt lat="46.22559" lon="2.51134">
        <ele>360</ele>
        <time>2017-04-12T14:23:51Z</time>
      </trkpt>
      <trkpt lat="46.22554" lon="2.51135">
        <ele>360</ele>
        <time>2017-04-12T14:23:54Z</time>
      </trkpt>
      <trkpt lat="46.2255" lon="2.51136">
        <ele>361</ele>
        <time>2017-04-12T14:23:57Z</time>
      </trkpt>
      <trkpt lat="46.22546" lon="2.51136">
        <ele>361</ele>
        <time>2017-04-12T14:24:00Z</time>
      </trkpt>
      <trkpt lat="46.22541" lon="2.51136">
        <ele>362</ele>
        <time>2017-04-12T14:24:03Z</time>
      </trkpt>
      <trkpt lat="46.22537" lon="2.51137">
        <ele>362</ele>
        <time>2017-04-12T14:24:06Z</time>
      </trkpt>
      <trkpt lat="46.22533" lon="2.51138">
        <ele>362</ele>
        <time>2017-04-12T14:24:09Z</time>
      </trkpt>
      <trkpt lat="46.22528" lon="2.51138">
        <ele>362</ele>
        <time>2017-04-12T14:24:12Z</time>
      </trkpt>
      <trkpt lat="46.22524" lon="2.51139">
        <ele>362</ele>
        <time>2017-04-12T14:24:15Z</time>
      </trkpt>
      <trkpt lat="46.2252" lon="2.5114">
        <ele>362</ele>
        <time>2017-04-12T14:24:18Z</time>
      </trkpt>
      <trkpt lat="46.22516" lon="2.51141">
        <ele>362</ele>
        <time>2017-04-12T14:24:21Z</time>
      </trkpt>
      <trkpt lat="46.22512" lon="2.51141">
        <ele>362</ele>
        <time>2017-04-12T14:24:24Z</time>
      </trkpt>
      <trkpt lat="46.22507" lon="2.51142">
        <ele>362</ele>
        <time>2017-04-12T14:24:27Z</time>
      </trkpt>
      <trkpt lat="46.22503" lon="2.51143">
        <ele>362</ele>
        <time>2017-04-12T14:24:30Z</time>
      </trkpt>
      <trkpt lat="46.22499" lon="2.51144">
        <ele>362</ele>
        <time>2017-04-12T14:24:33Z</time>
      </trkpt>
      <trkpt lat="46.22494" lon="2.51146">
        <ele>362</ele>
        <time>2017-04-12T14:24:36Z</time>
      </trkpt>
      <trkpt lat="46.2249" lon="2.51147">
        <ele>362</ele>
        <time>2017-04-12T14:24:39Z</time>
      </trkpt>
      <trkpt lat="46.22485" lon="2.51149">
        <ele>362</ele>
        <time>2017-04-12T14:24:42Z</time>
      </trkpt>
      <trkpt lat="46.2248" lon="2.5115">
        <ele>362</ele>
        <time>2017-04-12T14:24:45Z</time>
      </trkpt>
      <trkpt lat="46.22476" lon="2.5115">
        <ele>362</ele>
        <time>2017-04-12T14:24:48Z</time>
      </trkpt>
      <trkpt lat="46.22472" lon="2.5115">
        <ele>362</ele>
        <time>2017-04-12T14:24:51Z</time>
      </trkpt>
      <trkpt lat="46.22467" lon="2.51151">
        <ele>362</ele>
        <time>2017-04-12T14:24:54Z</time>
      </trkpt>
      <trkpt lat="46.22463" lon="2.51151">
        <ele>362</ele>
        <time>2017-04-12T14:24:57Z</time>
      </trkpt>
      <trkpt lat="46.22458" lon="2.51152">
        <ele>362</ele>
        <time>2017-04-12T14:25:00Z</time>
      </trkpt>
      <trkpt lat="46.22453" lon="2.51152">
        <ele>362</ele>
        <time>2017-04-12T14:25:03Z</time>
      </trkpt>
      <trkpt lat="46.22449" lon="2.51153">
        <ele>362</ele>
        <time>2017-04-12T14:25:06Z</time>
      </trkpt>
      <trkpt lat="46.22444" lon="2.51154">
        <ele>362</ele>
        <time>2017-04-12T14:25:09Z</time>
      </trkpt>
      <trkpt lat="46.2244" lon="2.51155">
        <ele>362</ele>
        <time>2017-04-12T14:25:12Z</time>
      </trkpt>
      <trkpt lat="46.22435" lon="2.51156">
        <ele>362</ele>
        <time>2017-04-12T14:25:15Z</time>
      </trkpt>
      <trkpt lat="46.22431" lon="2.51157">
        <ele>362</ele>
        <time>2017-04-12T14:25:18Z</time>
      </trkpt>
      <trkpt lat="46.22426" lon="2.51158">
        <ele>362</ele>
        <time>2017-04-12T14:25:21Z</time>
      </trkpt>
      <trkpt lat="46.22422" lon="2.51159">
        <ele>362</ele>
        <time>2017-04-12T14:25:24Z</time>
      </trkpt>
      <trkpt lat="46.22417" lon="2.5116">
        <ele>362</ele>
        <time>2017-04-12T14:25:27Z</time>
      </trkpt>
      <trkpt lat="46.22413" lon="2.51161">
        <ele>362</ele>
        <time>2017-04-12T14:25:30Z</time>
      </trkpt>
      <trkpt lat="46.22409" lon="2.51161">
        <ele>362</ele>
        <time>2017-04-12T14:25:33Z</time>
      </trkpt>
      <trkpt lat="46.22404" lon="2.51162">
        <ele>362</ele>
        <time>2017-04-12T14:25:36Z</time>
      </trkpt>
      <trkpt lat="46.224" lon="2.51162">
        <ele>362</ele>
        <time>2017-04-12T14:25:39Z</time>
      </trkpt>
      <trkpt lat="46.22396" lon="2.51163">
        <ele>362</ele>
        <time>2017-04-12T14:25:42Z</time>
      </trkpt>
      <trkpt lat="46.22391" lon="2.51163">
        <ele>362</ele>
        <time>2017-04-12T14:25:45Z</time>
      </trkpt>
      <trkpt lat="46.22387" lon="2.51164">
        <ele>362</ele>
        <time>2017-04-12T14:25:48Z</time>
      </trkpt>
      <trkpt lat="46.22383" lon="2.51166">
        <ele>362</ele>
        <time>2017-04-12T14:25:51Z</time>
      </trkpt>
      <trkpt lat="46.22379" lon="2.51167">
        <ele>362</ele>
        <time>2017-04-12T14:25:54Z</time>
      </trkpt>
      <trkpt lat="46.22375" lon="2.51168">
        <ele>362</ele>
        <time>2017-04-12T14:25:57Z</time>
      </trkpt>
      <trkpt lat="46.22371" lon="2.5117">
        <ele>362</ele>
        <time>2017-04-12T14:26:00Z</time>
      </trkpt>
      <trkpt lat="46.22367" lon="2.5117">
        <ele>362</ele>
        <time>2017-04-12T14:26:03Z</time>
      </trkpt>
      <trkpt lat="46.22363" lon="2.51172">
        <ele>362</ele>
        <time>2017-04-12T14:26:06Z</time>
      </trkpt>
      <trkpt lat="46.22358" lon="2.51172">
        <ele>363</ele>
        <time>2017-04-12T14:26:09Z</time>
      </trkpt>
      <trkpt lat="46.22354" lon="2.51173">
        <ele>363</ele>
        <time>2017-04-12T14:26:12Z</time>
      </trkpt>
      <trkpt lat="46.2235" lon="2.51174">
        <ele>363</ele>
        <time>2017-04-12T14:26:15Z</time>
      </trkpt>
      <trkpt lat="46.22345" lon="2.51174">
        <ele>363</ele>
        <time>2017-04-12T14:26:18Z</time>
      </trkpt>
      <trkpt lat="46.22341" lon="2.51175">
        <ele>363</ele>
        <time>2017-04-12T14:26:21Z</time>
      </trkpt>
      <trkpt lat="46.22337" lon="2.51177">
        <ele>363</ele>
        <time>2017-04-12T14:26:24Z</time>
      </trkpt>
      <trkpt lat="46.22332" lon="2.51178">
        <ele>363</ele>
        <time>2017-04-12T14:26:27Z</time>
      </trkpt>
      <trkpt lat="46.22327" lon="2.51178">
        <ele>363</ele>
        <time>2017-04-12T14:26:30Z</time>
      </trkpt>
      <trkpt lat="46.22322" lon="2.51179">
        <ele>363</ele>
        <time>2017-04-12T14:26:33Z</time>
      </trkpt>
      <trkpt lat="46.22318" lon="2.51179">
        <ele>363</ele>
        <time>2017-04-12T14:26:36Z</time>
      </trkpt>
      <trkpt lat="46.22314" lon="2.51179">
        <ele>363</ele>
        <time>2017-04-12T14:26:39Z</time>
      </trkpt>
      <trkpt lat="46.22311" lon="2.51181">
        <ele>363</ele>
        <time>2017-04-12T14:26:42Z</time>
      </trkpt>
      <trkpt lat="46.22306" lon="2.51182">
        <ele>363</ele>
        <time>2017-04-12T14:26:45Z</time>
      </trkpt>
      <trkpt lat="46.22301" lon="2.51183">
        <ele>363</ele>
        <time>2017-04-12T14:26:48Z</time>
      </trkpt>
      <trkpt lat="46.22297" lon="2.51183">
        <ele>363</ele>
        <time>2017-04-12T14:26:51Z</time>
      </trkpt>
      <trkpt lat="46.22292" lon="2.51183">
        <ele>363</ele>
        <time>2017-04-12T14:26:54Z</time>
      </trkpt>
      <trkpt lat="46.22288" lon="2.51184">
        <ele>363</ele>
        <time>2017-04-12T14:26:57Z</time>
      </trkpt>
      <trkpt lat="46.22284" lon="2.51185">
        <ele>364</ele>
        <time>2017-04-12T14:27:00Z</time>
      </trkpt>
      <trkpt lat="46.22279" lon="2.51185">
        <ele>365</ele>
        <time>2017-04-12T14:27:03Z</time>
      </trkpt>
      <trkpt lat="46.22275" lon="2.51185">
        <ele>365</ele>
        <time>2017-04-12T14:27:06Z</time>
      </trkpt>
      <trkpt lat="46.22271" lon="2.51187">
        <ele>365</ele>
        <time>2017-04-12T14:27:09Z</time>
      </trkpt>
      <trkpt lat="46.22267" lon="2.51188">
        <ele>365</ele>
        <time>2017-04-12T14:27:12Z</time>
      </trkpt>
      <trkpt lat="46.22262" lon="2.5119">
        <ele>365</ele>
        <time>2017-04-12T14:27:15Z</time>
      </trkpt>
      <trkpt lat="46.22257" lon="2.51192">
        <ele>365</ele>
        <time>2017-04-12T14:27:19Z</time>
      </trkpt>
      <trkpt lat="46.22253" lon="2.51194">
        <ele>366</ele>
        <time>2017-04-12T14:27:22Z</time>
      </trkpt>
      <trkpt lat="46.22248" lon="2.51195">
        <ele>366</ele>
        <time>2017-04-12T14:27:25Z</time>
      </trkpt>
      <trkpt lat="46.22244" lon="2.51196">
        <ele>366</ele>
        <time>2017-04-12T14:27:28Z</time>
      </trkpt>
      <trkpt lat="46.2224" lon="2.51197">
        <ele>366</ele>
        <time>2017-04-12T14:27:31Z</time>
      </trkpt>
      <trkpt lat="46.22236" lon="2.51198">
        <ele>366</ele>
        <time>2017-04-12T14:27:34Z</time>
      </trkpt>
      <trkpt lat="46.22232" lon="2.51199">
        <ele>366</ele>
        <time>2017-04-12T14:27:37Z</time>
      </trkpt>
      <trkpt lat="46.22227" lon="2.51199">
        <ele>367</ele>
        <time>2017-04-12T14:27:40Z</time>
      </trkpt>
      <trkpt lat="46.22223" lon="2.51199">
        <ele>368</ele>
        <time>2017-04-12T14:27:43Z</time>
      </trkpt>
      <trkpt lat="46.22219" lon="2.51201">
        <ele>368</ele>
        <time>2017-04-12T14:27:46Z</time>
      </trkpt>
      <trkpt lat="46.22215" lon="2.51202">
        <ele>368</ele>
        <time>2017-04-12T14:27:49Z</time>
      </trkpt>
      <trkpt lat="46.22211" lon="2.51204">
        <ele>368</ele>
        <time>2017-04-12T14:27:52Z</time>
      </trkpt>
      <trkpt lat="46.22206" lon="2.51205">
        <ele>368</ele>
        <time>2017-04-12T14:27:55Z</time>
      </trkpt>
      <trkpt lat="46.22203" lon="2.51207">
        <ele>368</ele>
        <time>2017-04-12T14:27:58Z</time>
      </trkpt>
      <trkpt lat="46.22199" lon="2.51208">
        <ele>368</ele>
        <time>2017-04-12T14:28:01Z</time>
      </trkpt>
      <trkpt lat="46.22194" lon="2.5121">
        <ele>368</ele>
        <time>2017-04-12T14:28:04Z</time>
      </trkpt>
      <trkpt lat="46.2219" lon="2.51211">
        <ele>368</ele>
        <time>2017-04-12T14:28:07Z</time>
      </trkpt>
      <trkpt lat="46.22186" lon="2.51213">
        <ele>368</ele>
        <time>2017-04-12T14:28:10Z</time>
      </trkpt>
      <trkpt lat="46.22182" lon="2.51214">
        <ele>368</ele>
        <time>2017-04-12T14:28:13Z</time>
      </trkpt>
      <trkpt lat="46.22178" lon="2.51215">
        <ele>368</ele>
        <time>2017-04-12T14:28:16Z</time>
      </trkpt>
      <trkpt lat="46.22173" lon="2.51217">
        <ele>368</ele>
        <time>2017-04-12T14:28:19Z</time>
      </trkpt>
      <trkpt lat="46.22169" lon="2.51218">
        <ele>368</ele>
        <time>2017-04-12T14:28:22Z</time>
      </trkpt>
      <trkpt lat="46.22164" lon="2.51219">
        <ele>368</ele>
        <time>2017-04-12T14:28:25Z</time>
      </trkpt>
      <trkpt lat="46.2216" lon="2.51221">
        <ele>368</ele>
        <time>2017-04-12T14:28:28Z</time>
      </trkpt>
      <trkpt lat="46.22156" lon="2.51223">
        <ele>368</ele>
        <time>2017-04-12T14:28:31Z</time>
      </trkpt>
      <trkpt lat="46.22152" lon="2.51225">
        <ele>368</ele>
        <time>2017-04-12T14:28:34Z</time>
      </trkpt>
      <trkpt lat="46.22148" lon="2.51226">
        <ele>368</ele>
        <time>2017-04-12T14:28:37Z</time>
      </trkpt>
      <trkpt lat="46.22144" lon="2.51229">
        <ele>368</ele>
        <time>2017-04-12T14:28:40Z</time>
      </trkpt>
      <trkpt lat="46.2214" lon="2.5123">
        <ele>368</ele>
        <time>2017-04-12T14:28:43Z</time>
      </trkpt>
      <trkpt lat="46.22136" lon="2.51233">
        <ele>368</ele>
        <time>2017-04-12T14:28:46Z</time>
      </trkpt>
      <trkpt lat="46.22133" lon="2.51235">
        <ele>368</ele>
        <time>2017-04-12T14:28:49Z</time>
      </trkpt>
      <trkpt lat="46.22129" lon="2.51237">
        <ele>368</ele>
        <time>2017-04-12T14:28:52Z</time>
      </trkpt>
      <trkpt lat="46.22125" lon="2.51239">
        <ele>368</ele>
        <time>2017-04-12T14:28:55Z</time>
      </trkpt>
      <trkpt lat="46.22121" lon="2.51242">
        <ele>368</ele>
        <time>2017-04-12T14:28:58Z</time>
      </trkpt>
      <trkpt lat="46.22117" lon="2.51245">
        <ele>368</ele>
        <time>2017-04-12T14:29:01Z</time>
      </trkpt>
      <trkpt lat="46.22113" lon="2.51247">
        <ele>368</ele>
        <time>2017-04-12T14:29:04Z</time>
      </trkpt>
      <trkpt lat="46.22109" lon="2.51249">
        <ele>368</ele>
        <time>2017-04-12T14:29:07Z</time>
      </trkpt>
      <trkpt lat="46.22105" lon="2.51252">
        <ele>368</ele>
        <time>2017-04-12T14:29:10Z</time>
      </trkpt>
      <trkpt lat="46.221" lon="2.51254">
        <ele>368</ele>
        <time>2017-04-12T14:29:13Z</time>
      </trkpt>
      <trkpt lat="46.22097" lon="2.51256">
        <ele>368</ele>
        <time>2017-04-12T14:29:16Z</time>
      </trkpt>
      <trkpt lat="46.22092" lon="2.51259">
        <ele>368</ele>
        <time>2017-04-12T14:29:19Z</time>
      </trkpt>
      <trkpt lat="46.22088" lon="2.51261">
        <ele>368</ele>
        <time>2017-04-12T14:29:22Z</time>
      </trkpt>
      <trkpt lat="46.22084" lon="2.51264">
        <ele>368</ele>
        <time>2017-04-12T14:29:25Z</time>
      </trkpt>
      <trkpt lat="46.2208" lon="2.51268">
        <ele>368</ele>
        <time>2017-04-12T14:29:28Z</time>
      </trkpt>
      <trkpt lat="46.22076" lon="2.5127">
        <ele>368</ele>
        <time>2017-04-12T14:29:31Z</time>
      </trkpt>
      <trkpt lat="46.22072" lon="2.51273">
        <ele>368</ele>
        <time>2017-04-12T14:29:34Z</time>
      </trkpt>
      <trkpt lat="46.22067" lon="2.51275">
        <ele>368</ele>
        <time>2017-04-12T14:29:37Z</time>
      </trkpt>
      <trkpt lat="46.22063" lon="2.51278">
        <ele>368</ele>
        <time>2017-04-12T14:29:40Z</time>
      </trkpt>
      <trkpt lat="46.22059" lon="2.5128">
        <ele>368</ele>
        <time>2017-04-12T14:29:43Z</time>
      </trkpt>
      <trkpt lat="46.22055" lon="2.51282">
        <ele>368</ele>
        <time>2017-04-12T14:29:46Z</time>
      </trkpt>
      <trkpt lat="46.22051" lon="2.51285">
        <ele>368</ele>
        <time>2017-04-12T14:29:49Z</time>
      </trkpt>
      <trkpt lat="46.22046" lon="2.51287">
        <ele>368</ele>
        <time>2017-04-12T14:29:52Z</time>
      </trkpt>
      <trkpt lat="46.22042" lon="2.51289">
        <ele>368</ele>
        <time>2017-04-12T14:29:55Z</time>
      </trkpt>
      <trkpt lat="46.22038" lon="2.51292">
        <ele>368</ele>
        <time>2017-04-12T14:29:58Z</time>
      </trkpt>
      <trkpt lat="46.22034" lon="2.51294">
        <ele>368</ele>
        <time>2017-04-12T14:30:01Z</time>
      </trkpt>
      <trkpt lat="46.2203" lon="2.51297">
        <ele>368</ele>
        <time>2017-04-12T14:30:04Z</time>
      </trkpt>
      <trkpt lat="46.22026" lon="2.51299">
        <ele>368</ele>
        <time>2017-04-12T14:30:07Z</time>
      </trkpt>
      <trkpt lat="46.22022" lon="2.51302">
        <ele>368</ele>
        <time>2017-04-12T14:30:10Z</time>
      </trkpt>
      <trkpt lat="46.22018" lon="2.51306">
        <ele>368</ele>
        <time>2017-04-12T14:30:13Z</time>
      </trkpt>
      <trkpt lat="46.22014" lon="2.51308">
        <ele>368</ele>
        <time>2017-04-12T14:30:16Z</time>
      </trkpt>
      <trkpt lat="46.2201" lon="2.5131">
        <ele>368</ele>
        <time>2017-04-12T14:30:19Z</time>
      </trkpt>
      <trkpt lat="46.22005" lon="2.51313">
        <ele>368</ele>
        <time>2017-04-12T14:30:22Z</time>
      </trkpt>
      <trkpt lat="46.22002" lon="2.51315">
        <ele>368</ele>
        <time>2017-04-12T14:30:25Z</time>
      </trkpt>
      <trkpt lat="46.21997" lon="2.51318">
        <ele>368</ele>
        <time>2017-04-12T14:30:28Z</time>
      </trkpt>
      <trkpt lat="46.21993" lon="2.5132">
        <ele>368</ele>
        <time>2017-04-12T14:30:31Z</time>
      </trkpt>
      <trkpt lat="46.21989" lon="2.51322">
        <ele>368</ele>
        <time>2017-04-12T14:30:34Z</time>
      </trkpt>
      <trkpt lat="46.21985" lon="2.51325">
        <ele>368</ele>
        <time>2017-04-12T14:30:37Z</time>
      </trkpt>
      <trkpt lat="46.2198" lon="2.51327">
        <ele>368</ele>
        <time>2017-04-12T14:30:40Z</time>
      </trkpt>
      <trkpt lat="46.21976" lon="2.51329">
        <ele>368</ele>
        <time>2017-04-12T14:30:43Z</time>
      </trkpt>
      <trkpt lat="46.21971" lon="2.51333">
        <ele>368</ele>
        <time>2017-04-12T14:30:47Z</time>
      </trkpt>
      <trkpt lat="46.21967" lon="2.51335">
        <ele>368</ele>
        <time>2017-04-12T14:30:50Z</time>
      </trkpt>
      <trkpt lat="46.21963" lon="2.51338">
        <ele>368</ele>
        <time>2017-04-12T14:30:53Z</time>
      </trkpt>
      <trkpt lat="46.21959" lon="2.51341">
        <ele>368</ele>
        <time>2017-04-12T14:30:56Z</time>
      </trkpt>
      <trkpt lat="46.21954" lon="2.51343">
        <ele>368</ele>
        <time>2017-04-12T14:30:59Z</time>
      </trkpt>
      <trkpt lat="46.2195" lon="2.51346">
        <ele>368</ele>
        <time>2017-04-12T14:31:02Z</time>
      </trkpt>
      <trkpt lat="46.21946" lon="2.51349">
        <ele>368</ele>
        <time>2017-04-12T14:31:05Z</time>
      </trkpt>
      <trkpt lat="46.21943" lon="2.51352">
        <ele>368</ele>
        <time>2017-04-12T14:31:08Z</time>
      </trkpt>
      <trkpt lat="46.21939" lon="2.51356">
        <ele>368</ele>
        <time>2017-04-12T14:31:11Z</time>
      </trkpt>
      <trkpt lat="46.21936" lon="2.51359">
        <ele>368</ele>
        <time>2017-04-12T14:31:14Z</time>
      </trkpt>
      <trkpt lat="46.21933" lon="2.51363">
        <ele>368</ele>
        <time>2017-04-12T14:31:17Z</time>
      </trkpt>
      <trkpt lat="46.2193" lon="2.51368">
        <ele>368</ele>
        <time>2017-04-12T14:31:20Z</time>
      </trkpt>
      <trkpt lat="46.21926" lon="2.51373">
        <ele>368</ele>
        <time>2017-04-12T14:31:23Z</time>
      </trkpt>
      <trkpt lat="46.21922" lon="2.51378">
        <ele>368</ele>
        <time>2017-04-12T14:31:26Z</time>
      </trkpt>
      <trkpt lat="46.21918" lon="2.51382">
        <ele>368</ele>
        <time>2017-04-12T14:31:29Z</time>
      </trkpt>
      <trkpt lat="46.21915" lon="2.51386">
        <ele>368</ele>
        <time>2017-04-12T14:31:32Z</time>
      </trkpt>
      <trkpt lat="46.21911" lon="2.51391">
        <ele>368</ele>
        <time>2017-04-12T14:31:35Z</time>
      </trkpt>
      <trkpt lat="46.21907" lon="2.51395">
        <ele>368</ele>
        <time>2017-04-12T14:31:38Z</time>
      </trkpt>
      <trkpt lat="46.21906" lon="2.514">
        <ele>368</ele>
        <time>2017-04-12T14:31:41Z</time>
      </trkpt>
      <trkpt lat="46.21901" lon="2.51405">
        <ele>368</ele>
        <time>2017-04-12T14:31:45Z</time>
      </trkpt>
      <trkpt lat="46.21898" lon="2.5141">
        <ele>368</ele>
        <time>2017-04-12T14:31:48Z</time>
      </trkpt>
      <trkpt lat="46.21895" lon="2.51414">
        <ele>368</ele>
        <time>2017-04-12T14:31:51Z</time>
      </trkpt>
      <trkpt lat="46.21891" lon="2.51418">
        <ele>368</ele>
        <time>2017-04-12T14:31:54Z</time>
      </trkpt>
      <trkpt lat="46.21888" lon="2.51423">
        <ele>368</ele>
        <time>2017-04-12T14:31:57Z</time>
      </trkpt>
      <trkpt lat="46.21885" lon="2.51427">
        <ele>368</ele>
        <time>2017-04-12T14:32:00Z</time>
      </trkpt>
      <trkpt lat="46.21881" lon="2.51431">
        <ele>368</ele>
        <time>2017-04-12T14:32:03Z</time>
      </trkpt>
      <trkpt lat="46.21877" lon="2.51435">
        <ele>368</ele>
        <time>2017-04-12T14:32:07Z</time>
      </trkpt>
      <trkpt lat="46.21874" lon="2.51439">
        <ele>368</ele>
        <time>2017-04-12T14:32:10Z</time>
      </trkpt>
      <trkpt lat="46.2187" lon="2.51443">
        <ele>368</ele>
        <time>2017-04-12T14:32:13Z</time>
      </trkpt>
      <trkpt lat="46.21867" lon="2.51447">
        <ele>367</ele>
        <time>2017-04-12T14:32:16Z</time>
      </trkpt>
      <trkpt lat="46.21864" lon="2.51449">
        <ele>367</ele>
        <time>2017-04-12T14:32:19Z</time>
      </trkpt>
      <trkpt lat="46.2186" lon="2.51453">
        <ele>367</ele>
        <time>2017-04-12T14:32:22Z</time>
      </trkpt>
      <trkpt lat="46.21857" lon="2.51456">
        <ele>367</ele>
        <time>2017-04-12T14:32:25Z</time>
      </trkpt>
      <trkpt lat="46.21852" lon="2.5146">
        <ele>367</ele>
        <time>2017-04-12T14:32:28Z</time>
      </trkpt>
      <trkpt lat="46.21848" lon="2.51463">
        <ele>367</ele>
        <time>2017-04-12T14:32:31Z</time>
      </trkpt>
      <trkpt lat="46.21844" lon="2.51468">
        <ele>367</ele>
        <time>2017-04-12T14:32:34Z</time>
      </trkpt>
      <trkpt lat="46.21841" lon="2.51471">
        <ele>367</ele>
        <time>2017-04-12T14:32:37Z</time>
      </trkpt>
      <trkpt lat="46.21836" lon="2.51472">
        <ele>367</ele>
        <time>2017-04-12T14:32:40Z</time>
      </trkpt>
      <trkpt lat="46.21832" lon="2.51475">
        <ele>367</ele>
        <time>2017-04-12T14:32:43Z</time>
      </trkpt>
      <trkpt lat="46.21828" lon="2.51478">
        <ele>367</ele>
        <time>2017-04-12T14:32:46Z</time>
      </trkpt>
      <trkpt lat="46.21823" lon="2.51481">
        <ele>367</ele>
        <time>2017-04-12T14:32:50Z</time>
      </trkpt>
      <trkpt lat="46.21819" lon="2.51484">
        <ele>367</ele>
        <time>2017-04-12T14:32:53Z</time>
      </trkpt>
      <trkpt lat="46.21816" lon="2.51486">
        <ele>367</ele>
        <time>2017-04-12T14:32:56Z</time>
      </trkpt>
      <trkpt lat="46.21812" lon="2.51489">
        <ele>367</ele>
        <time>2017-04-12T14:32:59Z</time>
      </trkpt>
      <trkpt lat="46.21809" lon="2.51492">
        <ele>367</ele>
        <time>2017-04-12T14:33:02Z</time>
      </trkpt>
      <trkpt lat="46.21804" lon="2.51496">
        <ele>367</ele>
        <time>2017-04-12T14:33:06Z</time>
      </trkpt>
      <trkpt lat="46.21801" lon="2.515">
        <ele>367</ele>
        <time>2017-04-12T14:33:09Z</time>
      </trkpt>
      <trkpt lat="46.21797" lon="2.51505">
        <ele>367</ele>
        <time>2017-04-12T14:33:12Z</time>
      </trkpt>
      <trkpt lat="46.21794" lon="2.51509">
        <ele>367</ele>
        <time>2017-04-12T14:33:15Z</time>
      </trkpt>
      <trkpt lat="46.21791" lon="2.51514">
        <ele>367</ele>
        <time>2017-04-12T14:33:18Z</time>
      </trkpt>
      <trkpt lat="46.21788" lon="2.5152">
        <ele>367</ele>
        <time>2017-04-12T14:33:21Z</time>
      </trkpt>
      <trkpt lat="46.21785" lon="2.51526">
        <ele>367</ele>
        <time>2017-04-12T14:33:24Z</time>
      </trkpt>
      <trkpt lat="46.21783" lon="2.51529">
        <ele>367</ele>
        <time>2017-04-12T14:33:27Z</time>
      </trkpt>
      <trkpt lat="46.21782" lon="2.51535">
        <ele>367</ele>
        <time>2017-04-12T14:33:30Z</time>
      </trkpt>
      <trkpt lat="46.21783" lon="2.51541">
        <ele>367</ele>
        <time>2017-04-12T14:33:33Z</time>
      </trkpt>
      <trkpt lat="46.21784" lon="2.51548">
        <ele>367</ele>
        <time>2017-04-12T14:33:36Z</time>
      </trkpt>
      <trkpt lat="46.21786" lon="2.51554">
        <ele>367</ele>
        <time>2017-04-12T14:33:39Z</time>
      </trkpt>
      <trkpt lat="46.21787" lon="2.51561">
        <ele>367</ele>
        <time>2017-04-12T14:33:42Z</time>
      </trkpt>
      <trkpt lat="46.2179" lon="2.51567">
        <ele>366</ele>
        <time>2017-04-12T14:33:45Z</time>
      </trkpt>
      <trkpt lat="46.21792" lon="2.51573">
        <ele>365</ele>
        <time>2017-04-12T14:33:48Z</time>
      </trkpt>
      <trkpt lat="46.21795" lon="2.51578">
        <ele>364</ele>
        <time>2017-04-12T14:33:51Z</time>
      </trkpt>
      <trkpt lat="46.21798" lon="2.51583">
        <ele>363</ele>
        <time>2017-04-12T14:33:54Z</time>
      </trkpt>
      <trkpt lat="46.21801" lon="2.51587">
        <ele>362</ele>
        <time>2017-04-12T14:33:57Z</time>
      </trkpt>
      <trkpt lat="46.21804" lon="2.51592">
        <ele>362</ele>
        <time>2017-04-12T14:34:00Z</time>
      </trkpt>
      <trkpt lat="46.21806" lon="2.51597">
        <ele>362</ele>
        <time>2017-04-12T14:34:03Z</time>
      </trkpt>
      <trkpt lat="46.21811" lon="2.51601">
        <ele>362</ele>
        <time>2017-04-12T14:34:06Z</time>
      </trkpt>
      <trkpt lat="46.21813" lon="2.51606">
        <ele>362</ele>
        <time>2017-04-12T14:34:09Z</time>
      </trkpt>
      <trkpt lat="46.21816" lon="2.51611">
        <ele>361</ele>
        <time>2017-04-12T14:34:12Z</time>
      </trkpt>
      <trkpt lat="46.2182" lon="2.51615">
        <ele>361</ele>
        <time>2017-04-12T14:34:15Z</time>
      </trkpt>
      <trkpt lat="46.21823" lon="2.5162">
        <ele>361</ele>
        <time>2017-04-12T14:34:18Z</time>
      </trkpt>
      <trkpt lat="46.21826" lon="2.51626">
        <ele>360</ele>
        <time>2017-04-12T14:34:22Z</time>
      </trkpt>
      <trkpt lat="46.2183" lon="2.5163">
        <ele>360</ele>
        <time>2017-04-12T14:34:25Z</time>
      </trkpt>
      <trkpt lat="46.21834" lon="2.51634">
        <ele>360</ele>
        <time>2017-04-12T14:34:28Z</time>
      </trkpt>
      <trkpt lat="46.21837" lon="2.51639">
        <ele>360</ele>
        <time>2017-04-12T14:34:31Z</time>
      </trkpt>
      <trkpt lat="46.2184" lon="2.51643">
        <ele>359</ele>
        <time>2017-04-12T14:34:34Z</time>
      </trkpt>
      <trkpt lat="46.21842" lon="2.51649">
        <ele>359</ele>
        <time>2017-04-12T14:34:37Z</time>
      </trkpt>
      <trkpt lat="46.21843" lon="2.51655">
        <ele>359</ele>
        <time>2017-04-12T14:34:40Z</time>
      </trkpt>
      <trkpt lat="46.21843" lon="2.51662">
        <ele>359</ele>
        <time>2017-04-12T14:34:43Z</time>
      </trkpt>
      <trkpt lat="46.21843" lon="2.51669">
        <ele>359</ele>
        <time>2017-04-12T14:34:46Z</time>
      </trkpt>
      <trkpt lat="46.21841" lon="2.51675">
        <ele>359</ele>
        <time>2017-04-12T14:34:49Z</time>
      </trkpt>
      <trkpt lat="46.21837" lon="2.51681">
        <ele>359</ele>
        <time>2017-04-12T14:34:52Z</time>
      </trkpt>
      <trkpt lat="46.21833" lon="2.51686">
        <ele>359</ele>
        <time>2017-04-12T14:34:55Z</time>
      </trkpt>
      <trkpt lat="46.2183" lon="2.5169">
        <ele>359</ele>
        <time>2017-04-12T14:34:58Z</time>
      </trkpt>
      <trkpt lat="46.21826" lon="2.51694">
        <ele>359</ele>
        <time>2017-04-12T14:35:01Z</time>
      </trkpt>
      <trkpt lat="46.21823" lon="2.51699">
        <ele>359</ele>
        <time>2017-04-12T14:35:04Z</time>
      </trkpt>
      <trkpt lat="46.2182" lon="2.51704">
        <ele>359</ele>
        <time>2017-04-12T14:35:07Z</time>
      </trkpt>
      <trkpt lat="46.21816" lon="2.5171">
        <ele>360</ele>
        <time>2017-04-12T14:35:11Z</time>
      </trkpt>
      <trkpt lat="46.21812" lon="2.51713">
        <ele>360</ele>
        <time>2017-04-12T14:35:14Z</time>
      </trkpt>
      <trkpt lat="46.21807" lon="2.51717">
        <ele>361</ele>
        <time>2017-04-12T14:35:18Z</time>
      </trkpt>
      <trkpt lat="46.21804" lon="2.5172">
        <ele>361</ele>
        <time>2017-04-12T14:35:21Z</time>
      </trkpt>
      <trkpt lat="46.21799" lon="2.51723">
        <ele>361</ele>
        <time>2017-04-12T14:35:24Z</time>
      </trkpt>
      <trkpt lat="46.21795" lon="2.51726">
        <ele>361</ele>
        <time>2017-04-12T14:35:28Z</time>
      </trkpt>
      <trkpt lat="46.21791" lon="2.51729">
        <ele>361</ele>
        <time>2017-04-12T14:35:31Z</time>
      </trkpt>
      <trkpt lat="46.21788" lon="2.51732">
        <ele>361</ele>
        <time>2017-04-12T14:35:34Z</time>
      </trkpt>
      <trkpt lat="46.21783" lon="2.51734">
        <ele>361</ele>
        <time>2017-04-12T14:35:37Z</time>
      </trkpt>
      <trkpt lat="46.2178" lon="2.51736">
        <ele>361</ele>
        <time>2017-04-12T14:35:40Z</time>
      </trkpt>
      <trkpt lat="46.21775" lon="2.51738">
        <ele>361</ele>
        <time>2017-04-12T14:35:43Z</time>
      </trkpt>
      <trkpt lat="46.21771" lon="2.51739">
        <ele>361</ele>
        <time>2017-04-12T14:35:46Z</time>
      </trkpt>
      <trkpt lat="46.21767" lon="2.51741">
        <ele>361</ele>
        <time>2017-04-12T14:35:49Z</time>
      </trkpt>
      <trkpt lat="46.21763" lon="2.51741">
        <ele>361</ele>
        <time>2017-04-12T14:35:52Z</time>
      </trkpt>
      <trkpt lat="46.21759" lon="2.51742">
        <ele>361</ele>
        <time>2017-04-12T14:35:55Z</time>
      </trkpt>
      <trkpt lat="46.21754" lon="2.51743">
        <ele>361</ele>
        <time>2017-04-12T14:35:58Z</time>
      </trkpt>
      <trkpt lat="46.2175" lon="2.51744">
        <ele>361</ele>
        <time>2017-04-12T14:36:01Z</time>
      </trkpt>
      <trkpt lat="46.21745" lon="2.51744">
        <ele>361</ele>
        <time>2017-04-12T14:36:04Z</time>
      </trkpt>
      <trkpt lat="46.21741" lon="2.51744">
        <ele>361</ele>
        <time>2017-04-12T14:36:07Z</time>
      </trkpt>
      <trkpt lat="46.21736" lon="2.51743">
        <ele>361</ele>
        <time>2017-04-12T14:36:10Z</time>
      </trkpt>
      <trkpt lat="46.21732" lon="2.51742">
        <ele>361</ele>
        <time>2017-04-12T14:36:13Z</time>
      </trkpt>
      <trkpt lat="46.21728" lon="2.51741">
        <ele>361</ele>
        <time>2017-04-12T14:36:16Z</time>
      </trkpt>
      <trkpt lat="46.21723" lon="2.51741">
        <ele>361</ele>
        <time>2017-04-12T14:36:19Z</time>
      </trkpt>
      <trkpt lat="46.21719" lon="2.5174">
        <ele>361</ele>
        <time>2017-04-12T14:36:22Z</time>
      </trkpt>
      <trkpt lat="46.21715" lon="2.51739">
        <ele>361</ele>
        <time>2017-04-12T14:36:25Z</time>
      </trkpt>
      <trkpt lat="46.21711" lon="2.51738">
        <ele>361</ele>
        <time>2017-04-12T14:36:28Z</time>
      </trkpt>
      <trkpt lat="46.21706" lon="2.51737">
        <ele>361</ele>
        <time>2017-04-12T14:36:31Z</time>
      </trkpt>
      <trkpt lat="46.21702" lon="2.51736">
        <ele>361</ele>
        <time>2017-04-12T14:36:34Z</time>
      </trkpt>
      <trkpt lat="46.21698" lon="2.51735">
        <ele>361</ele>
        <time>2017-04-12T14:36:37Z</time>
      </trkpt>
      <trkpt lat="46.21693" lon="2.51734">
        <ele>361</ele>
        <time>2017-04-12T14:36:40Z</time>
      </trkpt>
      <trkpt lat="46.21689" lon="2.51733">
        <ele>361</ele>
        <time>2017-04-12T14:36:43Z</time>
      </trkpt>
      <trkpt lat="46.21685" lon="2.51732">
        <ele>361</ele>
        <time>2017-04-12T14:36:46Z</time>
      </trkpt>
      <trkpt lat="46.2168" lon="2.51731">
        <ele>361</ele>
        <time>2017-04-12T14:36:49Z</time>
      </trkpt>
      <trkpt lat="46.21676" lon="2.5173">
        <ele>361</ele>
        <time>2017-04-12T14:36:52Z</time>
      </trkpt>
      <trkpt lat="46.21672" lon="2.51729">
        <ele>361</ele>
        <time>2017-04-12T14:36:55Z</time>
      </trkpt>
      <trkpt lat="46.21667" lon="2.51729">
        <ele>361</ele>
        <time>2017-04-12T14:36:58Z</time>
      </trkpt>
      <trkpt lat="46.21663" lon="2.51728">
        <ele>361</ele>
        <time>2017-04-12T14:37:01Z</time>
      </trkpt>
      <trkpt lat="46.21659" lon="2.51728">
        <ele>361</ele>
        <time>2017-04-12T14:37:04Z</time>
      </trkpt>
      <trkpt lat="46.21654" lon="2.51728">
        <ele>361</ele>
        <time>2017-04-12T14:37:07Z</time>
      </trkpt>
      <trkpt lat="46.2165" lon="2.51727">
        <ele>361</ele>
        <time>2017-04-12T14:37:10Z</time>
      </trkpt>
      <trkpt lat="46.21646" lon="2.51727">
        <ele>361</ele>
        <time>2017-04-12T14:37:13Z</time>
      </trkpt>
      <trkpt lat="46.21642" lon="2.51727">
        <ele>361</ele>
        <time>2017-04-12T14:37:16Z</time>
      </trkpt>
      <trkpt lat="46.21637" lon="2.51727">
        <ele>362</ele>
        <time>2017-04-12T14:37:19Z</time>
      </trkpt>
      <trkpt lat="46.21632" lon="2.51729">
        <ele>362</ele>
        <time>2017-04-12T14:37:22Z</time>
      </trkpt>
      <trkpt lat="46.21628" lon="2.51728">
        <ele>362</ele>
        <time>2017-04-12T14:37:25Z</time>
      </trkpt>
      <trkpt lat="46.21624" lon="2.51728">
        <ele>362</ele>
        <time>2017-04-12T14:37:28Z</time>
      </trkpt>
      <trkpt lat="46.2162" lon="2.51728">
        <ele>362</ele>
        <time>2017-04-12T14:37:31Z</time>
      </trkpt>
      <trkpt lat="46.21616" lon="2.51728">
        <ele>362</ele>
        <time>2017-04-12T14:37:34Z</time>
      </trkpt>
      <trkpt lat="46.21612" lon="2.51727">
        <ele>362</ele>
        <time>2017-04-12T14:37:37Z</time>
      </trkpt>
      <trkpt lat="46.21608" lon="2.51728">
        <ele>362</ele>
        <time>2017-04-12T14:37:40Z</time>
      </trkpt>
      <trkpt lat="46.21604" lon="2.51728">
        <ele>362</ele>
        <time>2017-04-12T14:37:43Z</time>
      </trkpt>
      <trkpt lat="46.21599" lon="2.51731">
        <ele>362</ele>
        <time>2017-04-12T14:37:46Z</time>
      </trkpt>
      <trkpt lat="46.21595" lon="2.51731">
        <ele>362</ele>
        <time>2017-04-12T14:37:49Z</time>
      </trkpt>
      <trkpt lat="46.21591" lon="2.51732">
        <ele>362</ele>
        <time>2017-04-12T14:37:52Z</time>
      </trkpt>
      <trkpt lat="46.21587" lon="2.5173">
        <ele>362</ele>
        <time>2017-04-12T14:37:55Z</time>
      </trkpt>
      <trkpt lat="46.21582" lon="2.5173">
        <ele>362</ele>
        <time>2017-04-12T14:37:58Z</time>
      </trkpt>
      <trkpt lat="46.21578" lon="2.5173">
        <ele>362</ele>
        <time>2017-04-12T14:38:01Z</time>
      </trkpt>
      <trkpt lat="46.21573" lon="2.51735">
        <ele>362</ele>
        <time>2017-04-12T14:38:04Z</time>
      </trkpt>
      <trkpt lat="46.21568" lon="2.51737">
        <ele>364</ele>
        <time>2017-04-12T14:38:07Z</time>
      </trkpt>
      <trkpt lat="46.21563" lon="2.51738">
        <ele>365</ele>
        <time>2017-04-12T14:38:10Z</time>
      </trkpt>
      <trkpt lat="46.21559" lon="2.51739">
        <ele>365</ele>
        <time>2017-04-12T14:38:13Z</time>
      </trkpt>
      <trkpt lat="46.21555" lon="2.5174">
        <ele>365</ele>
        <time>2017-04-12T14:38:16Z</time>
      </trkpt>
      <trkpt lat="46.21552" lon="2.5174">
        <ele>365</ele>
        <time>2017-04-12T14:38:19Z</time>
      </trkpt>
      <trkpt lat="46.21547" lon="2.5174">
        <ele>365</ele>
        <time>2017-04-12T14:38:22Z</time>
      </trkpt>
      <trkpt lat="46.21543" lon="2.51741">
        <ele>365</ele>
        <time>2017-04-12T14:38:25Z</time>
      </trkpt>
      <trkpt lat="46.21539" lon="2.51742">
        <ele>365</ele>
        <time>2017-04-12T14:38:28Z</time>
      </trkpt>
      <trkpt lat="46.21535" lon="2.51741">
        <ele>365</ele>
        <time>2017-04-12T14:38:31Z</time>
      </trkpt>
      <trkpt lat="46.21531" lon="2.51741">
        <ele>365</ele>
        <time>2017-04-12T14:38:34Z</time>
      </trkpt>
      <trkpt lat="46.21526" lon="2.51744">
        <ele>365</ele>
        <time>2017-04-12T14:38:37Z</time>
      </trkpt>
      <trkpt lat="46.21521" lon="2.51745">
        <ele>365</ele>
        <time>2017-04-12T14:38:40Z</time>
      </trkpt>
      <trkpt lat="46.21517" lon="2.51746">
        <ele>365</ele>
        <time>2017-04-12T14:38:43Z</time>
      </trkpt>
      <trkpt lat="46.21513" lon="2.51745">
        <ele>365</ele>
        <time>2017-04-12T14:38:46Z</time>
      </trkpt>
      <trkpt lat="46.21509" lon="2.51744">
        <ele>365</ele>
        <time>2017-04-12T14:38:49Z</time>
      </trkpt>
      <trkpt lat="46.21505" lon="2.51744">
        <ele>365</ele>
        <time>2017-04-12T14:38:52Z</time>
      </trkpt>
      <trkpt lat="46.21501" lon="2.51743">
        <ele>365</ele>
        <time>2017-04-12T14:38:55Z</time>
      </trkpt>
      <trkpt lat="46.21497" lon="2.51743">
        <ele>365</ele>
        <time>2017-04-12T14:38:58Z</time>
      </trkpt>
      <trkpt lat="46.21493" lon="2.51742">
        <ele>364</ele>
        <time>2017-04-12T14:39:01Z</time>
      </trkpt>
      <trkpt lat="46.21488" lon="2.51743">
        <ele>364</ele>
        <time>2017-04-12T14:39:04Z</time>
      </trkpt>
      <trkpt lat="46.21484" lon="2.51742">
        <ele>364</ele>
        <time>2017-04-12T14:39:07Z</time>
      </trkpt>
      <trkpt lat="46.21481" lon="2.51741">
        <ele>364</ele>
        <time>2017-04-12T14:39:10Z</time>
      </trkpt>
      <trkpt lat="46.21476" lon="2.51741">
        <ele>364</ele>
        <time>2017-04-12T14:39:13Z</time>
      </trkpt>
      <trkpt lat="46.21472" lon="2.5174">
        <ele>364</ele>
        <time>2017-04-12T14:39:16Z</time>
      </trkpt>
      <trkpt lat="46.21468" lon="2.51739">
        <ele>365</ele>
        <time>2017-04-12T14:39:19Z</time>
      </trkpt>
      <trkpt lat="46.21464" lon="2.51737">
        <ele>366</ele>
        <time>2017-04-12T14:39:22Z</time>
      </trkpt>
      <trkpt lat="46.2146" lon="2.51735">
        <ele>367</ele>
        <time>2017-04-12T14:39:25Z</time>
      </trkpt>
      <trkpt lat="46.21456" lon="2.51733">
        <ele>368</ele>
        <time>2017-04-12T14:39:28Z</time>
      </trkpt>
      <trkpt lat="46.21452" lon="2.51731">
        <ele>368</ele>
        <time>2017-04-12T14:39:31Z</time>
      </trkpt>
      <trkpt lat="46.21449" lon="2.51728">
        <ele>368</ele>
        <time>2017-04-12T14:39:34Z</time>
      </trkpt>
      <trkpt lat="46.21444" lon="2.51724">
        <ele>368</ele>
        <time>2017-04-12T14:39:38Z</time>
      </trkpt>
      <trkpt lat="46.2144" lon="2.51721">
        <ele>368</ele>
        <time>2017-04-12T14:39:41Z</time>
      </trkpt>
      <trkpt lat="46.21436" lon="2.51717">
        <ele>368</ele>
        <time>2017-04-12T14:39:44Z</time>
      </trkpt>
      <trkpt lat="46.21432" lon="2.51713">
        <ele>368</ele>
        <time>2017-04-12T14:39:48Z</time>
      </trkpt>
      <trkpt lat="46.21428" lon="2.51709">
        <ele>368</ele>
        <time>2017-04-12T14:39:52Z</time>
      </trkpt>
      <trkpt lat="46.21425" lon="2.51706">
        <ele>366</ele>
        <time>2017-04-12T14:39:55Z</time>
      </trkpt>
      <trkpt lat="46.21421" lon="2.51704">
        <ele>366</ele>
        <time>2017-04-12T14:39:58Z</time>
      </trkpt>
      <trkpt lat="46.21417" lon="2.51701">
        <ele>366</ele>
        <time>2017-04-12T14:40:01Z</time>
      </trkpt>
      <trkpt lat="46.21413" lon="2.51698">
        <ele>365</ele>
        <time>2017-04-12T14:40:04Z</time>
      </trkpt>
      <trkpt lat="46.21409" lon="2.51695">
        <ele>365</ele>
        <time>2017-04-12T14:40:07Z</time>
      </trkpt>
      <trkpt lat="46.21405" lon="2.51691">
        <ele>365</ele>
        <time>2017-04-12T14:40:10Z</time>
      </trkpt>
      <trkpt lat="46.21402" lon="2.51688">
        <ele>365</ele>
        <time>2017-04-12T14:40:13Z</time>
      </trkpt>
      <trkpt lat="46.21398" lon="2.51685">
        <ele>365</ele>
        <time>2017-04-12T14:40:16Z</time>
      </trkpt>
      <trkpt lat="46.21394" lon="2.51682">
        <ele>365</ele>
        <time>2017-04-12T14:40:19Z</time>
      </trkpt>
      <trkpt lat="46.21391" lon="2.51679">
        <ele>365</ele>
        <time>2017-04-12T14:40:22Z</time>
      </trkpt>
      <trkpt lat="46.21386" lon="2.51676">
        <ele>367</ele>
        <time>2017-04-12T14:40:25Z</time>
      </trkpt>
      <trkpt lat="46.21382" lon="2.51673">
        <ele>368</ele>
        <time>2017-04-12T14:40:28Z</time>
      </trkpt>
      <trkpt lat="46.21379" lon="2.5167">
        <ele>368</ele>
        <time>2017-04-12T14:40:31Z</time>
      </trkpt>
      <trkpt lat="46.21375" lon="2.51667">
        <ele>368</ele>
        <time>2017-04-12T14:40:34Z</time>
      </trkpt>
      <trkpt lat="46.21371" lon="2.51665">
        <ele>369</ele>
        <time>2017-04-12T14:40:37Z</time>
      </trkpt>
      <trkpt lat="46.21367" lon="2.51662">
        <ele>370</ele>
        <time>2017-04-12T14:40:40Z</time>
      </trkpt>
      <trkpt lat="46.21363" lon="2.5166">
        <ele>371</ele>
        <time>2017-04-12T14:40:43Z</time>
      </trkpt>
      <trkpt lat="46.21359" lon="2.51658">
        <ele>372</ele>
        <time>2017-04-12T14:40:46Z</time>
      </trkpt>
      <trkpt lat="46.21355" lon="2.51655">
        <ele>373</ele>
        <time>2017-04-12T14:40:49Z</time>
      </trkpt>
      <trkpt lat="46.21351" lon="2.51653">
        <ele>373</ele>
        <time>2017-04-12T14:40:52Z</time>
      </trkpt>
      <trkpt lat="46.21347" lon="2.5165">
        <ele>374</ele>
        <time>2017-04-12T14:40:55Z</time>
      </trkpt>
      <trkpt lat="46.21343" lon="2.51647">
        <ele>374</ele>
        <time>2017-04-12T14:40:58Z</time>
      </trkpt>
      <trkpt lat="46.2134" lon="2.51645">
        <ele>374</ele>
        <time>2017-04-12T14:41:01Z</time>
      </trkpt>
      <trkpt lat="46.21336" lon="2.51643">
        <ele>375</ele>
        <time>2017-04-12T14:41:04Z</time>
      </trkpt>
      <trkpt lat="46.21332" lon="2.51642">
        <ele>375</ele>
        <time>2017-04-12T14:41:07Z</time>
      </trkpt>
      <trkpt lat="46.21328" lon="2.5164">
        <ele>375</ele>
        <time>2017-04-12T14:41:10Z</time>
      </trkpt>
      <trkpt lat="46.21324" lon="2.51638">
        <ele>375</ele>
        <time>2017-04-12T14:41:13Z</time>
      </trkpt>
      <trkpt lat="46.2132" lon="2.51636">
        <ele>375</ele>
        <time>2017-04-12T14:41:16Z</time>
      </trkpt>
      <trkpt lat="46.21317" lon="2.51633">
        <ele>375</ele>
        <time>2017-04-12T14:41:19Z</time>
      </trkpt>
      <trkpt lat="46.21313" lon="2.51631">
        <ele>375</ele>
        <time>2017-04-12T14:41:22Z</time>
      </trkpt>
      <trkpt lat="46.21309" lon="2.51629">
        <ele>375</ele>
        <time>2017-04-12T14:41:25Z</time>
      </trkpt>
      <trkpt lat="46.21305" lon="2.51628">
        <ele>375</ele>
        <time>2017-04-12T14:41:28Z</time>
      </trkpt>
      <trkpt lat="46.21301" lon="2.51626">
        <ele>375</ele>
        <time>2017-04-12T14:41:31Z</time>
      </trkpt>
      <trkpt lat="46.21297" lon="2.51623">
        <ele>375</ele>
        <time>2017-04-12T14:41:34Z</time>
      </trkpt>
      <trkpt lat="46.21293" lon="2.51621">
        <ele>375</ele>
        <time>2017-04-12T14:41:37Z</time>
      </trkpt>
      <trkpt lat="46.21289" lon="2.51619">
        <ele>375</ele>
        <time>2017-04-12T14:41:40Z</time>
      </trkpt>
      <trkpt lat="46.21285" lon="2.51616">
        <ele>375</ele>
        <time>2017-04-12T14:41:43Z</time>
      </trkpt>
      <trkpt lat="46.21281" lon="2.51614">
        <ele>375</ele>
        <time>2017-04-12T14:41:46Z</time>
      </trkpt>
      <trkpt lat="46.21278" lon="2.51612">
        <ele>375</ele>
        <time>2017-04-12T14:41:49Z</time>
      </trkpt>
      <trkpt lat="46.21274" lon="2.51611">
        <ele>375</ele>
        <time>2017-04-12T14:41:52Z</time>
      </trkpt>
      <trkpt lat="46.2127" lon="2.51609">
        <ele>375</ele>
        <time>2017-04-12T14:41:55Z</time>
      </trkpt>
      <trkpt lat="46.21266" lon="2.51607">
        <ele>375</ele>
        <time>2017-04-12T14:41:58Z</time>
      </trkpt>
      <trkpt lat="46.21262" lon="2.51605">
        <ele>375</ele>
        <time>2017-04-12T14:42:01Z</time>
      </trkpt>
      <trkpt lat="46.21258" lon="2.51603">
        <ele>375</ele>
        <time>2017-04-12T14:42:04Z</time>
      </trkpt>
      <trkpt lat="46.21254" lon="2.51601">
        <ele>375</ele>
        <time>2017-04-12T14:42:07Z</time>
      </trkpt>
      <trkpt lat="46.21251" lon="2.51599">
        <ele>375</ele>
        <time>2017-04-12T14:42:10Z</time>
      </trkpt>
      <trkpt lat="46.21246" lon="2.51597">
        <ele>375</ele>
        <time>2017-04-12T14:42:13Z</time>
      </trkpt>
      <trkpt lat="46.21243" lon="2.51595">
        <ele>375</ele>
        <time>2017-04-12T14:42:16Z</time>
      </trkpt>
      <trkpt lat="46.21239" lon="2.51593">
        <ele>375</ele>
        <time>2017-04-12T14:42:19Z</time>
      </trkpt>
      <trkpt lat="46.21236" lon="2.51591">
        <ele>375</ele>
        <time>2017-04-12T14:42:22Z</time>
      </trkpt>
      <trkpt lat="46.21233" lon="2.5159">
        <ele>375</ele>
        <time>2017-04-12T14:42:26Z</time>
      </trkpt>
      <trkpt lat="46.21232" lon="2.51589">
        <ele>375</ele>
        <time>2017-04-12T14:42:29Z</time>
      </trkpt>
      <trkpt lat="46.21231" lon="2.51589">
        <ele>375</ele>
        <time>2017-04-12T14:42:33Z</time>
      </trkpt>
      <trkpt lat="46.2123" lon="2.51589">
        <ele>375</ele>
        <time>2017-04-12T14:42:37Z</time>
      </trkpt>
      <trkpt lat="46.21226" lon="2.51587">
        <ele>375</ele>
        <time>2017-04-12T14:42:40Z</time>
      </trkpt>
      <trkpt lat="46.21223" lon="2.51586">
        <ele>375</ele>
        <time>2017-04-12T14:42:43Z</time>
      </trkpt>
      <trkpt lat="46.21219" lon="2.51584">
        <ele>375</ele>
        <time>2017-04-12T14:42:46Z</time>
      </trkpt>
      <trkpt lat="46.21215" lon="2.51582">
        <ele>375</ele>
        <time>2017-04-12T14:42:49Z</time>
      </trkpt>
      <trkpt lat="46.2121" lon="2.51579">
        <ele>375</ele>
        <time>2017-04-12T14:42:53Z</time>
      </trkpt>
      <trkpt lat="46.21209" lon="2.5158">
        <ele>372</ele>
        <time>2017-04-12T14:43:07Z</time>
      </trkpt>
      <trkpt lat="46.21206" lon="2.51578">
        <ele>372</ele>
        <time>2017-04-12T14:43:10Z</time>
      </trkpt>
      <trkpt lat="46.21202" lon="2.51577">
        <ele>372</ele>
        <time>2017-04-12T14:43:13Z</time>
      </trkpt>
      <trkpt lat="46.21198" lon="2.51575">
        <ele>372</ele>
        <time>2017-04-12T14:43:16Z</time>
      </trkpt>
      <trkpt lat="46.21194" lon="2.51573">
        <ele>372</ele>
        <time>2017-04-12T14:43:19Z</time>
      </trkpt>
      <trkpt lat="46.2119" lon="2.51571">
        <ele>372</ele>
        <time>2017-04-12T14:43:22Z</time>
      </trkpt>
      <trkpt lat="46.21186" lon="2.51569">
        <ele>372</ele>
        <time>2017-04-12T14:43:25Z</time>
      </trkpt>
      <trkpt lat="46.21183" lon="2.51567">
        <ele>373</ele>
        <time>2017-04-12T14:43:28Z</time>
      </trkpt>
      <trkpt lat="46.21179" lon="2.51564">
        <ele>373</ele>
        <time>2017-04-12T14:43:31Z</time>
      </trkpt>
      <trkpt lat="46.21176" lon="2.51563">
        <ele>373</ele>
        <time>2017-04-12T14:43:36Z</time>
      </trkpt>
      <trkpt lat="46.21175" lon="2.51563">
        <ele>373</ele>
        <time>2017-04-12T14:43:56Z</time>
      </trkpt>
      <trkpt lat="46.21171" lon="2.51561">
        <ele>373</ele>
        <time>2017-04-12T14:43:59Z</time>
      </trkpt>
      <trkpt lat="46.21167" lon="2.51559">
        <ele>373</ele>
        <time>2017-04-12T14:44:02Z</time>
      </trkpt>
      <trkpt lat="46.21163" lon="2.51557">
        <ele>373</ele>
        <time>2017-04-12T14:44:05Z</time>
      </trkpt>
      <trkpt lat="46.21159" lon="2.51555">
        <ele>373</ele>
        <time>2017-04-12T14:44:08Z</time>
      </trkpt>
      <trkpt lat="46.21154" lon="2.51552">
        <ele>373</ele>
        <time>2017-04-12T14:44:11Z</time>
      </trkpt>
      <trkpt lat="46.2115" lon="2.5155">
        <ele>373</ele>
        <time>2017-04-12T14:44:14Z</time>
      </trkpt>
      <trkpt lat="46.21146" lon="2.51546">
        <ele>373</ele>
        <time>2017-04-12T14:44:17Z</time>
      </trkpt>
      <trkpt lat="46.21142" lon="2.51544">
        <ele>373</ele>
        <time>2017-04-12T14:44:20Z</time>
      </trkpt>
      <trkpt lat="46.21138" lon="2.51541">
        <ele>373</ele>
        <time>2017-04-12T14:44:23Z</time>
      </trkpt>
      <trkpt lat="46.21134" lon="2.51538">
        <ele>373</ele>
        <time>2017-04-12T14:44:26Z</time>
      </trkpt>
      <trkpt lat="46.2113" lon="2.51535">
        <ele>373</ele>
        <time>2017-04-12T14:44:29Z</time>
      </trkpt>
      <trkpt lat="46.21127" lon="2.51532">
        <ele>373</ele>
        <time>2017-04-12T14:44:32Z</time>
      </trkpt>
      <trkpt lat="46.21122" lon="2.51529">
        <ele>373</ele>
        <time>2017-04-12T14:44:35Z</time>
      </trkpt>
      <trkpt lat="46.21119" lon="2.51526">
        <ele>373</ele>
        <time>2017-04-12T14:44:38Z</time>
      </trkpt>
      <trkpt lat="46.21114" lon="2.51523">
        <ele>375</ele>
        <time>2017-04-12T14:44:41Z</time>
      </trkpt>
      <trkpt lat="46.21111" lon="2.5152">
        <ele>375</ele>
        <time>2017-04-12T14:44:44Z</time>
      </trkpt>
      <trkpt lat="46.21107" lon="2.51516">
        <ele>376</ele>
        <time>2017-04-12T14:44:47Z</time>
      </trkpt>
      <trkpt lat="46.21103" lon="2.51513">
        <ele>377</ele>
        <time>2017-04-12T14:44:50Z</time>
      </trkpt>
      <trkpt lat="46.21098" lon="2.51509">
        <ele>377</ele>
        <time>2017-04-12T14:44:54Z</time>
      </trkpt>
      <trkpt lat="46.21094" lon="2.51505">
        <ele>377</ele>
        <time>2017-04-12T14:44:57Z</time>
      </trkpt>
      <trkpt lat="46.2109" lon="2.51502">
        <ele>377</ele>
        <time>2017-04-12T14:45:00Z</time>
      </trkpt>
      <trkpt lat="46.21086" lon="2.51499">
        <ele>377</ele>
        <time>2017-04-12T14:45:03Z</time>
      </trkpt>
      <trkpt lat="46.21082" lon="2.51495">
        <ele>377</ele>
        <time>2017-04-12T14:45:06Z</time>
      </trkpt>
      <trkpt lat="46.21078" lon="2.51493">
        <ele>378</ele>
        <time>2017-04-12T14:45:09Z</time>
      </trkpt>
      <trkpt lat="46.21074" lon="2.51488">
        <ele>378</ele>
        <time>2017-04-12T14:45:13Z</time>
      </trkpt>
      <trkpt lat="46.2107" lon="2.51484">
        <ele>378</ele>
        <time>2017-04-12T14:45:16Z</time>
      </trkpt>
      <trkpt lat="46.21066" lon="2.51481">
        <ele>378</ele>
        <time>2017-04-12T14:45:19Z</time>
      </trkpt>
      <trkpt lat="46.21063" lon="2.51478">
        <ele>378</ele>
        <time>2017-04-12T14:45:22Z</time>
      </trkpt>
      <trkpt lat="46.21059" lon="2.51474">
        <ele>378</ele>
        <time>2017-04-12T14:45:25Z</time>
      </trkpt>
      <trkpt lat="46.21055" lon="2.51471">
        <ele>378</ele>
        <time>2017-04-12T14:45:28Z</time>
      </trkpt>
      <trkpt lat="46.21051" lon="2.51469">
        <ele>378</ele>
        <time>2017-04-12T14:45:31Z</time>
      </trkpt>
      <trkpt lat="46.21047" lon="2.51465">
        <ele>378</ele>
        <time>2017-04-12T14:45:35Z</time>
      </trkpt>
      <trkpt lat="46.21044" lon="2.51462">
        <ele>378</ele>
        <time>2017-04-12T14:45:38Z</time>
      </trkpt>
      <trkpt lat="46.21041" lon="2.51461">
        <ele>378</ele>
        <time>2017-04-12T14:45:41Z</time>
      </trkpt>
      <trkpt lat="46.21038" lon="2.51463">
        <ele>378</ele>
        <time>2017-04-12T14:45:45Z</time>
      </trkpt>
      <trkpt lat="46.21036" lon="2.51465">
        <ele>378</ele>
        <time>2017-04-12T14:45:49Z</time>
      </trkpt>
      <trkpt lat="46.21036" lon="2.51466">
        <ele>378</ele>
        <time>2017-04-12T14:45:57Z</time>
      </trkpt>
      <trkpt lat="46.21036" lon="2.51464">
        <ele>378</ele>
        <time>2017-04-12T14:46:09Z</time>
      </trkpt>
      <trkpt lat="46.21034" lon="2.51459">
        <ele>378</ele>
        <time>2017-04-12T14:46:13Z</time>
      </trkpt>
      <trkpt lat="46.2103" lon="2.51456">
        <ele>378</ele>
        <time>2017-04-12T14:46:16Z</time>
      </trkpt>
      <trkpt lat="46.21026" lon="2.51453">
        <ele>378</ele>
        <time>2017-04-12T14:46:20Z</time>
      </trkpt>
      <trkpt lat="46.21024" lon="2.51452">
        <ele>378</ele>
        <time>2017-04-12T14:46:26Z</time>
      </trkpt>
      <trkpt lat="46.2102" lon="2.51448">
        <ele>378</ele>
        <time>2017-04-12T14:46:30Z</time>
      </trkpt>
      <trkpt lat="46.21016" lon="2.51445">
        <ele>378</ele>
        <time>2017-04-12T14:46:33Z</time>
      </trkpt>
      <trkpt lat="46.21013" lon="2.51442">
        <ele>378</ele>
        <time>2017-04-12T14:46:36Z</time>
      </trkpt>
      <trkpt lat="46.21009" lon="2.51437">
        <ele>378</ele>
        <time>2017-04-12T14:46:40Z</time>
      </trkpt>
      <trkpt lat="46.21005" lon="2.51434">
        <ele>378</ele>
        <time>2017-04-12T14:46:43Z</time>
      </trkpt>
      <trkpt lat="46.21002" lon="2.51431">
        <ele>378</ele>
        <time>2017-04-12T14:46:46Z</time>
      </trkpt>
      <trkpt lat="46.20998" lon="2.51429">
        <ele>378</ele>
        <time>2017-04-12T14:46:49Z</time>
      </trkpt>
      <trkpt lat="46.20995" lon="2.51426">
        <ele>378</ele>
        <time>2017-04-12T14:46:52Z</time>
      </trkpt>
      <trkpt lat="46.20991" lon="2.51424">
        <ele>378</ele>
        <time>2017-04-12T14:46:55Z</time>
      </trkpt>
      <trkpt lat="46.20987" lon="2.51421">
        <ele>378</ele>
        <time>2017-04-12T14:46:58Z</time>
      </trkpt>
      <trkpt lat="46.20983" lon="2.51417">
        <ele>379</ele>
        <time>2017-04-12T14:47:02Z</time>
      </trkpt>
      <trkpt lat="46.20979" lon="2.51416">
        <ele>379</ele>
        <time>2017-04-12T14:47:05Z</time>
      </trkpt>
      <trkpt lat="46.20975" lon="2.51415">
        <ele>379</ele>
        <time>2017-04-12T14:47:08Z</time>
      </trkpt>
      <trkpt lat="46.20971" lon="2.51413">
        <ele>379</ele>
        <time>2017-04-12T14:47:11Z</time>
      </trkpt>
      <trkpt lat="46.20967" lon="2.51411">
        <ele>379</ele>
        <time>2017-04-12T14:47:14Z</time>
      </trkpt>
      <trkpt lat="46.20963" lon="2.51409">
        <ele>379</ele>
        <time>2017-04-12T14:47:17Z</time>
      </trkpt>
      <trkpt lat="46.20959" lon="2.51408">
        <ele>379</ele>
        <time>2017-04-12T14:47:20Z</time>
      </trkpt>
      <trkpt lat="46.20955" lon="2.51407">
        <ele>379</ele>
        <time>2017-04-12T14:47:23Z</time>
      </trkpt>
      <trkpt lat="46.20951" lon="2.51406">
        <ele>380</ele>
        <time>2017-04-12T14:47:26Z</time>
      </trkpt>
      <trkpt lat="46.20948" lon="2.51405">
        <ele>380</ele>
        <time>2017-04-12T14:47:29Z</time>
      </trkpt>
      <trkpt lat="46.20944" lon="2.51405">
        <ele>380</ele>
        <time>2017-04-12T14:47:32Z</time>
      </trkpt>
      <trkpt lat="46.2094" lon="2.51404">
        <ele>380</ele>
        <time>2017-04-12T14:47:35Z</time>
      </trkpt>
      <trkpt lat="46.20936" lon="2.51403">
        <ele>380</ele>
        <time>2017-04-12T14:47:38Z</time>
      </trkpt>
      <trkpt lat="46.20932" lon="2.51402">
        <ele>380</ele>
        <time>2017-04-12T14:47:41Z</time>
      </trkpt>
      <trkpt lat="46.20928" lon="2.51401">
        <ele>380</ele>
        <time>2017-04-12T14:47:44Z</time>
      </trkpt>
      <trkpt lat="46.20924" lon="2.514">
        <ele>380</ele>
        <time>2017-04-12T14:47:47Z</time>
      </trkpt>
      <trkpt lat="46.2092" lon="2.51399">
        <ele>380</ele>
        <time>2017-04-12T14:47:50Z</time>
      </trkpt>
      <trkpt lat="46.20916" lon="2.51399">
        <ele>380</ele>
        <time>2017-04-12T14:47:53Z</time>
      </trkpt>
      <trkpt lat="46.20913" lon="2.51398">
        <ele>380</ele>
        <time>2017-04-12T14:47:56Z</time>
      </trkpt>
      <trkpt lat="46.20908" lon="2.51397">
        <ele>380</ele>
        <time>2017-04-12T14:47:59Z</time>
      </trkpt>
      <trkpt lat="46.20905" lon="2.51396">
        <ele>380</ele>
        <time>2017-04-12T14:48:02Z</time>
      </trkpt>
      <trkpt lat="46.209" lon="2.51396">
        <ele>380</ele>
        <time>2017-04-12T14:48:05Z</time>
      </trkpt>
      <trkpt lat="46.20896" lon="2.51395">
        <ele>380</ele>
        <time>2017-04-12T14:48:08Z</time>
      </trkpt>
      <trkpt lat="46.20892" lon="2.51394">
        <ele>380</ele>
        <time>2017-04-12T14:48:11Z</time>
      </trkpt>
      <trkpt lat="46.20887" lon="2.51393">
        <ele>380</ele>
        <time>2017-04-12T14:48:14Z</time>
      </trkpt>
      <trkpt lat="46.20883" lon="2.51392">
        <ele>381</ele>
        <time>2017-04-12T14:48:17Z</time>
      </trkpt>
      <trkpt lat="46.20879" lon="2.51391">
        <ele>381</ele>
        <time>2017-04-12T14:48:20Z</time>
      </trkpt>
      <trkpt lat="46.20875" lon="2.51389">
        <ele>382</ele>
        <time>2017-04-12T14:48:23Z</time>
      </trkpt>
      <trkpt lat="46.20871" lon="2.51388">
        <ele>382</ele>
        <time>2017-04-12T14:48:26Z</time>
      </trkpt>
      <trkpt lat="46.20867" lon="2.51387">
        <ele>383</ele>
        <time>2017-04-12T14:48:29Z</time>
      </trkpt>
      <trkpt lat="46.20863" lon="2.51386">
        <ele>383</ele>
        <time>2017-04-12T14:48:32Z</time>
      </trkpt>
      <trkpt lat="46.20859" lon="2.51384">
        <ele>384</ele>
        <time>2017-04-12T14:48:35Z</time>
      </trkpt>
      <trkpt lat="46.20855" lon="2.51383">
        <ele>384</ele>
        <time>2017-04-12T14:48:38Z</time>
      </trkpt>
      <trkpt lat="46.20851" lon="2.51382">
        <ele>385</ele>
        <time>2017-04-12T14:48:41Z</time>
      </trkpt>
      <trkpt lat="46.20847" lon="2.5138">
        <ele>385</ele>
        <time>2017-04-12T14:48:44Z</time>
      </trkpt>
      <trkpt lat="46.20843" lon="2.51379">
        <ele>385</ele>
        <time>2017-04-12T14:48:47Z</time>
      </trkpt>
      <trkpt lat="46.20839" lon="2.51377">
        <ele>385</ele>
        <time>2017-04-12T14:48:50Z</time>
      </trkpt>
      <trkpt lat="46.20835" lon="2.51375">
        <ele>385</ele>
        <time>2017-04-12T14:48:53Z</time>
      </trkpt>
      <trkpt lat="46.20832" lon="2.51373">
        <ele>386</ele>
        <time>2017-04-12T14:48:56Z</time>
      </trkpt>
      <trkpt lat="46.20829" lon="2.51372">
        <ele>386</ele>
        <time>2017-04-12T14:49:00Z</time>
      </trkpt>
      <trkpt lat="46.20824" lon="2.5137">
        <ele>386</ele>
        <time>2017-04-12T14:49:03Z</time>
      </trkpt>
      <trkpt lat="46.2082" lon="2.51368">
        <ele>386</ele>
        <time>2017-04-12T14:49:06Z</time>
      </trkpt>
      <trkpt lat="46.20816" lon="2.51366">
        <ele>387</ele>
        <time>2017-04-12T14:49:09Z</time>
      </trkpt>
      <trkpt lat="46.20813" lon="2.51364">
        <ele>388</ele>
        <time>2017-04-12T14:49:12Z</time>
      </trkpt>
      <trkpt lat="46.20809" lon="2.51361">
        <ele>388</ele>
        <time>2017-04-12T14:49:16Z</time>
      </trkpt>
      <trkpt lat="46.20805" lon="2.51359">
        <ele>388</ele>
        <time>2017-04-12T14:49:19Z</time>
      </trkpt>
      <trkpt lat="46.20802" lon="2.51358">
        <ele>388</ele>
        <time>2017-04-12T14:49:22Z</time>
      </trkpt>
      <trkpt lat="46.20798" lon="2.51354">
        <ele>388</ele>
        <time>2017-04-12T14:49:26Z</time>
      </trkpt>
      <trkpt lat="46.20794" lon="2.51353">
        <ele>389</ele>
        <time>2017-04-12T14:49:29Z</time>
      </trkpt>
      <trkpt lat="46.2079" lon="2.51351">
        <ele>390</ele>
        <time>2017-04-12T14:49:32Z</time>
      </trkpt>
      <trkpt lat="46.20787" lon="2.51349">
        <ele>390</ele>
        <time>2017-04-12T14:49:35Z</time>
      </trkpt>
      <trkpt lat="46.20782" lon="2.51348">
        <ele>390</ele>
        <time>2017-04-12T14:49:38Z</time>
      </trkpt>
      <trkpt lat="46.20779" lon="2.51345">
        <ele>390</ele>
        <time>2017-04-12T14:49:41Z</time>
      </trkpt>
      <trkpt lat="46.20776" lon="2.51343">
        <ele>390</ele>
        <time>2017-04-12T14:49:44Z</time>
      </trkpt>
      <trkpt lat="46.20773" lon="2.5134">
        <ele>390</ele>
        <time>2017-04-12T14:49:47Z</time>
      </trkpt>
      <trkpt lat="46.20769" lon="2.51337">
        <ele>390</ele>
        <time>2017-04-12T14:49:50Z</time>
      </trkpt>
      <trkpt lat="46.20765" lon="2.51335">
        <ele>390</ele>
        <time>2017-04-12T14:49:53Z</time>
      </trkpt>
      <trkpt lat="46.20761" lon="2.51334">
        <ele>390</ele>
        <time>2017-04-12T14:49:56Z</time>
      </trkpt>
      <trkpt lat="46.20756" lon="2.51332">
        <ele>390</ele>
        <time>2017-04-12T14:50:00Z</time>
      </trkpt>
      <trkpt lat="46.20752" lon="2.51332">
        <ele>390</ele>
        <time>2017-04-12T14:50:03Z</time>
      </trkpt>
      <trkpt lat="46.2075" lon="2.5133">
        <ele>390</ele>
        <time>2017-04-12T14:50:07Z</time>
      </trkpt>
      <trkpt lat="46.20746" lon="2.51329">
        <ele>390</ele>
        <time>2017-04-12T14:50:10Z</time>
      </trkpt>
      <trkpt lat="46.20742" lon="2.51328">
        <ele>391</ele>
        <time>2017-04-12T14:50:13Z</time>
      </trkpt>
      <trkpt lat="46.20738" lon="2.51326">
        <ele>391</ele>
        <time>2017-04-12T14:50:16Z</time>
      </trkpt>
      <trkpt lat="46.20734" lon="2.51324">
        <ele>392</ele>
        <time>2017-04-12T14:50:19Z</time>
      </trkpt>
      <trkpt lat="46.2073" lon="2.51323">
        <ele>392</ele>
        <time>2017-04-12T14:50:22Z</time>
      </trkpt>
      <trkpt lat="46.20726" lon="2.51322">
        <ele>392</ele>
        <time>2017-04-12T14:50:25Z</time>
      </trkpt>
      <trkpt lat="46.20723" lon="2.5132">
        <ele>392</ele>
        <time>2017-04-12T14:50:28Z</time>
      </trkpt>
      <trkpt lat="46.20718" lon="2.51318">
        <ele>392</ele>
        <time>2017-04-12T14:50:31Z</time>
      </trkpt>
      <trkpt lat="46.20715" lon="2.51316">
        <ele>393</ele>
        <time>2017-04-12T14:50:34Z</time>
      </trkpt>
      <trkpt lat="46.2071" lon="2.51314">
        <ele>393</ele>
        <time>2017-04-12T14:50:38Z</time>
      </trkpt>
      <trkpt lat="46.20706" lon="2.51313">
        <ele>393</ele>
        <time>2017-04-12T14:50:41Z</time>
      </trkpt>
      <trkpt lat="46.20703" lon="2.5131">
        <ele>393</ele>
        <time>2017-04-12T14:50:45Z</time>
      </trkpt>
      <trkpt lat="46.20699" lon="2.51308">
        <ele>393</ele>
        <time>2017-04-12T14:50:49Z</time>
      </trkpt>
      <trkpt lat="46.20696" lon="2.51307">
        <ele>393</ele>
        <time>2017-04-12T14:50:53Z</time>
      </trkpt>
      <trkpt lat="46.20692" lon="2.51305">
        <ele>393</ele>
        <time>2017-04-12T14:50:57Z</time>
      </trkpt>
      <trkpt lat="46.20688" lon="2.51303">
        <ele>393</ele>
        <time>2017-04-12T14:51:00Z</time>
      </trkpt>
      <trkpt lat="46.20684" lon="2.513">
        <ele>393</ele>
        <time>2017-04-12T14:51:03Z</time>
      </trkpt>
      <trkpt lat="46.20681" lon="2.51298">
        <ele>393</ele>
        <time>2017-04-12T14:51:06Z</time>
      </trkpt>
      <trkpt lat="46.20677" lon="2.51297">
        <ele>394</ele>
        <time>2017-04-12T14:51:09Z</time>
      </trkpt>
      <trkpt lat="46.20673" lon="2.51295">
        <ele>395</ele>
        <time>2017-04-12T14:51:12Z</time>
      </trkpt>
      <trkpt lat="46.2067" lon="2.51293">
        <ele>396</ele>
        <time>2017-04-12T14:51:15Z</time>
      </trkpt>
      <trkpt lat="46.20666" lon="2.51291">
        <ele>397</ele>
        <time>2017-04-12T14:51:18Z</time>
      </trkpt>
      <trkpt lat="46.20662" lon="2.5129">
        <ele>399</ele>
        <time>2017-04-12T14:51:21Z</time>
      </trkpt>
      <trkpt lat="46.20659" lon="2.51287">
        <ele>401</ele>
        <time>2017-04-12T14:51:24Z</time>
      </trkpt>
      <trkpt lat="46.20655" lon="2.51286">
        <ele>403</ele>
        <time>2017-04-12T14:51:27Z</time>
      </trkpt>
      <trkpt lat="46.20651" lon="2.51284">
        <ele>405</ele>
        <time>2017-04-12T14:51:30Z</time>
      </trkpt>
      <trkpt lat="46.20647" lon="2.51281">
        <ele>405</ele>
        <time>2017-04-12T14:51:33Z</time>
      </trkpt>
      <trkpt lat="46.20643" lon="2.51279">
        <ele>406</ele>
        <time>2017-04-12T14:51:36Z</time>
      </trkpt>
      <trkpt lat="46.20639" lon="2.51277">
        <ele>407</ele>
        <time>2017-04-12T14:51:39Z</time>
      </trkpt>
      <trkpt lat="46.20636" lon="2.51275">
        <ele>408</ele>
        <time>2017-04-12T14:51:42Z</time>
      </trkpt>
      <trkpt lat="46.20632" lon="2.51273">
        <ele>409</ele>
        <time>2017-04-12T14:51:45Z</time>
      </trkpt>
      <trkpt lat="46.20628" lon="2.51269">
        <ele>410</ele>
        <time>2017-04-12T14:51:49Z</time>
      </trkpt>
      <trkpt lat="46.20628" lon="2.51266">
        <ele>411</ele>
        <time>2017-04-12T14:51:54Z</time>
      </trkpt>
      <trkpt lat="46.20629" lon="2.51264">
        <ele>411</ele>
        <time>2017-04-12T14:51:57Z</time>
      </trkpt>
      <trkpt lat="46.2063" lon="2.51262">
        <ele>407</ele>
        <time>2017-04-12T14:52:01Z</time>
      </trkpt>
      <trkpt lat="46.2063" lon="2.5126">
        <ele>404</ele>
        <time>2017-04-12T14:52:04Z</time>
      </trkpt>
      <trkpt lat="46.20634" lon="2.51256">
        <ele>402</ele>
        <time>2017-04-12T14:52:08Z</time>
      </trkpt>
      <trkpt lat="46.20638" lon="2.5125">
        <ele>402</ele>
        <time>2017-04-12T14:52:12Z</time>
      </trkpt>
      <trkpt lat="46.20641" lon="2.51246">
        <ele>402</ele>
        <time>2017-04-12T14:52:15Z</time>
      </trkpt>
      <trkpt lat="46.20644" lon="2.5124">
        <ele>402</ele>
        <time>2017-04-12T14:52:19Z</time>
      </trkpt>
      <trkpt lat="46.20647" lon="2.51236">
        <ele>402</ele>
        <time>2017-04-12T14:52:22Z</time>
      </trkpt>
      <trkpt lat="46.2065" lon="2.51231">
        <ele>402</ele>
        <time>2017-04-12T14:52:25Z</time>
      </trkpt>
      <trkpt lat="46.20652" lon="2.51226">
        <ele>402</ele>
        <time>2017-04-12T14:52:28Z</time>
      </trkpt>
      <trkpt lat="46.20655" lon="2.51221">
        <ele>402</ele>
        <time>2017-04-12T14:52:31Z</time>
      </trkpt>
      <trkpt lat="46.20657" lon="2.51216">
        <ele>402</ele>
        <time>2017-04-12T14:52:34Z</time>
      </trkpt>
      <trkpt lat="46.2066" lon="2.51211">
        <ele>402</ele>
        <time>2017-04-12T14:52:37Z</time>
      </trkpt>
      <trkpt lat="46.20663" lon="2.51206">
        <ele>402</ele>
        <time>2017-04-12T14:52:40Z</time>
      </trkpt>
      <trkpt lat="46.20665" lon="2.51202">
        <ele>402</ele>
        <time>2017-04-12T14:52:43Z</time>
      </trkpt>
      <trkpt lat="46.20668" lon="2.51197">
        <ele>402</ele>
        <time>2017-04-12T14:52:46Z</time>
      </trkpt>
      <trkpt lat="46.2067" lon="2.51192">
        <ele>400</ele>
        <time>2017-04-12T14:52:49Z</time>
      </trkpt>
      <trkpt lat="46.20673" lon="2.51187">
        <ele>400</ele>
        <time>2017-04-12T14:52:52Z</time>
      </trkpt>
      <trkpt lat="46.20675" lon="2.51183">
        <ele>400</ele>
        <time>2017-04-12T14:52:55Z</time>
      </trkpt>
      <trkpt lat="46.20677" lon="2.51179">
        <ele>399</ele>
        <time>2017-04-12T14:52:58Z</time>
      </trkpt>
      <trkpt lat="46.2068" lon="2.51174">
        <ele>399</ele>
        <time>2017-04-12T14:53:01Z</time>
      </trkpt>
      <trkpt lat="46.20681" lon="2.51168">
        <ele>399</ele>
        <time>2017-04-12T14:53:04Z</time>
      </trkpt>
      <trkpt lat="46.20685" lon="2.51162">
        <ele>399</ele>
        <time>2017-04-12T14:53:08Z</time>
      </trkpt>
      <trkpt lat="46.20689" lon="2.51156">
        <ele>399</ele>
        <time>2017-04-12T14:53:12Z</time>
      </trkpt>
      <trkpt lat="46.20693" lon="2.51151">
        <ele>399</ele>
        <time>2017-04-12T14:53:16Z</time>
      </trkpt>
      <trkpt lat="46.20697" lon="2.51147">
        <ele>399</ele>
        <time>2017-04-12T14:53:19Z</time>
      </trkpt>
      <trkpt lat="46.207" lon="2.51144">
        <ele>399</ele>
        <time>2017-04-12T14:53:22Z</time>
      </trkpt>
      <trkpt lat="46.20703" lon="2.5114">
        <ele>399</ele>
        <time>2017-04-12T14:53:25Z</time>
      </trkpt>
      <trkpt lat="46.20707" lon="2.51135">
        <ele>399</ele>
        <time>2017-04-12T14:53:29Z</time>
      </trkpt>
      <trkpt lat="46.2071" lon="2.51132">
        <ele>398</ele>
        <time>2017-04-12T14:53:32Z</time>
      </trkpt>
      <trkpt lat="46.20715" lon="2.51126">
        <ele>398</ele>
        <time>2017-04-12T14:53:36Z</time>
      </trkpt>
      <trkpt lat="46.20719" lon="2.5112">
        <ele>398</ele>
        <time>2017-04-12T14:53:40Z</time>
      </trkpt>
      <trkpt lat="46.20723" lon="2.51115">
        <ele>397</ele>
        <time>2017-04-12T14:53:44Z</time>
      </trkpt>
      <trkpt lat="46.20727" lon="2.51109">
        <ele>396</ele>
        <time>2017-04-12T14:53:48Z</time>
      </trkpt>
      <trkpt lat="46.20731" lon="2.51103">
        <ele>396</ele>
        <time>2017-04-12T14:53:52Z</time>
      </trkpt>
      <trkpt lat="46.20734" lon="2.51098">
        <ele>395</ele>
        <time>2017-04-12T14:53:55Z</time>
      </trkpt>
      <trkpt lat="46.20737" lon="2.51092">
        <ele>394</ele>
        <time>2017-04-12T14:53:59Z</time>
      </trkpt>
      <trkpt lat="46.20741" lon="2.51089">
        <ele>393</ele>
        <time>2017-04-12T14:54:02Z</time>
      </trkpt>
      <trkpt lat="46.20744" lon="2.51086">
        <ele>393</ele>
        <time>2017-04-12T14:54:05Z</time>
      </trkpt>
      <trkpt lat="46.20748" lon="2.5108">
        <ele>393</ele>
        <time>2017-04-12T14:54:09Z</time>
      </trkpt>
      <trkpt lat="46.20752" lon="2.51075">
        <ele>392</ele>
        <time>2017-04-12T14:54:13Z</time>
      </trkpt>
      <trkpt lat="46.20754" lon="2.51069">
        <ele>390</ele>
        <time>2017-04-12T14:54:16Z</time>
      </trkpt>
      <trkpt lat="46.20757" lon="2.51064">
        <ele>390</ele>
        <time>2017-04-12T14:54:19Z</time>
      </trkpt>
      <trkpt lat="46.2076" lon="2.51061">
        <ele>389</ele>
        <time>2017-04-12T14:54:22Z</time>
      </trkpt>
      <trkpt lat="46.20762" lon="2.51057">
        <ele>389</ele>
        <time>2017-04-12T14:54:25Z</time>
      </trkpt>
      <trkpt lat="46.20766" lon="2.51053">
        <ele>389</ele>
        <time>2017-04-12T14:54:28Z</time>
      </trkpt>
      <trkpt lat="46.20769" lon="2.51049">
        <ele>389</ele>
        <time>2017-04-12T14:54:31Z</time>
      </trkpt>
      <trkpt lat="46.20773" lon="2.51045">
        <ele>389</ele>
        <time>2017-04-12T14:54:34Z</time>
      </trkpt>
      <trkpt lat="46.20776" lon="2.5104">
        <ele>388</ele>
        <time>2017-04-12T14:54:37Z</time>
      </trkpt>
      <trkpt lat="46.20779" lon="2.51036">
        <ele>386</ele>
        <time>2017-04-12T14:54:40Z</time>
      </trkpt>
      <trkpt lat="46.20782" lon="2.51033">
        <ele>386</ele>
        <time>2017-04-12T14:54:43Z</time>
      </trkpt>
      <trkpt lat="46.20786" lon="2.5103">
        <ele>385</ele>
        <time>2017-04-12T14:54:46Z</time>
      </trkpt>
      <trkpt lat="46.20789" lon="2.51026">
        <ele>384</ele>
        <time>2017-04-12T14:54:49Z</time>
      </trkpt>
      <trkpt lat="46.20793" lon="2.51021">
        <ele>383</ele>
        <time>2017-04-12T14:54:52Z</time>
      </trkpt>
      <trkpt lat="46.20796" lon="2.51018">
        <ele>382</ele>
        <time>2017-04-12T14:54:55Z</time>
      </trkpt>
      <trkpt lat="46.208" lon="2.51014">
        <ele>381</ele>
        <time>2017-04-12T14:54:58Z</time>
      </trkpt>
      <trkpt lat="46.20803" lon="2.51011">
        <ele>380</ele>
        <time>2017-04-12T14:55:01Z</time>
      </trkpt>
      <trkpt lat="46.20807" lon="2.51007">
        <ele>380</ele>
        <time>2017-04-12T14:55:04Z</time>
      </trkpt>
      <trkpt lat="46.20812" lon="2.51003">
        <ele>380</ele>
        <time>2017-04-12T14:55:08Z</time>
      </trkpt>
      <trkpt lat="46.20815" lon="2.50998">
        <ele>379</ele>
        <time>2017-04-12T14:55:11Z</time>
      </trkpt>
      <trkpt lat="46.20819" lon="2.50994">
        <ele>379</ele>
        <time>2017-04-12T14:55:14Z</time>
      </trkpt>
      <trkpt lat="46.20822" lon="2.5099">
        <ele>379</ele>
        <time>2017-04-12T14:55:17Z</time>
      </trkpt>
      <trkpt lat="46.20825" lon="2.50985">
        <ele>379</ele>
        <time>2017-04-12T14:55:20Z</time>
      </trkpt>
      <trkpt lat="46.20828" lon="2.5098">
        <ele>379</ele>
        <time>2017-04-12T14:55:23Z</time>
      </trkpt>
      <trkpt lat="46.20832" lon="2.50976">
        <ele>379</ele>
        <time>2017-04-12T14:55:26Z</time>
      </trkpt>
      <trkpt lat="46.20835" lon="2.50973">
        <ele>378</ele>
        <time>2017-04-12T14:55:29Z</time>
      </trkpt>
      <trkpt lat="46.2084" lon="2.50968">
        <ele>378</ele>
        <time>2017-04-12T14:55:33Z</time>
      </trkpt>
      <trkpt lat="46.20844" lon="2.50962">
        <ele>378</ele>
        <time>2017-04-12T14:55:36Z</time>
      </trkpt>
      <trkpt lat="46.20847" lon="2.50958">
        <ele>378</ele>
        <time>2017-04-12T14:55:39Z</time>
      </trkpt>
      <trkpt lat="46.20851" lon="2.50953">
        <ele>378</ele>
        <time>2017-04-12T14:55:42Z</time>
      </trkpt>
      <trkpt lat="46.20855" lon="2.50949">
        <ele>378</ele>
        <time>2017-04-12T14:55:45Z</time>
      </trkpt>
      <trkpt lat="46.20858" lon="2.50945">
        <ele>378</ele>
        <time>2017-04-12T14:55:48Z</time>
      </trkpt>
      <trkpt lat="46.20861" lon="2.50941">
        <ele>378</ele>
        <time>2017-04-12T14:55:51Z</time>
      </trkpt>
      <trkpt lat="46.20865" lon="2.50937">
        <ele>378</ele>
        <time>2017-04-12T14:55:54Z</time>
      </trkpt>
      <trkpt lat="46.20869" lon="2.50934">
        <ele>378</ele>
        <time>2017-04-12T14:55:57Z</time>
      </trkpt>
      <trkpt lat="46.20872" lon="2.5093">
        <ele>378</ele>
        <time>2017-04-12T14:56:00Z</time>
      </trkpt>
      <trkpt lat="46.20876" lon="2.50926">
        <ele>378</ele>
        <time>2017-04-12T14:56:03Z</time>
      </trkpt>
      <trkpt lat="46.20881" lon="2.50921">
        <ele>378</ele>
        <time>2017-04-12T14:56:06Z</time>
      </trkpt>
      <trkpt lat="46.20884" lon="2.50917">
        <ele>378</ele>
        <time>2017-04-12T14:56:09Z</time>
      </trkpt>
      <trkpt lat="46.20888" lon="2.50912">
        <ele>377</ele>
        <time>2017-04-12T14:56:13Z</time>
      </trkpt>
      <trkpt lat="46.20891" lon="2.50906">
        <ele>375</ele>
        <time>2017-04-12T14:56:16Z</time>
      </trkpt>
      <trkpt lat="46.20895" lon="2.50902">
        <ele>375</ele>
        <time>2017-04-12T14:56:19Z</time>
      </trkpt>
      <trkpt lat="46.20898" lon="2.50898">
        <ele>374</ele>
        <time>2017-04-12T14:56:22Z</time>
      </trkpt>
      <trkpt lat="46.20901" lon="2.50893">
        <ele>373</ele>
        <time>2017-04-12T14:56:25Z</time>
      </trkpt>
      <trkpt lat="46.20904" lon="2.50889">
        <ele>372</ele>
        <time>2017-04-12T14:56:28Z</time>
      </trkpt>
      <trkpt lat="46.20907" lon="2.50885">
        <ele>371</ele>
        <time>2017-04-12T14:56:31Z</time>
      </trkpt>
      <trkpt lat="46.2091" lon="2.5088">
        <ele>369</ele>
        <time>2017-04-12T14:56:34Z</time>
      </trkpt>
      <trkpt lat="46.20913" lon="2.50875">
        <ele>369</ele>
        <time>2017-04-12T14:56:37Z</time>
      </trkpt>
      <trkpt lat="46.20916" lon="2.50869">
        <ele>369</ele>
        <time>2017-04-12T14:56:40Z</time>
      </trkpt>
      <trkpt lat="46.20919" lon="2.50863">
        <ele>369</ele>
        <time>2017-04-12T14:56:44Z</time>
      </trkpt>
      <trkpt lat="46.20923" lon="2.50857">
        <ele>369</ele>
        <time>2017-04-12T14:56:47Z</time>
      </trkpt>
      <trkpt lat="46.20927" lon="2.50851">
        <ele>369</ele>
        <time>2017-04-12T14:56:50Z</time>
      </trkpt>
      <trkpt lat="46.20929" lon="2.50848">
        <ele>369</ele>
        <time>2017-04-12T14:56:53Z</time>
      </trkpt>
      <trkpt lat="46.20932" lon="2.50844">
        <ele>369</ele>
        <time>2017-04-12T14:56:56Z</time>
      </trkpt>
      <trkpt lat="46.20937" lon="2.5084">
        <ele>369</ele>
        <time>2017-04-12T14:57:00Z</time>
      </trkpt>
      <trkpt lat="46.2094" lon="2.50835">
        <ele>369</ele>
        <time>2017-04-12T14:57:03Z</time>
      </trkpt>
      <trkpt lat="46.20943" lon="2.5083">
        <ele>369</ele>
        <time>2017-04-12T14:57:06Z</time>
      </trkpt>
      <trkpt lat="46.20946" lon="2.50826">
        <ele>369</ele>
        <time>2017-04-12T14:57:09Z</time>
      </trkpt>
      <trkpt lat="46.20949" lon="2.50821">
        <ele>369</ele>
        <time>2017-04-12T14:57:12Z</time>
      </trkpt>
      <trkpt lat="46.20953" lon="2.50816">
        <ele>369</ele>
        <time>2017-04-12T14:57:15Z</time>
      </trkpt>
      <trkpt lat="46.20956" lon="2.50811">
        <ele>369</ele>
        <time>2017-04-12T14:57:18Z</time>
      </trkpt>
      <trkpt lat="46.20961" lon="2.50806">
        <ele>369</ele>
        <time>2017-04-12T14:57:22Z</time>
      </trkpt>
      <trkpt lat="46.20964" lon="2.50801">
        <ele>369</ele>
        <time>2017-04-12T14:57:25Z</time>
      </trkpt>
      <trkpt lat="46.20967" lon="2.50798">
        <ele>369</ele>
        <time>2017-04-12T14:57:28Z</time>
      </trkpt>
      <trkpt lat="46.2097" lon="2.50794">
        <ele>369</ele>
        <time>2017-04-12T14:57:31Z</time>
      </trkpt>
      <trkpt lat="46.20972" lon="2.5079">
        <ele>369</ele>
        <time>2017-04-12T14:57:34Z</time>
      </trkpt>
      <trkpt lat="46.20976" lon="2.50785">
        <ele>366</ele>
        <time>2017-04-12T14:57:38Z</time>
      </trkpt>
      <trkpt lat="46.2098" lon="2.50781">
        <ele>364</ele>
        <time>2017-04-12T14:57:42Z</time>
      </trkpt>
      <trkpt lat="46.20983" lon="2.50776">
        <ele>364</ele>
        <time>2017-04-12T14:57:45Z</time>
      </trkpt>
      <trkpt lat="46.20987" lon="2.50772">
        <ele>364</ele>
        <time>2017-04-12T14:57:49Z</time>
      </trkpt>
      <trkpt lat="46.20991" lon="2.50768">
        <ele>364</ele>
        <time>2017-04-12T14:57:53Z</time>
      </trkpt>
      <trkpt lat="46.20992" lon="2.50767">
        <ele>364</ele>
        <time>2017-04-12T14:57:55Z</time>
      </trkpt>
    </trkseg>
  </trk>
</gpx>